<?xml version="1.0" encoding="UTF-8" standalone="no" ?>
<gpx xmlns="http://www.topografix.com/GPX/1/1" xmlns:xsi="http://www.w3.org/2001/XMLSchema-instance" xsi:schemaLocation="http://www.topografix.com/GPX/1/1 http://www.topografix.com/GPX/1/1/gpx.xsd" version="1.1" creator="VisuGPX - https://www.visugpx.com">
  <metadata>
    <name>Randonnée du 8 mai 2011</name>
    <desc><![CDATA[Randonnée autour de la Kreutzeck de SPICHEREN]]></desc>
  </metadata>
  <trk>
    <name><![CDATA[Randonnée du 8 mai 2011_1]]></name>
    <trkseg>
      <trkpt lat="49.19097" lon="6.96483">
        <ele>313</ele>
        <time>2011-05-08T05:58:26Z</time>
      </trkpt>
      <trkpt lat="49.19095" lon="6.96441">
        <ele>313</ele>
        <time>2011-05-08T06:02:30Z</time>
      </trkpt>
      <trkpt lat="49.19094" lon="6.96439">
        <ele>312</ele>
        <time>2011-05-08T06:02:32Z</time>
      </trkpt>
      <trkpt lat="49.19092" lon="6.96437">
        <ele>312</ele>
        <time>2011-05-08T06:02:34Z</time>
      </trkpt>
      <trkpt lat="49.19091" lon="6.96435">
        <ele>312</ele>
        <time>2011-05-08T06:02:36Z</time>
      </trkpt>
      <trkpt lat="49.19089" lon="6.96434">
        <ele>312</ele>
        <time>2011-05-08T06:02:38Z</time>
      </trkpt>
      <trkpt lat="49.19088" lon="6.96432">
        <ele>312</ele>
        <time>2011-05-08T06:02:40Z</time>
      </trkpt>
      <trkpt lat="49.19086" lon="6.9643">
        <ele>312</ele>
        <time>2011-05-08T06:02:42Z</time>
      </trkpt>
      <trkpt lat="49.19085" lon="6.96429">
        <ele>312</ele>
        <time>2011-05-08T06:02:44Z</time>
      </trkpt>
      <trkpt lat="49.19084" lon="6.96428">
        <ele>312</ele>
        <time>2011-05-08T06:02:51Z</time>
      </trkpt>
      <trkpt lat="49.19083" lon="6.96427">
        <ele>312</ele>
        <time>2011-05-08T06:03:06Z</time>
      </trkpt>
      <trkpt lat="49.19081" lon="6.96426">
        <ele>312</ele>
        <time>2011-05-08T06:03:10Z</time>
      </trkpt>
      <trkpt lat="49.19081" lon="6.96424">
        <ele>312</ele>
        <time>2011-05-08T06:03:18Z</time>
      </trkpt>
      <trkpt lat="49.19079" lon="6.96424">
        <ele>312</ele>
        <time>2011-05-08T06:03:20Z</time>
      </trkpt>
      <trkpt lat="49.19077" lon="6.96422">
        <ele>312</ele>
        <time>2011-05-08T06:03:22Z</time>
      </trkpt>
      <trkpt lat="49.19075" lon="6.96421">
        <ele>312</ele>
        <time>2011-05-08T06:03:24Z</time>
      </trkpt>
      <trkpt lat="49.19073" lon="6.96419">
        <ele>312</ele>
        <time>2011-05-08T06:03:26Z</time>
      </trkpt>
      <trkpt lat="49.19071" lon="6.96418">
        <ele>312</ele>
        <time>2011-05-08T06:03:28Z</time>
      </trkpt>
      <trkpt lat="49.19069" lon="6.96416">
        <ele>312</ele>
        <time>2011-05-08T06:03:30Z</time>
      </trkpt>
      <trkpt lat="49.19067" lon="6.96414">
        <ele>312</ele>
        <time>2011-05-08T06:03:32Z</time>
      </trkpt>
      <trkpt lat="49.19065" lon="6.96411">
        <ele>312</ele>
        <time>2011-05-08T06:03:34Z</time>
      </trkpt>
      <trkpt lat="49.19063" lon="6.96408">
        <ele>313</ele>
        <time>2011-05-08T06:03:36Z</time>
      </trkpt>
      <trkpt lat="49.19062" lon="6.96406">
        <ele>313</ele>
        <time>2011-05-08T06:03:37Z</time>
      </trkpt>
      <trkpt lat="49.19062" lon="6.96404">
        <ele>314</ele>
        <time>2011-05-08T06:03:38Z</time>
      </trkpt>
      <trkpt lat="49.19062" lon="6.96403">
        <ele>315</ele>
        <time>2011-05-08T06:03:39Z</time>
      </trkpt>
      <trkpt lat="49.19061" lon="6.964">
        <ele>315</ele>
        <time>2011-05-08T06:03:40Z</time>
      </trkpt>
      <trkpt lat="49.19061" lon="6.96398">
        <ele>316</ele>
        <time>2011-05-08T06:03:41Z</time>
      </trkpt>
      <trkpt lat="49.1906" lon="6.96396">
        <ele>316</ele>
        <time>2011-05-08T06:03:42Z</time>
      </trkpt>
      <trkpt lat="49.1906" lon="6.96394">
        <ele>316</ele>
        <time>2011-05-08T06:03:43Z</time>
      </trkpt>
      <trkpt lat="49.1906" lon="6.96392">
        <ele>316</ele>
        <time>2011-05-08T06:03:44Z</time>
      </trkpt>
      <trkpt lat="49.19059" lon="6.96389">
        <ele>316</ele>
        <time>2011-05-08T06:03:45Z</time>
      </trkpt>
      <trkpt lat="49.19059" lon="6.96387">
        <ele>316</ele>
        <time>2011-05-08T06:03:46Z</time>
      </trkpt>
      <trkpt lat="49.19058" lon="6.96385">
        <ele>316</ele>
        <time>2011-05-08T06:03:47Z</time>
      </trkpt>
      <trkpt lat="49.19058" lon="6.96383">
        <ele>316</ele>
        <time>2011-05-08T06:03:48Z</time>
      </trkpt>
      <trkpt lat="49.19057" lon="6.96381">
        <ele>316</ele>
        <time>2011-05-08T06:03:49Z</time>
      </trkpt>
      <trkpt lat="49.19057" lon="6.96379">
        <ele>316</ele>
        <time>2011-05-08T06:03:50Z</time>
      </trkpt>
      <trkpt lat="49.19056" lon="6.96378">
        <ele>316</ele>
        <time>2011-05-08T06:03:51Z</time>
      </trkpt>
      <trkpt lat="49.19055" lon="6.96376">
        <ele>316</ele>
        <time>2011-05-08T06:03:52Z</time>
      </trkpt>
      <trkpt lat="49.19055" lon="6.96374">
        <ele>316</ele>
        <time>2011-05-08T06:03:53Z</time>
      </trkpt>
      <trkpt lat="49.19054" lon="6.96372">
        <ele>316</ele>
        <time>2011-05-08T06:03:54Z</time>
      </trkpt>
      <trkpt lat="49.19054" lon="6.9637">
        <ele>316</ele>
        <time>2011-05-08T06:03:55Z</time>
      </trkpt>
      <trkpt lat="49.19053" lon="6.96368">
        <ele>316</ele>
        <time>2011-05-08T06:03:56Z</time>
      </trkpt>
      <trkpt lat="49.19053" lon="6.96366">
        <ele>316</ele>
        <time>2011-05-08T06:03:57Z</time>
      </trkpt>
      <trkpt lat="49.19052" lon="6.96364">
        <ele>316</ele>
        <time>2011-05-08T06:03:58Z</time>
      </trkpt>
      <trkpt lat="49.19051" lon="6.96362">
        <ele>316</ele>
        <time>2011-05-08T06:03:59Z</time>
      </trkpt>
      <trkpt lat="49.19051" lon="6.9636">
        <ele>316</ele>
        <time>2011-05-08T06:04:00Z</time>
      </trkpt>
      <trkpt lat="49.1905" lon="6.96359">
        <ele>316</ele>
        <time>2011-05-08T06:04:01Z</time>
      </trkpt>
      <trkpt lat="49.1905" lon="6.96357">
        <ele>316</ele>
        <time>2011-05-08T06:04:02Z</time>
      </trkpt>
      <trkpt lat="49.19049" lon="6.96355">
        <ele>316</ele>
        <time>2011-05-08T06:04:03Z</time>
      </trkpt>
      <trkpt lat="49.19049" lon="6.96353">
        <ele>316</ele>
        <time>2011-05-08T06:04:04Z</time>
      </trkpt>
      <trkpt lat="49.19049" lon="6.96352">
        <ele>316</ele>
        <time>2011-05-08T06:04:05Z</time>
      </trkpt>
      <trkpt lat="49.19049" lon="6.9635">
        <ele>316</ele>
        <time>2011-05-08T06:04:06Z</time>
      </trkpt>
      <trkpt lat="49.19049" lon="6.96348">
        <ele>316</ele>
        <time>2011-05-08T06:04:07Z</time>
      </trkpt>
      <trkpt lat="49.1905" lon="6.96346">
        <ele>316</ele>
        <time>2011-05-08T06:04:08Z</time>
      </trkpt>
      <trkpt lat="49.19051" lon="6.96344">
        <ele>316</ele>
        <time>2011-05-08T06:04:09Z</time>
      </trkpt>
      <trkpt lat="49.19051" lon="6.96343">
        <ele>316</ele>
        <time>2011-05-08T06:04:10Z</time>
      </trkpt>
      <trkpt lat="49.19052" lon="6.96341">
        <ele>316</ele>
        <time>2011-05-08T06:04:11Z</time>
      </trkpt>
      <trkpt lat="49.19053" lon="6.96338">
        <ele>316</ele>
        <time>2011-05-08T06:04:13Z</time>
      </trkpt>
      <trkpt lat="49.19054" lon="6.96336">
        <ele>316</ele>
        <time>2011-05-08T06:04:14Z</time>
      </trkpt>
      <trkpt lat="49.19054" lon="6.96335">
        <ele>317</ele>
        <time>2011-05-08T06:04:15Z</time>
      </trkpt>
      <trkpt lat="49.19055" lon="6.96333">
        <ele>317</ele>
        <time>2011-05-08T06:04:16Z</time>
      </trkpt>
      <trkpt lat="49.19055" lon="6.96331">
        <ele>317</ele>
        <time>2011-05-08T06:04:17Z</time>
      </trkpt>
      <trkpt lat="49.19056" lon="6.96329">
        <ele>317</ele>
        <time>2011-05-08T06:04:18Z</time>
      </trkpt>
      <trkpt lat="49.19056" lon="6.96327">
        <ele>317</ele>
        <time>2011-05-08T06:04:19Z</time>
      </trkpt>
      <trkpt lat="49.19057" lon="6.96324">
        <ele>317</ele>
        <time>2011-05-08T06:04:21Z</time>
      </trkpt>
      <trkpt lat="49.19058" lon="6.96322">
        <ele>317</ele>
        <time>2011-05-08T06:04:22Z</time>
      </trkpt>
      <trkpt lat="49.19059" lon="6.96319">
        <ele>317</ele>
        <time>2011-05-08T06:04:24Z</time>
      </trkpt>
      <trkpt lat="49.1906" lon="6.96317">
        <ele>317</ele>
        <time>2011-05-08T06:04:25Z</time>
      </trkpt>
      <trkpt lat="49.19061" lon="6.96316">
        <ele>317</ele>
        <time>2011-05-08T06:04:26Z</time>
      </trkpt>
      <trkpt lat="49.19061" lon="6.96314">
        <ele>317</ele>
        <time>2011-05-08T06:04:27Z</time>
      </trkpt>
      <trkpt lat="49.19062" lon="6.96312">
        <ele>317</ele>
        <time>2011-05-08T06:04:28Z</time>
      </trkpt>
      <trkpt lat="49.19062" lon="6.9631">
        <ele>317</ele>
        <time>2011-05-08T06:04:29Z</time>
      </trkpt>
      <trkpt lat="49.19064" lon="6.96307">
        <ele>317</ele>
        <time>2011-05-08T06:04:31Z</time>
      </trkpt>
      <trkpt lat="49.19066" lon="6.96305">
        <ele>317</ele>
        <time>2011-05-08T06:04:33Z</time>
      </trkpt>
      <trkpt lat="49.19067" lon="6.96302">
        <ele>317</ele>
        <time>2011-05-08T06:04:35Z</time>
      </trkpt>
      <trkpt lat="49.19069" lon="6.96299">
        <ele>317</ele>
        <time>2011-05-08T06:04:37Z</time>
      </trkpt>
      <trkpt lat="49.1907" lon="6.96296">
        <ele>317</ele>
        <time>2011-05-08T06:04:39Z</time>
      </trkpt>
      <trkpt lat="49.19072" lon="6.96294">
        <ele>317</ele>
        <time>2011-05-08T06:04:41Z</time>
      </trkpt>
      <trkpt lat="49.19074" lon="6.96291">
        <ele>317</ele>
        <time>2011-05-08T06:04:43Z</time>
      </trkpt>
      <trkpt lat="49.19075" lon="6.96289">
        <ele>317</ele>
        <time>2011-05-08T06:04:45Z</time>
      </trkpt>
      <trkpt lat="49.19077" lon="6.96286">
        <ele>317</ele>
        <time>2011-05-08T06:04:47Z</time>
      </trkpt>
      <trkpt lat="49.19078" lon="6.96283">
        <ele>317</ele>
        <time>2011-05-08T06:04:49Z</time>
      </trkpt>
      <trkpt lat="49.19079" lon="6.96282">
        <ele>317</ele>
        <time>2011-05-08T06:04:50Z</time>
      </trkpt>
      <trkpt lat="49.1908" lon="6.96278">
        <ele>317</ele>
        <time>2011-05-08T06:04:52Z</time>
      </trkpt>
      <trkpt lat="49.19081" lon="6.96276">
        <ele>317</ele>
        <time>2011-05-08T06:04:54Z</time>
      </trkpt>
      <trkpt lat="49.19083" lon="6.96273">
        <ele>317</ele>
        <time>2011-05-08T06:04:56Z</time>
      </trkpt>
      <trkpt lat="49.19084" lon="6.96271">
        <ele>317</ele>
        <time>2011-05-08T06:04:57Z</time>
      </trkpt>
      <trkpt lat="49.19084" lon="6.9627">
        <ele>317</ele>
        <time>2011-05-08T06:04:58Z</time>
      </trkpt>
      <trkpt lat="49.19086" lon="6.96267">
        <ele>317</ele>
        <time>2011-05-08T06:05:00Z</time>
      </trkpt>
      <trkpt lat="49.19087" lon="6.96264">
        <ele>317</ele>
        <time>2011-05-08T06:05:02Z</time>
      </trkpt>
      <trkpt lat="49.19088" lon="6.96261">
        <ele>317</ele>
        <time>2011-05-08T06:05:04Z</time>
      </trkpt>
      <trkpt lat="49.1909" lon="6.96258">
        <ele>317</ele>
        <time>2011-05-08T06:05:06Z</time>
      </trkpt>
      <trkpt lat="49.19091" lon="6.96255">
        <ele>317</ele>
        <time>2011-05-08T06:05:08Z</time>
      </trkpt>
      <trkpt lat="49.19093" lon="6.96252">
        <ele>317</ele>
        <time>2011-05-08T06:05:10Z</time>
      </trkpt>
      <trkpt lat="49.19095" lon="6.9625">
        <ele>317</ele>
        <time>2011-05-08T06:05:12Z</time>
      </trkpt>
      <trkpt lat="49.19096" lon="6.96247">
        <ele>318</ele>
        <time>2011-05-08T06:05:14Z</time>
      </trkpt>
      <trkpt lat="49.19097" lon="6.96244">
        <ele>318</ele>
        <time>2011-05-08T06:05:16Z</time>
      </trkpt>
      <trkpt lat="49.19098" lon="6.96241">
        <ele>318</ele>
        <time>2011-05-08T06:05:18Z</time>
      </trkpt>
      <trkpt lat="49.19099" lon="6.9624">
        <ele>318</ele>
        <time>2011-05-08T06:05:19Z</time>
      </trkpt>
      <trkpt lat="49.191" lon="6.96238">
        <ele>318</ele>
        <time>2011-05-08T06:05:20Z</time>
      </trkpt>
      <trkpt lat="49.19101" lon="6.96235">
        <ele>318</ele>
        <time>2011-05-08T06:05:22Z</time>
      </trkpt>
      <trkpt lat="49.19103" lon="6.96232">
        <ele>318</ele>
        <time>2011-05-08T06:05:24Z</time>
      </trkpt>
      <trkpt lat="49.19105" lon="6.9623">
        <ele>318</ele>
        <time>2011-05-08T06:05:26Z</time>
      </trkpt>
      <trkpt lat="49.19107" lon="6.96227">
        <ele>318</ele>
        <time>2011-05-08T06:05:28Z</time>
      </trkpt>
      <trkpt lat="49.19108" lon="6.96224">
        <ele>318</ele>
        <time>2011-05-08T06:05:30Z</time>
      </trkpt>
      <trkpt lat="49.19109" lon="6.96221">
        <ele>318</ele>
        <time>2011-05-08T06:05:32Z</time>
      </trkpt>
      <trkpt lat="49.19111" lon="6.96219">
        <ele>318</ele>
        <time>2011-05-08T06:05:34Z</time>
      </trkpt>
      <trkpt lat="49.19112" lon="6.96216">
        <ele>318</ele>
        <time>2011-05-08T06:05:36Z</time>
      </trkpt>
      <trkpt lat="49.19114" lon="6.96213">
        <ele>318</ele>
        <time>2011-05-08T06:05:38Z</time>
      </trkpt>
      <trkpt lat="49.19116" lon="6.96211">
        <ele>318</ele>
        <time>2011-05-08T06:05:40Z</time>
      </trkpt>
      <trkpt lat="49.19117" lon="6.96208">
        <ele>318</ele>
        <time>2011-05-08T06:05:42Z</time>
      </trkpt>
      <trkpt lat="49.19119" lon="6.96206">
        <ele>318</ele>
        <time>2011-05-08T06:05:44Z</time>
      </trkpt>
      <trkpt lat="49.19121" lon="6.96202">
        <ele>318</ele>
        <time>2011-05-08T06:05:46Z</time>
      </trkpt>
      <trkpt lat="49.19122" lon="6.962">
        <ele>318</ele>
        <time>2011-05-08T06:05:48Z</time>
      </trkpt>
      <trkpt lat="49.19124" lon="6.96198">
        <ele>318</ele>
        <time>2011-05-08T06:05:50Z</time>
      </trkpt>
      <trkpt lat="49.19125" lon="6.96195">
        <ele>318</ele>
        <time>2011-05-08T06:05:52Z</time>
      </trkpt>
      <trkpt lat="49.19126" lon="6.96192">
        <ele>318</ele>
        <time>2011-05-08T06:05:54Z</time>
      </trkpt>
      <trkpt lat="49.19126" lon="6.9619">
        <ele>318</ele>
        <time>2011-05-08T06:05:55Z</time>
      </trkpt>
      <trkpt lat="49.19125" lon="6.96188">
        <ele>318</ele>
        <time>2011-05-08T06:05:56Z</time>
      </trkpt>
      <trkpt lat="49.19125" lon="6.96186">
        <ele>318</ele>
        <time>2011-05-08T06:05:57Z</time>
      </trkpt>
      <trkpt lat="49.19124" lon="6.96184">
        <ele>318</ele>
        <time>2011-05-08T06:05:59Z</time>
      </trkpt>
      <trkpt lat="49.19122" lon="6.96182">
        <ele>318</ele>
        <time>2011-05-08T06:06:01Z</time>
      </trkpt>
      <trkpt lat="49.19121" lon="6.9618">
        <ele>318</ele>
        <time>2011-05-08T06:06:03Z</time>
      </trkpt>
      <trkpt lat="49.19119" lon="6.96179">
        <ele>318</ele>
        <time>2011-05-08T06:06:05Z</time>
      </trkpt>
      <trkpt lat="49.19117" lon="6.96177">
        <ele>319</ele>
        <time>2011-05-08T06:06:07Z</time>
      </trkpt>
      <trkpt lat="49.19116" lon="6.96174">
        <ele>319</ele>
        <time>2011-05-08T06:06:09Z</time>
      </trkpt>
      <trkpt lat="49.19114" lon="6.96172">
        <ele>319</ele>
        <time>2011-05-08T06:06:11Z</time>
      </trkpt>
      <trkpt lat="49.19112" lon="6.9617">
        <ele>319</ele>
        <time>2011-05-08T06:06:13Z</time>
      </trkpt>
      <trkpt lat="49.19111" lon="6.96168">
        <ele>319</ele>
        <time>2011-05-08T06:06:15Z</time>
      </trkpt>
      <trkpt lat="49.1911" lon="6.96167">
        <ele>319</ele>
        <time>2011-05-08T06:06:17Z</time>
      </trkpt>
      <trkpt lat="49.19109" lon="6.96165">
        <ele>320</ele>
        <time>2011-05-08T06:06:19Z</time>
      </trkpt>
      <trkpt lat="49.19108" lon="6.96163">
        <ele>320</ele>
        <time>2011-05-08T06:06:21Z</time>
      </trkpt>
      <trkpt lat="49.19106" lon="6.96162">
        <ele>321</ele>
        <time>2011-05-08T06:06:23Z</time>
      </trkpt>
      <trkpt lat="49.19104" lon="6.96161">
        <ele>321</ele>
        <time>2011-05-08T06:06:25Z</time>
      </trkpt>
      <trkpt lat="49.19103" lon="6.96159">
        <ele>322</ele>
        <time>2011-05-08T06:06:27Z</time>
      </trkpt>
      <trkpt lat="49.19101" lon="6.96158">
        <ele>323</ele>
        <time>2011-05-08T06:06:29Z</time>
      </trkpt>
      <trkpt lat="49.19099" lon="6.96157">
        <ele>324</ele>
        <time>2011-05-08T06:06:31Z</time>
      </trkpt>
      <trkpt lat="49.19098" lon="6.96155">
        <ele>324</ele>
        <time>2011-05-08T06:06:33Z</time>
      </trkpt>
      <trkpt lat="49.19097" lon="6.96153">
        <ele>325</ele>
        <time>2011-05-08T06:06:35Z</time>
      </trkpt>
      <trkpt lat="49.19096" lon="6.96151">
        <ele>326</ele>
        <time>2011-05-08T06:06:38Z</time>
      </trkpt>
      <trkpt lat="49.19094" lon="6.96149">
        <ele>327</ele>
        <time>2011-05-08T06:06:40Z</time>
      </trkpt>
      <trkpt lat="49.19094" lon="6.96146">
        <ele>327</ele>
        <time>2011-05-08T06:06:42Z</time>
      </trkpt>
      <trkpt lat="49.19092" lon="6.96144">
        <ele>328</ele>
        <time>2011-05-08T06:06:44Z</time>
      </trkpt>
      <trkpt lat="49.19091" lon="6.96142">
        <ele>328</ele>
        <time>2011-05-08T06:06:46Z</time>
      </trkpt>
      <trkpt lat="49.19089" lon="6.96139">
        <ele>328</ele>
        <time>2011-05-08T06:06:48Z</time>
      </trkpt>
      <trkpt lat="49.19088" lon="6.96138">
        <ele>328</ele>
        <time>2011-05-08T06:06:49Z</time>
      </trkpt>
      <trkpt lat="49.19087" lon="6.96135">
        <ele>329</ele>
        <time>2011-05-08T06:06:51Z</time>
      </trkpt>
      <trkpt lat="49.19087" lon="6.96134">
        <ele>329</ele>
        <time>2011-05-08T06:06:52Z</time>
      </trkpt>
      <trkpt lat="49.19087" lon="6.96132">
        <ele>330</ele>
        <time>2011-05-08T06:06:53Z</time>
      </trkpt>
      <trkpt lat="49.19086" lon="6.9613">
        <ele>330</ele>
        <time>2011-05-08T06:06:54Z</time>
      </trkpt>
      <trkpt lat="49.19086" lon="6.96129">
        <ele>330</ele>
        <time>2011-05-08T06:06:55Z</time>
      </trkpt>
      <trkpt lat="49.19085" lon="6.96126">
        <ele>330</ele>
        <time>2011-05-08T06:06:57Z</time>
      </trkpt>
      <trkpt lat="49.19084" lon="6.96123">
        <ele>330</ele>
        <time>2011-05-08T06:06:59Z</time>
      </trkpt>
      <trkpt lat="49.19082" lon="6.96121">
        <ele>331</ele>
        <time>2011-05-08T06:07:01Z</time>
      </trkpt>
      <trkpt lat="49.19081" lon="6.96119">
        <ele>331</ele>
        <time>2011-05-08T06:07:02Z</time>
      </trkpt>
      <trkpt lat="49.1908" lon="6.96117">
        <ele>331</ele>
        <time>2011-05-08T06:07:03Z</time>
      </trkpt>
      <trkpt lat="49.1908" lon="6.96115">
        <ele>331</ele>
        <time>2011-05-08T06:07:04Z</time>
      </trkpt>
      <trkpt lat="49.1908" lon="6.96112">
        <ele>331</ele>
        <time>2011-05-08T06:07:06Z</time>
      </trkpt>
      <trkpt lat="49.19078" lon="6.96109">
        <ele>331</ele>
        <time>2011-05-08T06:07:08Z</time>
      </trkpt>
      <trkpt lat="49.19078" lon="6.96107">
        <ele>331</ele>
        <time>2011-05-08T06:07:09Z</time>
      </trkpt>
      <trkpt lat="49.19077" lon="6.96106">
        <ele>331</ele>
        <time>2011-05-08T06:07:10Z</time>
      </trkpt>
      <trkpt lat="49.19076" lon="6.96104">
        <ele>331</ele>
        <time>2011-05-08T06:07:11Z</time>
      </trkpt>
      <trkpt lat="49.19074" lon="6.96101">
        <ele>332</ele>
        <time>2011-05-08T06:07:13Z</time>
      </trkpt>
      <trkpt lat="49.19073" lon="6.96098">
        <ele>332</ele>
        <time>2011-05-08T06:07:15Z</time>
      </trkpt>
      <trkpt lat="49.19072" lon="6.96096">
        <ele>332</ele>
        <time>2011-05-08T06:07:16Z</time>
      </trkpt>
      <trkpt lat="49.19072" lon="6.96095">
        <ele>332</ele>
        <time>2011-05-08T06:07:17Z</time>
      </trkpt>
      <trkpt lat="49.1907" lon="6.96093">
        <ele>332</ele>
        <time>2011-05-08T06:07:18Z</time>
      </trkpt>
      <trkpt lat="49.19069" lon="6.9609">
        <ele>332</ele>
        <time>2011-05-08T06:07:20Z</time>
      </trkpt>
      <trkpt lat="49.19067" lon="6.96087">
        <ele>332</ele>
        <time>2011-05-08T06:07:22Z</time>
      </trkpt>
      <trkpt lat="49.19065" lon="6.96084">
        <ele>332</ele>
        <time>2011-05-08T06:07:24Z</time>
      </trkpt>
      <trkpt lat="49.19064" lon="6.96083">
        <ele>332</ele>
        <time>2011-05-08T06:07:25Z</time>
      </trkpt>
      <trkpt lat="49.19063" lon="6.96082">
        <ele>332</ele>
        <time>2011-05-08T06:07:26Z</time>
      </trkpt>
      <trkpt lat="49.19062" lon="6.9608">
        <ele>332</ele>
        <time>2011-05-08T06:07:27Z</time>
      </trkpt>
      <trkpt lat="49.1906" lon="6.96079">
        <ele>332</ele>
        <time>2011-05-08T06:07:28Z</time>
      </trkpt>
      <trkpt lat="49.19059" lon="6.96078">
        <ele>332</ele>
        <time>2011-05-08T06:07:29Z</time>
      </trkpt>
      <trkpt lat="49.19058" lon="6.96077">
        <ele>332</ele>
        <time>2011-05-08T06:07:30Z</time>
      </trkpt>
      <trkpt lat="49.19056" lon="6.96074">
        <ele>332</ele>
        <time>2011-05-08T06:07:32Z</time>
      </trkpt>
      <trkpt lat="49.19054" lon="6.96072">
        <ele>333</ele>
        <time>2011-05-08T06:07:34Z</time>
      </trkpt>
      <trkpt lat="49.19052" lon="6.96069">
        <ele>333</ele>
        <time>2011-05-08T06:07:36Z</time>
      </trkpt>
      <trkpt lat="49.1905" lon="6.96068">
        <ele>333</ele>
        <time>2011-05-08T06:07:38Z</time>
      </trkpt>
      <trkpt lat="49.19048" lon="6.96066">
        <ele>333</ele>
        <time>2011-05-08T06:07:40Z</time>
      </trkpt>
      <trkpt lat="49.19047" lon="6.96064">
        <ele>333</ele>
        <time>2011-05-08T06:07:42Z</time>
      </trkpt>
      <trkpt lat="49.19045" lon="6.96062">
        <ele>333</ele>
        <time>2011-05-08T06:07:44Z</time>
      </trkpt>
      <trkpt lat="49.19043" lon="6.9606">
        <ele>333</ele>
        <time>2011-05-08T06:07:46Z</time>
      </trkpt>
      <trkpt lat="49.19041" lon="6.96058">
        <ele>333</ele>
        <time>2011-05-08T06:07:48Z</time>
      </trkpt>
      <trkpt lat="49.1904" lon="6.96056">
        <ele>333</ele>
        <time>2011-05-08T06:07:50Z</time>
      </trkpt>
      <trkpt lat="49.19038" lon="6.96053">
        <ele>333</ele>
        <time>2011-05-08T06:07:52Z</time>
      </trkpt>
      <trkpt lat="49.19036" lon="6.96052">
        <ele>333</ele>
        <time>2011-05-08T06:07:54Z</time>
      </trkpt>
      <trkpt lat="49.19034" lon="6.96049">
        <ele>333</ele>
        <time>2011-05-08T06:07:56Z</time>
      </trkpt>
      <trkpt lat="49.19032" lon="6.96047">
        <ele>333</ele>
        <time>2011-05-08T06:07:58Z</time>
      </trkpt>
      <trkpt lat="49.1903" lon="6.96045">
        <ele>333</ele>
        <time>2011-05-08T06:08:00Z</time>
      </trkpt>
      <trkpt lat="49.19029" lon="6.96043">
        <ele>333</ele>
        <time>2011-05-08T06:08:02Z</time>
      </trkpt>
      <trkpt lat="49.19027" lon="6.96041">
        <ele>333</ele>
        <time>2011-05-08T06:08:04Z</time>
      </trkpt>
      <trkpt lat="49.19026" lon="6.9604">
        <ele>333</ele>
        <time>2011-05-08T06:08:05Z</time>
      </trkpt>
      <trkpt lat="49.19024" lon="6.96038">
        <ele>333</ele>
        <time>2011-05-08T06:08:07Z</time>
      </trkpt>
      <trkpt lat="49.19022" lon="6.96036">
        <ele>333</ele>
        <time>2011-05-08T06:08:09Z</time>
      </trkpt>
      <trkpt lat="49.1902" lon="6.96034">
        <ele>333</ele>
        <time>2011-05-08T06:08:11Z</time>
      </trkpt>
      <trkpt lat="49.19019" lon="6.96033">
        <ele>333</ele>
        <time>2011-05-08T06:08:12Z</time>
      </trkpt>
      <trkpt lat="49.19018" lon="6.96032">
        <ele>333</ele>
        <time>2011-05-08T06:08:13Z</time>
      </trkpt>
      <trkpt lat="49.19016" lon="6.9603">
        <ele>333</ele>
        <time>2011-05-08T06:08:15Z</time>
      </trkpt>
      <trkpt lat="49.19015" lon="6.96029">
        <ele>333</ele>
        <time>2011-05-08T06:08:16Z</time>
      </trkpt>
      <trkpt lat="49.19012" lon="6.96027">
        <ele>333</ele>
        <time>2011-05-08T06:08:18Z</time>
      </trkpt>
      <trkpt lat="49.19011" lon="6.96026">
        <ele>333</ele>
        <time>2011-05-08T06:08:19Z</time>
      </trkpt>
      <trkpt lat="49.1901" lon="6.96025">
        <ele>333</ele>
        <time>2011-05-08T06:08:20Z</time>
      </trkpt>
      <trkpt lat="49.19009" lon="6.96024">
        <ele>333</ele>
        <time>2011-05-08T06:08:21Z</time>
      </trkpt>
      <trkpt lat="49.19007" lon="6.96022">
        <ele>334</ele>
        <time>2011-05-08T06:08:23Z</time>
      </trkpt>
      <trkpt lat="49.19006" lon="6.96021">
        <ele>334</ele>
        <time>2011-05-08T06:08:24Z</time>
      </trkpt>
      <trkpt lat="49.19004" lon="6.96019">
        <ele>334</ele>
        <time>2011-05-08T06:08:26Z</time>
      </trkpt>
      <trkpt lat="49.19002" lon="6.96017">
        <ele>334</ele>
        <time>2011-05-08T06:08:28Z</time>
      </trkpt>
      <trkpt lat="49.19001" lon="6.96016">
        <ele>334</ele>
        <time>2011-05-08T06:08:29Z</time>
      </trkpt>
      <trkpt lat="49.18999" lon="6.96015">
        <ele>334</ele>
        <time>2011-05-08T06:08:30Z</time>
      </trkpt>
      <trkpt lat="49.18998" lon="6.96013">
        <ele>334</ele>
        <time>2011-05-08T06:08:32Z</time>
      </trkpt>
      <trkpt lat="49.18996" lon="6.96011">
        <ele>334</ele>
        <time>2011-05-08T06:08:34Z</time>
      </trkpt>
      <trkpt lat="49.18994" lon="6.96009">
        <ele>334</ele>
        <time>2011-05-08T06:08:36Z</time>
      </trkpt>
      <trkpt lat="49.18992" lon="6.96007">
        <ele>334</ele>
        <time>2011-05-08T06:08:38Z</time>
      </trkpt>
      <trkpt lat="49.1899" lon="6.96006">
        <ele>334</ele>
        <time>2011-05-08T06:08:40Z</time>
      </trkpt>
      <trkpt lat="49.18988" lon="6.96004">
        <ele>334</ele>
        <time>2011-05-08T06:08:42Z</time>
      </trkpt>
      <trkpt lat="49.18987" lon="6.96001">
        <ele>334</ele>
        <time>2011-05-08T06:08:44Z</time>
      </trkpt>
      <trkpt lat="49.18985" lon="6.96">
        <ele>334</ele>
        <time>2011-05-08T06:08:46Z</time>
      </trkpt>
      <trkpt lat="49.18983" lon="6.95998">
        <ele>334</ele>
        <time>2011-05-08T06:08:48Z</time>
      </trkpt>
      <trkpt lat="49.18981" lon="6.95996">
        <ele>334</ele>
        <time>2011-05-08T06:08:50Z</time>
      </trkpt>
      <trkpt lat="49.18979" lon="6.95994">
        <ele>334</ele>
        <time>2011-05-08T06:08:52Z</time>
      </trkpt>
      <trkpt lat="49.18977" lon="6.95992">
        <ele>334</ele>
        <time>2011-05-08T06:08:54Z</time>
      </trkpt>
      <trkpt lat="49.18975" lon="6.95989">
        <ele>334</ele>
        <time>2011-05-08T06:08:56Z</time>
      </trkpt>
      <trkpt lat="49.18973" lon="6.95987">
        <ele>334</ele>
        <time>2011-05-08T06:08:58Z</time>
      </trkpt>
      <trkpt lat="49.18971" lon="6.95985">
        <ele>334</ele>
        <time>2011-05-08T06:09:00Z</time>
      </trkpt>
      <trkpt lat="49.18969" lon="6.95983">
        <ele>334</ele>
        <time>2011-05-08T06:09:02Z</time>
      </trkpt>
      <trkpt lat="49.18967" lon="6.95981">
        <ele>334</ele>
        <time>2011-05-08T06:09:04Z</time>
      </trkpt>
      <trkpt lat="49.18965" lon="6.95979">
        <ele>334</ele>
        <time>2011-05-08T06:09:06Z</time>
      </trkpt>
      <trkpt lat="49.18963" lon="6.95977">
        <ele>334</ele>
        <time>2011-05-08T06:09:08Z</time>
      </trkpt>
      <trkpt lat="49.18962" lon="6.95976">
        <ele>334</ele>
        <time>2011-05-08T06:09:09Z</time>
      </trkpt>
      <trkpt lat="49.18961" lon="6.95975">
        <ele>334</ele>
        <time>2011-05-08T06:09:10Z</time>
      </trkpt>
      <trkpt lat="49.1896" lon="6.95973">
        <ele>334</ele>
        <time>2011-05-08T06:09:11Z</time>
      </trkpt>
      <trkpt lat="49.18959" lon="6.95972">
        <ele>334</ele>
        <time>2011-05-08T06:09:12Z</time>
      </trkpt>
      <trkpt lat="49.18957" lon="6.9597">
        <ele>334</ele>
        <time>2011-05-08T06:09:14Z</time>
      </trkpt>
      <trkpt lat="49.18955" lon="6.95968">
        <ele>334</ele>
        <time>2011-05-08T06:09:16Z</time>
      </trkpt>
      <trkpt lat="49.18953" lon="6.95966">
        <ele>334</ele>
        <time>2011-05-08T06:09:18Z</time>
      </trkpt>
      <trkpt lat="49.18951" lon="6.95965">
        <ele>334</ele>
        <time>2011-05-08T06:09:19Z</time>
      </trkpt>
      <trkpt lat="49.1895" lon="6.95964">
        <ele>334</ele>
        <time>2011-05-08T06:09:20Z</time>
      </trkpt>
      <trkpt lat="49.18948" lon="6.95962">
        <ele>334</ele>
        <time>2011-05-08T06:09:22Z</time>
      </trkpt>
      <trkpt lat="49.18947" lon="6.95961">
        <ele>334</ele>
        <time>2011-05-08T06:09:24Z</time>
      </trkpt>
      <trkpt lat="49.18945" lon="6.9596">
        <ele>334</ele>
        <time>2011-05-08T06:09:25Z</time>
      </trkpt>
      <trkpt lat="49.18943" lon="6.95958">
        <ele>334</ele>
        <time>2011-05-08T06:09:27Z</time>
      </trkpt>
      <trkpt lat="49.18942" lon="6.95956">
        <ele>334</ele>
        <time>2011-05-08T06:09:28Z</time>
      </trkpt>
      <trkpt lat="49.1894" lon="6.95954">
        <ele>334</ele>
        <time>2011-05-08T06:09:30Z</time>
      </trkpt>
      <trkpt lat="49.18938" lon="6.95952">
        <ele>335</ele>
        <time>2011-05-08T06:09:32Z</time>
      </trkpt>
      <trkpt lat="49.18936" lon="6.95951">
        <ele>335</ele>
        <time>2011-05-08T06:09:34Z</time>
      </trkpt>
      <trkpt lat="49.18934" lon="6.9595">
        <ele>335</ele>
        <time>2011-05-08T06:09:36Z</time>
      </trkpt>
      <trkpt lat="49.18932" lon="6.95951">
        <ele>335</ele>
        <time>2011-05-08T06:09:38Z</time>
      </trkpt>
      <trkpt lat="49.1893" lon="6.95951">
        <ele>335</ele>
        <time>2011-05-08T06:09:40Z</time>
      </trkpt>
      <trkpt lat="49.18928" lon="6.95953">
        <ele>335</ele>
        <time>2011-05-08T06:09:42Z</time>
      </trkpt>
      <trkpt lat="49.18927" lon="6.95956">
        <ele>335</ele>
        <time>2011-05-08T06:09:44Z</time>
      </trkpt>
      <trkpt lat="49.18925" lon="6.95959">
        <ele>335</ele>
        <time>2011-05-08T06:09:46Z</time>
      </trkpt>
      <trkpt lat="49.18924" lon="6.9596">
        <ele>335</ele>
        <time>2011-05-08T06:09:47Z</time>
      </trkpt>
      <trkpt lat="49.18923" lon="6.95963">
        <ele>335</ele>
        <time>2011-05-08T06:09:49Z</time>
      </trkpt>
      <trkpt lat="49.18922" lon="6.95965">
        <ele>335</ele>
        <time>2011-05-08T06:09:50Z</time>
      </trkpt>
      <trkpt lat="49.18921" lon="6.95968">
        <ele>335</ele>
        <time>2011-05-08T06:09:52Z</time>
      </trkpt>
      <trkpt lat="49.18919" lon="6.95971">
        <ele>336</ele>
        <time>2011-05-08T06:09:54Z</time>
      </trkpt>
      <trkpt lat="49.18918" lon="6.95973">
        <ele>336</ele>
        <time>2011-05-08T06:09:56Z</time>
      </trkpt>
      <trkpt lat="49.18917" lon="6.95976">
        <ele>336</ele>
        <time>2011-05-08T06:09:58Z</time>
      </trkpt>
      <trkpt lat="49.18916" lon="6.95979">
        <ele>336</ele>
        <time>2011-05-08T06:10:00Z</time>
      </trkpt>
      <trkpt lat="49.18914" lon="6.95982">
        <ele>336</ele>
        <time>2011-05-08T06:10:02Z</time>
      </trkpt>
      <trkpt lat="49.18913" lon="6.95986">
        <ele>336</ele>
        <time>2011-05-08T06:10:04Z</time>
      </trkpt>
      <trkpt lat="49.18911" lon="6.95988">
        <ele>336</ele>
        <time>2011-05-08T06:10:06Z</time>
      </trkpt>
      <trkpt lat="49.18908" lon="6.95991">
        <ele>337</ele>
        <time>2011-05-08T06:10:08Z</time>
      </trkpt>
      <trkpt lat="49.18907" lon="6.95991">
        <ele>337</ele>
        <time>2011-05-08T06:10:09Z</time>
      </trkpt>
      <trkpt lat="49.18906" lon="6.95992">
        <ele>337</ele>
        <time>2011-05-08T06:10:10Z</time>
      </trkpt>
      <trkpt lat="49.18905" lon="6.95993">
        <ele>337</ele>
        <time>2011-05-08T06:10:11Z</time>
      </trkpt>
      <trkpt lat="49.18904" lon="6.95994">
        <ele>337</ele>
        <time>2011-05-08T06:10:12Z</time>
      </trkpt>
      <trkpt lat="49.18903" lon="6.95994">
        <ele>337</ele>
        <time>2011-05-08T06:10:13Z</time>
      </trkpt>
      <trkpt lat="49.18901" lon="6.95994">
        <ele>337</ele>
        <time>2011-05-08T06:10:14Z</time>
      </trkpt>
      <trkpt lat="49.189" lon="6.95995">
        <ele>337</ele>
        <time>2011-05-08T06:10:15Z</time>
      </trkpt>
      <trkpt lat="49.18899" lon="6.95994">
        <ele>337</ele>
        <time>2011-05-08T06:10:16Z</time>
      </trkpt>
      <trkpt lat="49.18898" lon="6.95994">
        <ele>337</ele>
        <time>2011-05-08T06:10:17Z</time>
      </trkpt>
      <trkpt lat="49.18895" lon="6.95993">
        <ele>337</ele>
        <time>2011-05-08T06:10:19Z</time>
      </trkpt>
      <trkpt lat="49.18894" lon="6.95992">
        <ele>337</ele>
        <time>2011-05-08T06:10:20Z</time>
      </trkpt>
      <trkpt lat="49.18893" lon="6.95991">
        <ele>337</ele>
        <time>2011-05-08T06:10:21Z</time>
      </trkpt>
      <trkpt lat="49.18891" lon="6.9599">
        <ele>337</ele>
        <time>2011-05-08T06:10:23Z</time>
      </trkpt>
      <trkpt lat="49.18889" lon="6.95988">
        <ele>337</ele>
        <time>2011-05-08T06:10:25Z</time>
      </trkpt>
      <trkpt lat="49.18887" lon="6.95986">
        <ele>337</ele>
        <time>2011-05-08T06:10:27Z</time>
      </trkpt>
      <trkpt lat="49.18885" lon="6.95984">
        <ele>337</ele>
        <time>2011-05-08T06:10:29Z</time>
      </trkpt>
      <trkpt lat="49.18884" lon="6.95983">
        <ele>337</ele>
        <time>2011-05-08T06:10:30Z</time>
      </trkpt>
      <trkpt lat="49.18883" lon="6.95982">
        <ele>337</ele>
        <time>2011-05-08T06:10:31Z</time>
      </trkpt>
      <trkpt lat="49.18882" lon="6.95981">
        <ele>337</ele>
        <time>2011-05-08T06:10:32Z</time>
      </trkpt>
      <trkpt lat="49.1888" lon="6.9598">
        <ele>337</ele>
        <time>2011-05-08T06:10:34Z</time>
      </trkpt>
      <trkpt lat="49.18877" lon="6.95978">
        <ele>337</ele>
        <time>2011-05-08T06:10:36Z</time>
      </trkpt>
      <trkpt lat="49.18876" lon="6.95977">
        <ele>337</ele>
        <time>2011-05-08T06:10:37Z</time>
      </trkpt>
      <trkpt lat="49.18874" lon="6.95975">
        <ele>337</ele>
        <time>2011-05-08T06:10:39Z</time>
      </trkpt>
      <trkpt lat="49.18872" lon="6.95973">
        <ele>337</ele>
        <time>2011-05-08T06:10:41Z</time>
      </trkpt>
      <trkpt lat="49.1887" lon="6.95971">
        <ele>337</ele>
        <time>2011-05-08T06:10:43Z</time>
      </trkpt>
      <trkpt lat="49.18869" lon="6.9597">
        <ele>337</ele>
        <time>2011-05-08T06:10:44Z</time>
      </trkpt>
      <trkpt lat="49.18868" lon="6.95969">
        <ele>337</ele>
        <time>2011-05-08T06:10:45Z</time>
      </trkpt>
      <trkpt lat="49.18867" lon="6.95968">
        <ele>337</ele>
        <time>2011-05-08T06:10:46Z</time>
      </trkpt>
      <trkpt lat="49.18864" lon="6.95966">
        <ele>337</ele>
        <time>2011-05-08T06:10:48Z</time>
      </trkpt>
      <trkpt lat="49.18863" lon="6.95965">
        <ele>337</ele>
        <time>2011-05-08T06:10:49Z</time>
      </trkpt>
      <trkpt lat="49.18862" lon="6.95965">
        <ele>337</ele>
        <time>2011-05-08T06:10:50Z</time>
      </trkpt>
      <trkpt lat="49.1886" lon="6.95963">
        <ele>337</ele>
        <time>2011-05-08T06:10:52Z</time>
      </trkpt>
      <trkpt lat="49.18859" lon="6.95962">
        <ele>337</ele>
        <time>2011-05-08T06:10:53Z</time>
      </trkpt>
      <trkpt lat="49.18858" lon="6.95961">
        <ele>337</ele>
        <time>2011-05-08T06:10:54Z</time>
      </trkpt>
      <trkpt lat="49.18857" lon="6.95961">
        <ele>337</ele>
        <time>2011-05-08T06:10:55Z</time>
      </trkpt>
      <trkpt lat="49.18856" lon="6.9596">
        <ele>337</ele>
        <time>2011-05-08T06:10:56Z</time>
      </trkpt>
      <trkpt lat="49.18854" lon="6.95959">
        <ele>337</ele>
        <time>2011-05-08T06:10:57Z</time>
      </trkpt>
      <trkpt lat="49.18852" lon="6.95957">
        <ele>337</ele>
        <time>2011-05-08T06:10:59Z</time>
      </trkpt>
      <trkpt lat="49.18851" lon="6.95956">
        <ele>337</ele>
        <time>2011-05-08T06:11:00Z</time>
      </trkpt>
      <trkpt lat="49.1885" lon="6.95956">
        <ele>337</ele>
        <time>2011-05-08T06:11:01Z</time>
      </trkpt>
      <trkpt lat="49.18848" lon="6.95954">
        <ele>337</ele>
        <time>2011-05-08T06:11:03Z</time>
      </trkpt>
      <trkpt lat="49.18846" lon="6.95953">
        <ele>337</ele>
        <time>2011-05-08T06:11:04Z</time>
      </trkpt>
      <trkpt lat="49.18844" lon="6.95952">
        <ele>337</ele>
        <time>2011-05-08T06:11:06Z</time>
      </trkpt>
      <trkpt lat="49.18843" lon="6.95951">
        <ele>337</ele>
        <time>2011-05-08T06:11:07Z</time>
      </trkpt>
      <trkpt lat="49.18842" lon="6.9595">
        <ele>338</ele>
        <time>2011-05-08T06:11:08Z</time>
      </trkpt>
      <trkpt lat="49.18841" lon="6.9595">
        <ele>338</ele>
        <time>2011-05-08T06:11:09Z</time>
      </trkpt>
      <trkpt lat="49.18839" lon="6.95949">
        <ele>338</ele>
        <time>2011-05-08T06:11:10Z</time>
      </trkpt>
      <trkpt lat="49.18838" lon="6.95948">
        <ele>338</ele>
        <time>2011-05-08T06:11:11Z</time>
      </trkpt>
      <trkpt lat="49.18837" lon="6.95947">
        <ele>338</ele>
        <time>2011-05-08T06:11:12Z</time>
      </trkpt>
      <trkpt lat="49.18835" lon="6.95945">
        <ele>338</ele>
        <time>2011-05-08T06:11:14Z</time>
      </trkpt>
      <trkpt lat="49.18833" lon="6.95944">
        <ele>339</ele>
        <time>2011-05-08T06:11:16Z</time>
      </trkpt>
      <trkpt lat="49.18832" lon="6.95943">
        <ele>339</ele>
        <time>2011-05-08T06:11:17Z</time>
      </trkpt>
      <trkpt lat="49.1883" lon="6.95942">
        <ele>339</ele>
        <time>2011-05-08T06:11:18Z</time>
      </trkpt>
      <trkpt lat="49.18829" lon="6.95939">
        <ele>339</ele>
        <time>2011-05-08T06:11:20Z</time>
      </trkpt>
      <trkpt lat="49.18827" lon="6.95936">
        <ele>339</ele>
        <time>2011-05-08T06:11:22Z</time>
      </trkpt>
      <trkpt lat="49.18825" lon="6.95933">
        <ele>339</ele>
        <time>2011-05-08T06:11:24Z</time>
      </trkpt>
      <trkpt lat="49.18824" lon="6.9593">
        <ele>339</ele>
        <time>2011-05-08T06:11:26Z</time>
      </trkpt>
      <trkpt lat="49.18822" lon="6.95927">
        <ele>339</ele>
        <time>2011-05-08T06:11:28Z</time>
      </trkpt>
      <trkpt lat="49.18821" lon="6.95925">
        <ele>339</ele>
        <time>2011-05-08T06:11:30Z</time>
      </trkpt>
      <trkpt lat="49.1882" lon="6.95922">
        <ele>339</ele>
        <time>2011-05-08T06:11:32Z</time>
      </trkpt>
      <trkpt lat="49.1882" lon="6.9592">
        <ele>339</ele>
        <time>2011-05-08T06:11:33Z</time>
      </trkpt>
      <trkpt lat="49.18819" lon="6.95917">
        <ele>339</ele>
        <time>2011-05-08T06:11:35Z</time>
      </trkpt>
      <trkpt lat="49.18817" lon="6.95916">
        <ele>339</ele>
        <time>2011-05-08T06:11:38Z</time>
      </trkpt>
      <trkpt lat="49.18815" lon="6.95918">
        <ele>339</ele>
        <time>2011-05-08T06:11:40Z</time>
      </trkpt>
      <trkpt lat="49.18814" lon="6.9592">
        <ele>339</ele>
        <time>2011-05-08T06:11:42Z</time>
      </trkpt>
      <trkpt lat="49.18812" lon="6.95922">
        <ele>339</ele>
        <time>2011-05-08T06:11:44Z</time>
      </trkpt>
      <trkpt lat="49.18811" lon="6.95925">
        <ele>339</ele>
        <time>2011-05-08T06:11:46Z</time>
      </trkpt>
      <trkpt lat="49.1881" lon="6.95928">
        <ele>339</ele>
        <time>2011-05-08T06:11:48Z</time>
      </trkpt>
      <trkpt lat="49.18808" lon="6.95929">
        <ele>340</ele>
        <time>2011-05-08T06:11:49Z</time>
      </trkpt>
      <trkpt lat="49.18808" lon="6.95931">
        <ele>340</ele>
        <time>2011-05-08T06:11:50Z</time>
      </trkpt>
      <trkpt lat="49.18807" lon="6.95933">
        <ele>340</ele>
        <time>2011-05-08T06:11:51Z</time>
      </trkpt>
      <trkpt lat="49.18806" lon="6.95934">
        <ele>340</ele>
        <time>2011-05-08T06:11:52Z</time>
      </trkpt>
      <trkpt lat="49.18805" lon="6.95937">
        <ele>341</ele>
        <time>2011-05-08T06:11:54Z</time>
      </trkpt>
      <trkpt lat="49.18803" lon="6.9594">
        <ele>341</ele>
        <time>2011-05-08T06:11:56Z</time>
      </trkpt>
      <trkpt lat="49.18802" lon="6.95943">
        <ele>341</ele>
        <time>2011-05-08T06:11:58Z</time>
      </trkpt>
      <trkpt lat="49.18801" lon="6.95946">
        <ele>341</ele>
        <time>2011-05-08T06:12:00Z</time>
      </trkpt>
      <trkpt lat="49.188" lon="6.95949">
        <ele>342</ele>
        <time>2011-05-08T06:12:02Z</time>
      </trkpt>
      <trkpt lat="49.18798" lon="6.95952">
        <ele>342</ele>
        <time>2011-05-08T06:12:04Z</time>
      </trkpt>
      <trkpt lat="49.18797" lon="6.95954">
        <ele>342</ele>
        <time>2011-05-08T06:12:06Z</time>
      </trkpt>
      <trkpt lat="49.18796" lon="6.95956">
        <ele>342</ele>
        <time>2011-05-08T06:12:07Z</time>
      </trkpt>
      <trkpt lat="49.18795" lon="6.95957">
        <ele>342</ele>
        <time>2011-05-08T06:12:08Z</time>
      </trkpt>
      <trkpt lat="49.18794" lon="6.95961">
        <ele>342</ele>
        <time>2011-05-08T06:12:10Z</time>
      </trkpt>
      <trkpt lat="49.18794" lon="6.95962">
        <ele>342</ele>
        <time>2011-05-08T06:12:11Z</time>
      </trkpt>
      <trkpt lat="49.18792" lon="6.95965">
        <ele>342</ele>
        <time>2011-05-08T06:12:13Z</time>
      </trkpt>
      <trkpt lat="49.18792" lon="6.95967">
        <ele>342</ele>
        <time>2011-05-08T06:12:14Z</time>
      </trkpt>
      <trkpt lat="49.1879" lon="6.9597">
        <ele>342</ele>
        <time>2011-05-08T06:12:16Z</time>
      </trkpt>
      <trkpt lat="49.1879" lon="6.95972">
        <ele>342</ele>
        <time>2011-05-08T06:12:17Z</time>
      </trkpt>
      <trkpt lat="49.18789" lon="6.95973">
        <ele>342</ele>
        <time>2011-05-08T06:12:18Z</time>
      </trkpt>
      <trkpt lat="49.18788" lon="6.95976">
        <ele>342</ele>
        <time>2011-05-08T06:12:20Z</time>
      </trkpt>
      <trkpt lat="49.18788" lon="6.95978">
        <ele>342</ele>
        <time>2011-05-08T06:12:21Z</time>
      </trkpt>
      <trkpt lat="49.18786" lon="6.95981">
        <ele>342</ele>
        <time>2011-05-08T06:12:23Z</time>
      </trkpt>
      <trkpt lat="49.18785" lon="6.95983">
        <ele>342</ele>
        <time>2011-05-08T06:12:24Z</time>
      </trkpt>
      <trkpt lat="49.18784" lon="6.95984">
        <ele>342</ele>
        <time>2011-05-08T06:12:25Z</time>
      </trkpt>
      <trkpt lat="49.18783" lon="6.95987">
        <ele>342</ele>
        <time>2011-05-08T06:12:27Z</time>
      </trkpt>
      <trkpt lat="49.18782" lon="6.9599">
        <ele>342</ele>
        <time>2011-05-08T06:12:29Z</time>
      </trkpt>
      <trkpt lat="49.18781" lon="6.95993">
        <ele>342</ele>
        <time>2011-05-08T06:12:31Z</time>
      </trkpt>
      <trkpt lat="49.1878" lon="6.95995">
        <ele>342</ele>
        <time>2011-05-08T06:12:33Z</time>
      </trkpt>
      <trkpt lat="49.18779" lon="6.95997">
        <ele>342</ele>
        <time>2011-05-08T06:12:35Z</time>
      </trkpt>
      <trkpt lat="49.18777" lon="6.96">
        <ele>342</ele>
        <time>2011-05-08T06:12:37Z</time>
      </trkpt>
      <trkpt lat="49.18776" lon="6.96001">
        <ele>342</ele>
        <time>2011-05-08T06:12:38Z</time>
      </trkpt>
      <trkpt lat="49.18775" lon="6.96004">
        <ele>342</ele>
        <time>2011-05-08T06:12:40Z</time>
      </trkpt>
      <trkpt lat="49.18774" lon="6.96006">
        <ele>342</ele>
        <time>2011-05-08T06:12:41Z</time>
      </trkpt>
      <trkpt lat="49.18773" lon="6.96009">
        <ele>343</ele>
        <time>2011-05-08T06:12:43Z</time>
      </trkpt>
      <trkpt lat="49.18772" lon="6.96011">
        <ele>343</ele>
        <time>2011-05-08T06:12:45Z</time>
      </trkpt>
      <trkpt lat="49.1877" lon="6.96014">
        <ele>343</ele>
        <time>2011-05-08T06:12:47Z</time>
      </trkpt>
      <trkpt lat="49.18769" lon="6.96017">
        <ele>343</ele>
        <time>2011-05-08T06:12:49Z</time>
      </trkpt>
      <trkpt lat="49.18768" lon="6.9602">
        <ele>343</ele>
        <time>2011-05-08T06:12:51Z</time>
      </trkpt>
      <trkpt lat="49.18767" lon="6.96022">
        <ele>344</ele>
        <time>2011-05-08T06:12:52Z</time>
      </trkpt>
      <trkpt lat="49.18766" lon="6.96024">
        <ele>344</ele>
        <time>2011-05-08T06:12:54Z</time>
      </trkpt>
      <trkpt lat="49.18764" lon="6.96027">
        <ele>344</ele>
        <time>2011-05-08T06:12:56Z</time>
      </trkpt>
      <trkpt lat="49.18762" lon="6.96031">
        <ele>344</ele>
        <time>2011-05-08T06:12:58Z</time>
      </trkpt>
      <trkpt lat="49.18761" lon="6.96034">
        <ele>344</ele>
        <time>2011-05-08T06:13:00Z</time>
      </trkpt>
      <trkpt lat="49.1876" lon="6.96035">
        <ele>344</ele>
        <time>2011-05-08T06:13:01Z</time>
      </trkpt>
      <trkpt lat="49.18759" lon="6.96038">
        <ele>344</ele>
        <time>2011-05-08T06:13:03Z</time>
      </trkpt>
      <trkpt lat="49.18758" lon="6.9604">
        <ele>344</ele>
        <time>2011-05-08T06:13:04Z</time>
      </trkpt>
      <trkpt lat="49.18756" lon="6.96043">
        <ele>344</ele>
        <time>2011-05-08T06:13:06Z</time>
      </trkpt>
      <trkpt lat="49.18756" lon="6.96045">
        <ele>344</ele>
        <time>2011-05-08T06:13:07Z</time>
      </trkpt>
      <trkpt lat="49.18755" lon="6.96046">
        <ele>344</ele>
        <time>2011-05-08T06:13:08Z</time>
      </trkpt>
      <trkpt lat="49.18753" lon="6.96048">
        <ele>344</ele>
        <time>2011-05-08T06:13:10Z</time>
      </trkpt>
      <trkpt lat="49.18752" lon="6.9605">
        <ele>344</ele>
        <time>2011-05-08T06:13:11Z</time>
      </trkpt>
      <trkpt lat="49.18751" lon="6.96052">
        <ele>344</ele>
        <time>2011-05-08T06:13:12Z</time>
      </trkpt>
      <trkpt lat="49.1875" lon="6.96055">
        <ele>344</ele>
        <time>2011-05-08T06:13:14Z</time>
      </trkpt>
      <trkpt lat="49.18748" lon="6.96058">
        <ele>344</ele>
        <time>2011-05-08T06:13:16Z</time>
      </trkpt>
      <trkpt lat="49.18747" lon="6.96059">
        <ele>344</ele>
        <time>2011-05-08T06:13:17Z</time>
      </trkpt>
      <trkpt lat="49.18747" lon="6.96061">
        <ele>344</ele>
        <time>2011-05-08T06:13:18Z</time>
      </trkpt>
      <trkpt lat="49.18746" lon="6.96063">
        <ele>344</ele>
        <time>2011-05-08T06:13:19Z</time>
      </trkpt>
      <trkpt lat="49.18745" lon="6.96064">
        <ele>344</ele>
        <time>2011-05-08T06:13:20Z</time>
      </trkpt>
      <trkpt lat="49.18744" lon="6.96066">
        <ele>344</ele>
        <time>2011-05-08T06:13:21Z</time>
      </trkpt>
      <trkpt lat="49.18744" lon="6.96068">
        <ele>344</ele>
        <time>2011-05-08T06:13:22Z</time>
      </trkpt>
      <trkpt lat="49.18743" lon="6.9607">
        <ele>344</ele>
        <time>2011-05-08T06:13:23Z</time>
      </trkpt>
      <trkpt lat="49.18742" lon="6.96072">
        <ele>344</ele>
        <time>2011-05-08T06:13:24Z</time>
      </trkpt>
      <trkpt lat="49.18742" lon="6.96074">
        <ele>344</ele>
        <time>2011-05-08T06:13:25Z</time>
      </trkpt>
      <trkpt lat="49.18741" lon="6.96075">
        <ele>344</ele>
        <time>2011-05-08T06:13:26Z</time>
      </trkpt>
      <trkpt lat="49.18739" lon="6.96078">
        <ele>344</ele>
        <time>2011-05-08T06:13:28Z</time>
      </trkpt>
      <trkpt lat="49.18739" lon="6.9608">
        <ele>344</ele>
        <time>2011-05-08T06:13:29Z</time>
      </trkpt>
      <trkpt lat="49.18738" lon="6.96082">
        <ele>344</ele>
        <time>2011-05-08T06:13:30Z</time>
      </trkpt>
      <trkpt lat="49.18737" lon="6.96084">
        <ele>344</ele>
        <time>2011-05-08T06:13:31Z</time>
      </trkpt>
      <trkpt lat="49.18736" lon="6.96087">
        <ele>345</ele>
        <time>2011-05-08T06:13:33Z</time>
      </trkpt>
      <trkpt lat="49.18735" lon="6.96089">
        <ele>345</ele>
        <time>2011-05-08T06:13:34Z</time>
      </trkpt>
      <trkpt lat="49.18734" lon="6.96092">
        <ele>345</ele>
        <time>2011-05-08T06:13:36Z</time>
      </trkpt>
      <trkpt lat="49.18732" lon="6.96095">
        <ele>345</ele>
        <time>2011-05-08T06:13:38Z</time>
      </trkpt>
      <trkpt lat="49.18732" lon="6.96097">
        <ele>345</ele>
        <time>2011-05-08T06:13:39Z</time>
      </trkpt>
      <trkpt lat="49.18731" lon="6.96098">
        <ele>345</ele>
        <time>2011-05-08T06:13:40Z</time>
      </trkpt>
      <trkpt lat="49.18731" lon="6.961">
        <ele>345</ele>
        <time>2011-05-08T06:13:41Z</time>
      </trkpt>
      <trkpt lat="49.18729" lon="6.96103">
        <ele>345</ele>
        <time>2011-05-08T06:13:43Z</time>
      </trkpt>
      <trkpt lat="49.18729" lon="6.96105">
        <ele>345</ele>
        <time>2011-05-08T06:13:44Z</time>
      </trkpt>
      <trkpt lat="49.18728" lon="6.96107">
        <ele>345</ele>
        <time>2011-05-08T06:13:45Z</time>
      </trkpt>
      <trkpt lat="49.18728" lon="6.96108">
        <ele>345</ele>
        <time>2011-05-08T06:13:46Z</time>
      </trkpt>
      <trkpt lat="49.18727" lon="6.9611">
        <ele>345</ele>
        <time>2011-05-08T06:13:47Z</time>
      </trkpt>
      <trkpt lat="49.18727" lon="6.96112">
        <ele>345</ele>
        <time>2011-05-08T06:13:48Z</time>
      </trkpt>
      <trkpt lat="49.18726" lon="6.96114">
        <ele>345</ele>
        <time>2011-05-08T06:13:49Z</time>
      </trkpt>
      <trkpt lat="49.18726" lon="6.96116">
        <ele>345</ele>
        <time>2011-05-08T06:13:50Z</time>
      </trkpt>
      <trkpt lat="49.18725" lon="6.96118">
        <ele>345</ele>
        <time>2011-05-08T06:13:51Z</time>
      </trkpt>
      <trkpt lat="49.18725" lon="6.96119">
        <ele>345</ele>
        <time>2011-05-08T06:13:52Z</time>
      </trkpt>
      <trkpt lat="49.18724" lon="6.96121">
        <ele>345</ele>
        <time>2011-05-08T06:13:53Z</time>
      </trkpt>
      <trkpt lat="49.18724" lon="6.96123">
        <ele>345</ele>
        <time>2011-05-08T06:13:54Z</time>
      </trkpt>
      <trkpt lat="49.18724" lon="6.96125">
        <ele>345</ele>
        <time>2011-05-08T06:13:55Z</time>
      </trkpt>
      <trkpt lat="49.18723" lon="6.96127">
        <ele>345</ele>
        <time>2011-05-08T06:13:56Z</time>
      </trkpt>
      <trkpt lat="49.18723" lon="6.96129">
        <ele>345</ele>
        <time>2011-05-08T06:13:57Z</time>
      </trkpt>
      <trkpt lat="49.18722" lon="6.96131">
        <ele>345</ele>
        <time>2011-05-08T06:13:58Z</time>
      </trkpt>
      <trkpt lat="49.18722" lon="6.96132">
        <ele>346</ele>
        <time>2011-05-08T06:13:59Z</time>
      </trkpt>
      <trkpt lat="49.18721" lon="6.96134">
        <ele>346</ele>
        <time>2011-05-08T06:14:00Z</time>
      </trkpt>
      <trkpt lat="49.18721" lon="6.96136">
        <ele>346</ele>
        <time>2011-05-08T06:14:01Z</time>
      </trkpt>
      <trkpt lat="49.1872" lon="6.96138">
        <ele>346</ele>
        <time>2011-05-08T06:14:02Z</time>
      </trkpt>
      <trkpt lat="49.1872" lon="6.9614">
        <ele>346</ele>
        <time>2011-05-08T06:14:03Z</time>
      </trkpt>
      <trkpt lat="49.18719" lon="6.96142">
        <ele>346</ele>
        <time>2011-05-08T06:14:04Z</time>
      </trkpt>
      <trkpt lat="49.18718" lon="6.96143">
        <ele>346</ele>
        <time>2011-05-08T06:14:05Z</time>
      </trkpt>
      <trkpt lat="49.18718" lon="6.96145">
        <ele>346</ele>
        <time>2011-05-08T06:14:06Z</time>
      </trkpt>
      <trkpt lat="49.18718" lon="6.96147">
        <ele>346</ele>
        <time>2011-05-08T06:14:07Z</time>
      </trkpt>
      <trkpt lat="49.18717" lon="6.96148">
        <ele>346</ele>
        <time>2011-05-08T06:14:08Z</time>
      </trkpt>
      <trkpt lat="49.18717" lon="6.9615">
        <ele>346</ele>
        <time>2011-05-08T06:14:09Z</time>
      </trkpt>
      <trkpt lat="49.18716" lon="6.96152">
        <ele>346</ele>
        <time>2011-05-08T06:14:10Z</time>
      </trkpt>
      <trkpt lat="49.18716" lon="6.96154">
        <ele>346</ele>
        <time>2011-05-08T06:14:11Z</time>
      </trkpt>
      <trkpt lat="49.18715" lon="6.96155">
        <ele>346</ele>
        <time>2011-05-08T06:14:12Z</time>
      </trkpt>
      <trkpt lat="49.18714" lon="6.96157">
        <ele>346</ele>
        <time>2011-05-08T06:14:13Z</time>
      </trkpt>
      <trkpt lat="49.18713" lon="6.96159">
        <ele>346</ele>
        <time>2011-05-08T06:14:14Z</time>
      </trkpt>
      <trkpt lat="49.18713" lon="6.96161">
        <ele>346</ele>
        <time>2011-05-08T06:14:15Z</time>
      </trkpt>
      <trkpt lat="49.18712" lon="6.96162">
        <ele>346</ele>
        <time>2011-05-08T06:14:16Z</time>
      </trkpt>
      <trkpt lat="49.18711" lon="6.96165">
        <ele>346</ele>
        <time>2011-05-08T06:14:18Z</time>
      </trkpt>
      <trkpt lat="49.18711" lon="6.96167">
        <ele>346</ele>
        <time>2011-05-08T06:14:19Z</time>
      </trkpt>
      <trkpt lat="49.1871" lon="6.96169">
        <ele>346</ele>
        <time>2011-05-08T06:14:20Z</time>
      </trkpt>
      <trkpt lat="49.1871" lon="6.96171">
        <ele>346</ele>
        <time>2011-05-08T06:14:21Z</time>
      </trkpt>
      <trkpt lat="49.18709" lon="6.96172">
        <ele>346</ele>
        <time>2011-05-08T06:14:22Z</time>
      </trkpt>
      <trkpt lat="49.18708" lon="6.96174">
        <ele>346</ele>
        <time>2011-05-08T06:14:23Z</time>
      </trkpt>
      <trkpt lat="49.18708" lon="6.96176">
        <ele>346</ele>
        <time>2011-05-08T06:14:24Z</time>
      </trkpt>
      <trkpt lat="49.18707" lon="6.96178">
        <ele>346</ele>
        <time>2011-05-08T06:14:25Z</time>
      </trkpt>
      <trkpt lat="49.18706" lon="6.9618">
        <ele>346</ele>
        <time>2011-05-08T06:14:26Z</time>
      </trkpt>
      <trkpt lat="49.18706" lon="6.96182">
        <ele>346</ele>
        <time>2011-05-08T06:14:27Z</time>
      </trkpt>
      <trkpt lat="49.18705" lon="6.96184">
        <ele>346</ele>
        <time>2011-05-08T06:14:28Z</time>
      </trkpt>
      <trkpt lat="49.18704" lon="6.96187">
        <ele>346</ele>
        <time>2011-05-08T06:14:30Z</time>
      </trkpt>
      <trkpt lat="49.18703" lon="6.96189">
        <ele>346</ele>
        <time>2011-05-08T06:14:31Z</time>
      </trkpt>
      <trkpt lat="49.18703" lon="6.9619">
        <ele>346</ele>
        <time>2011-05-08T06:14:32Z</time>
      </trkpt>
      <trkpt lat="49.18702" lon="6.96192">
        <ele>346</ele>
        <time>2011-05-08T06:14:33Z</time>
      </trkpt>
      <trkpt lat="49.18701" lon="6.96194">
        <ele>346</ele>
        <time>2011-05-08T06:14:34Z</time>
      </trkpt>
      <trkpt lat="49.18701" lon="6.96196">
        <ele>346</ele>
        <time>2011-05-08T06:14:35Z</time>
      </trkpt>
      <trkpt lat="49.187" lon="6.96198">
        <ele>346</ele>
        <time>2011-05-08T06:14:36Z</time>
      </trkpt>
      <trkpt lat="49.18699" lon="6.962">
        <ele>346</ele>
        <time>2011-05-08T06:14:37Z</time>
      </trkpt>
      <trkpt lat="49.18699" lon="6.96202">
        <ele>346</ele>
        <time>2011-05-08T06:14:38Z</time>
      </trkpt>
      <trkpt lat="49.18698" lon="6.96203">
        <ele>346</ele>
        <time>2011-05-08T06:14:39Z</time>
      </trkpt>
      <trkpt lat="49.18697" lon="6.96205">
        <ele>346</ele>
        <time>2011-05-08T06:14:40Z</time>
      </trkpt>
      <trkpt lat="49.18696" lon="6.96207">
        <ele>346</ele>
        <time>2011-05-08T06:14:41Z</time>
      </trkpt>
      <trkpt lat="49.18696" lon="6.96209">
        <ele>346</ele>
        <time>2011-05-08T06:14:42Z</time>
      </trkpt>
      <trkpt lat="49.18695" lon="6.9621">
        <ele>346</ele>
        <time>2011-05-08T06:14:43Z</time>
      </trkpt>
      <trkpt lat="49.18695" lon="6.96212">
        <ele>346</ele>
        <time>2011-05-08T06:14:44Z</time>
      </trkpt>
      <trkpt lat="49.18694" lon="6.96214">
        <ele>346</ele>
        <time>2011-05-08T06:14:45Z</time>
      </trkpt>
      <trkpt lat="49.18693" lon="6.96216">
        <ele>346</ele>
        <time>2011-05-08T06:14:46Z</time>
      </trkpt>
      <trkpt lat="49.18692" lon="6.96218">
        <ele>346</ele>
        <time>2011-05-08T06:14:47Z</time>
      </trkpt>
      <trkpt lat="49.18692" lon="6.9622">
        <ele>346</ele>
        <time>2011-05-08T06:14:48Z</time>
      </trkpt>
      <trkpt lat="49.1869" lon="6.96223">
        <ele>346</ele>
        <time>2011-05-08T06:14:50Z</time>
      </trkpt>
      <trkpt lat="49.18689" lon="6.96226">
        <ele>346</ele>
        <time>2011-05-08T06:14:52Z</time>
      </trkpt>
      <trkpt lat="49.18688" lon="6.96229">
        <ele>346</ele>
        <time>2011-05-08T06:14:54Z</time>
      </trkpt>
      <trkpt lat="49.18687" lon="6.96231">
        <ele>346</ele>
        <time>2011-05-08T06:14:55Z</time>
      </trkpt>
      <trkpt lat="49.18687" lon="6.96233">
        <ele>346</ele>
        <time>2011-05-08T06:14:56Z</time>
      </trkpt>
      <trkpt lat="49.18686" lon="6.96235">
        <ele>346</ele>
        <time>2011-05-08T06:14:57Z</time>
      </trkpt>
      <trkpt lat="49.18686" lon="6.96237">
        <ele>346</ele>
        <time>2011-05-08T06:14:58Z</time>
      </trkpt>
      <trkpt lat="49.18685" lon="6.96239">
        <ele>346</ele>
        <time>2011-05-08T06:14:59Z</time>
      </trkpt>
      <trkpt lat="49.18684" lon="6.9624">
        <ele>346</ele>
        <time>2011-05-08T06:15:00Z</time>
      </trkpt>
      <trkpt lat="49.18684" lon="6.96242">
        <ele>346</ele>
        <time>2011-05-08T06:15:01Z</time>
      </trkpt>
      <trkpt lat="49.18682" lon="6.96245">
        <ele>346</ele>
        <time>2011-05-08T06:15:03Z</time>
      </trkpt>
      <trkpt lat="49.18681" lon="6.96247">
        <ele>346</ele>
        <time>2011-05-08T06:15:04Z</time>
      </trkpt>
      <trkpt lat="49.18681" lon="6.96249">
        <ele>346</ele>
        <time>2011-05-08T06:15:05Z</time>
      </trkpt>
      <trkpt lat="49.18681" lon="6.96251">
        <ele>346</ele>
        <time>2011-05-08T06:15:06Z</time>
      </trkpt>
      <trkpt lat="49.1868" lon="6.96253">
        <ele>346</ele>
        <time>2011-05-08T06:15:07Z</time>
      </trkpt>
      <trkpt lat="49.18679" lon="6.96254">
        <ele>346</ele>
        <time>2011-05-08T06:15:08Z</time>
      </trkpt>
      <trkpt lat="49.18679" lon="6.96256">
        <ele>346</ele>
        <time>2011-05-08T06:15:09Z</time>
      </trkpt>
      <trkpt lat="49.18678" lon="6.96258">
        <ele>346</ele>
        <time>2011-05-08T06:15:10Z</time>
      </trkpt>
      <trkpt lat="49.18677" lon="6.9626">
        <ele>346</ele>
        <time>2011-05-08T06:15:11Z</time>
      </trkpt>
      <trkpt lat="49.18677" lon="6.96262">
        <ele>346</ele>
        <time>2011-05-08T06:15:12Z</time>
      </trkpt>
      <trkpt lat="49.18676" lon="6.96264">
        <ele>346</ele>
        <time>2011-05-08T06:15:13Z</time>
      </trkpt>
      <trkpt lat="49.18675" lon="6.96266">
        <ele>346</ele>
        <time>2011-05-08T06:15:14Z</time>
      </trkpt>
      <trkpt lat="49.18675" lon="6.96267">
        <ele>346</ele>
        <time>2011-05-08T06:15:15Z</time>
      </trkpt>
      <trkpt lat="49.18674" lon="6.96269">
        <ele>346</ele>
        <time>2011-05-08T06:15:16Z</time>
      </trkpt>
      <trkpt lat="49.18673" lon="6.96271">
        <ele>346</ele>
        <time>2011-05-08T06:15:17Z</time>
      </trkpt>
      <trkpt lat="49.18673" lon="6.96273">
        <ele>346</ele>
        <time>2011-05-08T06:15:18Z</time>
      </trkpt>
      <trkpt lat="49.18672" lon="6.96276">
        <ele>346</ele>
        <time>2011-05-08T06:15:20Z</time>
      </trkpt>
      <trkpt lat="49.18671" lon="6.96278">
        <ele>346</ele>
        <time>2011-05-08T06:15:21Z</time>
      </trkpt>
      <trkpt lat="49.18671" lon="6.96279">
        <ele>346</ele>
        <time>2011-05-08T06:15:22Z</time>
      </trkpt>
      <trkpt lat="49.1867" lon="6.96281">
        <ele>346</ele>
        <time>2011-05-08T06:15:23Z</time>
      </trkpt>
      <trkpt lat="49.18669" lon="6.96283">
        <ele>346</ele>
        <time>2011-05-08T06:15:24Z</time>
      </trkpt>
      <trkpt lat="49.18669" lon="6.96285">
        <ele>346</ele>
        <time>2011-05-08T06:15:25Z</time>
      </trkpt>
      <trkpt lat="49.18668" lon="6.96287">
        <ele>346</ele>
        <time>2011-05-08T06:15:26Z</time>
      </trkpt>
      <trkpt lat="49.18667" lon="6.9629">
        <ele>346</ele>
        <time>2011-05-08T06:15:28Z</time>
      </trkpt>
      <trkpt lat="49.18666" lon="6.96292">
        <ele>346</ele>
        <time>2011-05-08T06:15:29Z</time>
      </trkpt>
      <trkpt lat="49.18665" lon="6.96294">
        <ele>347</ele>
        <time>2011-05-08T06:15:30Z</time>
      </trkpt>
      <trkpt lat="49.18665" lon="6.96296">
        <ele>347</ele>
        <time>2011-05-08T06:15:31Z</time>
      </trkpt>
      <trkpt lat="49.18664" lon="6.96298">
        <ele>347</ele>
        <time>2011-05-08T06:15:32Z</time>
      </trkpt>
      <trkpt lat="49.18663" lon="6.96299">
        <ele>347</ele>
        <time>2011-05-08T06:15:33Z</time>
      </trkpt>
      <trkpt lat="49.18663" lon="6.96301">
        <ele>347</ele>
        <time>2011-05-08T06:15:34Z</time>
      </trkpt>
      <trkpt lat="49.18662" lon="6.96303">
        <ele>347</ele>
        <time>2011-05-08T06:15:35Z</time>
      </trkpt>
      <trkpt lat="49.18661" lon="6.96305">
        <ele>347</ele>
        <time>2011-05-08T06:15:36Z</time>
      </trkpt>
      <trkpt lat="49.18661" lon="6.96306">
        <ele>347</ele>
        <time>2011-05-08T06:15:37Z</time>
      </trkpt>
      <trkpt lat="49.1866" lon="6.96308">
        <ele>347</ele>
        <time>2011-05-08T06:15:38Z</time>
      </trkpt>
      <trkpt lat="49.1866" lon="6.9631">
        <ele>347</ele>
        <time>2011-05-08T06:15:39Z</time>
      </trkpt>
      <trkpt lat="49.18659" lon="6.96312">
        <ele>347</ele>
        <time>2011-05-08T06:15:40Z</time>
      </trkpt>
      <trkpt lat="49.18659" lon="6.96313">
        <ele>348</ele>
        <time>2011-05-08T06:15:41Z</time>
      </trkpt>
      <trkpt lat="49.18658" lon="6.96315">
        <ele>348</ele>
        <time>2011-05-08T06:15:42Z</time>
      </trkpt>
      <trkpt lat="49.18657" lon="6.96317">
        <ele>348</ele>
        <time>2011-05-08T06:15:43Z</time>
      </trkpt>
      <trkpt lat="49.18657" lon="6.96319">
        <ele>348</ele>
        <time>2011-05-08T06:15:44Z</time>
      </trkpt>
      <trkpt lat="49.18656" lon="6.96321">
        <ele>348</ele>
        <time>2011-05-08T06:15:45Z</time>
      </trkpt>
      <trkpt lat="49.18655" lon="6.96323">
        <ele>348</ele>
        <time>2011-05-08T06:15:46Z</time>
      </trkpt>
      <trkpt lat="49.18655" lon="6.96324">
        <ele>348</ele>
        <time>2011-05-08T06:15:47Z</time>
      </trkpt>
      <trkpt lat="49.18654" lon="6.96326">
        <ele>348</ele>
        <time>2011-05-08T06:15:48Z</time>
      </trkpt>
      <trkpt lat="49.18654" lon="6.96328">
        <ele>348</ele>
        <time>2011-05-08T06:15:49Z</time>
      </trkpt>
      <trkpt lat="49.18653" lon="6.9633">
        <ele>348</ele>
        <time>2011-05-08T06:15:50Z</time>
      </trkpt>
      <trkpt lat="49.18652" lon="6.96332">
        <ele>348</ele>
        <time>2011-05-08T06:15:51Z</time>
      </trkpt>
      <trkpt lat="49.18652" lon="6.96334">
        <ele>348</ele>
        <time>2011-05-08T06:15:52Z</time>
      </trkpt>
      <trkpt lat="49.18651" lon="6.96335">
        <ele>348</ele>
        <time>2011-05-08T06:15:53Z</time>
      </trkpt>
      <trkpt lat="49.18651" lon="6.96337">
        <ele>348</ele>
        <time>2011-05-08T06:15:54Z</time>
      </trkpt>
      <trkpt lat="49.1865" lon="6.96339">
        <ele>348</ele>
        <time>2011-05-08T06:15:55Z</time>
      </trkpt>
      <trkpt lat="49.1865" lon="6.96341">
        <ele>348</ele>
        <time>2011-05-08T06:15:56Z</time>
      </trkpt>
      <trkpt lat="49.18649" lon="6.96343">
        <ele>348</ele>
        <time>2011-05-08T06:15:57Z</time>
      </trkpt>
      <trkpt lat="49.18648" lon="6.96345">
        <ele>349</ele>
        <time>2011-05-08T06:15:58Z</time>
      </trkpt>
      <trkpt lat="49.18647" lon="6.96347">
        <ele>349</ele>
        <time>2011-05-08T06:15:59Z</time>
      </trkpt>
      <trkpt lat="49.18647" lon="6.96348">
        <ele>349</ele>
        <time>2011-05-08T06:16:00Z</time>
      </trkpt>
      <trkpt lat="49.18647" lon="6.9635">
        <ele>349</ele>
        <time>2011-05-08T06:16:01Z</time>
      </trkpt>
      <trkpt lat="49.18646" lon="6.96351">
        <ele>349</ele>
        <time>2011-05-08T06:16:02Z</time>
      </trkpt>
      <trkpt lat="49.18645" lon="6.96353">
        <ele>349</ele>
        <time>2011-05-08T06:16:03Z</time>
      </trkpt>
      <trkpt lat="49.18644" lon="6.96356">
        <ele>349</ele>
        <time>2011-05-08T06:16:05Z</time>
      </trkpt>
      <trkpt lat="49.18643" lon="6.96358">
        <ele>349</ele>
        <time>2011-05-08T06:16:06Z</time>
      </trkpt>
      <trkpt lat="49.18643" lon="6.9636">
        <ele>349</ele>
        <time>2011-05-08T06:16:07Z</time>
      </trkpt>
      <trkpt lat="49.18642" lon="6.96362">
        <ele>349</ele>
        <time>2011-05-08T06:16:08Z</time>
      </trkpt>
      <trkpt lat="49.18641" lon="6.96363">
        <ele>349</ele>
        <time>2011-05-08T06:16:09Z</time>
      </trkpt>
      <trkpt lat="49.1864" lon="6.96365">
        <ele>349</ele>
        <time>2011-05-08T06:16:10Z</time>
      </trkpt>
      <trkpt lat="49.18639" lon="6.96367">
        <ele>349</ele>
        <time>2011-05-08T06:16:11Z</time>
      </trkpt>
      <trkpt lat="49.18638" lon="6.96369">
        <ele>349</ele>
        <time>2011-05-08T06:16:12Z</time>
      </trkpt>
      <trkpt lat="49.18637" lon="6.96371">
        <ele>349</ele>
        <time>2011-05-08T06:16:13Z</time>
      </trkpt>
      <trkpt lat="49.18637" lon="6.96372">
        <ele>349</ele>
        <time>2011-05-08T06:16:14Z</time>
      </trkpt>
      <trkpt lat="49.18636" lon="6.96374">
        <ele>349</ele>
        <time>2011-05-08T06:16:15Z</time>
      </trkpt>
      <trkpt lat="49.18636" lon="6.96376">
        <ele>349</ele>
        <time>2011-05-08T06:16:16Z</time>
      </trkpt>
      <trkpt lat="49.18635" lon="6.96378">
        <ele>349</ele>
        <time>2011-05-08T06:16:17Z</time>
      </trkpt>
      <trkpt lat="49.18634" lon="6.9638">
        <ele>349</ele>
        <time>2011-05-08T06:16:18Z</time>
      </trkpt>
      <trkpt lat="49.18634" lon="6.96381">
        <ele>349</ele>
        <time>2011-05-08T06:16:19Z</time>
      </trkpt>
      <trkpt lat="49.18632" lon="6.96384">
        <ele>349</ele>
        <time>2011-05-08T06:16:21Z</time>
      </trkpt>
      <trkpt lat="49.18631" lon="6.96386">
        <ele>349</ele>
        <time>2011-05-08T06:16:22Z</time>
      </trkpt>
      <trkpt lat="49.18631" lon="6.96388">
        <ele>349</ele>
        <time>2011-05-08T06:16:23Z</time>
      </trkpt>
      <trkpt lat="49.1863" lon="6.96389">
        <ele>349</ele>
        <time>2011-05-08T06:16:24Z</time>
      </trkpt>
      <trkpt lat="49.18628" lon="6.96392">
        <ele>349</ele>
        <time>2011-05-08T06:16:26Z</time>
      </trkpt>
      <trkpt lat="49.18628" lon="6.96394">
        <ele>349</ele>
        <time>2011-05-08T06:16:27Z</time>
      </trkpt>
      <trkpt lat="49.18626" lon="6.96397">
        <ele>349</ele>
        <time>2011-05-08T06:16:29Z</time>
      </trkpt>
      <trkpt lat="49.18626" lon="6.96399">
        <ele>349</ele>
        <time>2011-05-08T06:16:30Z</time>
      </trkpt>
      <trkpt lat="49.18625" lon="6.96401">
        <ele>349</ele>
        <time>2011-05-08T06:16:31Z</time>
      </trkpt>
      <trkpt lat="49.18623" lon="6.96404">
        <ele>349</ele>
        <time>2011-05-08T06:16:33Z</time>
      </trkpt>
      <trkpt lat="49.18622" lon="6.96406">
        <ele>349</ele>
        <time>2011-05-08T06:16:34Z</time>
      </trkpt>
      <trkpt lat="49.18622" lon="6.96407">
        <ele>349</ele>
        <time>2011-05-08T06:16:35Z</time>
      </trkpt>
      <trkpt lat="49.18622" lon="6.96409">
        <ele>349</ele>
        <time>2011-05-08T06:16:36Z</time>
      </trkpt>
      <trkpt lat="49.18621" lon="6.96411">
        <ele>349</ele>
        <time>2011-05-08T06:16:37Z</time>
      </trkpt>
      <trkpt lat="49.18621" lon="6.96413">
        <ele>349</ele>
        <time>2011-05-08T06:16:38Z</time>
      </trkpt>
      <trkpt lat="49.1862" lon="6.96414">
        <ele>349</ele>
        <time>2011-05-08T06:16:39Z</time>
      </trkpt>
      <trkpt lat="49.18619" lon="6.96417">
        <ele>349</ele>
        <time>2011-05-08T06:16:41Z</time>
      </trkpt>
      <trkpt lat="49.18618" lon="6.96419">
        <ele>349</ele>
        <time>2011-05-08T06:16:42Z</time>
      </trkpt>
      <trkpt lat="49.18617" lon="6.96421">
        <ele>349</ele>
        <time>2011-05-08T06:16:43Z</time>
      </trkpt>
      <trkpt lat="49.18616" lon="6.96424">
        <ele>349</ele>
        <time>2011-05-08T06:16:45Z</time>
      </trkpt>
      <trkpt lat="49.18615" lon="6.96426">
        <ele>349</ele>
        <time>2011-05-08T06:16:46Z</time>
      </trkpt>
      <trkpt lat="49.18615" lon="6.96427">
        <ele>349</ele>
        <time>2011-05-08T06:16:47Z</time>
      </trkpt>
      <trkpt lat="49.18614" lon="6.96429">
        <ele>349</ele>
        <time>2011-05-08T06:16:48Z</time>
      </trkpt>
      <trkpt lat="49.18613" lon="6.96431">
        <ele>349</ele>
        <time>2011-05-08T06:16:49Z</time>
      </trkpt>
      <trkpt lat="49.18612" lon="6.96434">
        <ele>349</ele>
        <time>2011-05-08T06:16:51Z</time>
      </trkpt>
      <trkpt lat="49.18611" lon="6.96436">
        <ele>349</ele>
        <time>2011-05-08T06:16:52Z</time>
      </trkpt>
      <trkpt lat="49.18609" lon="6.96439">
        <ele>349</ele>
        <time>2011-05-08T06:16:54Z</time>
      </trkpt>
      <trkpt lat="49.18608" lon="6.96442">
        <ele>349</ele>
        <time>2011-05-08T06:16:56Z</time>
      </trkpt>
      <trkpt lat="49.18607" lon="6.96444">
        <ele>349</ele>
        <time>2011-05-08T06:16:57Z</time>
      </trkpt>
      <trkpt lat="49.18607" lon="6.96446">
        <ele>349</ele>
        <time>2011-05-08T06:16:58Z</time>
      </trkpt>
      <trkpt lat="49.18606" lon="6.96447">
        <ele>349</ele>
        <time>2011-05-08T06:16:59Z</time>
      </trkpt>
      <trkpt lat="49.18605" lon="6.96449">
        <ele>349</ele>
        <time>2011-05-08T06:17:00Z</time>
      </trkpt>
      <trkpt lat="49.18605" lon="6.96451">
        <ele>349</ele>
        <time>2011-05-08T06:17:01Z</time>
      </trkpt>
      <trkpt lat="49.18604" lon="6.96453">
        <ele>349</ele>
        <time>2011-05-08T06:17:02Z</time>
      </trkpt>
      <trkpt lat="49.18603" lon="6.96456">
        <ele>349</ele>
        <time>2011-05-08T06:17:04Z</time>
      </trkpt>
      <trkpt lat="49.18602" lon="6.96458">
        <ele>349</ele>
        <time>2011-05-08T06:17:05Z</time>
      </trkpt>
      <trkpt lat="49.18601" lon="6.9646">
        <ele>349</ele>
        <time>2011-05-08T06:17:06Z</time>
      </trkpt>
      <trkpt lat="49.18601" lon="6.96461">
        <ele>349</ele>
        <time>2011-05-08T06:17:07Z</time>
      </trkpt>
      <trkpt lat="49.186" lon="6.96463">
        <ele>349</ele>
        <time>2011-05-08T06:17:08Z</time>
      </trkpt>
      <trkpt lat="49.18599" lon="6.96465">
        <ele>349</ele>
        <time>2011-05-08T06:17:09Z</time>
      </trkpt>
      <trkpt lat="49.18598" lon="6.96467">
        <ele>349</ele>
        <time>2011-05-08T06:17:10Z</time>
      </trkpt>
      <trkpt lat="49.18597" lon="6.96469">
        <ele>349</ele>
        <time>2011-05-08T06:17:11Z</time>
      </trkpt>
      <trkpt lat="49.18597" lon="6.9647">
        <ele>349</ele>
        <time>2011-05-08T06:17:12Z</time>
      </trkpt>
      <trkpt lat="49.18596" lon="6.96472">
        <ele>349</ele>
        <time>2011-05-08T06:17:13Z</time>
      </trkpt>
      <trkpt lat="49.18595" lon="6.96475">
        <ele>349</ele>
        <time>2011-05-08T06:17:14Z</time>
      </trkpt>
      <trkpt lat="49.18594" lon="6.96476">
        <ele>349</ele>
        <time>2011-05-08T06:17:15Z</time>
      </trkpt>
      <trkpt lat="49.18593" lon="6.96479">
        <ele>349</ele>
        <time>2011-05-08T06:17:17Z</time>
      </trkpt>
      <trkpt lat="49.18592" lon="6.96482">
        <ele>349</ele>
        <time>2011-05-08T06:17:19Z</time>
      </trkpt>
      <trkpt lat="49.18592" lon="6.96484">
        <ele>349</ele>
        <time>2011-05-08T06:17:20Z</time>
      </trkpt>
      <trkpt lat="49.18591" lon="6.96486">
        <ele>349</ele>
        <time>2011-05-08T06:17:21Z</time>
      </trkpt>
      <trkpt lat="49.18591" lon="6.96488">
        <ele>349</ele>
        <time>2011-05-08T06:17:22Z</time>
      </trkpt>
      <trkpt lat="49.1859" lon="6.96489">
        <ele>349</ele>
        <time>2011-05-08T06:17:23Z</time>
      </trkpt>
      <trkpt lat="49.18589" lon="6.96491">
        <ele>349</ele>
        <time>2011-05-08T06:17:24Z</time>
      </trkpt>
      <trkpt lat="49.18589" lon="6.96493">
        <ele>349</ele>
        <time>2011-05-08T06:17:25Z</time>
      </trkpt>
      <trkpt lat="49.18588" lon="6.96495">
        <ele>349</ele>
        <time>2011-05-08T06:17:26Z</time>
      </trkpt>
      <trkpt lat="49.18587" lon="6.96497">
        <ele>349</ele>
        <time>2011-05-08T06:17:27Z</time>
      </trkpt>
      <trkpt lat="49.18586" lon="6.96499">
        <ele>349</ele>
        <time>2011-05-08T06:17:28Z</time>
      </trkpt>
      <trkpt lat="49.18586" lon="6.96501">
        <ele>349</ele>
        <time>2011-05-08T06:17:29Z</time>
      </trkpt>
      <trkpt lat="49.18586" lon="6.96502">
        <ele>349</ele>
        <time>2011-05-08T06:17:30Z</time>
      </trkpt>
      <trkpt lat="49.18584" lon="6.96505">
        <ele>349</ele>
        <time>2011-05-08T06:17:32Z</time>
      </trkpt>
      <trkpt lat="49.18584" lon="6.96507">
        <ele>349</ele>
        <time>2011-05-08T06:17:33Z</time>
      </trkpt>
      <trkpt lat="49.18583" lon="6.9651">
        <ele>349</ele>
        <time>2011-05-08T06:17:35Z</time>
      </trkpt>
      <trkpt lat="49.18581" lon="6.96513">
        <ele>349</ele>
        <time>2011-05-08T06:17:37Z</time>
      </trkpt>
      <trkpt lat="49.18581" lon="6.96515">
        <ele>349</ele>
        <time>2011-05-08T06:17:38Z</time>
      </trkpt>
      <trkpt lat="49.1858" lon="6.96517">
        <ele>349</ele>
        <time>2011-05-08T06:17:39Z</time>
      </trkpt>
      <trkpt lat="49.18578" lon="6.9652">
        <ele>349</ele>
        <time>2011-05-08T06:17:41Z</time>
      </trkpt>
      <trkpt lat="49.18577" lon="6.96523">
        <ele>349</ele>
        <time>2011-05-08T06:17:43Z</time>
      </trkpt>
      <trkpt lat="49.18576" lon="6.96524">
        <ele>349</ele>
        <time>2011-05-08T06:17:44Z</time>
      </trkpt>
      <trkpt lat="49.18576" lon="6.96526">
        <ele>349</ele>
        <time>2011-05-08T06:17:45Z</time>
      </trkpt>
      <trkpt lat="49.18575" lon="6.96528">
        <ele>349</ele>
        <time>2011-05-08T06:17:46Z</time>
      </trkpt>
      <trkpt lat="49.18575" lon="6.9653">
        <ele>349</ele>
        <time>2011-05-08T06:17:47Z</time>
      </trkpt>
      <trkpt lat="49.18574" lon="6.96532">
        <ele>349</ele>
        <time>2011-05-08T06:17:48Z</time>
      </trkpt>
      <trkpt lat="49.18574" lon="6.96534">
        <ele>349</ele>
        <time>2011-05-08T06:17:49Z</time>
      </trkpt>
      <trkpt lat="49.18574" lon="6.96536">
        <ele>349</ele>
        <time>2011-05-08T06:17:50Z</time>
      </trkpt>
      <trkpt lat="49.18573" lon="6.96538">
        <ele>349</ele>
        <time>2011-05-08T06:17:51Z</time>
      </trkpt>
      <trkpt lat="49.18573" lon="6.9654">
        <ele>349</ele>
        <time>2011-05-08T06:17:52Z</time>
      </trkpt>
      <trkpt lat="49.18571" lon="6.96543">
        <ele>349</ele>
        <time>2011-05-08T06:17:54Z</time>
      </trkpt>
      <trkpt lat="49.18571" lon="6.96544">
        <ele>349</ele>
        <time>2011-05-08T06:17:55Z</time>
      </trkpt>
      <trkpt lat="49.1857" lon="6.96546">
        <ele>349</ele>
        <time>2011-05-08T06:17:56Z</time>
      </trkpt>
      <trkpt lat="49.1857" lon="6.96548">
        <ele>349</ele>
        <time>2011-05-08T06:17:57Z</time>
      </trkpt>
      <trkpt lat="49.18569" lon="6.9655">
        <ele>349</ele>
        <time>2011-05-08T06:17:58Z</time>
      </trkpt>
      <trkpt lat="49.18568" lon="6.96551">
        <ele>349</ele>
        <time>2011-05-08T06:17:59Z</time>
      </trkpt>
      <trkpt lat="49.18567" lon="6.96553">
        <ele>349</ele>
        <time>2011-05-08T06:18:00Z</time>
      </trkpt>
      <trkpt lat="49.18567" lon="6.96555">
        <ele>349</ele>
        <time>2011-05-08T06:18:01Z</time>
      </trkpt>
      <trkpt lat="49.18566" lon="6.96557">
        <ele>349</ele>
        <time>2011-05-08T06:18:02Z</time>
      </trkpt>
      <trkpt lat="49.18565" lon="6.9656">
        <ele>349</ele>
        <time>2011-05-08T06:18:04Z</time>
      </trkpt>
      <trkpt lat="49.18564" lon="6.96562">
        <ele>349</ele>
        <time>2011-05-08T06:18:05Z</time>
      </trkpt>
      <trkpt lat="49.18564" lon="6.96563">
        <ele>349</ele>
        <time>2011-05-08T06:18:06Z</time>
      </trkpt>
      <trkpt lat="49.18563" lon="6.96565">
        <ele>349</ele>
        <time>2011-05-08T06:18:07Z</time>
      </trkpt>
      <trkpt lat="49.18562" lon="6.96567">
        <ele>349</ele>
        <time>2011-05-08T06:18:08Z</time>
      </trkpt>
      <trkpt lat="49.18562" lon="6.96569">
        <ele>349</ele>
        <time>2011-05-08T06:18:09Z</time>
      </trkpt>
      <trkpt lat="49.18561" lon="6.96571">
        <ele>349</ele>
        <time>2011-05-08T06:18:10Z</time>
      </trkpt>
      <trkpt lat="49.18561" lon="6.96573">
        <ele>349</ele>
        <time>2011-05-08T06:18:11Z</time>
      </trkpt>
      <trkpt lat="49.1856" lon="6.96574">
        <ele>349</ele>
        <time>2011-05-08T06:18:12Z</time>
      </trkpt>
      <trkpt lat="49.18559" lon="6.96576">
        <ele>349</ele>
        <time>2011-05-08T06:18:13Z</time>
      </trkpt>
      <trkpt lat="49.18559" lon="6.96578">
        <ele>349</ele>
        <time>2011-05-08T06:18:14Z</time>
      </trkpt>
      <trkpt lat="49.18558" lon="6.9658">
        <ele>349</ele>
        <time>2011-05-08T06:18:15Z</time>
      </trkpt>
      <trkpt lat="49.18557" lon="6.96582">
        <ele>349</ele>
        <time>2011-05-08T06:18:16Z</time>
      </trkpt>
      <trkpt lat="49.18557" lon="6.96584">
        <ele>349</ele>
        <time>2011-05-08T06:18:17Z</time>
      </trkpt>
      <trkpt lat="49.18556" lon="6.96586">
        <ele>349</ele>
        <time>2011-05-08T06:18:18Z</time>
      </trkpt>
      <trkpt lat="49.18555" lon="6.96588">
        <ele>349</ele>
        <time>2011-05-08T06:18:19Z</time>
      </trkpt>
      <trkpt lat="49.18555" lon="6.9659">
        <ele>349</ele>
        <time>2011-05-08T06:18:20Z</time>
      </trkpt>
      <trkpt lat="49.18554" lon="6.96592">
        <ele>349</ele>
        <time>2011-05-08T06:18:21Z</time>
      </trkpt>
      <trkpt lat="49.18552" lon="6.96594">
        <ele>349</ele>
        <time>2011-05-08T06:18:23Z</time>
      </trkpt>
      <trkpt lat="49.18552" lon="6.96596">
        <ele>349</ele>
        <time>2011-05-08T06:18:24Z</time>
      </trkpt>
      <trkpt lat="49.18551" lon="6.96599">
        <ele>349</ele>
        <time>2011-05-08T06:18:26Z</time>
      </trkpt>
      <trkpt lat="49.1855" lon="6.96601">
        <ele>349</ele>
        <time>2011-05-08T06:18:27Z</time>
      </trkpt>
      <trkpt lat="49.18549" lon="6.96602">
        <ele>349</ele>
        <time>2011-05-08T06:18:28Z</time>
      </trkpt>
      <trkpt lat="49.18548" lon="6.96604">
        <ele>349</ele>
        <time>2011-05-08T06:18:29Z</time>
      </trkpt>
      <trkpt lat="49.18548" lon="6.96606">
        <ele>349</ele>
        <time>2011-05-08T06:18:30Z</time>
      </trkpt>
      <trkpt lat="49.18547" lon="6.96608">
        <ele>349</ele>
        <time>2011-05-08T06:18:31Z</time>
      </trkpt>
      <trkpt lat="49.18546" lon="6.96609">
        <ele>349</ele>
        <time>2011-05-08T06:18:32Z</time>
      </trkpt>
      <trkpt lat="49.18545" lon="6.96611">
        <ele>349</ele>
        <time>2011-05-08T06:18:33Z</time>
      </trkpt>
      <trkpt lat="49.18544" lon="6.96613">
        <ele>349</ele>
        <time>2011-05-08T06:18:34Z</time>
      </trkpt>
      <trkpt lat="49.18543" lon="6.96614">
        <ele>349</ele>
        <time>2011-05-08T06:18:35Z</time>
      </trkpt>
      <trkpt lat="49.18542" lon="6.96615">
        <ele>349</ele>
        <time>2011-05-08T06:18:36Z</time>
      </trkpt>
      <trkpt lat="49.18539" lon="6.96617">
        <ele>349</ele>
        <time>2011-05-08T06:18:38Z</time>
      </trkpt>
      <trkpt lat="49.18538" lon="6.96617">
        <ele>349</ele>
        <time>2011-05-08T06:18:39Z</time>
      </trkpt>
      <trkpt lat="49.18537" lon="6.96617">
        <ele>349</ele>
        <time>2011-05-08T06:18:40Z</time>
      </trkpt>
      <trkpt lat="49.18536" lon="6.96617">
        <ele>349</ele>
        <time>2011-05-08T06:18:41Z</time>
      </trkpt>
      <trkpt lat="49.18534" lon="6.96617">
        <ele>349</ele>
        <time>2011-05-08T06:18:42Z</time>
      </trkpt>
      <trkpt lat="49.18533" lon="6.96616">
        <ele>349</ele>
        <time>2011-05-08T06:18:43Z</time>
      </trkpt>
      <trkpt lat="49.18531" lon="6.96615">
        <ele>349</ele>
        <time>2011-05-08T06:18:44Z</time>
      </trkpt>
      <trkpt lat="49.1853" lon="6.96614">
        <ele>349</ele>
        <time>2011-05-08T06:18:45Z</time>
      </trkpt>
      <trkpt lat="49.18529" lon="6.96613">
        <ele>349</ele>
        <time>2011-05-08T06:18:46Z</time>
      </trkpt>
      <trkpt lat="49.18528" lon="6.96612">
        <ele>349</ele>
        <time>2011-05-08T06:18:47Z</time>
      </trkpt>
      <trkpt lat="49.18526" lon="6.96611">
        <ele>349</ele>
        <time>2011-05-08T06:18:48Z</time>
      </trkpt>
      <trkpt lat="49.18525" lon="6.9661">
        <ele>349</ele>
        <time>2011-05-08T06:18:49Z</time>
      </trkpt>
      <trkpt lat="49.18524" lon="6.9661">
        <ele>349</ele>
        <time>2011-05-08T06:18:50Z</time>
      </trkpt>
      <trkpt lat="49.18523" lon="6.96609">
        <ele>349</ele>
        <time>2011-05-08T06:18:51Z</time>
      </trkpt>
      <trkpt lat="49.1852" lon="6.96607">
        <ele>349</ele>
        <time>2011-05-08T06:18:53Z</time>
      </trkpt>
      <trkpt lat="49.18519" lon="6.96606">
        <ele>349</ele>
        <time>2011-05-08T06:18:54Z</time>
      </trkpt>
      <trkpt lat="49.18518" lon="6.96605">
        <ele>349</ele>
        <time>2011-05-08T06:18:55Z</time>
      </trkpt>
      <trkpt lat="49.18517" lon="6.96604">
        <ele>349</ele>
        <time>2011-05-08T06:18:56Z</time>
      </trkpt>
      <trkpt lat="49.18515" lon="6.96603">
        <ele>349</ele>
        <time>2011-05-08T06:18:57Z</time>
      </trkpt>
      <trkpt lat="49.18514" lon="6.96602">
        <ele>349</ele>
        <time>2011-05-08T06:18:58Z</time>
      </trkpt>
      <trkpt lat="49.18513" lon="6.96602">
        <ele>349</ele>
        <time>2011-05-08T06:18:59Z</time>
      </trkpt>
      <trkpt lat="49.18511" lon="6.966">
        <ele>349</ele>
        <time>2011-05-08T06:19:01Z</time>
      </trkpt>
      <trkpt lat="49.1851" lon="6.96599">
        <ele>349</ele>
        <time>2011-05-08T06:19:02Z</time>
      </trkpt>
      <trkpt lat="49.18508" lon="6.96597">
        <ele>349</ele>
        <time>2011-05-08T06:19:04Z</time>
      </trkpt>
      <trkpt lat="49.18507" lon="6.96596">
        <ele>349</ele>
        <time>2011-05-08T06:19:05Z</time>
      </trkpt>
      <trkpt lat="49.18505" lon="6.96595">
        <ele>349</ele>
        <time>2011-05-08T06:19:06Z</time>
      </trkpt>
      <trkpt lat="49.18503" lon="6.96593">
        <ele>349</ele>
        <time>2011-05-08T06:19:08Z</time>
      </trkpt>
      <trkpt lat="49.18501" lon="6.96591">
        <ele>349</ele>
        <time>2011-05-08T06:19:10Z</time>
      </trkpt>
      <trkpt lat="49.18499" lon="6.9659">
        <ele>349</ele>
        <time>2011-05-08T06:19:12Z</time>
      </trkpt>
      <trkpt lat="49.18498" lon="6.96589">
        <ele>349</ele>
        <time>2011-05-08T06:19:13Z</time>
      </trkpt>
      <trkpt lat="49.18497" lon="6.96589">
        <ele>349</ele>
        <time>2011-05-08T06:19:14Z</time>
      </trkpt>
      <trkpt lat="49.18496" lon="6.96588">
        <ele>349</ele>
        <time>2011-05-08T06:19:15Z</time>
      </trkpt>
      <trkpt lat="49.18494" lon="6.96587">
        <ele>349</ele>
        <time>2011-05-08T06:19:16Z</time>
      </trkpt>
      <trkpt lat="49.18492" lon="6.96585">
        <ele>348</ele>
        <time>2011-05-08T06:19:18Z</time>
      </trkpt>
      <trkpt lat="49.1849" lon="6.96584">
        <ele>348</ele>
        <time>2011-05-08T06:19:20Z</time>
      </trkpt>
      <trkpt lat="49.18489" lon="6.96583">
        <ele>348</ele>
        <time>2011-05-08T06:19:21Z</time>
      </trkpt>
      <trkpt lat="49.18488" lon="6.96582">
        <ele>348</ele>
        <time>2011-05-08T06:19:22Z</time>
      </trkpt>
      <trkpt lat="49.18485" lon="6.9658">
        <ele>347</ele>
        <time>2011-05-08T06:19:24Z</time>
      </trkpt>
      <trkpt lat="49.18483" lon="6.9658">
        <ele>347</ele>
        <time>2011-05-08T06:19:25Z</time>
      </trkpt>
      <trkpt lat="49.18481" lon="6.96579">
        <ele>347</ele>
        <time>2011-05-08T06:19:26Z</time>
      </trkpt>
      <trkpt lat="49.1848" lon="6.96578">
        <ele>347</ele>
        <time>2011-05-08T06:19:27Z</time>
      </trkpt>
      <trkpt lat="49.18478" lon="6.96577">
        <ele>347</ele>
        <time>2011-05-08T06:19:29Z</time>
      </trkpt>
      <trkpt lat="49.18476" lon="6.96577">
        <ele>347</ele>
        <time>2011-05-08T06:19:30Z</time>
      </trkpt>
      <trkpt lat="49.18475" lon="6.96577">
        <ele>347</ele>
        <time>2011-05-08T06:19:31Z</time>
      </trkpt>
      <trkpt lat="49.18474" lon="6.96578">
        <ele>347</ele>
        <time>2011-05-08T06:19:32Z</time>
      </trkpt>
      <trkpt lat="49.18473" lon="6.96578">
        <ele>347</ele>
        <time>2011-05-08T06:19:33Z</time>
      </trkpt>
      <trkpt lat="49.18471" lon="6.96577">
        <ele>347</ele>
        <time>2011-05-08T06:19:34Z</time>
      </trkpt>
      <trkpt lat="49.18469" lon="6.96576">
        <ele>347</ele>
        <time>2011-05-08T06:19:36Z</time>
      </trkpt>
      <trkpt lat="49.18468" lon="6.96575">
        <ele>347</ele>
        <time>2011-05-08T06:19:37Z</time>
      </trkpt>
      <trkpt lat="49.18467" lon="6.96574">
        <ele>347</ele>
        <time>2011-05-08T06:19:38Z</time>
      </trkpt>
      <trkpt lat="49.18466" lon="6.96573">
        <ele>347</ele>
        <time>2011-05-08T06:19:39Z</time>
      </trkpt>
      <trkpt lat="49.18465" lon="6.96572">
        <ele>347</ele>
        <time>2011-05-08T06:19:40Z</time>
      </trkpt>
      <trkpt lat="49.18463" lon="6.96571">
        <ele>347</ele>
        <time>2011-05-08T06:19:41Z</time>
      </trkpt>
      <trkpt lat="49.18462" lon="6.9657">
        <ele>346</ele>
        <time>2011-05-08T06:19:42Z</time>
      </trkpt>
      <trkpt lat="49.18461" lon="6.96569">
        <ele>346</ele>
        <time>2011-05-08T06:19:43Z</time>
      </trkpt>
      <trkpt lat="49.1846" lon="6.96569">
        <ele>346</ele>
        <time>2011-05-08T06:19:44Z</time>
      </trkpt>
      <trkpt lat="49.18459" lon="6.96568">
        <ele>346</ele>
        <time>2011-05-08T06:19:45Z</time>
      </trkpt>
      <trkpt lat="49.18457" lon="6.96567">
        <ele>346</ele>
        <time>2011-05-08T06:19:46Z</time>
      </trkpt>
      <trkpt lat="49.18456" lon="6.96566">
        <ele>346</ele>
        <time>2011-05-08T06:19:47Z</time>
      </trkpt>
      <trkpt lat="49.18454" lon="6.96564">
        <ele>345</ele>
        <time>2011-05-08T06:19:49Z</time>
      </trkpt>
      <trkpt lat="49.18453" lon="6.96563">
        <ele>345</ele>
        <time>2011-05-08T06:19:50Z</time>
      </trkpt>
      <trkpt lat="49.18452" lon="6.96562">
        <ele>345</ele>
        <time>2011-05-08T06:19:51Z</time>
      </trkpt>
      <trkpt lat="49.18451" lon="6.96561">
        <ele>345</ele>
        <time>2011-05-08T06:19:52Z</time>
      </trkpt>
      <trkpt lat="49.18449" lon="6.9656">
        <ele>345</ele>
        <time>2011-05-08T06:19:53Z</time>
      </trkpt>
      <trkpt lat="49.18448" lon="6.96559">
        <ele>345</ele>
        <time>2011-05-08T06:19:54Z</time>
      </trkpt>
      <trkpt lat="49.18447" lon="6.96559">
        <ele>345</ele>
        <time>2011-05-08T06:19:55Z</time>
      </trkpt>
      <trkpt lat="49.18445" lon="6.96558">
        <ele>345</ele>
        <time>2011-05-08T06:19:56Z</time>
      </trkpt>
      <trkpt lat="49.18444" lon="6.96557">
        <ele>345</ele>
        <time>2011-05-08T06:19:57Z</time>
      </trkpt>
      <trkpt lat="49.18443" lon="6.96556">
        <ele>345</ele>
        <time>2011-05-08T06:19:58Z</time>
      </trkpt>
      <trkpt lat="49.18441" lon="6.96555">
        <ele>345</ele>
        <time>2011-05-08T06:19:59Z</time>
      </trkpt>
      <trkpt lat="49.1844" lon="6.96554">
        <ele>345</ele>
        <time>2011-05-08T06:20:00Z</time>
      </trkpt>
      <trkpt lat="49.18439" lon="6.96554">
        <ele>345</ele>
        <time>2011-05-08T06:20:01Z</time>
      </trkpt>
      <trkpt lat="49.18438" lon="6.96553">
        <ele>345</ele>
        <time>2011-05-08T06:20:02Z</time>
      </trkpt>
      <trkpt lat="49.18436" lon="6.96552">
        <ele>345</ele>
        <time>2011-05-08T06:20:03Z</time>
      </trkpt>
      <trkpt lat="49.18435" lon="6.96552">
        <ele>345</ele>
        <time>2011-05-08T06:20:04Z</time>
      </trkpt>
      <trkpt lat="49.18434" lon="6.96551">
        <ele>345</ele>
        <time>2011-05-08T06:20:05Z</time>
      </trkpt>
      <trkpt lat="49.18433" lon="6.96551">
        <ele>344</ele>
        <time>2011-05-08T06:20:06Z</time>
      </trkpt>
      <trkpt lat="49.18431" lon="6.9655">
        <ele>344</ele>
        <time>2011-05-08T06:20:07Z</time>
      </trkpt>
      <trkpt lat="49.1843" lon="6.96549">
        <ele>344</ele>
        <time>2011-05-08T06:20:08Z</time>
      </trkpt>
      <trkpt lat="49.18429" lon="6.96548">
        <ele>344</ele>
        <time>2011-05-08T06:20:09Z</time>
      </trkpt>
      <trkpt lat="49.18428" lon="6.96548">
        <ele>344</ele>
        <time>2011-05-08T06:20:10Z</time>
      </trkpt>
      <trkpt lat="49.18426" lon="6.96547">
        <ele>344</ele>
        <time>2011-05-08T06:20:11Z</time>
      </trkpt>
      <trkpt lat="49.18425" lon="6.96546">
        <ele>344</ele>
        <time>2011-05-08T06:20:12Z</time>
      </trkpt>
      <trkpt lat="49.18424" lon="6.96545">
        <ele>343</ele>
        <time>2011-05-08T06:20:13Z</time>
      </trkpt>
      <trkpt lat="49.18423" lon="6.96544">
        <ele>343</ele>
        <time>2011-05-08T06:20:14Z</time>
      </trkpt>
      <trkpt lat="49.18422" lon="6.96543">
        <ele>343</ele>
        <time>2011-05-08T06:20:15Z</time>
      </trkpt>
      <trkpt lat="49.1842" lon="6.96543">
        <ele>343</ele>
        <time>2011-05-08T06:20:16Z</time>
      </trkpt>
      <trkpt lat="49.18419" lon="6.96542">
        <ele>343</ele>
        <time>2011-05-08T06:20:17Z</time>
      </trkpt>
      <trkpt lat="49.18418" lon="6.96541">
        <ele>343</ele>
        <time>2011-05-08T06:20:18Z</time>
      </trkpt>
      <trkpt lat="49.18416" lon="6.9654">
        <ele>343</ele>
        <time>2011-05-08T06:20:19Z</time>
      </trkpt>
      <trkpt lat="49.18415" lon="6.96539">
        <ele>343</ele>
        <time>2011-05-08T06:20:20Z</time>
      </trkpt>
      <trkpt lat="49.18414" lon="6.96538">
        <ele>343</ele>
        <time>2011-05-08T06:20:21Z</time>
      </trkpt>
      <trkpt lat="49.18412" lon="6.96537">
        <ele>343</ele>
        <time>2011-05-08T06:20:22Z</time>
      </trkpt>
      <trkpt lat="49.18411" lon="6.96537">
        <ele>342</ele>
        <time>2011-05-08T06:20:23Z</time>
      </trkpt>
      <trkpt lat="49.1841" lon="6.96536">
        <ele>342</ele>
        <time>2011-05-08T06:20:24Z</time>
      </trkpt>
      <trkpt lat="49.18409" lon="6.96535">
        <ele>342</ele>
        <time>2011-05-08T06:20:25Z</time>
      </trkpt>
      <trkpt lat="49.18407" lon="6.96535">
        <ele>342</ele>
        <time>2011-05-08T06:20:26Z</time>
      </trkpt>
      <trkpt lat="49.18406" lon="6.96535">
        <ele>342</ele>
        <time>2011-05-08T06:20:27Z</time>
      </trkpt>
      <trkpt lat="49.18404" lon="6.96535">
        <ele>342</ele>
        <time>2011-05-08T06:20:28Z</time>
      </trkpt>
      <trkpt lat="49.18402" lon="6.96536">
        <ele>342</ele>
        <time>2011-05-08T06:20:29Z</time>
      </trkpt>
      <trkpt lat="49.18401" lon="6.96536">
        <ele>342</ele>
        <time>2011-05-08T06:20:30Z</time>
      </trkpt>
      <trkpt lat="49.184" lon="6.96536">
        <ele>342</ele>
        <time>2011-05-08T06:20:31Z</time>
      </trkpt>
      <trkpt lat="49.18398" lon="6.96536">
        <ele>342</ele>
        <time>2011-05-08T06:20:32Z</time>
      </trkpt>
      <trkpt lat="49.18396" lon="6.96536">
        <ele>342</ele>
        <time>2011-05-08T06:20:34Z</time>
      </trkpt>
      <trkpt lat="49.18395" lon="6.96536">
        <ele>342</ele>
        <time>2011-05-08T06:20:35Z</time>
      </trkpt>
      <trkpt lat="49.18393" lon="6.96536">
        <ele>342</ele>
        <time>2011-05-08T06:20:36Z</time>
      </trkpt>
      <trkpt lat="49.18392" lon="6.96535">
        <ele>342</ele>
        <time>2011-05-08T06:20:37Z</time>
      </trkpt>
      <trkpt lat="49.18391" lon="6.96535">
        <ele>342</ele>
        <time>2011-05-08T06:20:38Z</time>
      </trkpt>
      <trkpt lat="49.1839" lon="6.96534">
        <ele>342</ele>
        <time>2011-05-08T06:20:39Z</time>
      </trkpt>
      <trkpt lat="49.18388" lon="6.96533">
        <ele>342</ele>
        <time>2011-05-08T06:20:41Z</time>
      </trkpt>
      <trkpt lat="49.18386" lon="6.96531">
        <ele>342</ele>
        <time>2011-05-08T06:20:43Z</time>
      </trkpt>
      <trkpt lat="49.18385" lon="6.9653">
        <ele>342</ele>
        <time>2011-05-08T06:20:44Z</time>
      </trkpt>
      <trkpt lat="49.18382" lon="6.96528">
        <ele>342</ele>
        <time>2011-05-08T06:20:46Z</time>
      </trkpt>
      <trkpt lat="49.18381" lon="6.96527">
        <ele>342</ele>
        <time>2011-05-08T06:20:47Z</time>
      </trkpt>
      <trkpt lat="49.18379" lon="6.96524">
        <ele>342</ele>
        <time>2011-05-08T06:20:49Z</time>
      </trkpt>
      <trkpt lat="49.18377" lon="6.96524">
        <ele>342</ele>
        <time>2011-05-08T06:20:50Z</time>
      </trkpt>
      <trkpt lat="49.18376" lon="6.96523">
        <ele>341</ele>
        <time>2011-05-08T06:20:51Z</time>
      </trkpt>
      <trkpt lat="49.18375" lon="6.96521">
        <ele>341</ele>
        <time>2011-05-08T06:20:52Z</time>
      </trkpt>
      <trkpt lat="49.18373" lon="6.96519">
        <ele>341</ele>
        <time>2011-05-08T06:20:54Z</time>
      </trkpt>
      <trkpt lat="49.18371" lon="6.96516">
        <ele>341</ele>
        <time>2011-05-08T06:20:56Z</time>
      </trkpt>
      <trkpt lat="49.18369" lon="6.96514">
        <ele>341</ele>
        <time>2011-05-08T06:20:58Z</time>
      </trkpt>
      <trkpt lat="49.18368" lon="6.96513">
        <ele>341</ele>
        <time>2011-05-08T06:20:59Z</time>
      </trkpt>
      <trkpt lat="49.18367" lon="6.96513">
        <ele>341</ele>
        <time>2011-05-08T06:21:00Z</time>
      </trkpt>
      <trkpt lat="49.18364" lon="6.96511">
        <ele>341</ele>
        <time>2011-05-08T06:21:02Z</time>
      </trkpt>
      <trkpt lat="49.18363" lon="6.96511">
        <ele>341</ele>
        <time>2011-05-08T06:21:03Z</time>
      </trkpt>
      <trkpt lat="49.18362" lon="6.96511">
        <ele>341</ele>
        <time>2011-05-08T06:21:04Z</time>
      </trkpt>
      <trkpt lat="49.18361" lon="6.96511">
        <ele>341</ele>
        <time>2011-05-08T06:21:05Z</time>
      </trkpt>
      <trkpt lat="49.18359" lon="6.96511">
        <ele>341</ele>
        <time>2011-05-08T06:21:06Z</time>
      </trkpt>
      <trkpt lat="49.18358" lon="6.96511">
        <ele>341</ele>
        <time>2011-05-08T06:21:07Z</time>
      </trkpt>
      <trkpt lat="49.18357" lon="6.96511">
        <ele>341</ele>
        <time>2011-05-08T06:21:08Z</time>
      </trkpt>
      <trkpt lat="49.18357" lon="6.96514">
        <ele>341</ele>
        <time>2011-05-08T06:21:12Z</time>
      </trkpt>
      <trkpt lat="49.18358" lon="6.96517">
        <ele>341</ele>
        <time>2011-05-08T06:21:14Z</time>
      </trkpt>
      <trkpt lat="49.18357" lon="6.96518">
        <ele>341</ele>
        <time>2011-05-08T06:21:15Z</time>
      </trkpt>
      <trkpt lat="49.18357" lon="6.9652">
        <ele>341</ele>
        <time>2011-05-08T06:21:16Z</time>
      </trkpt>
      <trkpt lat="49.18357" lon="6.96523">
        <ele>341</ele>
        <time>2011-05-08T06:21:18Z</time>
      </trkpt>
      <trkpt lat="49.18356" lon="6.96525">
        <ele>341</ele>
        <time>2011-05-08T06:21:19Z</time>
      </trkpt>
      <trkpt lat="49.18356" lon="6.96528">
        <ele>341</ele>
        <time>2011-05-08T06:21:21Z</time>
      </trkpt>
      <trkpt lat="49.18355" lon="6.9653">
        <ele>341</ele>
        <time>2011-05-08T06:21:22Z</time>
      </trkpt>
      <trkpt lat="49.18353" lon="6.96533">
        <ele>341</ele>
        <time>2011-05-08T06:21:24Z</time>
      </trkpt>
      <trkpt lat="49.18353" lon="6.96535">
        <ele>341</ele>
        <time>2011-05-08T06:21:25Z</time>
      </trkpt>
      <trkpt lat="49.18352" lon="6.96537">
        <ele>341</ele>
        <time>2011-05-08T06:21:26Z</time>
      </trkpt>
      <trkpt lat="49.18351" lon="6.96538">
        <ele>341</ele>
        <time>2011-05-08T06:21:27Z</time>
      </trkpt>
      <trkpt lat="49.1835" lon="6.96542">
        <ele>341</ele>
        <time>2011-05-08T06:21:29Z</time>
      </trkpt>
      <trkpt lat="49.1835" lon="6.96543">
        <ele>341</ele>
        <time>2011-05-08T06:21:30Z</time>
      </trkpt>
      <trkpt lat="49.18349" lon="6.96545">
        <ele>341</ele>
        <time>2011-05-08T06:21:31Z</time>
      </trkpt>
      <trkpt lat="49.18348" lon="6.96547">
        <ele>341</ele>
        <time>2011-05-08T06:21:32Z</time>
      </trkpt>
      <trkpt lat="49.18348" lon="6.96549">
        <ele>341</ele>
        <time>2011-05-08T06:21:33Z</time>
      </trkpt>
      <trkpt lat="49.18347" lon="6.96551">
        <ele>341</ele>
        <time>2011-05-08T06:21:34Z</time>
      </trkpt>
      <trkpt lat="49.18346" lon="6.96552">
        <ele>341</ele>
        <time>2011-05-08T06:21:35Z</time>
      </trkpt>
      <trkpt lat="49.18346" lon="6.96554">
        <ele>341</ele>
        <time>2011-05-08T06:21:36Z</time>
      </trkpt>
      <trkpt lat="49.18345" lon="6.96556">
        <ele>341</ele>
        <time>2011-05-08T06:21:37Z</time>
      </trkpt>
      <trkpt lat="49.18345" lon="6.96558">
        <ele>341</ele>
        <time>2011-05-08T06:21:38Z</time>
      </trkpt>
      <trkpt lat="49.18344" lon="6.96561">
        <ele>341</ele>
        <time>2011-05-08T06:21:40Z</time>
      </trkpt>
      <trkpt lat="49.18343" lon="6.96563">
        <ele>341</ele>
        <time>2011-05-08T06:21:41Z</time>
      </trkpt>
      <trkpt lat="49.18343" lon="6.96564">
        <ele>341</ele>
        <time>2011-05-08T06:21:42Z</time>
      </trkpt>
      <trkpt lat="49.18342" lon="6.96566">
        <ele>341</ele>
        <time>2011-05-08T06:21:43Z</time>
      </trkpt>
      <trkpt lat="49.18342" lon="6.96568">
        <ele>341</ele>
        <time>2011-05-08T06:21:44Z</time>
      </trkpt>
      <trkpt lat="49.18341" lon="6.9657">
        <ele>341</ele>
        <time>2011-05-08T06:21:45Z</time>
      </trkpt>
      <trkpt lat="49.1834" lon="6.96572">
        <ele>341</ele>
        <time>2011-05-08T06:21:46Z</time>
      </trkpt>
      <trkpt lat="49.1834" lon="6.96573">
        <ele>341</ele>
        <time>2011-05-08T06:21:47Z</time>
      </trkpt>
      <trkpt lat="49.18339" lon="6.96575">
        <ele>341</ele>
        <time>2011-05-08T06:21:48Z</time>
      </trkpt>
      <trkpt lat="49.18338" lon="6.96577">
        <ele>341</ele>
        <time>2011-05-08T06:21:49Z</time>
      </trkpt>
      <trkpt lat="49.18338" lon="6.96579">
        <ele>341</ele>
        <time>2011-05-08T06:21:50Z</time>
      </trkpt>
      <trkpt lat="49.18337" lon="6.96581">
        <ele>341</ele>
        <time>2011-05-08T06:21:51Z</time>
      </trkpt>
      <trkpt lat="49.18336" lon="6.96582">
        <ele>341</ele>
        <time>2011-05-08T06:21:52Z</time>
      </trkpt>
      <trkpt lat="49.18335" lon="6.96584">
        <ele>341</ele>
        <time>2011-05-08T06:21:53Z</time>
      </trkpt>
      <trkpt lat="49.18335" lon="6.96586">
        <ele>341</ele>
        <time>2011-05-08T06:21:54Z</time>
      </trkpt>
      <trkpt lat="49.18334" lon="6.96588">
        <ele>341</ele>
        <time>2011-05-08T06:21:55Z</time>
      </trkpt>
      <trkpt lat="49.18333" lon="6.9659">
        <ele>341</ele>
        <time>2011-05-08T06:21:56Z</time>
      </trkpt>
      <trkpt lat="49.18333" lon="6.96592">
        <ele>341</ele>
        <time>2011-05-08T06:21:57Z</time>
      </trkpt>
      <trkpt lat="49.18333" lon="6.96595">
        <ele>341</ele>
        <time>2011-05-08T06:21:59Z</time>
      </trkpt>
      <trkpt lat="49.18332" lon="6.96597">
        <ele>341</ele>
        <time>2011-05-08T06:22:00Z</time>
      </trkpt>
      <trkpt lat="49.18332" lon="6.96599">
        <ele>341</ele>
        <time>2011-05-08T06:22:01Z</time>
      </trkpt>
      <trkpt lat="49.18331" lon="6.96601">
        <ele>341</ele>
        <time>2011-05-08T06:22:02Z</time>
      </trkpt>
      <trkpt lat="49.1833" lon="6.96603">
        <ele>341</ele>
        <time>2011-05-08T06:22:03Z</time>
      </trkpt>
      <trkpt lat="49.1833" lon="6.96605">
        <ele>341</ele>
        <time>2011-05-08T06:22:04Z</time>
      </trkpt>
      <trkpt lat="49.18329" lon="6.96607">
        <ele>341</ele>
        <time>2011-05-08T06:22:05Z</time>
      </trkpt>
      <trkpt lat="49.18329" lon="6.96609">
        <ele>341</ele>
        <time>2011-05-08T06:22:06Z</time>
      </trkpt>
      <trkpt lat="49.18328" lon="6.96611">
        <ele>341</ele>
        <time>2011-05-08T06:22:07Z</time>
      </trkpt>
      <trkpt lat="49.18327" lon="6.96613">
        <ele>341</ele>
        <time>2011-05-08T06:22:08Z</time>
      </trkpt>
      <trkpt lat="49.18327" lon="6.96615">
        <ele>341</ele>
        <time>2011-05-08T06:22:09Z</time>
      </trkpt>
      <trkpt lat="49.18327" lon="6.96617">
        <ele>341</ele>
        <time>2011-05-08T06:22:10Z</time>
      </trkpt>
      <trkpt lat="49.18326" lon="6.96618">
        <ele>341</ele>
        <time>2011-05-08T06:22:11Z</time>
      </trkpt>
      <trkpt lat="49.18325" lon="6.9662">
        <ele>341</ele>
        <time>2011-05-08T06:22:12Z</time>
      </trkpt>
      <trkpt lat="49.18325" lon="6.96622">
        <ele>341</ele>
        <time>2011-05-08T06:22:13Z</time>
      </trkpt>
      <trkpt lat="49.18325" lon="6.96624">
        <ele>341</ele>
        <time>2011-05-08T06:22:14Z</time>
      </trkpt>
      <trkpt lat="49.18324" lon="6.96626">
        <ele>341</ele>
        <time>2011-05-08T06:22:15Z</time>
      </trkpt>
      <trkpt lat="49.18323" lon="6.96627">
        <ele>341</ele>
        <time>2011-05-08T06:22:16Z</time>
      </trkpt>
      <trkpt lat="49.18322" lon="6.96629">
        <ele>341</ele>
        <time>2011-05-08T06:22:17Z</time>
      </trkpt>
      <trkpt lat="49.18322" lon="6.96631">
        <ele>341</ele>
        <time>2011-05-08T06:22:18Z</time>
      </trkpt>
      <trkpt lat="49.18321" lon="6.96632">
        <ele>341</ele>
        <time>2011-05-08T06:22:19Z</time>
      </trkpt>
      <trkpt lat="49.18321" lon="6.96634">
        <ele>341</ele>
        <time>2011-05-08T06:22:20Z</time>
      </trkpt>
      <trkpt lat="49.1832" lon="6.96636">
        <ele>341</ele>
        <time>2011-05-08T06:22:21Z</time>
      </trkpt>
      <trkpt lat="49.1832" lon="6.96638">
        <ele>341</ele>
        <time>2011-05-08T06:22:22Z</time>
      </trkpt>
      <trkpt lat="49.18319" lon="6.96639">
        <ele>341</ele>
        <time>2011-05-08T06:22:23Z</time>
      </trkpt>
      <trkpt lat="49.18319" lon="6.96641">
        <ele>341</ele>
        <time>2011-05-08T06:22:24Z</time>
      </trkpt>
      <trkpt lat="49.18318" lon="6.96643">
        <ele>341</ele>
        <time>2011-05-08T06:22:25Z</time>
      </trkpt>
      <trkpt lat="49.18318" lon="6.96645">
        <ele>341</ele>
        <time>2011-05-08T06:22:26Z</time>
      </trkpt>
      <trkpt lat="49.18317" lon="6.96647">
        <ele>341</ele>
        <time>2011-05-08T06:22:27Z</time>
      </trkpt>
      <trkpt lat="49.18317" lon="6.96649">
        <ele>341</ele>
        <time>2011-05-08T06:22:28Z</time>
      </trkpt>
      <trkpt lat="49.18316" lon="6.96651">
        <ele>341</ele>
        <time>2011-05-08T06:22:29Z</time>
      </trkpt>
      <trkpt lat="49.18316" lon="6.96652">
        <ele>341</ele>
        <time>2011-05-08T06:22:30Z</time>
      </trkpt>
      <trkpt lat="49.18315" lon="6.96654">
        <ele>341</ele>
        <time>2011-05-08T06:22:31Z</time>
      </trkpt>
      <trkpt lat="49.18315" lon="6.96656">
        <ele>341</ele>
        <time>2011-05-08T06:22:32Z</time>
      </trkpt>
      <trkpt lat="49.18314" lon="6.96658">
        <ele>341</ele>
        <time>2011-05-08T06:22:33Z</time>
      </trkpt>
      <trkpt lat="49.18313" lon="6.96659">
        <ele>341</ele>
        <time>2011-05-08T06:22:34Z</time>
      </trkpt>
      <trkpt lat="49.18313" lon="6.96661">
        <ele>341</ele>
        <time>2011-05-08T06:22:35Z</time>
      </trkpt>
      <trkpt lat="49.18312" lon="6.96663">
        <ele>341</ele>
        <time>2011-05-08T06:22:36Z</time>
      </trkpt>
      <trkpt lat="49.18311" lon="6.96666">
        <ele>341</ele>
        <time>2011-05-08T06:22:38Z</time>
      </trkpt>
      <trkpt lat="49.18311" lon="6.96668">
        <ele>341</ele>
        <time>2011-05-08T06:22:39Z</time>
      </trkpt>
      <trkpt lat="49.1831" lon="6.9667">
        <ele>341</ele>
        <time>2011-05-08T06:22:40Z</time>
      </trkpt>
      <trkpt lat="49.18309" lon="6.96671">
        <ele>341</ele>
        <time>2011-05-08T06:22:41Z</time>
      </trkpt>
      <trkpt lat="49.18309" lon="6.96673">
        <ele>341</ele>
        <time>2011-05-08T06:22:42Z</time>
      </trkpt>
      <trkpt lat="49.18308" lon="6.96676">
        <ele>341</ele>
        <time>2011-05-08T06:22:44Z</time>
      </trkpt>
      <trkpt lat="49.18307" lon="6.96678">
        <ele>341</ele>
        <time>2011-05-08T06:22:45Z</time>
      </trkpt>
      <trkpt lat="49.18306" lon="6.9668">
        <ele>341</ele>
        <time>2011-05-08T06:22:46Z</time>
      </trkpt>
      <trkpt lat="49.18306" lon="6.96682">
        <ele>341</ele>
        <time>2011-05-08T06:22:47Z</time>
      </trkpt>
      <trkpt lat="49.18305" lon="6.96684">
        <ele>341</ele>
        <time>2011-05-08T06:22:48Z</time>
      </trkpt>
      <trkpt lat="49.18304" lon="6.96686">
        <ele>341</ele>
        <time>2011-05-08T06:22:49Z</time>
      </trkpt>
      <trkpt lat="49.18304" lon="6.96688">
        <ele>341</ele>
        <time>2011-05-08T06:22:50Z</time>
      </trkpt>
      <trkpt lat="49.18303" lon="6.96689">
        <ele>341</ele>
        <time>2011-05-08T06:22:51Z</time>
      </trkpt>
      <trkpt lat="49.18303" lon="6.96691">
        <ele>341</ele>
        <time>2011-05-08T06:22:52Z</time>
      </trkpt>
      <trkpt lat="49.18302" lon="6.96693">
        <ele>341</ele>
        <time>2011-05-08T06:22:53Z</time>
      </trkpt>
      <trkpt lat="49.18302" lon="6.96695">
        <ele>341</ele>
        <time>2011-05-08T06:22:54Z</time>
      </trkpt>
      <trkpt lat="49.18301" lon="6.96696">
        <ele>341</ele>
        <time>2011-05-08T06:22:55Z</time>
      </trkpt>
      <trkpt lat="49.18301" lon="6.96698">
        <ele>341</ele>
        <time>2011-05-08T06:22:56Z</time>
      </trkpt>
      <trkpt lat="49.183" lon="6.967">
        <ele>341</ele>
        <time>2011-05-08T06:22:57Z</time>
      </trkpt>
      <trkpt lat="49.18299" lon="6.96702">
        <ele>341</ele>
        <time>2011-05-08T06:22:58Z</time>
      </trkpt>
      <trkpt lat="49.18299" lon="6.96704">
        <ele>341</ele>
        <time>2011-05-08T06:22:59Z</time>
      </trkpt>
      <trkpt lat="49.18298" lon="6.96706">
        <ele>341</ele>
        <time>2011-05-08T06:23:00Z</time>
      </trkpt>
      <trkpt lat="49.18298" lon="6.96708">
        <ele>341</ele>
        <time>2011-05-08T06:23:01Z</time>
      </trkpt>
      <trkpt lat="49.18297" lon="6.9671">
        <ele>341</ele>
        <time>2011-05-08T06:23:02Z</time>
      </trkpt>
      <trkpt lat="49.18296" lon="6.96712">
        <ele>341</ele>
        <time>2011-05-08T06:23:03Z</time>
      </trkpt>
      <trkpt lat="49.18296" lon="6.96714">
        <ele>341</ele>
        <time>2011-05-08T06:23:04Z</time>
      </trkpt>
      <trkpt lat="49.18296" lon="6.96716">
        <ele>341</ele>
        <time>2011-05-08T06:23:05Z</time>
      </trkpt>
      <trkpt lat="49.18295" lon="6.96718">
        <ele>341</ele>
        <time>2011-05-08T06:23:06Z</time>
      </trkpt>
      <trkpt lat="49.18294" lon="6.96719">
        <ele>341</ele>
        <time>2011-05-08T06:23:07Z</time>
      </trkpt>
      <trkpt lat="49.18294" lon="6.96721">
        <ele>341</ele>
        <time>2011-05-08T06:23:08Z</time>
      </trkpt>
      <trkpt lat="49.18293" lon="6.96723">
        <ele>341</ele>
        <time>2011-05-08T06:23:09Z</time>
      </trkpt>
      <trkpt lat="49.18293" lon="6.96725">
        <ele>341</ele>
        <time>2011-05-08T06:23:10Z</time>
      </trkpt>
      <trkpt lat="49.18292" lon="6.96727">
        <ele>341</ele>
        <time>2011-05-08T06:23:11Z</time>
      </trkpt>
      <trkpt lat="49.18291" lon="6.96729">
        <ele>341</ele>
        <time>2011-05-08T06:23:12Z</time>
      </trkpt>
      <trkpt lat="49.18291" lon="6.96731">
        <ele>341</ele>
        <time>2011-05-08T06:23:13Z</time>
      </trkpt>
      <trkpt lat="49.18289" lon="6.96734">
        <ele>341</ele>
        <time>2011-05-08T06:23:15Z</time>
      </trkpt>
      <trkpt lat="49.18289" lon="6.96735">
        <ele>341</ele>
        <time>2011-05-08T06:23:16Z</time>
      </trkpt>
      <trkpt lat="49.18287" lon="6.96738">
        <ele>341</ele>
        <time>2011-05-08T06:23:18Z</time>
      </trkpt>
      <trkpt lat="49.18287" lon="6.96739">
        <ele>341</ele>
        <time>2011-05-08T06:23:19Z</time>
      </trkpt>
      <trkpt lat="49.18286" lon="6.96742">
        <ele>341</ele>
        <time>2011-05-08T06:23:20Z</time>
      </trkpt>
      <trkpt lat="49.18285" lon="6.96744">
        <ele>341</ele>
        <time>2011-05-08T06:23:21Z</time>
      </trkpt>
      <trkpt lat="49.18285" lon="6.96746">
        <ele>341</ele>
        <time>2011-05-08T06:23:22Z</time>
      </trkpt>
      <trkpt lat="49.18284" lon="6.96748">
        <ele>341</ele>
        <time>2011-05-08T06:23:23Z</time>
      </trkpt>
      <trkpt lat="49.18282" lon="6.9675">
        <ele>341</ele>
        <time>2011-05-08T06:23:25Z</time>
      </trkpt>
      <trkpt lat="49.18281" lon="6.96753">
        <ele>341</ele>
        <time>2011-05-08T06:23:27Z</time>
      </trkpt>
      <trkpt lat="49.18279" lon="6.96756">
        <ele>341</ele>
        <time>2011-05-08T06:23:29Z</time>
      </trkpt>
      <trkpt lat="49.18277" lon="6.96759">
        <ele>341</ele>
        <time>2011-05-08T06:23:31Z</time>
      </trkpt>
      <trkpt lat="49.18276" lon="6.96761">
        <ele>341</ele>
        <time>2011-05-08T06:23:32Z</time>
      </trkpt>
      <trkpt lat="49.18275" lon="6.96763">
        <ele>341</ele>
        <time>2011-05-08T06:23:34Z</time>
      </trkpt>
      <trkpt lat="49.18273" lon="6.96766">
        <ele>341</ele>
        <time>2011-05-08T06:23:36Z</time>
      </trkpt>
      <trkpt lat="49.18271" lon="6.96769">
        <ele>341</ele>
        <time>2011-05-08T06:23:38Z</time>
      </trkpt>
      <trkpt lat="49.18269" lon="6.96772">
        <ele>341</ele>
        <time>2011-05-08T06:23:40Z</time>
      </trkpt>
      <trkpt lat="49.18267" lon="6.96775">
        <ele>341</ele>
        <time>2011-05-08T06:23:42Z</time>
      </trkpt>
      <trkpt lat="49.18266" lon="6.96776">
        <ele>341</ele>
        <time>2011-05-08T06:23:43Z</time>
      </trkpt>
      <trkpt lat="49.18265" lon="6.96778">
        <ele>341</ele>
        <time>2011-05-08T06:23:44Z</time>
      </trkpt>
      <trkpt lat="49.18263" lon="6.96781">
        <ele>341</ele>
        <time>2011-05-08T06:23:46Z</time>
      </trkpt>
      <trkpt lat="49.18261" lon="6.96785">
        <ele>341</ele>
        <time>2011-05-08T06:23:48Z</time>
      </trkpt>
      <trkpt lat="49.18261" lon="6.96787">
        <ele>341</ele>
        <time>2011-05-08T06:23:49Z</time>
      </trkpt>
      <trkpt lat="49.18259" lon="6.9679">
        <ele>341</ele>
        <time>2011-05-08T06:23:51Z</time>
      </trkpt>
      <trkpt lat="49.18257" lon="6.96793">
        <ele>341</ele>
        <time>2011-05-08T06:23:53Z</time>
      </trkpt>
      <trkpt lat="49.18255" lon="6.96796">
        <ele>341</ele>
        <time>2011-05-08T06:23:55Z</time>
      </trkpt>
      <trkpt lat="49.18253" lon="6.96799">
        <ele>341</ele>
        <time>2011-05-08T06:23:57Z</time>
      </trkpt>
      <trkpt lat="49.18251" lon="6.96802">
        <ele>341</ele>
        <time>2011-05-08T06:23:59Z</time>
      </trkpt>
      <trkpt lat="49.1825" lon="6.96805">
        <ele>341</ele>
        <time>2011-05-08T06:24:01Z</time>
      </trkpt>
      <trkpt lat="49.18248" lon="6.96808">
        <ele>341</ele>
        <time>2011-05-08T06:24:03Z</time>
      </trkpt>
      <trkpt lat="49.18246" lon="6.9681">
        <ele>341</ele>
        <time>2011-05-08T06:24:05Z</time>
      </trkpt>
      <trkpt lat="49.18244" lon="6.96814">
        <ele>341</ele>
        <time>2011-05-08T06:24:07Z</time>
      </trkpt>
      <trkpt lat="49.18243" lon="6.96817">
        <ele>341</ele>
        <time>2011-05-08T06:24:09Z</time>
      </trkpt>
      <trkpt lat="49.18242" lon="6.96818">
        <ele>341</ele>
        <time>2011-05-08T06:24:10Z</time>
      </trkpt>
      <trkpt lat="49.1824" lon="6.96821">
        <ele>341</ele>
        <time>2011-05-08T06:24:12Z</time>
      </trkpt>
      <trkpt lat="49.18238" lon="6.96825">
        <ele>341</ele>
        <time>2011-05-08T06:24:14Z</time>
      </trkpt>
      <trkpt lat="49.18236" lon="6.96827">
        <ele>341</ele>
        <time>2011-05-08T06:24:16Z</time>
      </trkpt>
      <trkpt lat="49.18235" lon="6.96829">
        <ele>341</ele>
        <time>2011-05-08T06:24:17Z</time>
      </trkpt>
      <trkpt lat="49.18233" lon="6.96831">
        <ele>341</ele>
        <time>2011-05-08T06:24:19Z</time>
      </trkpt>
      <trkpt lat="49.18232" lon="6.96833">
        <ele>341</ele>
        <time>2011-05-08T06:24:20Z</time>
      </trkpt>
      <trkpt lat="49.1823" lon="6.96836">
        <ele>341</ele>
        <time>2011-05-08T06:24:22Z</time>
      </trkpt>
      <trkpt lat="49.18229" lon="6.96839">
        <ele>341</ele>
        <time>2011-05-08T06:24:24Z</time>
      </trkpt>
      <trkpt lat="49.18227" lon="6.96841">
        <ele>341</ele>
        <time>2011-05-08T06:24:26Z</time>
      </trkpt>
      <trkpt lat="49.18226" lon="6.96844">
        <ele>341</ele>
        <time>2011-05-08T06:24:28Z</time>
      </trkpt>
      <trkpt lat="49.18225" lon="6.96846">
        <ele>341</ele>
        <time>2011-05-08T06:24:29Z</time>
      </trkpt>
      <trkpt lat="49.18224" lon="6.96848">
        <ele>341</ele>
        <time>2011-05-08T06:24:30Z</time>
      </trkpt>
      <trkpt lat="49.18222" lon="6.96851">
        <ele>341</ele>
        <time>2011-05-08T06:24:32Z</time>
      </trkpt>
      <trkpt lat="49.1822" lon="6.96853">
        <ele>341</ele>
        <time>2011-05-08T06:24:34Z</time>
      </trkpt>
      <trkpt lat="49.18219" lon="6.96856">
        <ele>341</ele>
        <time>2011-05-08T06:24:36Z</time>
      </trkpt>
      <trkpt lat="49.18218" lon="6.96859">
        <ele>341</ele>
        <time>2011-05-08T06:24:38Z</time>
      </trkpt>
      <trkpt lat="49.18217" lon="6.96861">
        <ele>341</ele>
        <time>2011-05-08T06:24:39Z</time>
      </trkpt>
      <trkpt lat="49.18215" lon="6.96864">
        <ele>341</ele>
        <time>2011-05-08T06:24:41Z</time>
      </trkpt>
      <trkpt lat="49.18214" lon="6.96866">
        <ele>341</ele>
        <time>2011-05-08T06:24:43Z</time>
      </trkpt>
      <trkpt lat="49.18212" lon="6.96869">
        <ele>341</ele>
        <time>2011-05-08T06:24:45Z</time>
      </trkpt>
      <trkpt lat="49.18211" lon="6.96872">
        <ele>341</ele>
        <time>2011-05-08T06:24:47Z</time>
      </trkpt>
      <trkpt lat="49.18209" lon="6.96875">
        <ele>341</ele>
        <time>2011-05-08T06:24:49Z</time>
      </trkpt>
      <trkpt lat="49.18207" lon="6.96878">
        <ele>341</ele>
        <time>2011-05-08T06:24:51Z</time>
      </trkpt>
      <trkpt lat="49.18206" lon="6.9688">
        <ele>341</ele>
        <time>2011-05-08T06:24:53Z</time>
      </trkpt>
      <trkpt lat="49.18205" lon="6.96882">
        <ele>341</ele>
        <time>2011-05-08T06:24:54Z</time>
      </trkpt>
      <trkpt lat="49.18204" lon="6.96883">
        <ele>341</ele>
        <time>2011-05-08T06:24:55Z</time>
      </trkpt>
      <trkpt lat="49.18203" lon="6.96886">
        <ele>341</ele>
        <time>2011-05-08T06:24:57Z</time>
      </trkpt>
      <trkpt lat="49.18201" lon="6.96889">
        <ele>341</ele>
        <time>2011-05-08T06:24:59Z</time>
      </trkpt>
      <trkpt lat="49.18199" lon="6.96892">
        <ele>341</ele>
        <time>2011-05-08T06:25:01Z</time>
      </trkpt>
      <trkpt lat="49.18198" lon="6.96894">
        <ele>341</ele>
        <time>2011-05-08T06:25:02Z</time>
      </trkpt>
      <trkpt lat="49.18197" lon="6.96895">
        <ele>341</ele>
        <time>2011-05-08T06:25:03Z</time>
      </trkpt>
      <trkpt lat="49.18196" lon="6.96897">
        <ele>341</ele>
        <time>2011-05-08T06:25:04Z</time>
      </trkpt>
      <trkpt lat="49.18194" lon="6.969">
        <ele>341</ele>
        <time>2011-05-08T06:25:06Z</time>
      </trkpt>
      <trkpt lat="49.18193" lon="6.96902">
        <ele>341</ele>
        <time>2011-05-08T06:25:07Z</time>
      </trkpt>
      <trkpt lat="49.18192" lon="6.96903">
        <ele>341</ele>
        <time>2011-05-08T06:25:08Z</time>
      </trkpt>
      <trkpt lat="49.18191" lon="6.96905">
        <ele>341</ele>
        <time>2011-05-08T06:25:09Z</time>
      </trkpt>
      <trkpt lat="49.1819" lon="6.96907">
        <ele>341</ele>
        <time>2011-05-08T06:25:10Z</time>
      </trkpt>
      <trkpt lat="49.18189" lon="6.96909">
        <ele>341</ele>
        <time>2011-05-08T06:25:12Z</time>
      </trkpt>
      <trkpt lat="49.18188" lon="6.96911">
        <ele>341</ele>
        <time>2011-05-08T06:25:13Z</time>
      </trkpt>
      <trkpt lat="49.18186" lon="6.96914">
        <ele>341</ele>
        <time>2011-05-08T06:25:15Z</time>
      </trkpt>
      <trkpt lat="49.18185" lon="6.96917">
        <ele>341</ele>
        <time>2011-05-08T06:25:17Z</time>
      </trkpt>
      <trkpt lat="49.18184" lon="6.96919">
        <ele>341</ele>
        <time>2011-05-08T06:25:18Z</time>
      </trkpt>
      <trkpt lat="49.18183" lon="6.9692">
        <ele>341</ele>
        <time>2011-05-08T06:25:19Z</time>
      </trkpt>
      <trkpt lat="49.18182" lon="6.96922">
        <ele>341</ele>
        <time>2011-05-08T06:25:20Z</time>
      </trkpt>
      <trkpt lat="49.18181" lon="6.96924">
        <ele>341</ele>
        <time>2011-05-08T06:25:21Z</time>
      </trkpt>
      <trkpt lat="49.1818" lon="6.96926">
        <ele>341</ele>
        <time>2011-05-08T06:25:22Z</time>
      </trkpt>
      <trkpt lat="49.18179" lon="6.96927">
        <ele>341</ele>
        <time>2011-05-08T06:25:23Z</time>
      </trkpt>
      <trkpt lat="49.18178" lon="6.96931">
        <ele>341</ele>
        <time>2011-05-08T06:25:25Z</time>
      </trkpt>
      <trkpt lat="49.18177" lon="6.96933">
        <ele>341</ele>
        <time>2011-05-08T06:25:26Z</time>
      </trkpt>
      <trkpt lat="49.18176" lon="6.96934">
        <ele>341</ele>
        <time>2011-05-08T06:25:27Z</time>
      </trkpt>
      <trkpt lat="49.18174" lon="6.96936">
        <ele>341</ele>
        <time>2011-05-08T06:25:29Z</time>
      </trkpt>
      <trkpt lat="49.18173" lon="6.96936">
        <ele>341</ele>
        <time>2011-05-08T06:25:31Z</time>
      </trkpt>
      <trkpt lat="49.18171" lon="6.96936">
        <ele>341</ele>
        <time>2011-05-08T06:25:33Z</time>
      </trkpt>
      <trkpt lat="49.1817" lon="6.96935">
        <ele>341</ele>
        <time>2011-05-08T06:25:35Z</time>
      </trkpt>
      <trkpt lat="49.18169" lon="6.96934">
        <ele>341</ele>
        <time>2011-05-08T06:25:37Z</time>
      </trkpt>
      <trkpt lat="49.18168" lon="6.96932">
        <ele>342</ele>
        <time>2011-05-08T06:25:48Z</time>
      </trkpt>
      <trkpt lat="49.18167" lon="6.96931">
        <ele>342</ele>
        <time>2011-05-08T06:25:50Z</time>
      </trkpt>
      <trkpt lat="49.18165" lon="6.96928">
        <ele>342</ele>
        <time>2011-05-08T06:25:52Z</time>
      </trkpt>
      <trkpt lat="49.18164" lon="6.96926">
        <ele>342</ele>
        <time>2011-05-08T06:25:54Z</time>
      </trkpt>
      <trkpt lat="49.18162" lon="6.96923">
        <ele>342</ele>
        <time>2011-05-08T06:25:56Z</time>
      </trkpt>
      <trkpt lat="49.18161" lon="6.96921">
        <ele>342</ele>
        <time>2011-05-08T06:25:58Z</time>
      </trkpt>
      <trkpt lat="49.18159" lon="6.96918">
        <ele>342</ele>
        <time>2011-05-08T06:26:00Z</time>
      </trkpt>
      <trkpt lat="49.18157" lon="6.96915">
        <ele>342</ele>
        <time>2011-05-08T06:26:02Z</time>
      </trkpt>
      <trkpt lat="49.18156" lon="6.96913">
        <ele>342</ele>
        <time>2011-05-08T06:26:04Z</time>
      </trkpt>
      <trkpt lat="49.18154" lon="6.96911">
        <ele>342</ele>
        <time>2011-05-08T06:26:07Z</time>
      </trkpt>
      <trkpt lat="49.18154" lon="6.96909">
        <ele>342</ele>
        <time>2011-05-08T06:26:09Z</time>
      </trkpt>
      <trkpt lat="49.18153" lon="6.96907">
        <ele>342</ele>
        <time>2011-05-08T06:26:11Z</time>
      </trkpt>
      <trkpt lat="49.18151" lon="6.96908">
        <ele>342</ele>
        <time>2011-05-08T06:26:28Z</time>
      </trkpt>
      <trkpt lat="49.1815" lon="6.96906">
        <ele>342</ele>
        <time>2011-05-08T06:26:30Z</time>
      </trkpt>
      <trkpt lat="49.18149" lon="6.96903">
        <ele>342</ele>
        <time>2011-05-08T06:26:32Z</time>
      </trkpt>
      <trkpt lat="49.18148" lon="6.96901">
        <ele>342</ele>
        <time>2011-05-08T06:26:33Z</time>
      </trkpt>
      <trkpt lat="49.18147" lon="6.96899">
        <ele>342</ele>
        <time>2011-05-08T06:26:35Z</time>
      </trkpt>
      <trkpt lat="49.18145" lon="6.96897">
        <ele>342</ele>
        <time>2011-05-08T06:26:37Z</time>
      </trkpt>
      <trkpt lat="49.18143" lon="6.96894">
        <ele>342</ele>
        <time>2011-05-08T06:26:39Z</time>
      </trkpt>
      <trkpt lat="49.18142" lon="6.96892">
        <ele>342</ele>
        <time>2011-05-08T06:26:41Z</time>
      </trkpt>
      <trkpt lat="49.1814" lon="6.96889">
        <ele>342</ele>
        <time>2011-05-08T06:26:43Z</time>
      </trkpt>
      <trkpt lat="49.18139" lon="6.96887">
        <ele>342</ele>
        <time>2011-05-08T06:26:45Z</time>
      </trkpt>
      <trkpt lat="49.18137" lon="6.96885">
        <ele>342</ele>
        <time>2011-05-08T06:26:47Z</time>
      </trkpt>
      <trkpt lat="49.18136" lon="6.96882">
        <ele>342</ele>
        <time>2011-05-08T06:26:49Z</time>
      </trkpt>
      <trkpt lat="49.18134" lon="6.9688">
        <ele>342</ele>
        <time>2011-05-08T06:26:51Z</time>
      </trkpt>
      <trkpt lat="49.18132" lon="6.96877">
        <ele>342</ele>
        <time>2011-05-08T06:26:53Z</time>
      </trkpt>
      <trkpt lat="49.18131" lon="6.96875">
        <ele>342</ele>
        <time>2011-05-08T06:26:55Z</time>
      </trkpt>
      <trkpt lat="49.18129" lon="6.96872">
        <ele>342</ele>
        <time>2011-05-08T06:26:57Z</time>
      </trkpt>
      <trkpt lat="49.18127" lon="6.9687">
        <ele>342</ele>
        <time>2011-05-08T06:26:59Z</time>
      </trkpt>
      <trkpt lat="49.18126" lon="6.96867">
        <ele>342</ele>
        <time>2011-05-08T06:27:01Z</time>
      </trkpt>
      <trkpt lat="49.18124" lon="6.96865">
        <ele>342</ele>
        <time>2011-05-08T06:27:02Z</time>
      </trkpt>
      <trkpt lat="49.18122" lon="6.96862">
        <ele>342</ele>
        <time>2011-05-08T06:27:04Z</time>
      </trkpt>
      <trkpt lat="49.18121" lon="6.96861">
        <ele>342</ele>
        <time>2011-05-08T06:27:05Z</time>
      </trkpt>
      <trkpt lat="49.18119" lon="6.96859">
        <ele>342</ele>
        <time>2011-05-08T06:27:07Z</time>
      </trkpt>
      <trkpt lat="49.18118" lon="6.96856">
        <ele>342</ele>
        <time>2011-05-08T06:27:09Z</time>
      </trkpt>
      <trkpt lat="49.18116" lon="6.96855">
        <ele>342</ele>
        <time>2011-05-08T06:27:10Z</time>
      </trkpt>
      <trkpt lat="49.18114" lon="6.96852">
        <ele>342</ele>
        <time>2011-05-08T06:27:12Z</time>
      </trkpt>
      <trkpt lat="49.18112" lon="6.9685">
        <ele>342</ele>
        <time>2011-05-08T06:27:14Z</time>
      </trkpt>
      <trkpt lat="49.18111" lon="6.96847">
        <ele>342</ele>
        <time>2011-05-08T06:27:16Z</time>
      </trkpt>
      <trkpt lat="49.18109" lon="6.96845">
        <ele>342</ele>
        <time>2011-05-08T06:27:18Z</time>
      </trkpt>
      <trkpt lat="49.18107" lon="6.96842">
        <ele>342</ele>
        <time>2011-05-08T06:27:20Z</time>
      </trkpt>
      <trkpt lat="49.18106" lon="6.9684">
        <ele>342</ele>
        <time>2011-05-08T06:27:21Z</time>
      </trkpt>
      <trkpt lat="49.18104" lon="6.96838">
        <ele>342</ele>
        <time>2011-05-08T06:27:23Z</time>
      </trkpt>
      <trkpt lat="49.18103" lon="6.96836">
        <ele>342</ele>
        <time>2011-05-08T06:27:24Z</time>
      </trkpt>
      <trkpt lat="49.18102" lon="6.96835">
        <ele>342</ele>
        <time>2011-05-08T06:27:25Z</time>
      </trkpt>
      <trkpt lat="49.181" lon="6.96832">
        <ele>342</ele>
        <time>2011-05-08T06:27:27Z</time>
      </trkpt>
      <trkpt lat="49.18098" lon="6.96829">
        <ele>342</ele>
        <time>2011-05-08T06:27:29Z</time>
      </trkpt>
      <trkpt lat="49.18096" lon="6.96827">
        <ele>342</ele>
        <time>2011-05-08T06:27:31Z</time>
      </trkpt>
      <trkpt lat="49.18094" lon="6.96824">
        <ele>342</ele>
        <time>2011-05-08T06:27:33Z</time>
      </trkpt>
      <trkpt lat="49.18092" lon="6.96821">
        <ele>342</ele>
        <time>2011-05-08T06:27:35Z</time>
      </trkpt>
      <trkpt lat="49.1809" lon="6.96819">
        <ele>341</ele>
        <time>2011-05-08T06:27:37Z</time>
      </trkpt>
      <trkpt lat="49.18089" lon="6.96816">
        <ele>341</ele>
        <time>2011-05-08T06:27:39Z</time>
      </trkpt>
      <trkpt lat="49.18087" lon="6.96814">
        <ele>341</ele>
        <time>2011-05-08T06:27:41Z</time>
      </trkpt>
      <trkpt lat="49.18085" lon="6.96811">
        <ele>341</ele>
        <time>2011-05-08T06:27:43Z</time>
      </trkpt>
      <trkpt lat="49.18084" lon="6.96808">
        <ele>341</ele>
        <time>2011-05-08T06:27:45Z</time>
      </trkpt>
      <trkpt lat="49.18082" lon="6.96805">
        <ele>341</ele>
        <time>2011-05-08T06:27:47Z</time>
      </trkpt>
      <trkpt lat="49.1808" lon="6.96802">
        <ele>341</ele>
        <time>2011-05-08T06:27:49Z</time>
      </trkpt>
      <trkpt lat="49.18079" lon="6.968">
        <ele>341</ele>
        <time>2011-05-08T06:27:51Z</time>
      </trkpt>
      <trkpt lat="49.18077" lon="6.96797">
        <ele>341</ele>
        <time>2011-05-08T06:27:53Z</time>
      </trkpt>
      <trkpt lat="49.18076" lon="6.96795">
        <ele>341</ele>
        <time>2011-05-08T06:27:54Z</time>
      </trkpt>
      <trkpt lat="49.18074" lon="6.96792">
        <ele>341</ele>
        <time>2011-05-08T06:27:56Z</time>
      </trkpt>
      <trkpt lat="49.18073" lon="6.96789">
        <ele>341</ele>
        <time>2011-05-08T06:27:58Z</time>
      </trkpt>
      <trkpt lat="49.18072" lon="6.96787">
        <ele>341</ele>
        <time>2011-05-08T06:27:59Z</time>
      </trkpt>
      <trkpt lat="49.18071" lon="6.96786">
        <ele>341</ele>
        <time>2011-05-08T06:28:00Z</time>
      </trkpt>
      <trkpt lat="49.18071" lon="6.96784">
        <ele>341</ele>
        <time>2011-05-08T06:28:01Z</time>
      </trkpt>
      <trkpt lat="49.18071" lon="6.96782">
        <ele>341</ele>
        <time>2011-05-08T06:28:02Z</time>
      </trkpt>
      <trkpt lat="49.1807" lon="6.96781">
        <ele>341</ele>
        <time>2011-05-08T06:28:03Z</time>
      </trkpt>
      <trkpt lat="49.1807" lon="6.96779">
        <ele>341</ele>
        <time>2011-05-08T06:28:04Z</time>
      </trkpt>
      <trkpt lat="49.18068" lon="6.96776">
        <ele>340</ele>
        <time>2011-05-08T06:28:06Z</time>
      </trkpt>
      <trkpt lat="49.18067" lon="6.96776">
        <ele>340</ele>
        <time>2011-05-08T06:28:07Z</time>
      </trkpt>
      <trkpt lat="49.18066" lon="6.96776">
        <ele>340</ele>
        <time>2011-05-08T06:28:08Z</time>
      </trkpt>
      <trkpt lat="49.18064" lon="6.96776">
        <ele>340</ele>
        <time>2011-05-08T06:28:09Z</time>
      </trkpt>
      <trkpt lat="49.18062" lon="6.96777">
        <ele>339</ele>
        <time>2011-05-08T06:28:11Z</time>
      </trkpt>
      <trkpt lat="49.1806" lon="6.96779">
        <ele>339</ele>
        <time>2011-05-08T06:28:13Z</time>
      </trkpt>
      <trkpt lat="49.18058" lon="6.96782">
        <ele>339</ele>
        <time>2011-05-08T06:28:15Z</time>
      </trkpt>
      <trkpt lat="49.18056" lon="6.96784">
        <ele>339</ele>
        <time>2011-05-08T06:28:17Z</time>
      </trkpt>
      <trkpt lat="49.18054" lon="6.96787">
        <ele>339</ele>
        <time>2011-05-08T06:28:19Z</time>
      </trkpt>
      <trkpt lat="49.18053" lon="6.96789">
        <ele>339</ele>
        <time>2011-05-08T06:28:20Z</time>
      </trkpt>
      <trkpt lat="49.18052" lon="6.96792">
        <ele>339</ele>
        <time>2011-05-08T06:28:22Z</time>
      </trkpt>
      <trkpt lat="49.1805" lon="6.96794">
        <ele>339</ele>
        <time>2011-05-08T06:28:23Z</time>
      </trkpt>
      <trkpt lat="49.18049" lon="6.96796">
        <ele>339</ele>
        <time>2011-05-08T06:28:25Z</time>
      </trkpt>
      <trkpt lat="49.18047" lon="6.96799">
        <ele>339</ele>
        <time>2011-05-08T06:28:27Z</time>
      </trkpt>
      <trkpt lat="49.18045" lon="6.96802">
        <ele>339</ele>
        <time>2011-05-08T06:28:29Z</time>
      </trkpt>
      <trkpt lat="49.18043" lon="6.96805">
        <ele>339</ele>
        <time>2011-05-08T06:28:31Z</time>
      </trkpt>
      <trkpt lat="49.18041" lon="6.96807">
        <ele>339</ele>
        <time>2011-05-08T06:28:33Z</time>
      </trkpt>
      <trkpt lat="49.18039" lon="6.9681">
        <ele>339</ele>
        <time>2011-05-08T06:28:35Z</time>
      </trkpt>
      <trkpt lat="49.18038" lon="6.96813">
        <ele>339</ele>
        <time>2011-05-08T06:28:37Z</time>
      </trkpt>
      <trkpt lat="49.18036" lon="6.96815">
        <ele>339</ele>
        <time>2011-05-08T06:28:39Z</time>
      </trkpt>
      <trkpt lat="49.18034" lon="6.96818">
        <ele>339</ele>
        <time>2011-05-08T06:28:41Z</time>
      </trkpt>
      <trkpt lat="49.18032" lon="6.96821">
        <ele>339</ele>
        <time>2011-05-08T06:28:43Z</time>
      </trkpt>
      <trkpt lat="49.18031" lon="6.96823">
        <ele>339</ele>
        <time>2011-05-08T06:28:44Z</time>
      </trkpt>
      <trkpt lat="49.18029" lon="6.96826">
        <ele>339</ele>
        <time>2011-05-08T06:28:46Z</time>
      </trkpt>
      <trkpt lat="49.18027" lon="6.96828">
        <ele>339</ele>
        <time>2011-05-08T06:28:48Z</time>
      </trkpt>
      <trkpt lat="49.18026" lon="6.96831">
        <ele>339</ele>
        <time>2011-05-08T06:28:50Z</time>
      </trkpt>
      <trkpt lat="49.18024" lon="6.96834">
        <ele>339</ele>
        <time>2011-05-08T06:28:52Z</time>
      </trkpt>
      <trkpt lat="49.18022" lon="6.96835">
        <ele>339</ele>
        <time>2011-05-08T06:28:54Z</time>
      </trkpt>
      <trkpt lat="49.1802" lon="6.96837">
        <ele>339</ele>
        <time>2011-05-08T06:28:56Z</time>
      </trkpt>
      <trkpt lat="49.18019" lon="6.96838">
        <ele>339</ele>
        <time>2011-05-08T06:28:57Z</time>
      </trkpt>
      <trkpt lat="49.18017" lon="6.9684">
        <ele>339</ele>
        <time>2011-05-08T06:28:59Z</time>
      </trkpt>
      <trkpt lat="49.18016" lon="6.96841">
        <ele>339</ele>
        <time>2011-05-08T06:29:00Z</time>
      </trkpt>
      <trkpt lat="49.18014" lon="6.96842">
        <ele>339</ele>
        <time>2011-05-08T06:29:02Z</time>
      </trkpt>
      <trkpt lat="49.18013" lon="6.96842">
        <ele>339</ele>
        <time>2011-05-08T06:29:03Z</time>
      </trkpt>
      <trkpt lat="49.18011" lon="6.96843">
        <ele>339</ele>
        <time>2011-05-08T06:29:04Z</time>
      </trkpt>
      <trkpt lat="49.18009" lon="6.96844">
        <ele>339</ele>
        <time>2011-05-08T06:29:06Z</time>
      </trkpt>
      <trkpt lat="49.18007" lon="6.96847">
        <ele>339</ele>
        <time>2011-05-08T06:29:08Z</time>
      </trkpt>
      <trkpt lat="49.18005" lon="6.96849">
        <ele>339</ele>
        <time>2011-05-08T06:29:10Z</time>
      </trkpt>
      <trkpt lat="49.18003" lon="6.96852">
        <ele>339</ele>
        <time>2011-05-08T06:29:12Z</time>
      </trkpt>
      <trkpt lat="49.18001" lon="6.96854">
        <ele>339</ele>
        <time>2011-05-08T06:29:14Z</time>
      </trkpt>
      <trkpt lat="49.18" lon="6.96855">
        <ele>339</ele>
        <time>2011-05-08T06:29:15Z</time>
      </trkpt>
      <trkpt lat="49.17998" lon="6.96858">
        <ele>338</ele>
        <time>2011-05-08T06:29:17Z</time>
      </trkpt>
      <trkpt lat="49.17997" lon="6.96859">
        <ele>338</ele>
        <time>2011-05-08T06:29:18Z</time>
      </trkpt>
      <trkpt lat="49.17995" lon="6.96862">
        <ele>338</ele>
        <time>2011-05-08T06:29:20Z</time>
      </trkpt>
      <trkpt lat="49.17993" lon="6.96865">
        <ele>338</ele>
        <time>2011-05-08T06:29:22Z</time>
      </trkpt>
      <trkpt lat="49.17992" lon="6.96867">
        <ele>338</ele>
        <time>2011-05-08T06:29:23Z</time>
      </trkpt>
      <trkpt lat="49.1799" lon="6.9687">
        <ele>338</ele>
        <time>2011-05-08T06:29:25Z</time>
      </trkpt>
      <trkpt lat="49.17989" lon="6.96872">
        <ele>338</ele>
        <time>2011-05-08T06:29:27Z</time>
      </trkpt>
      <trkpt lat="49.17987" lon="6.96875">
        <ele>338</ele>
        <time>2011-05-08T06:29:29Z</time>
      </trkpt>
      <trkpt lat="49.17986" lon="6.96877">
        <ele>338</ele>
        <time>2011-05-08T06:29:31Z</time>
      </trkpt>
      <trkpt lat="49.17984" lon="6.96879">
        <ele>338</ele>
        <time>2011-05-08T06:29:33Z</time>
      </trkpt>
      <trkpt lat="49.17984" lon="6.96881">
        <ele>338</ele>
        <time>2011-05-08T06:29:35Z</time>
      </trkpt>
      <trkpt lat="49.17983" lon="6.96883">
        <ele>338</ele>
        <time>2011-05-08T06:29:36Z</time>
      </trkpt>
      <trkpt lat="49.17982" lon="6.96885">
        <ele>338</ele>
        <time>2011-05-08T06:29:37Z</time>
      </trkpt>
      <trkpt lat="49.17981" lon="6.96886">
        <ele>338</ele>
        <time>2011-05-08T06:29:38Z</time>
      </trkpt>
      <trkpt lat="49.17981" lon="6.96888">
        <ele>338</ele>
        <time>2011-05-08T06:29:39Z</time>
      </trkpt>
      <trkpt lat="49.1798" lon="6.9689">
        <ele>338</ele>
        <time>2011-05-08T06:29:40Z</time>
      </trkpt>
      <trkpt lat="49.17978" lon="6.96893">
        <ele>338</ele>
        <time>2011-05-08T06:29:42Z</time>
      </trkpt>
      <trkpt lat="49.17977" lon="6.96896">
        <ele>338</ele>
        <time>2011-05-08T06:29:44Z</time>
      </trkpt>
      <trkpt lat="49.17975" lon="6.96898">
        <ele>338</ele>
        <time>2011-05-08T06:29:46Z</time>
      </trkpt>
      <trkpt lat="49.17973" lon="6.96901">
        <ele>338</ele>
        <time>2011-05-08T06:29:48Z</time>
      </trkpt>
      <trkpt lat="49.17971" lon="6.96904">
        <ele>338</ele>
        <time>2011-05-08T06:29:50Z</time>
      </trkpt>
      <trkpt lat="49.1797" lon="6.96906">
        <ele>338</ele>
        <time>2011-05-08T06:29:52Z</time>
      </trkpt>
      <trkpt lat="49.17968" lon="6.96909">
        <ele>338</ele>
        <time>2011-05-08T06:29:54Z</time>
      </trkpt>
      <trkpt lat="49.17966" lon="6.96911">
        <ele>338</ele>
        <time>2011-05-08T06:29:56Z</time>
      </trkpt>
      <trkpt lat="49.17964" lon="6.96913">
        <ele>338</ele>
        <time>2011-05-08T06:29:58Z</time>
      </trkpt>
      <trkpt lat="49.17963" lon="6.96914">
        <ele>338</ele>
        <time>2011-05-08T06:29:59Z</time>
      </trkpt>
      <trkpt lat="49.17961" lon="6.96917">
        <ele>337</ele>
        <time>2011-05-08T06:30:01Z</time>
      </trkpt>
      <trkpt lat="49.17959" lon="6.96919">
        <ele>337</ele>
        <time>2011-05-08T06:30:03Z</time>
      </trkpt>
      <trkpt lat="49.17958" lon="6.9692">
        <ele>337</ele>
        <time>2011-05-08T06:30:04Z</time>
      </trkpt>
      <trkpt lat="49.17956" lon="6.96922">
        <ele>337</ele>
        <time>2011-05-08T06:30:06Z</time>
      </trkpt>
      <trkpt lat="49.17955" lon="6.96924">
        <ele>337</ele>
        <time>2011-05-08T06:30:07Z</time>
      </trkpt>
      <trkpt lat="49.17954" lon="6.96924">
        <ele>337</ele>
        <time>2011-05-08T06:30:08Z</time>
      </trkpt>
      <trkpt lat="49.17953" lon="6.96925">
        <ele>337</ele>
        <time>2011-05-08T06:30:09Z</time>
      </trkpt>
      <trkpt lat="49.17952" lon="6.96925">
        <ele>337</ele>
        <time>2011-05-08T06:30:10Z</time>
      </trkpt>
      <trkpt lat="49.1795" lon="6.96925">
        <ele>337</ele>
        <time>2011-05-08T06:30:11Z</time>
      </trkpt>
      <trkpt lat="49.17948" lon="6.96925">
        <ele>336</ele>
        <time>2011-05-08T06:30:13Z</time>
      </trkpt>
      <trkpt lat="49.17946" lon="6.96924">
        <ele>336</ele>
        <time>2011-05-08T06:30:15Z</time>
      </trkpt>
      <trkpt lat="49.17945" lon="6.96924">
        <ele>336</ele>
        <time>2011-05-08T06:30:16Z</time>
      </trkpt>
      <trkpt lat="49.17944" lon="6.96921">
        <ele>336</ele>
        <time>2011-05-08T06:30:18Z</time>
      </trkpt>
      <trkpt lat="49.17942" lon="6.96918">
        <ele>335</ele>
        <time>2011-05-08T06:30:20Z</time>
      </trkpt>
      <trkpt lat="49.17941" lon="6.96917">
        <ele>335</ele>
        <time>2011-05-08T06:30:21Z</time>
      </trkpt>
      <trkpt lat="49.1794" lon="6.96914">
        <ele>335</ele>
        <time>2011-05-08T06:30:23Z</time>
      </trkpt>
      <trkpt lat="49.17939" lon="6.96911">
        <ele>335</ele>
        <time>2011-05-08T06:30:25Z</time>
      </trkpt>
      <trkpt lat="49.17937" lon="6.96908">
        <ele>335</ele>
        <time>2011-05-08T06:30:27Z</time>
      </trkpt>
      <trkpt lat="49.17936" lon="6.96905">
        <ele>335</ele>
        <time>2011-05-08T06:30:29Z</time>
      </trkpt>
      <trkpt lat="49.17934" lon="6.96902">
        <ele>335</ele>
        <time>2011-05-08T06:30:31Z</time>
      </trkpt>
      <trkpt lat="49.17933" lon="6.96899">
        <ele>334</ele>
        <time>2011-05-08T06:30:33Z</time>
      </trkpt>
      <trkpt lat="49.17932" lon="6.96897">
        <ele>334</ele>
        <time>2011-05-08T06:30:34Z</time>
      </trkpt>
      <trkpt lat="49.17931" lon="6.96895">
        <ele>334</ele>
        <time>2011-05-08T06:30:35Z</time>
      </trkpt>
      <trkpt lat="49.1793" lon="6.96892">
        <ele>334</ele>
        <time>2011-05-08T06:30:37Z</time>
      </trkpt>
      <trkpt lat="49.17929" lon="6.96889">
        <ele>333</ele>
        <time>2011-05-08T06:30:39Z</time>
      </trkpt>
      <trkpt lat="49.17928" lon="6.96887">
        <ele>333</ele>
        <time>2011-05-08T06:30:40Z</time>
      </trkpt>
      <trkpt lat="49.17927" lon="6.96885">
        <ele>333</ele>
        <time>2011-05-08T06:30:41Z</time>
      </trkpt>
      <trkpt lat="49.17926" lon="6.96884">
        <ele>333</ele>
        <time>2011-05-08T06:30:42Z</time>
      </trkpt>
      <trkpt lat="49.17925" lon="6.96883">
        <ele>333</ele>
        <time>2011-05-08T06:30:43Z</time>
      </trkpt>
      <trkpt lat="49.17923" lon="6.96881">
        <ele>333</ele>
        <time>2011-05-08T06:30:45Z</time>
      </trkpt>
      <trkpt lat="49.17921" lon="6.9688">
        <ele>333</ele>
        <time>2011-05-08T06:30:46Z</time>
      </trkpt>
      <trkpt lat="49.1792" lon="6.96879">
        <ele>333</ele>
        <time>2011-05-08T06:30:47Z</time>
      </trkpt>
      <trkpt lat="49.17919" lon="6.96879">
        <ele>333</ele>
        <time>2011-05-08T06:30:48Z</time>
      </trkpt>
      <trkpt lat="49.17918" lon="6.96878">
        <ele>332</ele>
        <time>2011-05-08T06:30:49Z</time>
      </trkpt>
      <trkpt lat="49.17916" lon="6.96875">
        <ele>332</ele>
        <time>2011-05-08T06:30:51Z</time>
      </trkpt>
      <trkpt lat="49.17914" lon="6.96873">
        <ele>331</ele>
        <time>2011-05-08T06:30:53Z</time>
      </trkpt>
      <trkpt lat="49.17913" lon="6.96872">
        <ele>331</ele>
        <time>2011-05-08T06:30:54Z</time>
      </trkpt>
      <trkpt lat="49.17913" lon="6.9687">
        <ele>331</ele>
        <time>2011-05-08T06:30:55Z</time>
      </trkpt>
      <trkpt lat="49.17911" lon="6.96867">
        <ele>330</ele>
        <time>2011-05-08T06:30:57Z</time>
      </trkpt>
      <trkpt lat="49.17909" lon="6.96865">
        <ele>330</ele>
        <time>2011-05-08T06:30:59Z</time>
      </trkpt>
      <trkpt lat="49.17908" lon="6.96862">
        <ele>330</ele>
        <time>2011-05-08T06:31:01Z</time>
      </trkpt>
      <trkpt lat="49.17907" lon="6.96859">
        <ele>330</ele>
        <time>2011-05-08T06:31:03Z</time>
      </trkpt>
      <trkpt lat="49.17906" lon="6.96857">
        <ele>330</ele>
        <time>2011-05-08T06:31:04Z</time>
      </trkpt>
      <trkpt lat="49.17905" lon="6.96855">
        <ele>330</ele>
        <time>2011-05-08T06:31:05Z</time>
      </trkpt>
      <trkpt lat="49.17904" lon="6.96852">
        <ele>330</ele>
        <time>2011-05-08T06:31:07Z</time>
      </trkpt>
      <trkpt lat="49.17903" lon="6.96849">
        <ele>329</ele>
        <time>2011-05-08T06:31:09Z</time>
      </trkpt>
      <trkpt lat="49.17902" lon="6.96847">
        <ele>329</ele>
        <time>2011-05-08T06:31:10Z</time>
      </trkpt>
      <trkpt lat="49.17901" lon="6.96844">
        <ele>329</ele>
        <time>2011-05-08T06:31:12Z</time>
      </trkpt>
      <trkpt lat="49.17901" lon="6.96843">
        <ele>329</ele>
        <time>2011-05-08T06:31:13Z</time>
      </trkpt>
      <trkpt lat="49.179" lon="6.96841">
        <ele>328</ele>
        <time>2011-05-08T06:31:14Z</time>
      </trkpt>
      <trkpt lat="49.17899" lon="6.96838">
        <ele>328</ele>
        <time>2011-05-08T06:31:16Z</time>
      </trkpt>
      <trkpt lat="49.17898" lon="6.96837">
        <ele>328</ele>
        <time>2011-05-08T06:31:17Z</time>
      </trkpt>
      <trkpt lat="49.17898" lon="6.96835">
        <ele>328</ele>
        <time>2011-05-08T06:31:18Z</time>
      </trkpt>
      <trkpt lat="49.17897" lon="6.96833">
        <ele>327</ele>
        <time>2011-05-08T06:31:19Z</time>
      </trkpt>
      <trkpt lat="49.17897" lon="6.96831">
        <ele>327</ele>
        <time>2011-05-08T06:31:20Z</time>
      </trkpt>
      <trkpt lat="49.17896" lon="6.9683">
        <ele>327</ele>
        <time>2011-05-08T06:31:21Z</time>
      </trkpt>
      <trkpt lat="49.17896" lon="6.96828">
        <ele>327</ele>
        <time>2011-05-08T06:31:22Z</time>
      </trkpt>
      <trkpt lat="49.17895" lon="6.96826">
        <ele>327</ele>
        <time>2011-05-08T06:31:23Z</time>
      </trkpt>
      <trkpt lat="49.17895" lon="6.96824">
        <ele>327</ele>
        <time>2011-05-08T06:31:24Z</time>
      </trkpt>
      <trkpt lat="49.17894" lon="6.96823">
        <ele>327</ele>
        <time>2011-05-08T06:31:25Z</time>
      </trkpt>
      <trkpt lat="49.17894" lon="6.96821">
        <ele>327</ele>
        <time>2011-05-08T06:31:26Z</time>
      </trkpt>
      <trkpt lat="49.17893" lon="6.96819">
        <ele>326</ele>
        <time>2011-05-08T06:31:27Z</time>
      </trkpt>
      <trkpt lat="49.17893" lon="6.96817">
        <ele>326</ele>
        <time>2011-05-08T06:31:28Z</time>
      </trkpt>
      <trkpt lat="49.17892" lon="6.96814">
        <ele>326</ele>
        <time>2011-05-08T06:31:30Z</time>
      </trkpt>
      <trkpt lat="49.17892" lon="6.96813">
        <ele>325</ele>
        <time>2011-05-08T06:31:31Z</time>
      </trkpt>
      <trkpt lat="49.17891" lon="6.96811">
        <ele>325</ele>
        <time>2011-05-08T06:31:32Z</time>
      </trkpt>
      <trkpt lat="49.17891" lon="6.96809">
        <ele>325</ele>
        <time>2011-05-08T06:31:33Z</time>
      </trkpt>
      <trkpt lat="49.17891" lon="6.96807">
        <ele>325</ele>
        <time>2011-05-08T06:31:34Z</time>
      </trkpt>
      <trkpt lat="49.1789" lon="6.96805">
        <ele>325</ele>
        <time>2011-05-08T06:31:35Z</time>
      </trkpt>
      <trkpt lat="49.1789" lon="6.96804">
        <ele>324</ele>
        <time>2011-05-08T06:31:36Z</time>
      </trkpt>
      <trkpt lat="49.17889" lon="6.96802">
        <ele>324</ele>
        <time>2011-05-08T06:31:37Z</time>
      </trkpt>
      <trkpt lat="49.17889" lon="6.968">
        <ele>324</ele>
        <time>2011-05-08T06:31:38Z</time>
      </trkpt>
      <trkpt lat="49.17888" lon="6.96799">
        <ele>324</ele>
        <time>2011-05-08T06:31:39Z</time>
      </trkpt>
      <trkpt lat="49.17887" lon="6.96795">
        <ele>324</ele>
        <time>2011-05-08T06:31:41Z</time>
      </trkpt>
      <trkpt lat="49.17886" lon="6.96793">
        <ele>324</ele>
        <time>2011-05-08T06:31:43Z</time>
      </trkpt>
      <trkpt lat="49.17885" lon="6.9679">
        <ele>324</ele>
        <time>2011-05-08T06:31:45Z</time>
      </trkpt>
      <trkpt lat="49.17883" lon="6.96788">
        <ele>324</ele>
        <time>2011-05-08T06:31:47Z</time>
      </trkpt>
      <trkpt lat="49.17883" lon="6.96786">
        <ele>323</ele>
        <time>2011-05-08T06:31:48Z</time>
      </trkpt>
      <trkpt lat="49.17882" lon="6.96784">
        <ele>323</ele>
        <time>2011-05-08T06:31:49Z</time>
      </trkpt>
      <trkpt lat="49.1788" lon="6.96781">
        <ele>323</ele>
        <time>2011-05-08T06:31:51Z</time>
      </trkpt>
      <trkpt lat="49.17878" lon="6.96778">
        <ele>322</ele>
        <time>2011-05-08T06:31:53Z</time>
      </trkpt>
      <trkpt lat="49.17878" lon="6.96777">
        <ele>321</ele>
        <time>2011-05-08T06:31:54Z</time>
      </trkpt>
      <trkpt lat="49.17877" lon="6.96775">
        <ele>321</ele>
        <time>2011-05-08T06:31:55Z</time>
      </trkpt>
      <trkpt lat="49.17876" lon="6.96772">
        <ele>320</ele>
        <time>2011-05-08T06:31:57Z</time>
      </trkpt>
      <trkpt lat="49.17874" lon="6.9677">
        <ele>320</ele>
        <time>2011-05-08T06:31:59Z</time>
      </trkpt>
      <trkpt lat="49.17873" lon="6.96768">
        <ele>319</ele>
        <time>2011-05-08T06:32:01Z</time>
      </trkpt>
      <trkpt lat="49.17871" lon="6.96765">
        <ele>319</ele>
        <time>2011-05-08T06:32:03Z</time>
      </trkpt>
      <trkpt lat="49.17869" lon="6.96762">
        <ele>318</ele>
        <time>2011-05-08T06:32:05Z</time>
      </trkpt>
      <trkpt lat="49.17868" lon="6.9676">
        <ele>318</ele>
        <time>2011-05-08T06:32:07Z</time>
      </trkpt>
      <trkpt lat="49.17867" lon="6.96758">
        <ele>317</ele>
        <time>2011-05-08T06:32:09Z</time>
      </trkpt>
      <trkpt lat="49.17865" lon="6.96755">
        <ele>317</ele>
        <time>2011-05-08T06:32:11Z</time>
      </trkpt>
      <trkpt lat="49.17864" lon="6.96753">
        <ele>316</ele>
        <time>2011-05-08T06:32:13Z</time>
      </trkpt>
      <trkpt lat="49.17863" lon="6.96751">
        <ele>316</ele>
        <time>2011-05-08T06:32:14Z</time>
      </trkpt>
      <trkpt lat="49.17863" lon="6.96749">
        <ele>316</ele>
        <time>2011-05-08T06:32:15Z</time>
      </trkpt>
      <trkpt lat="49.17862" lon="6.96747">
        <ele>316</ele>
        <time>2011-05-08T06:32:16Z</time>
      </trkpt>
      <trkpt lat="49.17862" lon="6.96746">
        <ele>316</ele>
        <time>2011-05-08T06:32:17Z</time>
      </trkpt>
      <trkpt lat="49.17861" lon="6.96744">
        <ele>316</ele>
        <time>2011-05-08T06:32:18Z</time>
      </trkpt>
      <trkpt lat="49.1786" lon="6.96741">
        <ele>315</ele>
        <time>2011-05-08T06:32:20Z</time>
      </trkpt>
      <trkpt lat="49.17858" lon="6.96739">
        <ele>315</ele>
        <time>2011-05-08T06:32:22Z</time>
      </trkpt>
      <trkpt lat="49.17857" lon="6.96736">
        <ele>314</ele>
        <time>2011-05-08T06:32:24Z</time>
      </trkpt>
      <trkpt lat="49.17856" lon="6.96733">
        <ele>314</ele>
        <time>2011-05-08T06:32:26Z</time>
      </trkpt>
      <trkpt lat="49.17855" lon="6.9673">
        <ele>313</ele>
        <time>2011-05-08T06:32:28Z</time>
      </trkpt>
      <trkpt lat="49.17854" lon="6.96727">
        <ele>312</ele>
        <time>2011-05-08T06:32:30Z</time>
      </trkpt>
      <trkpt lat="49.17852" lon="6.96725">
        <ele>312</ele>
        <time>2011-05-08T06:32:32Z</time>
      </trkpt>
      <trkpt lat="49.17851" lon="6.96723">
        <ele>312</ele>
        <time>2011-05-08T06:32:33Z</time>
      </trkpt>
      <trkpt lat="49.17851" lon="6.9672">
        <ele>312</ele>
        <time>2011-05-08T06:32:34Z</time>
      </trkpt>
      <trkpt lat="49.1785" lon="6.96719">
        <ele>312</ele>
        <time>2011-05-08T06:32:35Z</time>
      </trkpt>
      <trkpt lat="49.1785" lon="6.96717">
        <ele>312</ele>
        <time>2011-05-08T06:32:36Z</time>
      </trkpt>
      <trkpt lat="49.17849" lon="6.96715">
        <ele>312</ele>
        <time>2011-05-08T06:32:37Z</time>
      </trkpt>
      <trkpt lat="49.17848" lon="6.96712">
        <ele>311</ele>
        <time>2011-05-08T06:32:39Z</time>
      </trkpt>
      <trkpt lat="49.17847" lon="6.96709">
        <ele>311</ele>
        <time>2011-05-08T06:32:41Z</time>
      </trkpt>
      <trkpt lat="49.17846" lon="6.96707">
        <ele>311</ele>
        <time>2011-05-08T06:32:42Z</time>
      </trkpt>
      <trkpt lat="49.17844" lon="6.96704">
        <ele>311</ele>
        <time>2011-05-08T06:32:44Z</time>
      </trkpt>
      <trkpt lat="49.17843" lon="6.96703">
        <ele>311</ele>
        <time>2011-05-08T06:32:45Z</time>
      </trkpt>
      <trkpt lat="49.17841" lon="6.96703">
        <ele>311</ele>
        <time>2011-05-08T06:32:46Z</time>
      </trkpt>
      <trkpt lat="49.1784" lon="6.96703">
        <ele>311</ele>
        <time>2011-05-08T06:32:47Z</time>
      </trkpt>
      <trkpt lat="49.17839" lon="6.96704">
        <ele>311</ele>
        <time>2011-05-08T06:32:48Z</time>
      </trkpt>
      <trkpt lat="49.17838" lon="6.96706">
        <ele>311</ele>
        <time>2011-05-08T06:32:50Z</time>
      </trkpt>
      <trkpt lat="49.17836" lon="6.96709">
        <ele>311</ele>
        <time>2011-05-08T06:32:52Z</time>
      </trkpt>
      <trkpt lat="49.17836" lon="6.96711">
        <ele>311</ele>
        <time>2011-05-08T06:32:53Z</time>
      </trkpt>
      <trkpt lat="49.17836" lon="6.96713">
        <ele>311</ele>
        <time>2011-05-08T06:32:54Z</time>
      </trkpt>
      <trkpt lat="49.17835" lon="6.96714">
        <ele>311</ele>
        <time>2011-05-08T06:32:55Z</time>
      </trkpt>
      <trkpt lat="49.17835" lon="6.96716">
        <ele>311</ele>
        <time>2011-05-08T06:32:56Z</time>
      </trkpt>
      <trkpt lat="49.17835" lon="6.96719">
        <ele>311</ele>
        <time>2011-05-08T06:32:57Z</time>
      </trkpt>
      <trkpt lat="49.17834" lon="6.96721">
        <ele>311</ele>
        <time>2011-05-08T06:32:59Z</time>
      </trkpt>
      <trkpt lat="49.17834" lon="6.96723">
        <ele>311</ele>
        <time>2011-05-08T06:33:01Z</time>
      </trkpt>
      <trkpt lat="49.17833" lon="6.96725">
        <ele>311</ele>
        <time>2011-05-08T06:33:02Z</time>
      </trkpt>
      <trkpt lat="49.17833" lon="6.96727">
        <ele>311</ele>
        <time>2011-05-08T06:33:03Z</time>
      </trkpt>
      <trkpt lat="49.17833" lon="6.96729">
        <ele>311</ele>
        <time>2011-05-08T06:33:04Z</time>
      </trkpt>
      <trkpt lat="49.17833" lon="6.96731">
        <ele>311</ele>
        <time>2011-05-08T06:33:05Z</time>
      </trkpt>
      <trkpt lat="49.17833" lon="6.96733">
        <ele>311</ele>
        <time>2011-05-08T06:33:06Z</time>
      </trkpt>
      <trkpt lat="49.17833" lon="6.96735">
        <ele>311</ele>
        <time>2011-05-08T06:33:07Z</time>
      </trkpt>
      <trkpt lat="49.17832" lon="6.96736">
        <ele>311</ele>
        <time>2011-05-08T06:33:08Z</time>
      </trkpt>
      <trkpt lat="49.17832" lon="6.96739">
        <ele>311</ele>
        <time>2011-05-08T06:33:09Z</time>
      </trkpt>
      <trkpt lat="49.17832" lon="6.9674">
        <ele>311</ele>
        <time>2011-05-08T06:33:10Z</time>
      </trkpt>
      <trkpt lat="49.17831" lon="6.96742">
        <ele>311</ele>
        <time>2011-05-08T06:33:11Z</time>
      </trkpt>
      <trkpt lat="49.17831" lon="6.96744">
        <ele>311</ele>
        <time>2011-05-08T06:33:12Z</time>
      </trkpt>
      <trkpt lat="49.17831" lon="6.96747">
        <ele>312</ele>
        <time>2011-05-08T06:33:13Z</time>
      </trkpt>
      <trkpt lat="49.17831" lon="6.96748">
        <ele>312</ele>
        <time>2011-05-08T06:33:14Z</time>
      </trkpt>
      <trkpt lat="49.1783" lon="6.96751">
        <ele>312</ele>
        <time>2011-05-08T06:33:16Z</time>
      </trkpt>
      <trkpt lat="49.1783" lon="6.96754">
        <ele>313</ele>
        <time>2011-05-08T06:33:18Z</time>
      </trkpt>
      <trkpt lat="49.17829" lon="6.96758">
        <ele>313</ele>
        <time>2011-05-08T06:33:20Z</time>
      </trkpt>
      <trkpt lat="49.17829" lon="6.9676">
        <ele>313</ele>
        <time>2011-05-08T06:33:21Z</time>
      </trkpt>
      <trkpt lat="49.17829" lon="6.96763">
        <ele>314</ele>
        <time>2011-05-08T06:33:23Z</time>
      </trkpt>
      <trkpt lat="49.17829" lon="6.96765">
        <ele>315</ele>
        <time>2011-05-08T06:33:24Z</time>
      </trkpt>
      <trkpt lat="49.17828" lon="6.96767">
        <ele>315</ele>
        <time>2011-05-08T06:33:25Z</time>
      </trkpt>
      <trkpt lat="49.17828" lon="6.96769">
        <ele>315</ele>
        <time>2011-05-08T06:33:26Z</time>
      </trkpt>
      <trkpt lat="49.17827" lon="6.96771">
        <ele>316</ele>
        <time>2011-05-08T06:33:28Z</time>
      </trkpt>
      <trkpt lat="49.17828" lon="6.96774">
        <ele>316</ele>
        <time>2011-05-08T06:33:30Z</time>
      </trkpt>
      <trkpt lat="49.17827" lon="6.96776">
        <ele>316</ele>
        <time>2011-05-08T06:33:31Z</time>
      </trkpt>
      <trkpt lat="49.17826" lon="6.96778">
        <ele>316</ele>
        <time>2011-05-08T06:33:33Z</time>
      </trkpt>
      <trkpt lat="49.17826" lon="6.96781">
        <ele>316</ele>
        <time>2011-05-08T06:33:35Z</time>
      </trkpt>
      <trkpt lat="49.17825" lon="6.96783">
        <ele>316</ele>
        <time>2011-05-08T06:33:36Z</time>
      </trkpt>
      <trkpt lat="49.17824" lon="6.96786">
        <ele>316</ele>
        <time>2011-05-08T06:33:38Z</time>
      </trkpt>
      <trkpt lat="49.17824" lon="6.96788">
        <ele>316</ele>
        <time>2011-05-08T06:33:39Z</time>
      </trkpt>
      <trkpt lat="49.17824" lon="6.9679">
        <ele>317</ele>
        <time>2011-05-08T06:33:40Z</time>
      </trkpt>
      <trkpt lat="49.17823" lon="6.96793">
        <ele>317</ele>
        <time>2011-05-08T06:33:42Z</time>
      </trkpt>
      <trkpt lat="49.17823" lon="6.96795">
        <ele>317</ele>
        <time>2011-05-08T06:33:43Z</time>
      </trkpt>
      <trkpt lat="49.17822" lon="6.96797">
        <ele>317</ele>
        <time>2011-05-08T06:33:44Z</time>
      </trkpt>
      <trkpt lat="49.17822" lon="6.96799">
        <ele>317</ele>
        <time>2011-05-08T06:33:45Z</time>
      </trkpt>
      <trkpt lat="49.17822" lon="6.96801">
        <ele>317</ele>
        <time>2011-05-08T06:33:46Z</time>
      </trkpt>
      <trkpt lat="49.17821" lon="6.96802">
        <ele>317</ele>
        <time>2011-05-08T06:33:47Z</time>
      </trkpt>
      <trkpt lat="49.17821" lon="6.96804">
        <ele>318</ele>
        <time>2011-05-08T06:33:48Z</time>
      </trkpt>
      <trkpt lat="49.1782" lon="6.96806">
        <ele>318</ele>
        <time>2011-05-08T06:33:49Z</time>
      </trkpt>
      <trkpt lat="49.1782" lon="6.96807">
        <ele>318</ele>
        <time>2011-05-08T06:33:50Z</time>
      </trkpt>
      <trkpt lat="49.1782" lon="6.96809">
        <ele>318</ele>
        <time>2011-05-08T06:33:51Z</time>
      </trkpt>
      <trkpt lat="49.1782" lon="6.96811">
        <ele>319</ele>
        <time>2011-05-08T06:33:52Z</time>
      </trkpt>
      <trkpt lat="49.17819" lon="6.96812">
        <ele>319</ele>
        <time>2011-05-08T06:33:53Z</time>
      </trkpt>
      <trkpt lat="49.17818" lon="6.96816">
        <ele>319</ele>
        <time>2011-05-08T06:33:55Z</time>
      </trkpt>
      <trkpt lat="49.17818" lon="6.96819">
        <ele>319</ele>
        <time>2011-05-08T06:33:57Z</time>
      </trkpt>
      <trkpt lat="49.17818" lon="6.96821">
        <ele>320</ele>
        <time>2011-05-08T06:33:58Z</time>
      </trkpt>
      <trkpt lat="49.17817" lon="6.96823">
        <ele>320</ele>
        <time>2011-05-08T06:33:59Z</time>
      </trkpt>
      <trkpt lat="49.17817" lon="6.96825">
        <ele>320</ele>
        <time>2011-05-08T06:34:00Z</time>
      </trkpt>
      <trkpt lat="49.17817" lon="6.96826">
        <ele>320</ele>
        <time>2011-05-08T06:34:01Z</time>
      </trkpt>
      <trkpt lat="49.17816" lon="6.96828">
        <ele>321</ele>
        <time>2011-05-08T06:34:02Z</time>
      </trkpt>
      <trkpt lat="49.17816" lon="6.9683">
        <ele>321</ele>
        <time>2011-05-08T06:34:03Z</time>
      </trkpt>
      <trkpt lat="49.17815" lon="6.96831">
        <ele>321</ele>
        <time>2011-05-08T06:34:04Z</time>
      </trkpt>
      <trkpt lat="49.17815" lon="6.96833">
        <ele>321</ele>
        <time>2011-05-08T06:34:05Z</time>
      </trkpt>
      <trkpt lat="49.17814" lon="6.96835">
        <ele>322</ele>
        <time>2011-05-08T06:34:06Z</time>
      </trkpt>
      <trkpt lat="49.17814" lon="6.96837">
        <ele>322</ele>
        <time>2011-05-08T06:34:07Z</time>
      </trkpt>
      <trkpt lat="49.17814" lon="6.96838">
        <ele>322</ele>
        <time>2011-05-08T06:34:08Z</time>
      </trkpt>
      <trkpt lat="49.17814" lon="6.9684">
        <ele>322</ele>
        <time>2011-05-08T06:34:09Z</time>
      </trkpt>
      <trkpt lat="49.17813" lon="6.96842">
        <ele>322</ele>
        <time>2011-05-08T06:34:10Z</time>
      </trkpt>
      <trkpt lat="49.17813" lon="6.96844">
        <ele>322</ele>
        <time>2011-05-08T06:34:11Z</time>
      </trkpt>
      <trkpt lat="49.17813" lon="6.96845">
        <ele>322</ele>
        <time>2011-05-08T06:34:12Z</time>
      </trkpt>
      <trkpt lat="49.17812" lon="6.96847">
        <ele>322</ele>
        <time>2011-05-08T06:34:13Z</time>
      </trkpt>
      <trkpt lat="49.17812" lon="6.96849">
        <ele>323</ele>
        <time>2011-05-08T06:34:14Z</time>
      </trkpt>
      <trkpt lat="49.17812" lon="6.96851">
        <ele>323</ele>
        <time>2011-05-08T06:34:15Z</time>
      </trkpt>
      <trkpt lat="49.17811" lon="6.96852">
        <ele>323</ele>
        <time>2011-05-08T06:34:16Z</time>
      </trkpt>
      <trkpt lat="49.17811" lon="6.96854">
        <ele>323</ele>
        <time>2011-05-08T06:34:17Z</time>
      </trkpt>
      <trkpt lat="49.1781" lon="6.96856">
        <ele>323</ele>
        <time>2011-05-08T06:34:18Z</time>
      </trkpt>
      <trkpt lat="49.17809" lon="6.96859">
        <ele>323</ele>
        <time>2011-05-08T06:34:20Z</time>
      </trkpt>
      <trkpt lat="49.17809" lon="6.96861">
        <ele>323</ele>
        <time>2011-05-08T06:34:21Z</time>
      </trkpt>
      <trkpt lat="49.17808" lon="6.96863">
        <ele>323</ele>
        <time>2011-05-08T06:34:22Z</time>
      </trkpt>
      <trkpt lat="49.17808" lon="6.96864">
        <ele>323</ele>
        <time>2011-05-08T06:34:23Z</time>
      </trkpt>
      <trkpt lat="49.17807" lon="6.96868">
        <ele>323</ele>
        <time>2011-05-08T06:34:25Z</time>
      </trkpt>
      <trkpt lat="49.17806" lon="6.96869">
        <ele>323</ele>
        <time>2011-05-08T06:34:26Z</time>
      </trkpt>
      <trkpt lat="49.17806" lon="6.96871">
        <ele>324</ele>
        <time>2011-05-08T06:34:27Z</time>
      </trkpt>
      <trkpt lat="49.17805" lon="6.96873">
        <ele>324</ele>
        <time>2011-05-08T06:34:28Z</time>
      </trkpt>
      <trkpt lat="49.17804" lon="6.96875">
        <ele>324</ele>
        <time>2011-05-08T06:34:30Z</time>
      </trkpt>
      <trkpt lat="49.17802" lon="6.96878">
        <ele>324</ele>
        <time>2011-05-08T06:34:32Z</time>
      </trkpt>
      <trkpt lat="49.17801" lon="6.96881">
        <ele>324</ele>
        <time>2011-05-08T06:34:34Z</time>
      </trkpt>
      <trkpt lat="49.178" lon="6.96883">
        <ele>324</ele>
        <time>2011-05-08T06:34:35Z</time>
      </trkpt>
      <trkpt lat="49.17799" lon="6.96886">
        <ele>324</ele>
        <time>2011-05-08T06:34:37Z</time>
      </trkpt>
      <trkpt lat="49.17797" lon="6.96889">
        <ele>324</ele>
        <time>2011-05-08T06:34:39Z</time>
      </trkpt>
      <trkpt lat="49.17797" lon="6.96891">
        <ele>324</ele>
        <time>2011-05-08T06:34:40Z</time>
      </trkpt>
      <trkpt lat="49.17796" lon="6.96892">
        <ele>324</ele>
        <time>2011-05-08T06:34:41Z</time>
      </trkpt>
      <trkpt lat="49.17795" lon="6.96894">
        <ele>324</ele>
        <time>2011-05-08T06:34:42Z</time>
      </trkpt>
      <trkpt lat="49.17794" lon="6.96898">
        <ele>324</ele>
        <time>2011-05-08T06:34:44Z</time>
      </trkpt>
      <trkpt lat="49.17792" lon="6.969">
        <ele>324</ele>
        <time>2011-05-08T06:34:46Z</time>
      </trkpt>
      <trkpt lat="49.17791" lon="6.96902">
        <ele>324</ele>
        <time>2011-05-08T06:34:47Z</time>
      </trkpt>
      <trkpt lat="49.17789" lon="6.96905">
        <ele>324</ele>
        <time>2011-05-08T06:34:49Z</time>
      </trkpt>
      <trkpt lat="49.17788" lon="6.96907">
        <ele>324</ele>
        <time>2011-05-08T06:34:50Z</time>
      </trkpt>
      <trkpt lat="49.17787" lon="6.9691">
        <ele>325</ele>
        <time>2011-05-08T06:34:52Z</time>
      </trkpt>
      <trkpt lat="49.17786" lon="6.96913">
        <ele>325</ele>
        <time>2011-05-08T06:34:54Z</time>
      </trkpt>
      <trkpt lat="49.17785" lon="6.96914">
        <ele>325</ele>
        <time>2011-05-08T06:34:55Z</time>
      </trkpt>
      <trkpt lat="49.17783" lon="6.96917">
        <ele>325</ele>
        <time>2011-05-08T06:34:57Z</time>
      </trkpt>
      <trkpt lat="49.17782" lon="6.9692">
        <ele>325</ele>
        <time>2011-05-08T06:34:59Z</time>
      </trkpt>
      <trkpt lat="49.17781" lon="6.96922">
        <ele>325</ele>
        <time>2011-05-08T06:35:01Z</time>
      </trkpt>
      <trkpt lat="49.17779" lon="6.96925">
        <ele>325</ele>
        <time>2011-05-08T06:35:03Z</time>
      </trkpt>
      <trkpt lat="49.17778" lon="6.96928">
        <ele>325</ele>
        <time>2011-05-08T06:35:05Z</time>
      </trkpt>
      <trkpt lat="49.17777" lon="6.9693">
        <ele>325</ele>
        <time>2011-05-08T06:35:06Z</time>
      </trkpt>
      <trkpt lat="49.17776" lon="6.96932">
        <ele>325</ele>
        <time>2011-05-08T06:35:07Z</time>
      </trkpt>
      <trkpt lat="49.17775" lon="6.96933">
        <ele>325</ele>
        <time>2011-05-08T06:35:08Z</time>
      </trkpt>
      <trkpt lat="49.17774" lon="6.96936">
        <ele>325</ele>
        <time>2011-05-08T06:35:10Z</time>
      </trkpt>
      <trkpt lat="49.17773" lon="6.96939">
        <ele>325</ele>
        <time>2011-05-08T06:35:12Z</time>
      </trkpt>
      <trkpt lat="49.17771" lon="6.96942">
        <ele>325</ele>
        <time>2011-05-08T06:35:14Z</time>
      </trkpt>
      <trkpt lat="49.17771" lon="6.96944">
        <ele>326</ele>
        <time>2011-05-08T06:35:15Z</time>
      </trkpt>
      <trkpt lat="49.1777" lon="6.96945">
        <ele>326</ele>
        <time>2011-05-08T06:35:16Z</time>
      </trkpt>
      <trkpt lat="49.1777" lon="6.96947">
        <ele>326</ele>
        <time>2011-05-08T06:35:17Z</time>
      </trkpt>
      <trkpt lat="49.17769" lon="6.96949">
        <ele>326</ele>
        <time>2011-05-08T06:35:18Z</time>
      </trkpt>
      <trkpt lat="49.17768" lon="6.96951">
        <ele>327</ele>
        <time>2011-05-08T06:35:20Z</time>
      </trkpt>
      <trkpt lat="49.17767" lon="6.96953">
        <ele>327</ele>
        <time>2011-05-08T06:35:20Z</time>
      </trkpt>
      <trkpt lat="49.17766" lon="6.96956">
        <ele>327</ele>
        <time>2011-05-08T06:35:22Z</time>
      </trkpt>
      <trkpt lat="49.17764" lon="6.9696">
        <ele>328</ele>
        <time>2011-05-08T06:35:24Z</time>
      </trkpt>
      <trkpt lat="49.17763" lon="6.96963">
        <ele>328</ele>
        <time>2011-05-08T06:35:26Z</time>
      </trkpt>
      <trkpt lat="49.17762" lon="6.96966">
        <ele>329</ele>
        <time>2011-05-08T06:35:28Z</time>
      </trkpt>
      <trkpt lat="49.1776" lon="6.96969">
        <ele>329</ele>
        <time>2011-05-08T06:35:30Z</time>
      </trkpt>
      <trkpt lat="49.17759" lon="6.96971">
        <ele>329</ele>
        <time>2011-05-08T06:35:32Z</time>
      </trkpt>
      <trkpt lat="49.17758" lon="6.96974">
        <ele>329</ele>
        <time>2011-05-08T06:35:33Z</time>
      </trkpt>
      <trkpt lat="49.17757" lon="6.96977">
        <ele>329</ele>
        <time>2011-05-08T06:35:35Z</time>
      </trkpt>
      <trkpt lat="49.17756" lon="6.9698">
        <ele>330</ele>
        <time>2011-05-08T06:35:37Z</time>
      </trkpt>
      <trkpt lat="49.17754" lon="6.96983">
        <ele>330</ele>
        <time>2011-05-08T06:35:39Z</time>
      </trkpt>
      <trkpt lat="49.17754" lon="6.96984">
        <ele>330</ele>
        <time>2011-05-08T06:35:40Z</time>
      </trkpt>
      <trkpt lat="49.17753" lon="6.96986">
        <ele>330</ele>
        <time>2011-05-08T06:35:41Z</time>
      </trkpt>
      <trkpt lat="49.17752" lon="6.96989">
        <ele>330</ele>
        <time>2011-05-08T06:35:44Z</time>
      </trkpt>
      <trkpt lat="49.17751" lon="6.96992">
        <ele>331</ele>
        <time>2011-05-08T06:35:45Z</time>
      </trkpt>
      <trkpt lat="49.17749" lon="6.96995">
        <ele>331</ele>
        <time>2011-05-08T06:35:47Z</time>
      </trkpt>
      <trkpt lat="49.17749" lon="6.96997">
        <ele>331</ele>
        <time>2011-05-08T06:35:48Z</time>
      </trkpt>
      <trkpt lat="49.17748" lon="6.96999">
        <ele>331</ele>
        <time>2011-05-08T06:35:49Z</time>
      </trkpt>
      <trkpt lat="49.17747" lon="6.97001">
        <ele>331</ele>
        <time>2011-05-08T06:35:51Z</time>
      </trkpt>
      <trkpt lat="49.17746" lon="6.97005">
        <ele>332</ele>
        <time>2011-05-08T06:35:53Z</time>
      </trkpt>
      <trkpt lat="49.17745" lon="6.97007">
        <ele>332</ele>
        <time>2011-05-08T06:35:54Z</time>
      </trkpt>
      <trkpt lat="49.17744" lon="6.97009">
        <ele>332</ele>
        <time>2011-05-08T06:35:55Z</time>
      </trkpt>
      <trkpt lat="49.17744" lon="6.9701">
        <ele>332</ele>
        <time>2011-05-08T06:35:56Z</time>
      </trkpt>
      <trkpt lat="49.17742" lon="6.97013">
        <ele>332</ele>
        <time>2011-05-08T06:35:58Z</time>
      </trkpt>
      <trkpt lat="49.17741" lon="6.97016">
        <ele>332</ele>
        <time>2011-05-08T06:36:00Z</time>
      </trkpt>
      <trkpt lat="49.17741" lon="6.97018">
        <ele>333</ele>
        <time>2011-05-08T06:36:01Z</time>
      </trkpt>
      <trkpt lat="49.1774" lon="6.97019">
        <ele>333</ele>
        <time>2011-05-08T06:36:02Z</time>
      </trkpt>
      <trkpt lat="49.17739" lon="6.97022">
        <ele>333</ele>
        <time>2011-05-08T06:36:04Z</time>
      </trkpt>
      <trkpt lat="49.17737" lon="6.97026">
        <ele>333</ele>
        <time>2011-05-08T06:36:06Z</time>
      </trkpt>
      <trkpt lat="49.17737" lon="6.97028">
        <ele>333</ele>
        <time>2011-05-08T06:36:07Z</time>
      </trkpt>
      <trkpt lat="49.17736" lon="6.97029">
        <ele>334</ele>
        <time>2011-05-08T06:36:08Z</time>
      </trkpt>
      <trkpt lat="49.17736" lon="6.97031">
        <ele>334</ele>
        <time>2011-05-08T06:36:09Z</time>
      </trkpt>
      <trkpt lat="49.17735" lon="6.97033">
        <ele>334</ele>
        <time>2011-05-08T06:36:10Z</time>
      </trkpt>
      <trkpt lat="49.17734" lon="6.97036">
        <ele>334</ele>
        <time>2011-05-08T06:36:12Z</time>
      </trkpt>
      <trkpt lat="49.17733" lon="6.97038">
        <ele>334</ele>
        <time>2011-05-08T06:36:13Z</time>
      </trkpt>
      <trkpt lat="49.17733" lon="6.97039">
        <ele>334</ele>
        <time>2011-05-08T06:36:15Z</time>
      </trkpt>
      <trkpt lat="49.17732" lon="6.97043">
        <ele>334</ele>
        <time>2011-05-08T06:36:16Z</time>
      </trkpt>
      <trkpt lat="49.17731" lon="6.97046">
        <ele>334</ele>
        <time>2011-05-08T06:36:18Z</time>
      </trkpt>
      <trkpt lat="49.1773" lon="6.97047">
        <ele>334</ele>
        <time>2011-05-08T06:36:20Z</time>
      </trkpt>
      <trkpt lat="49.1773" lon="6.97049">
        <ele>334</ele>
        <time>2011-05-08T06:36:20Z</time>
      </trkpt>
      <trkpt lat="49.17729" lon="6.97051">
        <ele>334</ele>
        <time>2011-05-08T06:36:21Z</time>
      </trkpt>
      <trkpt lat="49.17729" lon="6.97053">
        <ele>334</ele>
        <time>2011-05-08T06:36:22Z</time>
      </trkpt>
      <trkpt lat="49.17728" lon="6.97054">
        <ele>335</ele>
        <time>2011-05-08T06:36:23Z</time>
      </trkpt>
      <trkpt lat="49.17728" lon="6.97056">
        <ele>335</ele>
        <time>2011-05-08T06:36:24Z</time>
      </trkpt>
      <trkpt lat="49.17727" lon="6.97058">
        <ele>335</ele>
        <time>2011-05-08T06:36:26Z</time>
      </trkpt>
      <trkpt lat="49.17727" lon="6.97059">
        <ele>335</ele>
        <time>2011-05-08T06:36:26Z</time>
      </trkpt>
      <trkpt lat="49.17726" lon="6.97061">
        <ele>335</ele>
        <time>2011-05-08T06:36:27Z</time>
      </trkpt>
      <trkpt lat="49.17726" lon="6.97063">
        <ele>335</ele>
        <time>2011-05-08T06:36:28Z</time>
      </trkpt>
      <trkpt lat="49.17725" lon="6.97065">
        <ele>335</ele>
        <time>2011-05-08T06:36:29Z</time>
      </trkpt>
      <trkpt lat="49.17725" lon="6.97066">
        <ele>335</ele>
        <time>2011-05-08T06:36:31Z</time>
      </trkpt>
      <trkpt lat="49.17724" lon="6.97068">
        <ele>335</ele>
        <time>2011-05-08T06:36:31Z</time>
      </trkpt>
      <trkpt lat="49.17724" lon="6.9707">
        <ele>335</ele>
        <time>2011-05-08T06:36:32Z</time>
      </trkpt>
      <trkpt lat="49.17723" lon="6.97072">
        <ele>335</ele>
        <time>2011-05-08T06:36:33Z</time>
      </trkpt>
      <trkpt lat="49.17723" lon="6.97074">
        <ele>335</ele>
        <time>2011-05-08T06:36:34Z</time>
      </trkpt>
      <trkpt lat="49.17723" lon="6.97075">
        <ele>335</ele>
        <time>2011-05-08T06:36:36Z</time>
      </trkpt>
      <trkpt lat="49.17722" lon="6.97077">
        <ele>335</ele>
        <time>2011-05-08T06:36:36Z</time>
      </trkpt>
      <trkpt lat="49.17722" lon="6.97079">
        <ele>335</ele>
        <time>2011-05-08T06:36:37Z</time>
      </trkpt>
      <trkpt lat="49.17722" lon="6.97081">
        <ele>335</ele>
        <time>2011-05-08T06:36:38Z</time>
      </trkpt>
      <trkpt lat="49.17721" lon="6.97083">
        <ele>335</ele>
        <time>2011-05-08T06:36:39Z</time>
      </trkpt>
      <trkpt lat="49.17721" lon="6.97084">
        <ele>335</ele>
        <time>2011-05-08T06:36:41Z</time>
      </trkpt>
      <trkpt lat="49.1772" lon="6.97086">
        <ele>335</ele>
        <time>2011-05-08T06:36:41Z</time>
      </trkpt>
      <trkpt lat="49.1772" lon="6.97088">
        <ele>335</ele>
        <time>2011-05-08T06:36:42Z</time>
      </trkpt>
      <trkpt lat="49.17718" lon="6.9709">
        <ele>335</ele>
        <time>2011-05-08T06:36:44Z</time>
      </trkpt>
      <trkpt lat="49.17717" lon="6.97092">
        <ele>335</ele>
        <time>2011-05-08T06:36:45Z</time>
      </trkpt>
      <trkpt lat="49.17716" lon="6.97094">
        <ele>335</ele>
        <time>2011-05-08T06:36:46Z</time>
      </trkpt>
      <trkpt lat="49.17716" lon="6.97096">
        <ele>335</ele>
        <time>2011-05-08T06:36:47Z</time>
      </trkpt>
      <trkpt lat="49.17715" lon="6.97097">
        <ele>335</ele>
        <time>2011-05-08T06:36:48Z</time>
      </trkpt>
      <trkpt lat="49.17714" lon="6.971">
        <ele>335</ele>
        <time>2011-05-08T06:36:50Z</time>
      </trkpt>
      <trkpt lat="49.17713" lon="6.97102">
        <ele>335</ele>
        <time>2011-05-08T06:36:51Z</time>
      </trkpt>
      <trkpt lat="49.17713" lon="6.97104">
        <ele>335</ele>
        <time>2011-05-08T06:36:52Z</time>
      </trkpt>
      <trkpt lat="49.17712" lon="6.97106">
        <ele>335</ele>
        <time>2011-05-08T06:36:53Z</time>
      </trkpt>
      <trkpt lat="49.17711" lon="6.97108">
        <ele>335</ele>
        <time>2011-05-08T06:36:55Z</time>
      </trkpt>
      <trkpt lat="49.1771" lon="6.97111">
        <ele>335</ele>
        <time>2011-05-08T06:36:57Z</time>
      </trkpt>
      <trkpt lat="49.17708" lon="6.97114">
        <ele>335</ele>
        <time>2011-05-08T06:36:59Z</time>
      </trkpt>
      <trkpt lat="49.17707" lon="6.97116">
        <ele>335</ele>
        <time>2011-05-08T06:37:00Z</time>
      </trkpt>
      <trkpt lat="49.17706" lon="6.97119">
        <ele>335</ele>
        <time>2011-05-08T06:37:02Z</time>
      </trkpt>
      <trkpt lat="49.17704" lon="6.97121">
        <ele>335</ele>
        <time>2011-05-08T06:37:04Z</time>
      </trkpt>
      <trkpt lat="49.17703" lon="6.97124">
        <ele>335</ele>
        <time>2011-05-08T06:37:07Z</time>
      </trkpt>
      <trkpt lat="49.17702" lon="6.97127">
        <ele>335</ele>
        <time>2011-05-08T06:37:08Z</time>
      </trkpt>
      <trkpt lat="49.177" lon="6.9713">
        <ele>335</ele>
        <time>2011-05-08T06:37:10Z</time>
      </trkpt>
      <trkpt lat="49.17699" lon="6.97132">
        <ele>335</ele>
        <time>2011-05-08T06:37:12Z</time>
      </trkpt>
      <trkpt lat="49.17698" lon="6.97134">
        <ele>335</ele>
        <time>2011-05-08T06:37:13Z</time>
      </trkpt>
      <trkpt lat="49.17697" lon="6.97137">
        <ele>335</ele>
        <time>2011-05-08T06:37:15Z</time>
      </trkpt>
      <trkpt lat="49.17696" lon="6.97139">
        <ele>335</ele>
        <time>2011-05-08T06:37:16Z</time>
      </trkpt>
      <trkpt lat="49.17696" lon="6.97141">
        <ele>335</ele>
        <time>2011-05-08T06:37:17Z</time>
      </trkpt>
      <trkpt lat="49.17695" lon="6.97143">
        <ele>335</ele>
        <time>2011-05-08T06:37:18Z</time>
      </trkpt>
      <trkpt lat="49.17695" lon="6.97145">
        <ele>335</ele>
        <time>2011-05-08T06:37:19Z</time>
      </trkpt>
      <trkpt lat="49.17694" lon="6.97146">
        <ele>335</ele>
        <time>2011-05-08T06:37:20Z</time>
      </trkpt>
      <trkpt lat="49.17694" lon="6.97148">
        <ele>335</ele>
        <time>2011-05-08T06:37:21Z</time>
      </trkpt>
      <trkpt lat="49.17693" lon="6.9715">
        <ele>335</ele>
        <time>2011-05-08T06:37:22Z</time>
      </trkpt>
      <trkpt lat="49.17692" lon="6.97153">
        <ele>335</ele>
        <time>2011-05-08T06:37:24Z</time>
      </trkpt>
      <trkpt lat="49.17691" lon="6.97155">
        <ele>335</ele>
        <time>2011-05-08T06:37:25Z</time>
      </trkpt>
      <trkpt lat="49.17691" lon="6.97157">
        <ele>335</ele>
        <time>2011-05-08T06:37:27Z</time>
      </trkpt>
      <trkpt lat="49.1769" lon="6.97159">
        <ele>335</ele>
        <time>2011-05-08T06:37:27Z</time>
      </trkpt>
      <trkpt lat="49.17689" lon="6.97162">
        <ele>335</ele>
        <time>2011-05-08T06:37:29Z</time>
      </trkpt>
      <trkpt lat="49.17688" lon="6.97163">
        <ele>335</ele>
        <time>2011-05-08T06:37:30Z</time>
      </trkpt>
      <trkpt lat="49.17687" lon="6.97165">
        <ele>335</ele>
        <time>2011-05-08T06:37:31Z</time>
      </trkpt>
      <trkpt lat="49.17686" lon="6.97167">
        <ele>335</ele>
        <time>2011-05-08T06:37:32Z</time>
      </trkpt>
      <trkpt lat="49.17686" lon="6.97169">
        <ele>335</ele>
        <time>2011-05-08T06:37:33Z</time>
      </trkpt>
      <trkpt lat="49.17685" lon="6.9717">
        <ele>335</ele>
        <time>2011-05-08T06:37:34Z</time>
      </trkpt>
      <trkpt lat="49.17685" lon="6.97172">
        <ele>335</ele>
        <time>2011-05-08T06:37:35Z</time>
      </trkpt>
      <trkpt lat="49.17684" lon="6.97174">
        <ele>335</ele>
        <time>2011-05-08T06:37:36Z</time>
      </trkpt>
      <trkpt lat="49.17683" lon="6.97176">
        <ele>335</ele>
        <time>2011-05-08T06:37:37Z</time>
      </trkpt>
      <trkpt lat="49.17682" lon="6.97179">
        <ele>336</ele>
        <time>2011-05-08T06:37:39Z</time>
      </trkpt>
      <trkpt lat="49.17681" lon="6.9718">
        <ele>336</ele>
        <time>2011-05-08T06:37:40Z</time>
      </trkpt>
      <trkpt lat="49.1768" lon="6.97182">
        <ele>336</ele>
        <time>2011-05-08T06:37:41Z</time>
      </trkpt>
      <trkpt lat="49.1768" lon="6.97184">
        <ele>336</ele>
        <time>2011-05-08T06:37:42Z</time>
      </trkpt>
      <trkpt lat="49.17679" lon="6.97186">
        <ele>336</ele>
        <time>2011-05-08T06:37:43Z</time>
      </trkpt>
      <trkpt lat="49.17679" lon="6.97188">
        <ele>336</ele>
        <time>2011-05-08T06:37:44Z</time>
      </trkpt>
      <trkpt lat="49.17678" lon="6.97189">
        <ele>336</ele>
        <time>2011-05-08T06:37:45Z</time>
      </trkpt>
      <trkpt lat="49.17677" lon="6.97192">
        <ele>336</ele>
        <time>2011-05-08T06:37:47Z</time>
      </trkpt>
      <trkpt lat="49.17677" lon="6.97194">
        <ele>336</ele>
        <time>2011-05-08T06:37:48Z</time>
      </trkpt>
      <trkpt lat="49.17676" lon="6.97196">
        <ele>336</ele>
        <time>2011-05-08T06:37:49Z</time>
      </trkpt>
      <trkpt lat="49.17675" lon="6.97198">
        <ele>336</ele>
        <time>2011-05-08T06:37:50Z</time>
      </trkpt>
      <trkpt lat="49.17674" lon="6.97199">
        <ele>336</ele>
        <time>2011-05-08T06:37:51Z</time>
      </trkpt>
      <trkpt lat="49.17674" lon="6.97201">
        <ele>336</ele>
        <time>2011-05-08T06:37:52Z</time>
      </trkpt>
      <trkpt lat="49.17673" lon="6.97203">
        <ele>336</ele>
        <time>2011-05-08T06:37:53Z</time>
      </trkpt>
      <trkpt lat="49.17673" lon="6.97205">
        <ele>336</ele>
        <time>2011-05-08T06:37:54Z</time>
      </trkpt>
      <trkpt lat="49.17671" lon="6.97208">
        <ele>337</ele>
        <time>2011-05-08T06:37:56Z</time>
      </trkpt>
      <trkpt lat="49.17671" lon="6.9721">
        <ele>337</ele>
        <time>2011-05-08T06:37:57Z</time>
      </trkpt>
      <trkpt lat="49.1767" lon="6.97212">
        <ele>337</ele>
        <time>2011-05-08T06:37:58Z</time>
      </trkpt>
      <trkpt lat="49.1767" lon="6.97214">
        <ele>337</ele>
        <time>2011-05-08T06:37:59Z</time>
      </trkpt>
      <trkpt lat="49.17669" lon="6.97216">
        <ele>337</ele>
        <time>2011-05-08T06:38:00Z</time>
      </trkpt>
      <trkpt lat="49.17668" lon="6.97219">
        <ele>337</ele>
        <time>2011-05-08T06:38:02Z</time>
      </trkpt>
      <trkpt lat="49.17667" lon="6.97221">
        <ele>337</ele>
        <time>2011-05-08T06:38:03Z</time>
      </trkpt>
      <trkpt lat="49.17666" lon="6.97223">
        <ele>337</ele>
        <time>2011-05-08T06:38:05Z</time>
      </trkpt>
      <trkpt lat="49.17665" lon="6.97225">
        <ele>337</ele>
        <time>2011-05-08T06:38:06Z</time>
      </trkpt>
      <trkpt lat="49.17664" lon="6.97227">
        <ele>337</ele>
        <time>2011-05-08T06:38:07Z</time>
      </trkpt>
      <trkpt lat="49.17663" lon="6.97229">
        <ele>337</ele>
        <time>2011-05-08T06:38:08Z</time>
      </trkpt>
      <trkpt lat="49.17662" lon="6.97232">
        <ele>337</ele>
        <time>2011-05-08T06:38:10Z</time>
      </trkpt>
      <trkpt lat="49.17661" lon="6.97234">
        <ele>337</ele>
        <time>2011-05-08T06:38:12Z</time>
      </trkpt>
      <trkpt lat="49.17661" lon="6.97236">
        <ele>337</ele>
        <time>2011-05-08T06:38:13Z</time>
      </trkpt>
      <trkpt lat="49.1766" lon="6.97238">
        <ele>337</ele>
        <time>2011-05-08T06:38:14Z</time>
      </trkpt>
      <trkpt lat="49.17659" lon="6.9724">
        <ele>337</ele>
        <time>2011-05-08T06:38:15Z</time>
      </trkpt>
      <trkpt lat="49.17659" lon="6.97242">
        <ele>337</ele>
        <time>2011-05-08T06:38:16Z</time>
      </trkpt>
      <trkpt lat="49.17658" lon="6.97243">
        <ele>337</ele>
        <time>2011-05-08T06:38:17Z</time>
      </trkpt>
      <trkpt lat="49.17657" lon="6.97245">
        <ele>337</ele>
        <time>2011-05-08T06:38:18Z</time>
      </trkpt>
      <trkpt lat="49.17656" lon="6.97247">
        <ele>337</ele>
        <time>2011-05-08T06:38:19Z</time>
      </trkpt>
      <trkpt lat="49.17656" lon="6.97248">
        <ele>337</ele>
        <time>2011-05-08T06:38:20Z</time>
      </trkpt>
      <trkpt lat="49.17655" lon="6.9725">
        <ele>337</ele>
        <time>2011-05-08T06:38:21Z</time>
      </trkpt>
      <trkpt lat="49.17653" lon="6.97253">
        <ele>337</ele>
        <time>2011-05-08T06:38:23Z</time>
      </trkpt>
      <trkpt lat="49.17653" lon="6.97255">
        <ele>337</ele>
        <time>2011-05-08T06:38:24Z</time>
      </trkpt>
      <trkpt lat="49.17652" lon="6.97257">
        <ele>337</ele>
        <time>2011-05-08T06:38:25Z</time>
      </trkpt>
      <trkpt lat="49.17651" lon="6.97259">
        <ele>337</ele>
        <time>2011-05-08T06:38:26Z</time>
      </trkpt>
      <trkpt lat="49.17651" lon="6.9726">
        <ele>338</ele>
        <time>2011-05-08T06:38:27Z</time>
      </trkpt>
      <trkpt lat="49.1765" lon="6.97263">
        <ele>338</ele>
        <time>2011-05-08T06:38:30Z</time>
      </trkpt>
      <trkpt lat="49.17649" lon="6.97265">
        <ele>338</ele>
        <time>2011-05-08T06:38:30Z</time>
      </trkpt>
      <trkpt lat="49.17648" lon="6.97267">
        <ele>338</ele>
        <time>2011-05-08T06:38:31Z</time>
      </trkpt>
      <trkpt lat="49.17648" lon="6.97269">
        <ele>338</ele>
        <time>2011-05-08T06:38:32Z</time>
      </trkpt>
      <trkpt lat="49.17647" lon="6.9727">
        <ele>338</ele>
        <time>2011-05-08T06:38:33Z</time>
      </trkpt>
      <trkpt lat="49.17646" lon="6.97272">
        <ele>338</ele>
        <time>2011-05-08T06:38:34Z</time>
      </trkpt>
      <trkpt lat="49.17646" lon="6.97274">
        <ele>338</ele>
        <time>2011-05-08T06:38:35Z</time>
      </trkpt>
      <trkpt lat="49.17645" lon="6.97276">
        <ele>338</ele>
        <time>2011-05-08T06:38:36Z</time>
      </trkpt>
      <trkpt lat="49.17644" lon="6.97279">
        <ele>338</ele>
        <time>2011-05-08T06:38:38Z</time>
      </trkpt>
      <trkpt lat="49.17643" lon="6.97281">
        <ele>338</ele>
        <time>2011-05-08T06:38:39Z</time>
      </trkpt>
      <trkpt lat="49.17643" lon="6.97282">
        <ele>338</ele>
        <time>2011-05-08T06:38:40Z</time>
      </trkpt>
      <trkpt lat="49.17642" lon="6.97284">
        <ele>338</ele>
        <time>2011-05-08T06:38:41Z</time>
      </trkpt>
      <trkpt lat="49.17641" lon="6.97286">
        <ele>338</ele>
        <time>2011-05-08T06:38:42Z</time>
      </trkpt>
      <trkpt lat="49.1764" lon="6.97288">
        <ele>338</ele>
        <time>2011-05-08T06:38:43Z</time>
      </trkpt>
      <trkpt lat="49.1764" lon="6.97289">
        <ele>338</ele>
        <time>2011-05-08T06:38:44Z</time>
      </trkpt>
      <trkpt lat="49.17638" lon="6.97292">
        <ele>338</ele>
        <time>2011-05-08T06:38:46Z</time>
      </trkpt>
      <trkpt lat="49.17637" lon="6.97295">
        <ele>338</ele>
        <time>2011-05-08T06:38:48Z</time>
      </trkpt>
      <trkpt lat="49.17636" lon="6.97298">
        <ele>338</ele>
        <time>2011-05-08T06:38:50Z</time>
      </trkpt>
      <trkpt lat="49.17635" lon="6.973">
        <ele>338</ele>
        <time>2011-05-08T06:38:51Z</time>
      </trkpt>
      <trkpt lat="49.17634" lon="6.97303">
        <ele>338</ele>
        <time>2011-05-08T06:38:53Z</time>
      </trkpt>
      <trkpt lat="49.17632" lon="6.97306">
        <ele>338</ele>
        <time>2011-05-08T06:38:55Z</time>
      </trkpt>
      <trkpt lat="49.17632" lon="6.97308">
        <ele>338</ele>
        <time>2011-05-08T06:38:56Z</time>
      </trkpt>
      <trkpt lat="49.17631" lon="6.97309">
        <ele>338</ele>
        <time>2011-05-08T06:38:57Z</time>
      </trkpt>
      <trkpt lat="49.1763" lon="6.97311">
        <ele>338</ele>
        <time>2011-05-08T06:38:58Z</time>
      </trkpt>
      <trkpt lat="49.17629" lon="6.97313">
        <ele>338</ele>
        <time>2011-05-08T06:38:59Z</time>
      </trkpt>
      <trkpt lat="49.17627" lon="6.97316">
        <ele>338</ele>
        <time>2011-05-08T06:39:01Z</time>
      </trkpt>
      <trkpt lat="49.17626" lon="6.97319">
        <ele>338</ele>
        <time>2011-05-08T06:39:03Z</time>
      </trkpt>
      <trkpt lat="49.17625" lon="6.97322">
        <ele>338</ele>
        <time>2011-05-08T06:39:05Z</time>
      </trkpt>
      <trkpt lat="49.17623" lon="6.97325">
        <ele>338</ele>
        <time>2011-05-08T06:39:07Z</time>
      </trkpt>
      <trkpt lat="49.17621" lon="6.97328">
        <ele>338</ele>
        <time>2011-05-08T06:39:09Z</time>
      </trkpt>
      <trkpt lat="49.1762" lon="6.9733">
        <ele>338</ele>
        <time>2011-05-08T06:39:10Z</time>
      </trkpt>
      <trkpt lat="49.17619" lon="6.97333">
        <ele>338</ele>
        <time>2011-05-08T06:39:12Z</time>
      </trkpt>
      <trkpt lat="49.17617" lon="6.97336">
        <ele>338</ele>
        <time>2011-05-08T06:39:14Z</time>
      </trkpt>
      <trkpt lat="49.17617" lon="6.97337">
        <ele>338</ele>
        <time>2011-05-08T06:39:15Z</time>
      </trkpt>
      <trkpt lat="49.17616" lon="6.97339">
        <ele>338</ele>
        <time>2011-05-08T06:39:16Z</time>
      </trkpt>
      <trkpt lat="49.17615" lon="6.97341">
        <ele>338</ele>
        <time>2011-05-08T06:39:17Z</time>
      </trkpt>
      <trkpt lat="49.17614" lon="6.97342">
        <ele>338</ele>
        <time>2011-05-08T06:39:18Z</time>
      </trkpt>
      <trkpt lat="49.17613" lon="6.97344">
        <ele>338</ele>
        <time>2011-05-08T06:39:19Z</time>
      </trkpt>
      <trkpt lat="49.17612" lon="6.97346">
        <ele>338</ele>
        <time>2011-05-08T06:39:20Z</time>
      </trkpt>
      <trkpt lat="49.17611" lon="6.97348">
        <ele>338</ele>
        <time>2011-05-08T06:39:22Z</time>
      </trkpt>
      <trkpt lat="49.17609" lon="6.97352">
        <ele>338</ele>
        <time>2011-05-08T06:39:24Z</time>
      </trkpt>
      <trkpt lat="49.17608" lon="6.97353">
        <ele>338</ele>
        <time>2011-05-08T06:39:25Z</time>
      </trkpt>
      <trkpt lat="49.17607" lon="6.97355">
        <ele>338</ele>
        <time>2011-05-08T06:39:26Z</time>
      </trkpt>
      <trkpt lat="49.17606" lon="6.97358">
        <ele>338</ele>
        <time>2011-05-08T06:39:28Z</time>
      </trkpt>
      <trkpt lat="49.17605" lon="6.9736">
        <ele>338</ele>
        <time>2011-05-08T06:39:29Z</time>
      </trkpt>
      <trkpt lat="49.17604" lon="6.97363">
        <ele>338</ele>
        <time>2011-05-08T06:39:31Z</time>
      </trkpt>
      <trkpt lat="49.17602" lon="6.97366">
        <ele>338</ele>
        <time>2011-05-08T06:39:33Z</time>
      </trkpt>
      <trkpt lat="49.17601" lon="6.97368">
        <ele>338</ele>
        <time>2011-05-08T06:39:35Z</time>
      </trkpt>
      <trkpt lat="49.17599" lon="6.97371">
        <ele>338</ele>
        <time>2011-05-08T06:39:37Z</time>
      </trkpt>
      <trkpt lat="49.17598" lon="6.97373">
        <ele>338</ele>
        <time>2011-05-08T06:39:38Z</time>
      </trkpt>
      <trkpt lat="49.17597" lon="6.97375">
        <ele>338</ele>
        <time>2011-05-08T06:39:40Z</time>
      </trkpt>
      <trkpt lat="49.17596" lon="6.97377">
        <ele>338</ele>
        <time>2011-05-08T06:39:41Z</time>
      </trkpt>
      <trkpt lat="49.17594" lon="6.9738">
        <ele>338</ele>
        <time>2011-05-08T06:39:43Z</time>
      </trkpt>
      <trkpt lat="49.17593" lon="6.97382">
        <ele>338</ele>
        <time>2011-05-08T06:39:44Z</time>
      </trkpt>
      <trkpt lat="49.17593" lon="6.97384">
        <ele>338</ele>
        <time>2011-05-08T06:39:45Z</time>
      </trkpt>
      <trkpt lat="49.17592" lon="6.97385">
        <ele>338</ele>
        <time>2011-05-08T06:39:46Z</time>
      </trkpt>
      <trkpt lat="49.17591" lon="6.97387">
        <ele>338</ele>
        <time>2011-05-08T06:39:47Z</time>
      </trkpt>
      <trkpt lat="49.1759" lon="6.9739">
        <ele>338</ele>
        <time>2011-05-08T06:39:49Z</time>
      </trkpt>
      <trkpt lat="49.17588" lon="6.97393">
        <ele>338</ele>
        <time>2011-05-08T06:39:51Z</time>
      </trkpt>
      <trkpt lat="49.17586" lon="6.97396">
        <ele>338</ele>
        <time>2011-05-08T06:39:53Z</time>
      </trkpt>
      <trkpt lat="49.17585" lon="6.97398">
        <ele>338</ele>
        <time>2011-05-08T06:39:54Z</time>
      </trkpt>
      <trkpt lat="49.17585" lon="6.974">
        <ele>338</ele>
        <time>2011-05-08T06:39:55Z</time>
      </trkpt>
      <trkpt lat="49.17583" lon="6.97403">
        <ele>338</ele>
        <time>2011-05-08T06:39:57Z</time>
      </trkpt>
      <trkpt lat="49.17582" lon="6.97404">
        <ele>338</ele>
        <time>2011-05-08T06:39:58Z</time>
      </trkpt>
      <trkpt lat="49.17581" lon="6.97406">
        <ele>338</ele>
        <time>2011-05-08T06:39:59Z</time>
      </trkpt>
      <trkpt lat="49.1758" lon="6.97409">
        <ele>338</ele>
        <time>2011-05-08T06:40:01Z</time>
      </trkpt>
      <trkpt lat="49.17579" lon="6.97411">
        <ele>338</ele>
        <time>2011-05-08T06:40:02Z</time>
      </trkpt>
      <trkpt lat="49.17578" lon="6.97412">
        <ele>338</ele>
        <time>2011-05-08T06:40:03Z</time>
      </trkpt>
      <trkpt lat="49.17576" lon="6.97416">
        <ele>338</ele>
        <time>2011-05-08T06:40:05Z</time>
      </trkpt>
      <trkpt lat="49.17575" lon="6.97418">
        <ele>338</ele>
        <time>2011-05-08T06:40:07Z</time>
      </trkpt>
      <trkpt lat="49.17574" lon="6.9742">
        <ele>338</ele>
        <time>2011-05-08T06:40:08Z</time>
      </trkpt>
      <trkpt lat="49.17572" lon="6.97423">
        <ele>338</ele>
        <time>2011-05-08T06:40:10Z</time>
      </trkpt>
      <trkpt lat="49.17571" lon="6.97426">
        <ele>338</ele>
        <time>2011-05-08T06:40:12Z</time>
      </trkpt>
      <trkpt lat="49.1757" lon="6.97428">
        <ele>338</ele>
        <time>2011-05-08T06:40:13Z</time>
      </trkpt>
      <trkpt lat="49.17569" lon="6.97431">
        <ele>338</ele>
        <time>2011-05-08T06:40:15Z</time>
      </trkpt>
      <trkpt lat="49.17568" lon="6.97434">
        <ele>338</ele>
        <time>2011-05-08T06:40:17Z</time>
      </trkpt>
      <trkpt lat="49.17566" lon="6.97437">
        <ele>338</ele>
        <time>2011-05-08T06:40:19Z</time>
      </trkpt>
      <trkpt lat="49.17565" lon="6.97438">
        <ele>338</ele>
        <time>2011-05-08T06:40:20Z</time>
      </trkpt>
      <trkpt lat="49.17564" lon="6.97441">
        <ele>338</ele>
        <time>2011-05-08T06:40:22Z</time>
      </trkpt>
      <trkpt lat="49.17563" lon="6.97443">
        <ele>338</ele>
        <time>2011-05-08T06:40:23Z</time>
      </trkpt>
      <trkpt lat="49.17562" lon="6.97446">
        <ele>338</ele>
        <time>2011-05-08T06:40:25Z</time>
      </trkpt>
      <trkpt lat="49.1756" lon="6.97449">
        <ele>338</ele>
        <time>2011-05-08T06:40:27Z</time>
      </trkpt>
      <trkpt lat="49.17559" lon="6.9745">
        <ele>338</ele>
        <time>2011-05-08T06:40:28Z</time>
      </trkpt>
      <trkpt lat="49.17559" lon="6.97452">
        <ele>338</ele>
        <time>2011-05-08T06:40:29Z</time>
      </trkpt>
      <trkpt lat="49.17558" lon="6.97454">
        <ele>337</ele>
        <time>2011-05-08T06:40:30Z</time>
      </trkpt>
      <trkpt lat="49.17557" lon="6.97457">
        <ele>337</ele>
        <time>2011-05-08T06:40:32Z</time>
      </trkpt>
      <trkpt lat="49.17556" lon="6.9746">
        <ele>337</ele>
        <time>2011-05-08T06:40:34Z</time>
      </trkpt>
      <trkpt lat="49.17554" lon="6.97463">
        <ele>336</ele>
        <time>2011-05-08T06:40:36Z</time>
      </trkpt>
      <trkpt lat="49.17553" lon="6.97464">
        <ele>336</ele>
        <time>2011-05-08T06:40:37Z</time>
      </trkpt>
      <trkpt lat="49.17553" lon="6.97466">
        <ele>336</ele>
        <time>2011-05-08T06:40:38Z</time>
      </trkpt>
      <trkpt lat="49.17552" lon="6.97468">
        <ele>336</ele>
        <time>2011-05-08T06:40:39Z</time>
      </trkpt>
      <trkpt lat="49.17551" lon="6.97471">
        <ele>336</ele>
        <time>2011-05-08T06:40:41Z</time>
      </trkpt>
      <trkpt lat="49.17549" lon="6.97473">
        <ele>335</ele>
        <time>2011-05-08T06:40:43Z</time>
      </trkpt>
      <trkpt lat="49.17548" lon="6.97477">
        <ele>335</ele>
        <time>2011-05-08T06:40:45Z</time>
      </trkpt>
      <trkpt lat="49.17547" lon="6.97478">
        <ele>335</ele>
        <time>2011-05-08T06:40:46Z</time>
      </trkpt>
      <trkpt lat="49.17546" lon="6.9748">
        <ele>335</ele>
        <time>2011-05-08T06:40:47Z</time>
      </trkpt>
      <trkpt lat="49.17545" lon="6.97483">
        <ele>335</ele>
        <time>2011-05-08T06:40:49Z</time>
      </trkpt>
      <trkpt lat="49.17544" lon="6.97486">
        <ele>335</ele>
        <time>2011-05-08T06:40:51Z</time>
      </trkpt>
      <trkpt lat="49.17543" lon="6.97487">
        <ele>334</ele>
        <time>2011-05-08T06:40:52Z</time>
      </trkpt>
      <trkpt lat="49.17542" lon="6.9749">
        <ele>334</ele>
        <time>2011-05-08T06:40:54Z</time>
      </trkpt>
      <trkpt lat="49.17541" lon="6.97492">
        <ele>334</ele>
        <time>2011-05-08T06:40:56Z</time>
      </trkpt>
      <trkpt lat="49.1754" lon="6.97494">
        <ele>334</ele>
        <time>2011-05-08T06:40:59Z</time>
      </trkpt>
      <trkpt lat="49.17539" lon="6.97498">
        <ele>334</ele>
        <time>2011-05-08T06:41:01Z</time>
      </trkpt>
      <trkpt lat="49.17538" lon="6.97499">
        <ele>334</ele>
        <time>2011-05-08T06:41:02Z</time>
      </trkpt>
      <trkpt lat="49.17537" lon="6.97502">
        <ele>334</ele>
        <time>2011-05-08T06:41:04Z</time>
      </trkpt>
      <trkpt lat="49.17535" lon="6.97505">
        <ele>334</ele>
        <time>2011-05-08T06:41:06Z</time>
      </trkpt>
      <trkpt lat="49.17534" lon="6.97507">
        <ele>334</ele>
        <time>2011-05-08T06:41:08Z</time>
      </trkpt>
      <trkpt lat="49.17533" lon="6.9751">
        <ele>333</ele>
        <time>2011-05-08T06:41:10Z</time>
      </trkpt>
      <trkpt lat="49.17531" lon="6.97512">
        <ele>333</ele>
        <time>2011-05-08T06:41:12Z</time>
      </trkpt>
      <trkpt lat="49.17531" lon="6.97514">
        <ele>332</ele>
        <time>2011-05-08T06:41:14Z</time>
      </trkpt>
      <trkpt lat="49.1753" lon="6.97516">
        <ele>332</ele>
        <time>2011-05-08T06:41:16Z</time>
      </trkpt>
      <trkpt lat="49.17529" lon="6.97519">
        <ele>332</ele>
        <time>2011-05-08T06:41:18Z</time>
      </trkpt>
      <trkpt lat="49.17528" lon="6.97521">
        <ele>332</ele>
        <time>2011-05-08T06:41:19Z</time>
      </trkpt>
      <trkpt lat="49.17528" lon="6.97523">
        <ele>332</ele>
        <time>2011-05-08T06:41:20Z</time>
      </trkpt>
      <trkpt lat="49.17527" lon="6.97524">
        <ele>332</ele>
        <time>2011-05-08T06:41:21Z</time>
      </trkpt>
      <trkpt lat="49.17526" lon="6.97528">
        <ele>332</ele>
        <time>2011-05-08T06:41:23Z</time>
      </trkpt>
      <trkpt lat="49.17525" lon="6.97529">
        <ele>332</ele>
        <time>2011-05-08T06:41:24Z</time>
      </trkpt>
      <trkpt lat="49.17524" lon="6.97531">
        <ele>332</ele>
        <time>2011-05-08T06:41:25Z</time>
      </trkpt>
      <trkpt lat="49.17523" lon="6.97533">
        <ele>332</ele>
        <time>2011-05-08T06:41:26Z</time>
      </trkpt>
      <trkpt lat="49.17522" lon="6.97535">
        <ele>332</ele>
        <time>2011-05-08T06:41:27Z</time>
      </trkpt>
      <trkpt lat="49.17521" lon="6.97537">
        <ele>332</ele>
        <time>2011-05-08T06:41:28Z</time>
      </trkpt>
      <trkpt lat="49.17521" lon="6.97539">
        <ele>332</ele>
        <time>2011-05-08T06:41:29Z</time>
      </trkpt>
      <trkpt lat="49.1752" lon="6.97541">
        <ele>332</ele>
        <time>2011-05-08T06:41:30Z</time>
      </trkpt>
      <trkpt lat="49.17519" lon="6.97542">
        <ele>332</ele>
        <time>2011-05-08T06:41:31Z</time>
      </trkpt>
      <trkpt lat="49.17518" lon="6.97544">
        <ele>332</ele>
        <time>2011-05-08T06:41:32Z</time>
      </trkpt>
      <trkpt lat="49.17517" lon="6.97546">
        <ele>332</ele>
        <time>2011-05-08T06:41:33Z</time>
      </trkpt>
      <trkpt lat="49.17517" lon="6.97547">
        <ele>332</ele>
        <time>2011-05-08T06:41:34Z</time>
      </trkpt>
      <trkpt lat="49.17516" lon="6.97549">
        <ele>332</ele>
        <time>2011-05-08T06:41:35Z</time>
      </trkpt>
      <trkpt lat="49.17515" lon="6.97551">
        <ele>332</ele>
        <time>2011-05-08T06:41:36Z</time>
      </trkpt>
      <trkpt lat="49.17514" lon="6.97552">
        <ele>332</ele>
        <time>2011-05-08T06:41:37Z</time>
      </trkpt>
      <trkpt lat="49.17514" lon="6.97554">
        <ele>331</ele>
        <time>2011-05-08T06:41:38Z</time>
      </trkpt>
      <trkpt lat="49.17513" lon="6.97556">
        <ele>331</ele>
        <time>2011-05-08T06:41:39Z</time>
      </trkpt>
      <trkpt lat="49.17512" lon="6.97558">
        <ele>331</ele>
        <time>2011-05-08T06:41:40Z</time>
      </trkpt>
      <trkpt lat="49.17511" lon="6.97559">
        <ele>331</ele>
        <time>2011-05-08T06:41:41Z</time>
      </trkpt>
      <trkpt lat="49.17511" lon="6.97561">
        <ele>331</ele>
        <time>2011-05-08T06:41:42Z</time>
      </trkpt>
      <trkpt lat="49.1751" lon="6.97563">
        <ele>331</ele>
        <time>2011-05-08T06:41:43Z</time>
      </trkpt>
      <trkpt lat="49.17509" lon="6.97565">
        <ele>331</ele>
        <time>2011-05-08T06:41:44Z</time>
      </trkpt>
      <trkpt lat="49.17508" lon="6.97567">
        <ele>331</ele>
        <time>2011-05-08T06:41:45Z</time>
      </trkpt>
      <trkpt lat="49.17508" lon="6.97568">
        <ele>331</ele>
        <time>2011-05-08T06:41:46Z</time>
      </trkpt>
      <trkpt lat="49.17507" lon="6.9757">
        <ele>331</ele>
        <time>2011-05-08T06:41:47Z</time>
      </trkpt>
      <trkpt lat="49.17506" lon="6.97572">
        <ele>331</ele>
        <time>2011-05-08T06:41:48Z</time>
      </trkpt>
      <trkpt lat="49.17506" lon="6.97573">
        <ele>331</ele>
        <time>2011-05-08T06:41:49Z</time>
      </trkpt>
      <trkpt lat="49.17505" lon="6.97575">
        <ele>331</ele>
        <time>2011-05-08T06:41:50Z</time>
      </trkpt>
      <trkpt lat="49.17503" lon="6.97578">
        <ele>331</ele>
        <time>2011-05-08T06:41:52Z</time>
      </trkpt>
      <trkpt lat="49.17502" lon="6.9758">
        <ele>331</ele>
        <time>2011-05-08T06:41:53Z</time>
      </trkpt>
      <trkpt lat="49.17501" lon="6.97582">
        <ele>331</ele>
        <time>2011-05-08T06:41:54Z</time>
      </trkpt>
      <trkpt lat="49.17501" lon="6.97584">
        <ele>331</ele>
        <time>2011-05-08T06:41:55Z</time>
      </trkpt>
      <trkpt lat="49.175" lon="6.97586">
        <ele>331</ele>
        <time>2011-05-08T06:41:56Z</time>
      </trkpt>
      <trkpt lat="49.175" lon="6.97587">
        <ele>331</ele>
        <time>2011-05-08T06:41:57Z</time>
      </trkpt>
      <trkpt lat="49.17499" lon="6.97589">
        <ele>331</ele>
        <time>2011-05-08T06:41:58Z</time>
      </trkpt>
      <trkpt lat="49.17498" lon="6.97591">
        <ele>331</ele>
        <time>2011-05-08T06:41:59Z</time>
      </trkpt>
      <trkpt lat="49.17497" lon="6.97592">
        <ele>331</ele>
        <time>2011-05-08T06:42:00Z</time>
      </trkpt>
      <trkpt lat="49.17497" lon="6.97594">
        <ele>331</ele>
        <time>2011-05-08T06:42:01Z</time>
      </trkpt>
      <trkpt lat="49.17496" lon="6.97596">
        <ele>330</ele>
        <time>2011-05-08T06:42:02Z</time>
      </trkpt>
      <trkpt lat="49.17496" lon="6.97598">
        <ele>330</ele>
        <time>2011-05-08T06:42:03Z</time>
      </trkpt>
      <trkpt lat="49.17494" lon="6.97601">
        <ele>330</ele>
        <time>2011-05-08T06:42:05Z</time>
      </trkpt>
      <trkpt lat="49.17493" lon="6.97602">
        <ele>330</ele>
        <time>2011-05-08T06:42:06Z</time>
      </trkpt>
      <trkpt lat="49.17493" lon="6.97604">
        <ele>330</ele>
        <time>2011-05-08T06:42:07Z</time>
      </trkpt>
      <trkpt lat="49.17492" lon="6.97606">
        <ele>330</ele>
        <time>2011-05-08T06:42:08Z</time>
      </trkpt>
      <trkpt lat="49.17491" lon="6.97608">
        <ele>330</ele>
        <time>2011-05-08T06:42:09Z</time>
      </trkpt>
      <trkpt lat="49.1749" lon="6.9761">
        <ele>330</ele>
        <time>2011-05-08T06:42:10Z</time>
      </trkpt>
      <trkpt lat="49.17489" lon="6.97612">
        <ele>330</ele>
        <time>2011-05-08T06:42:11Z</time>
      </trkpt>
      <trkpt lat="49.17489" lon="6.97613">
        <ele>330</ele>
        <time>2011-05-08T06:42:12Z</time>
      </trkpt>
      <trkpt lat="49.17488" lon="6.97615">
        <ele>330</ele>
        <time>2011-05-08T06:42:13Z</time>
      </trkpt>
      <trkpt lat="49.17487" lon="6.97617">
        <ele>330</ele>
        <time>2011-05-08T06:42:14Z</time>
      </trkpt>
      <trkpt lat="49.17486" lon="6.97618">
        <ele>330</ele>
        <time>2011-05-08T06:42:15Z</time>
      </trkpt>
      <trkpt lat="49.17485" lon="6.9762">
        <ele>330</ele>
        <time>2011-05-08T06:42:16Z</time>
      </trkpt>
      <trkpt lat="49.17484" lon="6.97622">
        <ele>330</ele>
        <time>2011-05-08T06:42:17Z</time>
      </trkpt>
      <trkpt lat="49.17484" lon="6.97623">
        <ele>330</ele>
        <time>2011-05-08T06:42:18Z</time>
      </trkpt>
      <trkpt lat="49.17482" lon="6.97626">
        <ele>330</ele>
        <time>2011-05-08T06:42:20Z</time>
      </trkpt>
      <trkpt lat="49.1748" lon="6.97629">
        <ele>330</ele>
        <time>2011-05-08T06:42:22Z</time>
      </trkpt>
      <trkpt lat="49.17479" lon="6.97631">
        <ele>330</ele>
        <time>2011-05-08T06:42:23Z</time>
      </trkpt>
      <trkpt lat="49.17478" lon="6.97633">
        <ele>330</ele>
        <time>2011-05-08T06:42:24Z</time>
      </trkpt>
      <trkpt lat="49.17477" lon="6.97635">
        <ele>330</ele>
        <time>2011-05-08T06:42:25Z</time>
      </trkpt>
      <trkpt lat="49.17476" lon="6.97636">
        <ele>330</ele>
        <time>2011-05-08T06:42:26Z</time>
      </trkpt>
      <trkpt lat="49.17475" lon="6.97638">
        <ele>330</ele>
        <time>2011-05-08T06:42:27Z</time>
      </trkpt>
      <trkpt lat="49.17473" lon="6.97641">
        <ele>330</ele>
        <time>2011-05-08T06:42:29Z</time>
      </trkpt>
      <trkpt lat="49.17471" lon="6.97644">
        <ele>330</ele>
        <time>2011-05-08T06:42:31Z</time>
      </trkpt>
      <trkpt lat="49.1747" lon="6.97645">
        <ele>330</ele>
        <time>2011-05-08T06:42:32Z</time>
      </trkpt>
      <trkpt lat="49.17469" lon="6.97647">
        <ele>330</ele>
        <time>2011-05-08T06:42:33Z</time>
      </trkpt>
      <trkpt lat="49.17468" lon="6.97649">
        <ele>330</ele>
        <time>2011-05-08T06:42:34Z</time>
      </trkpt>
      <trkpt lat="49.17466" lon="6.97651">
        <ele>330</ele>
        <time>2011-05-08T06:42:36Z</time>
      </trkpt>
      <trkpt lat="49.17465" lon="6.97654">
        <ele>330</ele>
        <time>2011-05-08T06:42:38Z</time>
      </trkpt>
      <trkpt lat="49.17464" lon="6.97656">
        <ele>330</ele>
        <time>2011-05-08T06:42:39Z</time>
      </trkpt>
      <trkpt lat="49.17462" lon="6.97657">
        <ele>330</ele>
        <time>2011-05-08T06:42:40Z</time>
      </trkpt>
      <trkpt lat="49.17461" lon="6.97658">
        <ele>330</ele>
        <time>2011-05-08T06:42:41Z</time>
      </trkpt>
      <trkpt lat="49.17459" lon="6.97661">
        <ele>330</ele>
        <time>2011-05-08T06:42:43Z</time>
      </trkpt>
      <trkpt lat="49.17458" lon="6.97663">
        <ele>330</ele>
        <time>2011-05-08T06:42:44Z</time>
      </trkpt>
      <trkpt lat="49.17457" lon="6.97666">
        <ele>330</ele>
        <time>2011-05-08T06:42:46Z</time>
      </trkpt>
      <trkpt lat="49.17455" lon="6.97669">
        <ele>330</ele>
        <time>2011-05-08T06:42:48Z</time>
      </trkpt>
      <trkpt lat="49.17455" lon="6.9767">
        <ele>330</ele>
        <time>2011-05-08T06:42:49Z</time>
      </trkpt>
      <trkpt lat="49.17453" lon="6.97672">
        <ele>330</ele>
        <time>2011-05-08T06:42:50Z</time>
      </trkpt>
      <trkpt lat="49.17452" lon="6.97675">
        <ele>330</ele>
        <time>2011-05-08T06:42:52Z</time>
      </trkpt>
      <trkpt lat="49.17451" lon="6.97677">
        <ele>330</ele>
        <time>2011-05-08T06:42:53Z</time>
      </trkpt>
      <trkpt lat="49.17449" lon="6.9768">
        <ele>330</ele>
        <time>2011-05-08T06:42:55Z</time>
      </trkpt>
      <trkpt lat="49.17448" lon="6.97683">
        <ele>330</ele>
        <time>2011-05-08T06:42:57Z</time>
      </trkpt>
      <trkpt lat="49.17447" lon="6.97685">
        <ele>330</ele>
        <time>2011-05-08T06:42:58Z</time>
      </trkpt>
      <trkpt lat="49.17445" lon="6.97687">
        <ele>330</ele>
        <time>2011-05-08T06:43:00Z</time>
      </trkpt>
      <trkpt lat="49.17443" lon="6.9769">
        <ele>330</ele>
        <time>2011-05-08T06:43:02Z</time>
      </trkpt>
      <trkpt lat="49.17442" lon="6.97693">
        <ele>330</ele>
        <time>2011-05-08T06:43:04Z</time>
      </trkpt>
      <trkpt lat="49.1744" lon="6.97696">
        <ele>330</ele>
        <time>2011-05-08T06:43:06Z</time>
      </trkpt>
      <trkpt lat="49.17439" lon="6.97699">
        <ele>330</ele>
        <time>2011-05-08T06:43:08Z</time>
      </trkpt>
      <trkpt lat="49.17437" lon="6.97702">
        <ele>330</ele>
        <time>2011-05-08T06:43:10Z</time>
      </trkpt>
      <trkpt lat="49.17436" lon="6.97705">
        <ele>330</ele>
        <time>2011-05-08T06:43:12Z</time>
      </trkpt>
      <trkpt lat="49.17434" lon="6.97708">
        <ele>330</ele>
        <time>2011-05-08T06:43:14Z</time>
      </trkpt>
      <trkpt lat="49.17432" lon="6.97711">
        <ele>330</ele>
        <time>2011-05-08T06:43:16Z</time>
      </trkpt>
      <trkpt lat="49.17431" lon="6.97714">
        <ele>330</ele>
        <time>2011-05-08T06:43:18Z</time>
      </trkpt>
      <trkpt lat="49.17429" lon="6.97717">
        <ele>330</ele>
        <time>2011-05-08T06:43:20Z</time>
      </trkpt>
      <trkpt lat="49.17427" lon="6.9772">
        <ele>330</ele>
        <time>2011-05-08T06:43:22Z</time>
      </trkpt>
      <trkpt lat="49.17427" lon="6.97722">
        <ele>330</ele>
        <time>2011-05-08T06:43:23Z</time>
      </trkpt>
      <trkpt lat="49.17425" lon="6.97725">
        <ele>330</ele>
        <time>2011-05-08T06:43:25Z</time>
      </trkpt>
      <trkpt lat="49.17424" lon="6.97728">
        <ele>330</ele>
        <time>2011-05-08T06:43:27Z</time>
      </trkpt>
      <trkpt lat="49.17423" lon="6.97729">
        <ele>330</ele>
        <time>2011-05-08T06:43:28Z</time>
      </trkpt>
      <trkpt lat="49.17421" lon="6.97732">
        <ele>330</ele>
        <time>2011-05-08T06:43:30Z</time>
      </trkpt>
      <trkpt lat="49.17419" lon="6.97736">
        <ele>330</ele>
        <time>2011-05-08T06:43:32Z</time>
      </trkpt>
      <trkpt lat="49.17418" lon="6.97738">
        <ele>331</ele>
        <time>2011-05-08T06:43:34Z</time>
      </trkpt>
      <trkpt lat="49.17416" lon="6.97741">
        <ele>331</ele>
        <time>2011-05-08T06:43:36Z</time>
      </trkpt>
      <trkpt lat="49.17415" lon="6.97744">
        <ele>331</ele>
        <time>2011-05-08T06:43:38Z</time>
      </trkpt>
      <trkpt lat="49.17413" lon="6.97746">
        <ele>331</ele>
        <time>2011-05-08T06:43:40Z</time>
      </trkpt>
      <trkpt lat="49.17412" lon="6.97749">
        <ele>331</ele>
        <time>2011-05-08T06:43:42Z</time>
      </trkpt>
      <trkpt lat="49.1741" lon="6.97752">
        <ele>331</ele>
        <time>2011-05-08T06:43:44Z</time>
      </trkpt>
      <trkpt lat="49.17409" lon="6.97754">
        <ele>331</ele>
        <time>2011-05-08T06:43:45Z</time>
      </trkpt>
      <trkpt lat="49.17409" lon="6.97755">
        <ele>331</ele>
        <time>2011-05-08T06:43:46Z</time>
      </trkpt>
      <trkpt lat="49.17408" lon="6.97757">
        <ele>331</ele>
        <time>2011-05-08T06:43:47Z</time>
      </trkpt>
      <trkpt lat="49.17406" lon="6.9776">
        <ele>331</ele>
        <time>2011-05-08T06:43:49Z</time>
      </trkpt>
      <trkpt lat="49.17404" lon="6.97763">
        <ele>331</ele>
        <time>2011-05-08T06:43:51Z</time>
      </trkpt>
      <trkpt lat="49.17403" lon="6.97766">
        <ele>331</ele>
        <time>2011-05-08T06:43:53Z</time>
      </trkpt>
      <trkpt lat="49.17402" lon="6.97768">
        <ele>331</ele>
        <time>2011-05-08T06:43:54Z</time>
      </trkpt>
      <trkpt lat="49.174" lon="6.97771">
        <ele>331</ele>
        <time>2011-05-08T06:43:56Z</time>
      </trkpt>
      <trkpt lat="49.17398" lon="6.97774">
        <ele>331</ele>
        <time>2011-05-08T06:43:58Z</time>
      </trkpt>
      <trkpt lat="49.17397" lon="6.97776">
        <ele>331</ele>
        <time>2011-05-08T06:43:59Z</time>
      </trkpt>
      <trkpt lat="49.17396" lon="6.97777">
        <ele>331</ele>
        <time>2011-05-08T06:44:00Z</time>
      </trkpt>
      <trkpt lat="49.17395" lon="6.97779">
        <ele>331</ele>
        <time>2011-05-08T06:44:01Z</time>
      </trkpt>
      <trkpt lat="49.17394" lon="6.97781">
        <ele>331</ele>
        <time>2011-05-08T06:44:03Z</time>
      </trkpt>
      <trkpt lat="49.17393" lon="6.97784">
        <ele>331</ele>
        <time>2011-05-08T06:44:05Z</time>
      </trkpt>
      <trkpt lat="49.17392" lon="6.97786">
        <ele>331</ele>
        <time>2011-05-08T06:44:06Z</time>
      </trkpt>
      <trkpt lat="49.1739" lon="6.97789">
        <ele>331</ele>
        <time>2011-05-08T06:44:08Z</time>
      </trkpt>
      <trkpt lat="49.17389" lon="6.97792">
        <ele>331</ele>
        <time>2011-05-08T06:44:10Z</time>
      </trkpt>
      <trkpt lat="49.17387" lon="6.97794">
        <ele>331</ele>
        <time>2011-05-08T06:44:12Z</time>
      </trkpt>
      <trkpt lat="49.17385" lon="6.97797">
        <ele>331</ele>
        <time>2011-05-08T06:44:14Z</time>
      </trkpt>
      <trkpt lat="49.17384" lon="6.97799">
        <ele>331</ele>
        <time>2011-05-08T06:44:15Z</time>
      </trkpt>
      <trkpt lat="49.17384" lon="6.97801">
        <ele>331</ele>
        <time>2011-05-08T06:44:16Z</time>
      </trkpt>
      <trkpt lat="49.17382" lon="6.97804">
        <ele>331</ele>
        <time>2011-05-08T06:44:18Z</time>
      </trkpt>
      <trkpt lat="49.1738" lon="6.97807">
        <ele>331</ele>
        <time>2011-05-08T06:44:20Z</time>
      </trkpt>
      <trkpt lat="49.17379" lon="6.9781">
        <ele>331</ele>
        <time>2011-05-08T06:44:22Z</time>
      </trkpt>
      <trkpt lat="49.17377" lon="6.97812">
        <ele>331</ele>
        <time>2011-05-08T06:44:24Z</time>
      </trkpt>
      <trkpt lat="49.17375" lon="6.97816">
        <ele>331</ele>
        <time>2011-05-08T06:44:26Z</time>
      </trkpt>
      <trkpt lat="49.17374" lon="6.97819">
        <ele>331</ele>
        <time>2011-05-08T06:44:28Z</time>
      </trkpt>
      <trkpt lat="49.17372" lon="6.97822">
        <ele>331</ele>
        <time>2011-05-08T06:44:30Z</time>
      </trkpt>
      <trkpt lat="49.1737" lon="6.97825">
        <ele>331</ele>
        <time>2011-05-08T06:44:32Z</time>
      </trkpt>
      <trkpt lat="49.17368" lon="6.97828">
        <ele>331</ele>
        <time>2011-05-08T06:44:34Z</time>
      </trkpt>
      <trkpt lat="49.17366" lon="6.97831">
        <ele>331</ele>
        <time>2011-05-08T06:44:36Z</time>
      </trkpt>
      <trkpt lat="49.17365" lon="6.97832">
        <ele>331</ele>
        <time>2011-05-08T06:44:37Z</time>
      </trkpt>
      <trkpt lat="49.17363" lon="6.97835">
        <ele>331</ele>
        <time>2011-05-08T06:44:39Z</time>
      </trkpt>
      <trkpt lat="49.17362" lon="6.97837">
        <ele>331</ele>
        <time>2011-05-08T06:44:40Z</time>
      </trkpt>
      <trkpt lat="49.17361" lon="6.97838">
        <ele>331</ele>
        <time>2011-05-08T06:44:41Z</time>
      </trkpt>
      <trkpt lat="49.1736" lon="6.9784">
        <ele>331</ele>
        <time>2011-05-08T06:44:42Z</time>
      </trkpt>
      <trkpt lat="49.17358" lon="6.97843">
        <ele>331</ele>
        <time>2011-05-08T06:44:44Z</time>
      </trkpt>
      <trkpt lat="49.17356" lon="6.97846">
        <ele>331</ele>
        <time>2011-05-08T06:44:46Z</time>
      </trkpt>
      <trkpt lat="49.17355" lon="6.97849">
        <ele>331</ele>
        <time>2011-05-08T06:44:48Z</time>
      </trkpt>
      <trkpt lat="49.17354" lon="6.9785">
        <ele>331</ele>
        <time>2011-05-08T06:44:49Z</time>
      </trkpt>
      <trkpt lat="49.17352" lon="6.97854">
        <ele>331</ele>
        <time>2011-05-08T06:44:51Z</time>
      </trkpt>
      <trkpt lat="49.1735" lon="6.97857">
        <ele>331</ele>
        <time>2011-05-08T06:44:53Z</time>
      </trkpt>
      <trkpt lat="49.17349" lon="6.97858">
        <ele>331</ele>
        <time>2011-05-08T06:44:54Z</time>
      </trkpt>
      <trkpt lat="49.17347" lon="6.97861">
        <ele>331</ele>
        <time>2011-05-08T06:44:56Z</time>
      </trkpt>
      <trkpt lat="49.17347" lon="6.97863">
        <ele>331</ele>
        <time>2011-05-08T06:44:57Z</time>
      </trkpt>
      <trkpt lat="49.17345" lon="6.97866">
        <ele>331</ele>
        <time>2011-05-08T06:44:59Z</time>
      </trkpt>
      <trkpt lat="49.17344" lon="6.97869">
        <ele>331</ele>
        <time>2011-05-08T06:45:01Z</time>
      </trkpt>
      <trkpt lat="49.17343" lon="6.9787">
        <ele>331</ele>
        <time>2011-05-08T06:45:02Z</time>
      </trkpt>
      <trkpt lat="49.17342" lon="6.97873">
        <ele>331</ele>
        <time>2011-05-08T06:45:04Z</time>
      </trkpt>
      <trkpt lat="49.1734" lon="6.97875">
        <ele>331</ele>
        <time>2011-05-08T06:45:06Z</time>
      </trkpt>
      <trkpt lat="49.17339" lon="6.97878">
        <ele>331</ele>
        <time>2011-05-08T06:45:08Z</time>
      </trkpt>
      <trkpt lat="49.17337" lon="6.97881">
        <ele>331</ele>
        <time>2011-05-08T06:45:10Z</time>
      </trkpt>
      <trkpt lat="49.17336" lon="6.97883">
        <ele>331</ele>
        <time>2011-05-08T06:45:11Z</time>
      </trkpt>
      <trkpt lat="49.17334" lon="6.97886">
        <ele>331</ele>
        <time>2011-05-08T06:45:13Z</time>
      </trkpt>
      <trkpt lat="49.17333" lon="6.97888">
        <ele>331</ele>
        <time>2011-05-08T06:45:15Z</time>
      </trkpt>
      <trkpt lat="49.17331" lon="6.97891">
        <ele>331</ele>
        <time>2011-05-08T06:45:17Z</time>
      </trkpt>
      <trkpt lat="49.1733" lon="6.97894">
        <ele>331</ele>
        <time>2011-05-08T06:45:19Z</time>
      </trkpt>
      <trkpt lat="49.17328" lon="6.97897">
        <ele>331</ele>
        <time>2011-05-08T06:45:21Z</time>
      </trkpt>
      <trkpt lat="49.17326" lon="6.979">
        <ele>331</ele>
        <time>2011-05-08T06:45:23Z</time>
      </trkpt>
      <trkpt lat="49.17324" lon="6.97903">
        <ele>331</ele>
        <time>2011-05-08T06:45:25Z</time>
      </trkpt>
      <trkpt lat="49.17324" lon="6.97904">
        <ele>331</ele>
        <time>2011-05-08T06:45:26Z</time>
      </trkpt>
      <trkpt lat="49.17323" lon="6.97906">
        <ele>331</ele>
        <time>2011-05-08T06:45:27Z</time>
      </trkpt>
      <trkpt lat="49.17321" lon="6.97909">
        <ele>331</ele>
        <time>2011-05-08T06:45:29Z</time>
      </trkpt>
      <trkpt lat="49.17319" lon="6.97912">
        <ele>331</ele>
        <time>2011-05-08T06:45:31Z</time>
      </trkpt>
      <trkpt lat="49.17319" lon="6.97914">
        <ele>331</ele>
        <time>2011-05-08T06:45:32Z</time>
      </trkpt>
      <trkpt lat="49.17317" lon="6.97917">
        <ele>331</ele>
        <time>2011-05-08T06:45:34Z</time>
      </trkpt>
      <trkpt lat="49.17316" lon="6.97919">
        <ele>331</ele>
        <time>2011-05-08T06:45:36Z</time>
      </trkpt>
      <trkpt lat="49.17314" lon="6.97922">
        <ele>331</ele>
        <time>2011-05-08T06:45:38Z</time>
      </trkpt>
      <trkpt lat="49.17312" lon="6.97925">
        <ele>331</ele>
        <time>2011-05-08T06:45:40Z</time>
      </trkpt>
      <trkpt lat="49.1731" lon="6.97928">
        <ele>330</ele>
        <time>2011-05-08T06:45:42Z</time>
      </trkpt>
      <trkpt lat="49.17309" lon="6.9793">
        <ele>330</ele>
        <time>2011-05-08T06:45:44Z</time>
      </trkpt>
      <trkpt lat="49.17307" lon="6.97933">
        <ele>330</ele>
        <time>2011-05-08T06:45:46Z</time>
      </trkpt>
      <trkpt lat="49.17306" lon="6.97934">
        <ele>330</ele>
        <time>2011-05-08T06:45:47Z</time>
      </trkpt>
      <trkpt lat="49.17305" lon="6.97936">
        <ele>330</ele>
        <time>2011-05-08T06:45:48Z</time>
      </trkpt>
      <trkpt lat="49.17304" lon="6.97938">
        <ele>330</ele>
        <time>2011-05-08T06:45:49Z</time>
      </trkpt>
      <trkpt lat="49.17302" lon="6.97941">
        <ele>330</ele>
        <time>2011-05-08T06:45:51Z</time>
      </trkpt>
      <trkpt lat="49.17301" lon="6.97943">
        <ele>330</ele>
        <time>2011-05-08T06:45:52Z</time>
      </trkpt>
      <trkpt lat="49.173" lon="6.97946">
        <ele>330</ele>
        <time>2011-05-08T06:45:54Z</time>
      </trkpt>
      <trkpt lat="49.17299" lon="6.97948">
        <ele>330</ele>
        <time>2011-05-08T06:45:55Z</time>
      </trkpt>
      <trkpt lat="49.17298" lon="6.97949">
        <ele>330</ele>
        <time>2011-05-08T06:45:56Z</time>
      </trkpt>
      <trkpt lat="49.17297" lon="6.97951">
        <ele>330</ele>
        <time>2011-05-08T06:45:57Z</time>
      </trkpt>
      <trkpt lat="49.17297" lon="6.97953">
        <ele>330</ele>
        <time>2011-05-08T06:45:58Z</time>
      </trkpt>
      <trkpt lat="49.17296" lon="6.97955">
        <ele>330</ele>
        <time>2011-05-08T06:45:59Z</time>
      </trkpt>
      <trkpt lat="49.17295" lon="6.97958">
        <ele>330</ele>
        <time>2011-05-08T06:46:01Z</time>
      </trkpt>
      <trkpt lat="49.17294" lon="6.9796">
        <ele>330</ele>
        <time>2011-05-08T06:46:02Z</time>
      </trkpt>
      <trkpt lat="49.17292" lon="6.97963">
        <ele>330</ele>
        <time>2011-05-08T06:46:04Z</time>
      </trkpt>
      <trkpt lat="49.1729" lon="6.97966">
        <ele>330</ele>
        <time>2011-05-08T06:46:06Z</time>
      </trkpt>
      <trkpt lat="49.17289" lon="6.97969">
        <ele>329</ele>
        <time>2011-05-08T06:46:08Z</time>
      </trkpt>
      <trkpt lat="49.17287" lon="6.97972">
        <ele>329</ele>
        <time>2011-05-08T06:46:10Z</time>
      </trkpt>
      <trkpt lat="49.17286" lon="6.97973">
        <ele>329</ele>
        <time>2011-05-08T06:46:11Z</time>
      </trkpt>
      <trkpt lat="49.17284" lon="6.97976">
        <ele>329</ele>
        <time>2011-05-08T06:46:13Z</time>
      </trkpt>
      <trkpt lat="49.17282" lon="6.97979">
        <ele>328</ele>
        <time>2011-05-08T06:46:15Z</time>
      </trkpt>
      <trkpt lat="49.17281" lon="6.97982">
        <ele>328</ele>
        <time>2011-05-08T06:46:17Z</time>
      </trkpt>
      <trkpt lat="49.17279" lon="6.97985">
        <ele>327</ele>
        <time>2011-05-08T06:46:19Z</time>
      </trkpt>
      <trkpt lat="49.17278" lon="6.97987">
        <ele>327</ele>
        <time>2011-05-08T06:46:21Z</time>
      </trkpt>
      <trkpt lat="49.17277" lon="6.97989">
        <ele>326</ele>
        <time>2011-05-08T06:46:22Z</time>
      </trkpt>
      <trkpt lat="49.17276" lon="6.9799">
        <ele>326</ele>
        <time>2011-05-08T06:46:23Z</time>
      </trkpt>
      <trkpt lat="49.17274" lon="6.97993">
        <ele>326</ele>
        <time>2011-05-08T06:46:25Z</time>
      </trkpt>
      <trkpt lat="49.17273" lon="6.97995">
        <ele>326</ele>
        <time>2011-05-08T06:46:26Z</time>
      </trkpt>
      <trkpt lat="49.17272" lon="6.97997">
        <ele>326</ele>
        <time>2011-05-08T06:46:27Z</time>
      </trkpt>
      <trkpt lat="49.17271" lon="6.97998">
        <ele>326</ele>
        <time>2011-05-08T06:46:28Z</time>
      </trkpt>
      <trkpt lat="49.1727" lon="6.98001">
        <ele>326</ele>
        <time>2011-05-08T06:46:30Z</time>
      </trkpt>
      <trkpt lat="49.17268" lon="6.98004">
        <ele>326</ele>
        <time>2011-05-08T06:46:32Z</time>
      </trkpt>
      <trkpt lat="49.17267" lon="6.98007">
        <ele>326</ele>
        <time>2011-05-08T06:46:34Z</time>
      </trkpt>
      <trkpt lat="49.17265" lon="6.9801">
        <ele>326</ele>
        <time>2011-05-08T06:46:36Z</time>
      </trkpt>
      <trkpt lat="49.17263" lon="6.98014">
        <ele>325</ele>
        <time>2011-05-08T06:46:38Z</time>
      </trkpt>
      <trkpt lat="49.17263" lon="6.98015">
        <ele>325</ele>
        <time>2011-05-08T06:46:39Z</time>
      </trkpt>
      <trkpt lat="49.17262" lon="6.98017">
        <ele>325</ele>
        <time>2011-05-08T06:46:40Z</time>
      </trkpt>
      <trkpt lat="49.1726" lon="6.9802">
        <ele>324</ele>
        <time>2011-05-08T06:46:42Z</time>
      </trkpt>
      <trkpt lat="49.17258" lon="6.98023">
        <ele>324</ele>
        <time>2011-05-08T06:46:44Z</time>
      </trkpt>
      <trkpt lat="49.17258" lon="6.98025">
        <ele>324</ele>
        <time>2011-05-08T06:46:45Z</time>
      </trkpt>
      <trkpt lat="49.17256" lon="6.98028">
        <ele>324</ele>
        <time>2011-05-08T06:46:47Z</time>
      </trkpt>
      <trkpt lat="49.17255" lon="6.9803">
        <ele>323</ele>
        <time>2011-05-08T06:46:48Z</time>
      </trkpt>
      <trkpt lat="49.17255" lon="6.98032">
        <ele>323</ele>
        <time>2011-05-08T06:46:49Z</time>
      </trkpt>
      <trkpt lat="49.17253" lon="6.98034">
        <ele>323</ele>
        <time>2011-05-08T06:46:50Z</time>
      </trkpt>
      <trkpt lat="49.17253" lon="6.98035">
        <ele>323</ele>
        <time>2011-05-08T06:46:51Z</time>
      </trkpt>
      <trkpt lat="49.17251" lon="6.98038">
        <ele>323</ele>
        <time>2011-05-08T06:46:53Z</time>
      </trkpt>
      <trkpt lat="49.1725" lon="6.9804">
        <ele>323</ele>
        <time>2011-05-08T06:46:54Z</time>
      </trkpt>
      <trkpt lat="49.17249" lon="6.98041">
        <ele>323</ele>
        <time>2011-05-08T06:46:55Z</time>
      </trkpt>
      <trkpt lat="49.17248" lon="6.98045">
        <ele>323</ele>
        <time>2011-05-08T06:46:57Z</time>
      </trkpt>
      <trkpt lat="49.17247" lon="6.98047">
        <ele>323</ele>
        <time>2011-05-08T06:46:58Z</time>
      </trkpt>
      <trkpt lat="49.17246" lon="6.98049">
        <ele>323</ele>
        <time>2011-05-08T06:46:59Z</time>
      </trkpt>
      <trkpt lat="49.17245" lon="6.98052">
        <ele>322</ele>
        <time>2011-05-08T06:47:01Z</time>
      </trkpt>
      <trkpt lat="49.17244" lon="6.98053">
        <ele>322</ele>
        <time>2011-05-08T06:47:02Z</time>
      </trkpt>
      <trkpt lat="49.17244" lon="6.98055">
        <ele>322</ele>
        <time>2011-05-08T06:47:03Z</time>
      </trkpt>
      <trkpt lat="49.17242" lon="6.98057">
        <ele>322</ele>
        <time>2011-05-08T06:47:05Z</time>
      </trkpt>
      <trkpt lat="49.1724" lon="6.9806">
        <ele>322</ele>
        <time>2011-05-08T06:47:07Z</time>
      </trkpt>
      <trkpt lat="49.17239" lon="6.98063">
        <ele>322</ele>
        <time>2011-05-08T06:47:09Z</time>
      </trkpt>
      <trkpt lat="49.17238" lon="6.98065">
        <ele>322</ele>
        <time>2011-05-08T06:47:11Z</time>
      </trkpt>
      <trkpt lat="49.17236" lon="6.98067">
        <ele>322</ele>
        <time>2011-05-08T06:47:14Z</time>
      </trkpt>
      <trkpt lat="49.17235" lon="6.98069">
        <ele>322</ele>
        <time>2011-05-08T06:47:16Z</time>
      </trkpt>
      <trkpt lat="49.17233" lon="6.98071">
        <ele>322</ele>
        <time>2011-05-08T06:47:18Z</time>
      </trkpt>
      <trkpt lat="49.17231" lon="6.98073">
        <ele>322</ele>
        <time>2011-05-08T06:47:20Z</time>
      </trkpt>
      <trkpt lat="49.17229" lon="6.98075">
        <ele>322</ele>
        <time>2011-05-08T06:47:22Z</time>
      </trkpt>
      <trkpt lat="49.17228" lon="6.98076">
        <ele>322</ele>
        <time>2011-05-08T06:47:23Z</time>
      </trkpt>
      <trkpt lat="49.17226" lon="6.98078">
        <ele>322</ele>
        <time>2011-05-08T06:47:25Z</time>
      </trkpt>
      <trkpt lat="49.17224" lon="6.98081">
        <ele>322</ele>
        <time>2011-05-08T06:47:27Z</time>
      </trkpt>
      <trkpt lat="49.17222" lon="6.98083">
        <ele>322</ele>
        <time>2011-05-08T06:47:29Z</time>
      </trkpt>
      <trkpt lat="49.17221" lon="6.98086">
        <ele>322</ele>
        <time>2011-05-08T06:47:31Z</time>
      </trkpt>
      <trkpt lat="49.17219" lon="6.98087">
        <ele>322</ele>
        <time>2011-05-08T06:47:32Z</time>
      </trkpt>
      <trkpt lat="49.17218" lon="6.98089">
        <ele>322</ele>
        <time>2011-05-08T06:47:33Z</time>
      </trkpt>
      <trkpt lat="49.17217" lon="6.9809">
        <ele>322</ele>
        <time>2011-05-08T06:47:34Z</time>
      </trkpt>
      <trkpt lat="49.17216" lon="6.98092">
        <ele>322</ele>
        <time>2011-05-08T06:47:35Z</time>
      </trkpt>
      <trkpt lat="49.17215" lon="6.98094">
        <ele>322</ele>
        <time>2011-05-08T06:47:36Z</time>
      </trkpt>
      <trkpt lat="49.17214" lon="6.98095">
        <ele>322</ele>
        <time>2011-05-08T06:47:37Z</time>
      </trkpt>
      <trkpt lat="49.17212" lon="6.98098">
        <ele>322</ele>
        <time>2011-05-08T06:47:39Z</time>
      </trkpt>
      <trkpt lat="49.1721" lon="6.98101">
        <ele>322</ele>
        <time>2011-05-08T06:47:41Z</time>
      </trkpt>
      <trkpt lat="49.17208" lon="6.98104">
        <ele>322</ele>
        <time>2011-05-08T06:47:43Z</time>
      </trkpt>
      <trkpt lat="49.17208" lon="6.98106">
        <ele>322</ele>
        <time>2011-05-08T06:47:44Z</time>
      </trkpt>
      <trkpt lat="49.17207" lon="6.98108">
        <ele>322</ele>
        <time>2011-05-08T06:47:45Z</time>
      </trkpt>
      <trkpt lat="49.17205" lon="6.98111">
        <ele>322</ele>
        <time>2011-05-08T06:47:47Z</time>
      </trkpt>
      <trkpt lat="49.17205" lon="6.98113">
        <ele>322</ele>
        <time>2011-05-08T06:47:48Z</time>
      </trkpt>
      <trkpt lat="49.17203" lon="6.98116">
        <ele>322</ele>
        <time>2011-05-08T06:47:50Z</time>
      </trkpt>
      <trkpt lat="49.17202" lon="6.98118">
        <ele>323</ele>
        <time>2011-05-08T06:47:52Z</time>
      </trkpt>
      <trkpt lat="49.172" lon="6.98122">
        <ele>323</ele>
        <time>2011-05-08T06:47:54Z</time>
      </trkpt>
      <trkpt lat="49.17199" lon="6.98123">
        <ele>323</ele>
        <time>2011-05-08T06:47:55Z</time>
      </trkpt>
      <trkpt lat="49.17198" lon="6.98126">
        <ele>323</ele>
        <time>2011-05-08T06:47:57Z</time>
      </trkpt>
      <trkpt lat="49.17196" lon="6.98129">
        <ele>324</ele>
        <time>2011-05-08T06:47:59Z</time>
      </trkpt>
      <trkpt lat="49.17195" lon="6.98131">
        <ele>324</ele>
        <time>2011-05-08T06:48:00Z</time>
      </trkpt>
      <trkpt lat="49.17194" lon="6.98133">
        <ele>324</ele>
        <time>2011-05-08T06:48:01Z</time>
      </trkpt>
      <trkpt lat="49.17194" lon="6.98135">
        <ele>324</ele>
        <time>2011-05-08T06:48:02Z</time>
      </trkpt>
      <trkpt lat="49.17192" lon="6.98137">
        <ele>324</ele>
        <time>2011-05-08T06:48:04Z</time>
      </trkpt>
      <trkpt lat="49.1719" lon="6.98139">
        <ele>325</ele>
        <time>2011-05-08T06:48:06Z</time>
      </trkpt>
      <trkpt lat="49.17189" lon="6.98141">
        <ele>325</ele>
        <time>2011-05-08T06:48:07Z</time>
      </trkpt>
      <trkpt lat="49.17187" lon="6.98143">
        <ele>325</ele>
        <time>2011-05-08T06:48:09Z</time>
      </trkpt>
      <trkpt lat="49.17187" lon="6.98145">
        <ele>325</ele>
        <time>2011-05-08T06:48:10Z</time>
      </trkpt>
      <trkpt lat="49.17186" lon="6.98147">
        <ele>326</ele>
        <time>2011-05-08T06:48:11Z</time>
      </trkpt>
      <trkpt lat="49.17185" lon="6.98149">
        <ele>326</ele>
        <time>2011-05-08T06:48:13Z</time>
      </trkpt>
      <trkpt lat="49.17183" lon="6.98152">
        <ele>326</ele>
        <time>2011-05-08T06:48:15Z</time>
      </trkpt>
      <trkpt lat="49.17181" lon="6.98154">
        <ele>326</ele>
        <time>2011-05-08T06:48:17Z</time>
      </trkpt>
      <trkpt lat="49.1718" lon="6.98156">
        <ele>326</ele>
        <time>2011-05-08T06:48:19Z</time>
      </trkpt>
      <trkpt lat="49.17178" lon="6.98159">
        <ele>327</ele>
        <time>2011-05-08T06:48:21Z</time>
      </trkpt>
      <trkpt lat="49.17176" lon="6.98162">
        <ele>327</ele>
        <time>2011-05-08T06:48:23Z</time>
      </trkpt>
      <trkpt lat="49.17175" lon="6.98164">
        <ele>327</ele>
        <time>2011-05-08T06:48:25Z</time>
      </trkpt>
      <trkpt lat="49.17173" lon="6.98167">
        <ele>327</ele>
        <time>2011-05-08T06:48:27Z</time>
      </trkpt>
      <trkpt lat="49.17172" lon="6.98169">
        <ele>327</ele>
        <time>2011-05-08T06:48:28Z</time>
      </trkpt>
      <trkpt lat="49.1717" lon="6.98172">
        <ele>327</ele>
        <time>2011-05-08T06:48:30Z</time>
      </trkpt>
      <trkpt lat="49.17169" lon="6.98174">
        <ele>328</ele>
        <time>2011-05-08T06:48:32Z</time>
      </trkpt>
      <trkpt lat="49.17168" lon="6.98177">
        <ele>328</ele>
        <time>2011-05-08T06:48:34Z</time>
      </trkpt>
      <trkpt lat="49.17166" lon="6.9818">
        <ele>328</ele>
        <time>2011-05-08T06:48:36Z</time>
      </trkpt>
      <trkpt lat="49.17165" lon="6.98181">
        <ele>328</ele>
        <time>2011-05-08T06:48:37Z</time>
      </trkpt>
      <trkpt lat="49.17164" lon="6.98184">
        <ele>328</ele>
        <time>2011-05-08T06:48:39Z</time>
      </trkpt>
      <trkpt lat="49.17163" lon="6.98186">
        <ele>328</ele>
        <time>2011-05-08T06:48:40Z</time>
      </trkpt>
      <trkpt lat="49.17162" lon="6.98187">
        <ele>329</ele>
        <time>2011-05-08T06:48:41Z</time>
      </trkpt>
      <trkpt lat="49.17161" lon="6.9819">
        <ele>329</ele>
        <time>2011-05-08T06:48:43Z</time>
      </trkpt>
      <trkpt lat="49.1716" lon="6.98192">
        <ele>329</ele>
        <time>2011-05-08T06:48:45Z</time>
      </trkpt>
      <trkpt lat="49.17158" lon="6.98195">
        <ele>330</ele>
        <time>2011-05-08T06:48:47Z</time>
      </trkpt>
      <trkpt lat="49.17157" lon="6.98196">
        <ele>330</ele>
        <time>2011-05-08T06:48:48Z</time>
      </trkpt>
      <trkpt lat="49.17156" lon="6.98199">
        <ele>330</ele>
        <time>2011-05-08T06:48:50Z</time>
      </trkpt>
      <trkpt lat="49.17155" lon="6.98201">
        <ele>331</ele>
        <time>2011-05-08T06:48:53Z</time>
      </trkpt>
      <trkpt lat="49.17154" lon="6.98203">
        <ele>331</ele>
        <time>2011-05-08T06:48:55Z</time>
      </trkpt>
      <trkpt lat="49.17152" lon="6.98205">
        <ele>331</ele>
        <time>2011-05-08T06:48:57Z</time>
      </trkpt>
      <trkpt lat="49.17151" lon="6.98208">
        <ele>331</ele>
        <time>2011-05-08T06:48:59Z</time>
      </trkpt>
      <trkpt lat="49.17149" lon="6.98211">
        <ele>331</ele>
        <time>2011-05-08T06:49:01Z</time>
      </trkpt>
      <trkpt lat="49.17148" lon="6.98213">
        <ele>331</ele>
        <time>2011-05-08T06:49:02Z</time>
      </trkpt>
      <trkpt lat="49.17147" lon="6.98216">
        <ele>331</ele>
        <time>2011-05-08T06:49:04Z</time>
      </trkpt>
      <trkpt lat="49.17145" lon="6.98218">
        <ele>331</ele>
        <time>2011-05-08T06:49:06Z</time>
      </trkpt>
      <trkpt lat="49.17143" lon="6.98221">
        <ele>331</ele>
        <time>2011-05-08T06:49:08Z</time>
      </trkpt>
      <trkpt lat="49.17142" lon="6.98223">
        <ele>331</ele>
        <time>2011-05-08T06:49:09Z</time>
      </trkpt>
      <trkpt lat="49.1714" lon="6.98226">
        <ele>331</ele>
        <time>2011-05-08T06:49:11Z</time>
      </trkpt>
      <trkpt lat="49.17138" lon="6.98229">
        <ele>331</ele>
        <time>2011-05-08T06:49:13Z</time>
      </trkpt>
      <trkpt lat="49.17136" lon="6.98232">
        <ele>331</ele>
        <time>2011-05-08T06:49:15Z</time>
      </trkpt>
      <trkpt lat="49.17135" lon="6.98234">
        <ele>331</ele>
        <time>2011-05-08T06:49:16Z</time>
      </trkpt>
      <trkpt lat="49.17133" lon="6.98237">
        <ele>332</ele>
        <time>2011-05-08T06:49:18Z</time>
      </trkpt>
      <trkpt lat="49.17133" lon="6.98239">
        <ele>332</ele>
        <time>2011-05-08T06:49:19Z</time>
      </trkpt>
      <trkpt lat="49.17131" lon="6.98241">
        <ele>332</ele>
        <time>2011-05-08T06:49:20Z</time>
      </trkpt>
      <trkpt lat="49.1713" lon="6.98243">
        <ele>332</ele>
        <time>2011-05-08T06:49:22Z</time>
      </trkpt>
      <trkpt lat="49.17128" lon="6.98246">
        <ele>332</ele>
        <time>2011-05-08T06:49:24Z</time>
      </trkpt>
      <trkpt lat="49.17126" lon="6.98248">
        <ele>332</ele>
        <time>2011-05-08T06:49:25Z</time>
      </trkpt>
      <trkpt lat="49.17125" lon="6.98251">
        <ele>333</ele>
        <time>2011-05-08T06:49:27Z</time>
      </trkpt>
      <trkpt lat="49.17123" lon="6.98252">
        <ele>333</ele>
        <time>2011-05-08T06:49:28Z</time>
      </trkpt>
      <trkpt lat="49.17123" lon="6.98254">
        <ele>333</ele>
        <time>2011-05-08T06:49:29Z</time>
      </trkpt>
      <trkpt lat="49.17121" lon="6.98257">
        <ele>333</ele>
        <time>2011-05-08T06:49:31Z</time>
      </trkpt>
      <trkpt lat="49.17119" lon="6.9826">
        <ele>333</ele>
        <time>2011-05-08T06:49:33Z</time>
      </trkpt>
      <trkpt lat="49.17118" lon="6.98262">
        <ele>333</ele>
        <time>2011-05-08T06:49:34Z</time>
      </trkpt>
      <trkpt lat="49.17117" lon="6.98264">
        <ele>333</ele>
        <time>2011-05-08T06:49:35Z</time>
      </trkpt>
      <trkpt lat="49.17117" lon="6.98265">
        <ele>333</ele>
        <time>2011-05-08T06:49:36Z</time>
      </trkpt>
      <trkpt lat="49.17115" lon="6.98268">
        <ele>334</ele>
        <time>2011-05-08T06:49:38Z</time>
      </trkpt>
      <trkpt lat="49.17114" lon="6.9827">
        <ele>334</ele>
        <time>2011-05-08T06:49:39Z</time>
      </trkpt>
      <trkpt lat="49.17113" lon="6.98273">
        <ele>334</ele>
        <time>2011-05-08T06:49:41Z</time>
      </trkpt>
      <trkpt lat="49.17111" lon="6.98276">
        <ele>334</ele>
        <time>2011-05-08T06:49:43Z</time>
      </trkpt>
      <trkpt lat="49.1711" lon="6.98279">
        <ele>334</ele>
        <time>2011-05-08T06:49:44Z</time>
      </trkpt>
      <trkpt lat="49.17109" lon="6.9828">
        <ele>334</ele>
        <time>2011-05-08T06:49:45Z</time>
      </trkpt>
      <trkpt lat="49.17107" lon="6.98283">
        <ele>334</ele>
        <time>2011-05-08T06:49:47Z</time>
      </trkpt>
      <trkpt lat="49.17105" lon="6.98286">
        <ele>334</ele>
        <time>2011-05-08T06:49:49Z</time>
      </trkpt>
      <trkpt lat="49.17104" lon="6.98289">
        <ele>334</ele>
        <time>2011-05-08T06:49:51Z</time>
      </trkpt>
      <trkpt lat="49.17103" lon="6.98291">
        <ele>335</ele>
        <time>2011-05-08T06:49:52Z</time>
      </trkpt>
      <trkpt lat="49.17102" lon="6.98292">
        <ele>335</ele>
        <time>2011-05-08T06:49:53Z</time>
      </trkpt>
      <trkpt lat="49.171" lon="6.98295">
        <ele>335</ele>
        <time>2011-05-08T06:49:55Z</time>
      </trkpt>
      <trkpt lat="49.17099" lon="6.98298">
        <ele>335</ele>
        <time>2011-05-08T06:49:57Z</time>
      </trkpt>
      <trkpt lat="49.17097" lon="6.98302">
        <ele>335</ele>
        <time>2011-05-08T06:49:59Z</time>
      </trkpt>
      <trkpt lat="49.17095" lon="6.98305">
        <ele>336</ele>
        <time>2011-05-08T06:50:01Z</time>
      </trkpt>
      <trkpt lat="49.17094" lon="6.98306">
        <ele>336</ele>
        <time>2011-05-08T06:50:02Z</time>
      </trkpt>
      <trkpt lat="49.17092" lon="6.98309">
        <ele>336</ele>
        <time>2011-05-08T06:50:04Z</time>
      </trkpt>
      <trkpt lat="49.17091" lon="6.98311">
        <ele>336</ele>
        <time>2011-05-08T06:50:05Z</time>
      </trkpt>
      <trkpt lat="49.1709" lon="6.98312">
        <ele>336</ele>
        <time>2011-05-08T06:50:06Z</time>
      </trkpt>
      <trkpt lat="49.17089" lon="6.98315">
        <ele>336</ele>
        <time>2011-05-08T06:50:08Z</time>
      </trkpt>
      <trkpt lat="49.17087" lon="6.98318">
        <ele>337</ele>
        <time>2011-05-08T06:50:10Z</time>
      </trkpt>
      <trkpt lat="49.17086" lon="6.98321">
        <ele>337</ele>
        <time>2011-05-08T06:50:12Z</time>
      </trkpt>
      <trkpt lat="49.17085" lon="6.98323">
        <ele>337</ele>
        <time>2011-05-08T06:50:13Z</time>
      </trkpt>
      <trkpt lat="49.17083" lon="6.98325">
        <ele>337</ele>
        <time>2011-05-08T06:50:15Z</time>
      </trkpt>
      <trkpt lat="49.17082" lon="6.98328">
        <ele>337</ele>
        <time>2011-05-08T06:50:17Z</time>
      </trkpt>
      <trkpt lat="49.1708" lon="6.98331">
        <ele>337</ele>
        <time>2011-05-08T06:50:19Z</time>
      </trkpt>
      <trkpt lat="49.17079" lon="6.98333">
        <ele>337</ele>
        <time>2011-05-08T06:50:20Z</time>
      </trkpt>
      <trkpt lat="49.17077" lon="6.98336">
        <ele>337</ele>
        <time>2011-05-08T06:50:22Z</time>
      </trkpt>
      <trkpt lat="49.17076" lon="6.98339">
        <ele>337</ele>
        <time>2011-05-08T06:50:24Z</time>
      </trkpt>
      <trkpt lat="49.17075" lon="6.9834">
        <ele>337</ele>
        <time>2011-05-08T06:50:25Z</time>
      </trkpt>
      <trkpt lat="49.17073" lon="6.98344">
        <ele>337</ele>
        <time>2011-05-08T06:50:27Z</time>
      </trkpt>
      <trkpt lat="49.17071" lon="6.98347">
        <ele>337</ele>
        <time>2011-05-08T06:50:29Z</time>
      </trkpt>
      <trkpt lat="49.1707" lon="6.98348">
        <ele>337</ele>
        <time>2011-05-08T06:50:30Z</time>
      </trkpt>
      <trkpt lat="49.17068" lon="6.98351">
        <ele>337</ele>
        <time>2011-05-08T06:50:32Z</time>
      </trkpt>
      <trkpt lat="49.17067" lon="6.98353">
        <ele>337</ele>
        <time>2011-05-08T06:50:33Z</time>
      </trkpt>
      <trkpt lat="49.17067" lon="6.98355">
        <ele>337</ele>
        <time>2011-05-08T06:50:34Z</time>
      </trkpt>
      <trkpt lat="49.17065" lon="6.98358">
        <ele>337</ele>
        <time>2011-05-08T06:50:36Z</time>
      </trkpt>
      <trkpt lat="49.17063" lon="6.98361">
        <ele>337</ele>
        <time>2011-05-08T06:50:38Z</time>
      </trkpt>
      <trkpt lat="49.17062" lon="6.98362">
        <ele>337</ele>
        <time>2011-05-08T06:50:39Z</time>
      </trkpt>
      <trkpt lat="49.17061" lon="6.98364">
        <ele>337</ele>
        <time>2011-05-08T06:50:40Z</time>
      </trkpt>
      <trkpt lat="49.17059" lon="6.98367">
        <ele>337</ele>
        <time>2011-05-08T06:50:42Z</time>
      </trkpt>
      <trkpt lat="49.17058" lon="6.98369">
        <ele>337</ele>
        <time>2011-05-08T06:50:43Z</time>
      </trkpt>
      <trkpt lat="49.17056" lon="6.98372">
        <ele>338</ele>
        <time>2011-05-08T06:50:45Z</time>
      </trkpt>
      <trkpt lat="49.17055" lon="6.98373">
        <ele>338</ele>
        <time>2011-05-08T06:50:46Z</time>
      </trkpt>
      <trkpt lat="49.17054" lon="6.98375">
        <ele>338</ele>
        <time>2011-05-08T06:50:47Z</time>
      </trkpt>
      <trkpt lat="49.17054" lon="6.98377">
        <ele>338</ele>
        <time>2011-05-08T06:50:48Z</time>
      </trkpt>
      <trkpt lat="49.17052" lon="6.9838">
        <ele>338</ele>
        <time>2011-05-08T06:50:50Z</time>
      </trkpt>
      <trkpt lat="49.1705" lon="6.98383">
        <ele>338</ele>
        <time>2011-05-08T06:50:52Z</time>
      </trkpt>
      <trkpt lat="49.1705" lon="6.98385">
        <ele>338</ele>
        <time>2011-05-08T06:50:53Z</time>
      </trkpt>
      <trkpt lat="49.17048" lon="6.98388">
        <ele>338</ele>
        <time>2011-05-08T06:50:55Z</time>
      </trkpt>
      <trkpt lat="49.17046" lon="6.98391">
        <ele>338</ele>
        <time>2011-05-08T06:50:57Z</time>
      </trkpt>
      <trkpt lat="49.17044" lon="6.98394">
        <ele>338</ele>
        <time>2011-05-08T06:50:59Z</time>
      </trkpt>
      <trkpt lat="49.17042" lon="6.98397">
        <ele>338</ele>
        <time>2011-05-08T06:51:01Z</time>
      </trkpt>
      <trkpt lat="49.17041" lon="6.984">
        <ele>338</ele>
        <time>2011-05-08T06:51:03Z</time>
      </trkpt>
      <trkpt lat="49.17039" lon="6.98403">
        <ele>338</ele>
        <time>2011-05-08T06:51:05Z</time>
      </trkpt>
      <trkpt lat="49.17038" lon="6.98406">
        <ele>338</ele>
        <time>2011-05-08T06:51:07Z</time>
      </trkpt>
      <trkpt lat="49.17037" lon="6.98408">
        <ele>338</ele>
        <time>2011-05-08T06:51:08Z</time>
      </trkpt>
      <trkpt lat="49.17035" lon="6.98411">
        <ele>338</ele>
        <time>2011-05-08T06:51:10Z</time>
      </trkpt>
      <trkpt lat="49.17034" lon="6.98412">
        <ele>338</ele>
        <time>2011-05-08T06:51:11Z</time>
      </trkpt>
      <trkpt lat="49.17033" lon="6.98414">
        <ele>338</ele>
        <time>2011-05-08T06:51:12Z</time>
      </trkpt>
      <trkpt lat="49.17033" lon="6.98416">
        <ele>338</ele>
        <time>2011-05-08T06:51:13Z</time>
      </trkpt>
      <trkpt lat="49.17032" lon="6.98418">
        <ele>338</ele>
        <time>2011-05-08T06:51:14Z</time>
      </trkpt>
      <trkpt lat="49.17031" lon="6.9842">
        <ele>338</ele>
        <time>2011-05-08T06:51:15Z</time>
      </trkpt>
      <trkpt lat="49.1703" lon="6.98423">
        <ele>338</ele>
        <time>2011-05-08T06:51:17Z</time>
      </trkpt>
      <trkpt lat="49.17028" lon="6.98426">
        <ele>338</ele>
        <time>2011-05-08T06:51:19Z</time>
      </trkpt>
      <trkpt lat="49.17028" lon="6.98427">
        <ele>338</ele>
        <time>2011-05-08T06:51:20Z</time>
      </trkpt>
      <trkpt lat="49.17027" lon="6.98429">
        <ele>338</ele>
        <time>2011-05-08T06:51:21Z</time>
      </trkpt>
      <trkpt lat="49.17026" lon="6.98431">
        <ele>338</ele>
        <time>2011-05-08T06:51:22Z</time>
      </trkpt>
      <trkpt lat="49.17025" lon="6.98434">
        <ele>338</ele>
        <time>2011-05-08T06:51:24Z</time>
      </trkpt>
      <trkpt lat="49.17024" lon="6.98436">
        <ele>338</ele>
        <time>2011-05-08T06:51:25Z</time>
      </trkpt>
      <trkpt lat="49.17024" lon="6.98438">
        <ele>338</ele>
        <time>2011-05-08T06:51:26Z</time>
      </trkpt>
      <trkpt lat="49.17023" lon="6.9844">
        <ele>338</ele>
        <time>2011-05-08T06:51:27Z</time>
      </trkpt>
      <trkpt lat="49.17022" lon="6.98443">
        <ele>338</ele>
        <time>2011-05-08T06:51:29Z</time>
      </trkpt>
      <trkpt lat="49.17021" lon="6.98446">
        <ele>338</ele>
        <time>2011-05-08T06:51:31Z</time>
      </trkpt>
      <trkpt lat="49.1702" lon="6.98449">
        <ele>338</ele>
        <time>2011-05-08T06:51:33Z</time>
      </trkpt>
      <trkpt lat="49.17019" lon="6.9845">
        <ele>338</ele>
        <time>2011-05-08T06:51:34Z</time>
      </trkpt>
      <trkpt lat="49.17018" lon="6.98452">
        <ele>338</ele>
        <time>2011-05-08T06:51:35Z</time>
      </trkpt>
      <trkpt lat="49.17017" lon="6.98454">
        <ele>338</ele>
        <time>2011-05-08T06:51:36Z</time>
      </trkpt>
      <trkpt lat="49.17017" lon="6.98456">
        <ele>338</ele>
        <time>2011-05-08T06:51:37Z</time>
      </trkpt>
      <trkpt lat="49.17015" lon="6.98458">
        <ele>338</ele>
        <time>2011-05-08T06:51:39Z</time>
      </trkpt>
      <trkpt lat="49.17015" lon="6.9846">
        <ele>338</ele>
        <time>2011-05-08T06:51:40Z</time>
      </trkpt>
      <trkpt lat="49.17014" lon="6.98462">
        <ele>338</ele>
        <time>2011-05-08T06:51:41Z</time>
      </trkpt>
      <trkpt lat="49.17013" lon="6.98463">
        <ele>338</ele>
        <time>2011-05-08T06:51:42Z</time>
      </trkpt>
      <trkpt lat="49.17013" lon="6.98465">
        <ele>338</ele>
        <time>2011-05-08T06:51:43Z</time>
      </trkpt>
      <trkpt lat="49.17012" lon="6.98467">
        <ele>338</ele>
        <time>2011-05-08T06:51:44Z</time>
      </trkpt>
      <trkpt lat="49.17011" lon="6.98469">
        <ele>338</ele>
        <time>2011-05-08T06:51:45Z</time>
      </trkpt>
      <trkpt lat="49.17011" lon="6.9847">
        <ele>338</ele>
        <time>2011-05-08T06:51:46Z</time>
      </trkpt>
      <trkpt lat="49.1701" lon="6.98472">
        <ele>338</ele>
        <time>2011-05-08T06:51:47Z</time>
      </trkpt>
      <trkpt lat="49.17009" lon="6.98475">
        <ele>338</ele>
        <time>2011-05-08T06:51:49Z</time>
      </trkpt>
      <trkpt lat="49.17008" lon="6.98478">
        <ele>338</ele>
        <time>2011-05-08T06:51:51Z</time>
      </trkpt>
      <trkpt lat="49.17007" lon="6.9848">
        <ele>338</ele>
        <time>2011-05-08T06:51:52Z</time>
      </trkpt>
      <trkpt lat="49.17007" lon="6.98482">
        <ele>338</ele>
        <time>2011-05-08T06:51:53Z</time>
      </trkpt>
      <trkpt lat="49.17006" lon="6.98484">
        <ele>338</ele>
        <time>2011-05-08T06:51:54Z</time>
      </trkpt>
      <trkpt lat="49.17005" lon="6.98485">
        <ele>338</ele>
        <time>2011-05-08T06:51:55Z</time>
      </trkpt>
      <trkpt lat="49.17004" lon="6.98487">
        <ele>338</ele>
        <time>2011-05-08T06:51:56Z</time>
      </trkpt>
      <trkpt lat="49.17004" lon="6.98489">
        <ele>338</ele>
        <time>2011-05-08T06:51:57Z</time>
      </trkpt>
      <trkpt lat="49.17003" lon="6.9849">
        <ele>338</ele>
        <time>2011-05-08T06:51:58Z</time>
      </trkpt>
      <trkpt lat="49.17002" lon="6.98492">
        <ele>338</ele>
        <time>2011-05-08T06:51:59Z</time>
      </trkpt>
      <trkpt lat="49.17001" lon="6.98495">
        <ele>338</ele>
        <time>2011-05-08T06:52:01Z</time>
      </trkpt>
      <trkpt lat="49.16999" lon="6.98497">
        <ele>338</ele>
        <time>2011-05-08T06:52:02Z</time>
      </trkpt>
      <trkpt lat="49.16999" lon="6.98499">
        <ele>338</ele>
        <time>2011-05-08T06:52:03Z</time>
      </trkpt>
      <trkpt lat="49.16998" lon="6.98501">
        <ele>338</ele>
        <time>2011-05-08T06:52:04Z</time>
      </trkpt>
      <trkpt lat="49.16997" lon="6.98503">
        <ele>338</ele>
        <time>2011-05-08T06:52:05Z</time>
      </trkpt>
      <trkpt lat="49.16997" lon="6.98504">
        <ele>338</ele>
        <time>2011-05-08T06:52:06Z</time>
      </trkpt>
      <trkpt lat="49.16996" lon="6.98506">
        <ele>338</ele>
        <time>2011-05-08T06:52:07Z</time>
      </trkpt>
      <trkpt lat="49.16994" lon="6.9851">
        <ele>338</ele>
        <time>2011-05-08T06:52:09Z</time>
      </trkpt>
      <trkpt lat="49.16993" lon="6.98511">
        <ele>338</ele>
        <time>2011-05-08T06:52:10Z</time>
      </trkpt>
      <trkpt lat="49.16993" lon="6.98513">
        <ele>338</ele>
        <time>2011-05-08T06:52:11Z</time>
      </trkpt>
      <trkpt lat="49.16992" lon="6.98515">
        <ele>338</ele>
        <time>2011-05-08T06:52:12Z</time>
      </trkpt>
      <trkpt lat="49.16991" lon="6.98516">
        <ele>338</ele>
        <time>2011-05-08T06:52:13Z</time>
      </trkpt>
      <trkpt lat="49.1699" lon="6.98518">
        <ele>338</ele>
        <time>2011-05-08T06:52:14Z</time>
      </trkpt>
      <trkpt lat="49.16989" lon="6.9852">
        <ele>338</ele>
        <time>2011-05-08T06:52:15Z</time>
      </trkpt>
      <trkpt lat="49.16988" lon="6.98521">
        <ele>338</ele>
        <time>2011-05-08T06:52:16Z</time>
      </trkpt>
      <trkpt lat="49.16988" lon="6.98523">
        <ele>338</ele>
        <time>2011-05-08T06:52:17Z</time>
      </trkpt>
      <trkpt lat="49.16987" lon="6.98525">
        <ele>338</ele>
        <time>2011-05-08T06:52:18Z</time>
      </trkpt>
      <trkpt lat="49.16986" lon="6.98526">
        <ele>338</ele>
        <time>2011-05-08T06:52:19Z</time>
      </trkpt>
      <trkpt lat="49.16985" lon="6.98528">
        <ele>338</ele>
        <time>2011-05-08T06:52:20Z</time>
      </trkpt>
      <trkpt lat="49.16985" lon="6.9853">
        <ele>338</ele>
        <time>2011-05-08T06:52:21Z</time>
      </trkpt>
      <trkpt lat="49.16984" lon="6.98532">
        <ele>338</ele>
        <time>2011-05-08T06:52:22Z</time>
      </trkpt>
      <trkpt lat="49.16983" lon="6.98533">
        <ele>338</ele>
        <time>2011-05-08T06:52:23Z</time>
      </trkpt>
      <trkpt lat="49.16982" lon="6.98536">
        <ele>338</ele>
        <time>2011-05-08T06:52:25Z</time>
      </trkpt>
      <trkpt lat="49.16981" lon="6.98538">
        <ele>338</ele>
        <time>2011-05-08T06:52:26Z</time>
      </trkpt>
      <trkpt lat="49.1698" lon="6.9854">
        <ele>338</ele>
        <time>2011-05-08T06:52:27Z</time>
      </trkpt>
      <trkpt lat="49.1698" lon="6.98542">
        <ele>338</ele>
        <time>2011-05-08T06:52:28Z</time>
      </trkpt>
      <trkpt lat="49.16978" lon="6.98546">
        <ele>338</ele>
        <time>2011-05-08T06:52:30Z</time>
      </trkpt>
      <trkpt lat="49.16977" lon="6.98547">
        <ele>338</ele>
        <time>2011-05-08T06:52:31Z</time>
      </trkpt>
      <trkpt lat="49.16976" lon="6.9855">
        <ele>338</ele>
        <time>2011-05-08T06:52:33Z</time>
      </trkpt>
      <trkpt lat="49.16975" lon="6.98554">
        <ele>338</ele>
        <time>2011-05-08T06:52:35Z</time>
      </trkpt>
      <trkpt lat="49.16974" lon="6.98555">
        <ele>338</ele>
        <time>2011-05-08T06:52:36Z</time>
      </trkpt>
      <trkpt lat="49.16973" lon="6.98557">
        <ele>338</ele>
        <time>2011-05-08T06:52:37Z</time>
      </trkpt>
      <trkpt lat="49.16973" lon="6.98559">
        <ele>338</ele>
        <time>2011-05-08T06:52:39Z</time>
      </trkpt>
      <trkpt lat="49.16972" lon="6.98561">
        <ele>338</ele>
        <time>2011-05-08T06:52:41Z</time>
      </trkpt>
      <trkpt lat="49.16971" lon="6.98561">
        <ele>338</ele>
        <time>2011-05-08T06:53:37Z</time>
      </trkpt>
      <trkpt lat="49.1697" lon="6.98563">
        <ele>338</ele>
        <time>2011-05-08T06:53:59Z</time>
      </trkpt>
      <trkpt lat="49.1697" lon="6.98565">
        <ele>338</ele>
        <time>2011-05-08T06:54:43Z</time>
      </trkpt>
      <trkpt lat="49.16971" lon="6.98568">
        <ele>338</ele>
        <time>2011-05-08T06:54:46Z</time>
      </trkpt>
      <trkpt lat="49.16972" lon="6.9857">
        <ele>338</ele>
        <time>2011-05-08T06:54:47Z</time>
      </trkpt>
      <trkpt lat="49.16971" lon="6.98568">
        <ele>338</ele>
        <time>2011-05-08T06:54:54Z</time>
      </trkpt>
      <trkpt lat="49.1697" lon="6.98565">
        <ele>338</ele>
        <time>2011-05-08T06:54:56Z</time>
      </trkpt>
      <trkpt lat="49.1697" lon="6.98564">
        <ele>338</ele>
        <time>2011-05-08T06:54:58Z</time>
      </trkpt>
      <trkpt lat="49.16971" lon="6.98566">
        <ele>338</ele>
        <time>2011-05-08T06:55:18Z</time>
      </trkpt>
      <trkpt lat="49.16971" lon="6.98568">
        <ele>338</ele>
        <time>2011-05-08T06:55:27Z</time>
      </trkpt>
      <trkpt lat="49.16972" lon="6.9857">
        <ele>338</ele>
        <time>2011-05-08T06:55:29Z</time>
      </trkpt>
      <trkpt lat="49.16972" lon="6.98567">
        <ele>338</ele>
        <time>2011-05-08T06:55:43Z</time>
      </trkpt>
      <trkpt lat="49.16971" lon="6.98565">
        <ele>338</ele>
        <time>2011-05-08T06:55:45Z</time>
      </trkpt>
      <trkpt lat="49.1697" lon="6.98565">
        <ele>338</ele>
        <time>2011-05-08T06:57:33Z</time>
      </trkpt>
      <trkpt lat="49.16969" lon="6.98567">
        <ele>338</ele>
        <time>2011-05-08T06:57:36Z</time>
      </trkpt>
      <trkpt lat="49.16969" lon="6.98569">
        <ele>338</ele>
        <time>2011-05-08T06:57:38Z</time>
      </trkpt>
      <trkpt lat="49.16967" lon="6.98572">
        <ele>338</ele>
        <time>2011-05-08T06:57:40Z</time>
      </trkpt>
      <trkpt lat="49.16966" lon="6.98574">
        <ele>338</ele>
        <time>2011-05-08T06:57:42Z</time>
      </trkpt>
      <trkpt lat="49.16965" lon="6.98577">
        <ele>338</ele>
        <time>2011-05-08T06:57:44Z</time>
      </trkpt>
      <trkpt lat="49.16965" lon="6.98579">
        <ele>338</ele>
        <time>2011-05-08T06:57:45Z</time>
      </trkpt>
      <trkpt lat="49.16964" lon="6.98582">
        <ele>338</ele>
        <time>2011-05-08T06:57:47Z</time>
      </trkpt>
      <trkpt lat="49.16962" lon="6.98585">
        <ele>338</ele>
        <time>2011-05-08T06:57:49Z</time>
      </trkpt>
      <trkpt lat="49.16961" lon="6.98587">
        <ele>338</ele>
        <time>2011-05-08T06:57:51Z</time>
      </trkpt>
      <trkpt lat="49.1696" lon="6.9859">
        <ele>338</ele>
        <time>2011-05-08T06:57:53Z</time>
      </trkpt>
      <trkpt lat="49.16958" lon="6.98593">
        <ele>338</ele>
        <time>2011-05-08T06:57:55Z</time>
      </trkpt>
      <trkpt lat="49.16957" lon="6.98596">
        <ele>338</ele>
        <time>2011-05-08T06:57:57Z</time>
      </trkpt>
      <trkpt lat="49.16956" lon="6.98598">
        <ele>338</ele>
        <time>2011-05-08T06:57:59Z</time>
      </trkpt>
      <trkpt lat="49.16955" lon="6.986">
        <ele>338</ele>
        <time>2011-05-08T06:58:01Z</time>
      </trkpt>
      <trkpt lat="49.16954" lon="6.98603">
        <ele>338</ele>
        <time>2011-05-08T06:58:03Z</time>
      </trkpt>
      <trkpt lat="49.16953" lon="6.98606">
        <ele>338</ele>
        <time>2011-05-08T06:58:05Z</time>
      </trkpt>
      <trkpt lat="49.16953" lon="6.98608">
        <ele>338</ele>
        <time>2011-05-08T06:58:06Z</time>
      </trkpt>
      <trkpt lat="49.16952" lon="6.9861">
        <ele>338</ele>
        <time>2011-05-08T06:58:07Z</time>
      </trkpt>
      <trkpt lat="49.16951" lon="6.98612">
        <ele>338</ele>
        <time>2011-05-08T06:58:08Z</time>
      </trkpt>
      <trkpt lat="49.16951" lon="6.98614">
        <ele>338</ele>
        <time>2011-05-08T06:58:09Z</time>
      </trkpt>
      <trkpt lat="49.1695" lon="6.98616">
        <ele>338</ele>
        <time>2011-05-08T06:58:10Z</time>
      </trkpt>
      <trkpt lat="49.1695" lon="6.98617">
        <ele>338</ele>
        <time>2011-05-08T06:58:11Z</time>
      </trkpt>
      <trkpt lat="49.16949" lon="6.9862">
        <ele>337</ele>
        <time>2011-05-08T06:58:13Z</time>
      </trkpt>
      <trkpt lat="49.16948" lon="6.98623">
        <ele>337</ele>
        <time>2011-05-08T06:58:15Z</time>
      </trkpt>
      <trkpt lat="49.16946" lon="6.98626">
        <ele>337</ele>
        <time>2011-05-08T06:58:17Z</time>
      </trkpt>
      <trkpt lat="49.16946" lon="6.98627">
        <ele>336</ele>
        <time>2011-05-08T06:58:18Z</time>
      </trkpt>
      <trkpt lat="49.16945" lon="6.98629">
        <ele>336</ele>
        <time>2011-05-08T06:58:19Z</time>
      </trkpt>
      <trkpt lat="49.16944" lon="6.98632">
        <ele>336</ele>
        <time>2011-05-08T06:58:21Z</time>
      </trkpt>
      <trkpt lat="49.16943" lon="6.98635">
        <ele>336</ele>
        <time>2011-05-08T06:58:23Z</time>
      </trkpt>
      <trkpt lat="49.16942" lon="6.98638">
        <ele>336</ele>
        <time>2011-05-08T06:58:25Z</time>
      </trkpt>
      <trkpt lat="49.16941" lon="6.9864">
        <ele>336</ele>
        <time>2011-05-08T06:58:26Z</time>
      </trkpt>
      <trkpt lat="49.16941" lon="6.98642">
        <ele>336</ele>
        <time>2011-05-08T06:58:27Z</time>
      </trkpt>
      <trkpt lat="49.1694" lon="6.98643">
        <ele>336</ele>
        <time>2011-05-08T06:58:28Z</time>
      </trkpt>
      <trkpt lat="49.16939" lon="6.98645">
        <ele>336</ele>
        <time>2011-05-08T06:58:29Z</time>
      </trkpt>
      <trkpt lat="49.16938" lon="6.98648">
        <ele>336</ele>
        <time>2011-05-08T06:58:31Z</time>
      </trkpt>
      <trkpt lat="49.16937" lon="6.9865">
        <ele>336</ele>
        <time>2011-05-08T06:58:32Z</time>
      </trkpt>
      <trkpt lat="49.16936" lon="6.98652">
        <ele>336</ele>
        <time>2011-05-08T06:58:33Z</time>
      </trkpt>
      <trkpt lat="49.16934" lon="6.98655">
        <ele>336</ele>
        <time>2011-05-08T06:58:35Z</time>
      </trkpt>
      <trkpt lat="49.16934" lon="6.98657">
        <ele>336</ele>
        <time>2011-05-08T06:58:36Z</time>
      </trkpt>
      <trkpt lat="49.16933" lon="6.98658">
        <ele>336</ele>
        <time>2011-05-08T06:58:37Z</time>
      </trkpt>
      <trkpt lat="49.16931" lon="6.98662">
        <ele>336</ele>
        <time>2011-05-08T06:58:39Z</time>
      </trkpt>
      <trkpt lat="49.1693" lon="6.98663">
        <ele>336</ele>
        <time>2011-05-08T06:58:40Z</time>
      </trkpt>
      <trkpt lat="49.16929" lon="6.98665">
        <ele>336</ele>
        <time>2011-05-08T06:58:41Z</time>
      </trkpt>
      <trkpt lat="49.16928" lon="6.98667">
        <ele>336</ele>
        <time>2011-05-08T06:58:42Z</time>
      </trkpt>
      <trkpt lat="49.16927" lon="6.98668">
        <ele>336</ele>
        <time>2011-05-08T06:58:43Z</time>
      </trkpt>
      <trkpt lat="49.16927" lon="6.9867">
        <ele>336</ele>
        <time>2011-05-08T06:58:44Z</time>
      </trkpt>
      <trkpt lat="49.16926" lon="6.98672">
        <ele>336</ele>
        <time>2011-05-08T06:58:45Z</time>
      </trkpt>
      <trkpt lat="49.16925" lon="6.98674">
        <ele>336</ele>
        <time>2011-05-08T06:58:46Z</time>
      </trkpt>
      <trkpt lat="49.16924" lon="6.98676">
        <ele>336</ele>
        <time>2011-05-08T06:58:47Z</time>
      </trkpt>
      <trkpt lat="49.16923" lon="6.98677">
        <ele>336</ele>
        <time>2011-05-08T06:58:48Z</time>
      </trkpt>
      <trkpt lat="49.16922" lon="6.98679">
        <ele>336</ele>
        <time>2011-05-08T06:58:49Z</time>
      </trkpt>
      <trkpt lat="49.16922" lon="6.98681">
        <ele>336</ele>
        <time>2011-05-08T06:58:50Z</time>
      </trkpt>
      <trkpt lat="49.16921" lon="6.98682">
        <ele>336</ele>
        <time>2011-05-08T06:58:51Z</time>
      </trkpt>
      <trkpt lat="49.1692" lon="6.98684">
        <ele>336</ele>
        <time>2011-05-08T06:58:52Z</time>
      </trkpt>
      <trkpt lat="49.16919" lon="6.98686">
        <ele>336</ele>
        <time>2011-05-08T06:58:53Z</time>
      </trkpt>
      <trkpt lat="49.16919" lon="6.98688">
        <ele>336</ele>
        <time>2011-05-08T06:58:54Z</time>
      </trkpt>
      <trkpt lat="49.16918" lon="6.98689">
        <ele>336</ele>
        <time>2011-05-08T06:58:55Z</time>
      </trkpt>
      <trkpt lat="49.16917" lon="6.98691">
        <ele>336</ele>
        <time>2011-05-08T06:58:56Z</time>
      </trkpt>
      <trkpt lat="49.16917" lon="6.98693">
        <ele>336</ele>
        <time>2011-05-08T06:58:57Z</time>
      </trkpt>
      <trkpt lat="49.16916" lon="6.98694">
        <ele>336</ele>
        <time>2011-05-08T06:58:58Z</time>
      </trkpt>
      <trkpt lat="49.16915" lon="6.98696">
        <ele>336</ele>
        <time>2011-05-08T06:58:59Z</time>
      </trkpt>
      <trkpt lat="49.16915" lon="6.98698">
        <ele>336</ele>
        <time>2011-05-08T06:59:00Z</time>
      </trkpt>
      <trkpt lat="49.16914" lon="6.987">
        <ele>336</ele>
        <time>2011-05-08T06:59:01Z</time>
      </trkpt>
      <trkpt lat="49.16913" lon="6.98702">
        <ele>336</ele>
        <time>2011-05-08T06:59:03Z</time>
      </trkpt>
      <trkpt lat="49.16911" lon="6.98705">
        <ele>336</ele>
        <time>2011-05-08T06:59:05Z</time>
      </trkpt>
      <trkpt lat="49.1691" lon="6.98708">
        <ele>336</ele>
        <time>2011-05-08T06:59:07Z</time>
      </trkpt>
      <trkpt lat="49.16909" lon="6.9871">
        <ele>336</ele>
        <time>2011-05-08T06:59:08Z</time>
      </trkpt>
      <trkpt lat="49.16907" lon="6.98713">
        <ele>336</ele>
        <time>2011-05-08T06:59:10Z</time>
      </trkpt>
      <trkpt lat="49.16906" lon="6.98716">
        <ele>336</ele>
        <time>2011-05-08T06:59:12Z</time>
      </trkpt>
      <trkpt lat="49.16904" lon="6.98719">
        <ele>336</ele>
        <time>2011-05-08T06:59:14Z</time>
      </trkpt>
      <trkpt lat="49.16903" lon="6.98721">
        <ele>336</ele>
        <time>2011-05-08T06:59:15Z</time>
      </trkpt>
      <trkpt lat="49.16902" lon="6.98724">
        <ele>336</ele>
        <time>2011-05-08T06:59:17Z</time>
      </trkpt>
      <trkpt lat="49.169" lon="6.98727">
        <ele>336</ele>
        <time>2011-05-08T06:59:19Z</time>
      </trkpt>
      <trkpt lat="49.16898" lon="6.9873">
        <ele>336</ele>
        <time>2011-05-08T06:59:21Z</time>
      </trkpt>
      <trkpt lat="49.16898" lon="6.98732">
        <ele>336</ele>
        <time>2011-05-08T06:59:22Z</time>
      </trkpt>
      <trkpt lat="49.16897" lon="6.98734">
        <ele>336</ele>
        <time>2011-05-08T06:59:23Z</time>
      </trkpt>
      <trkpt lat="49.16896" lon="6.98736">
        <ele>336</ele>
        <time>2011-05-08T06:59:24Z</time>
      </trkpt>
      <trkpt lat="49.16895" lon="6.98738">
        <ele>336</ele>
        <time>2011-05-08T06:59:25Z</time>
      </trkpt>
      <trkpt lat="49.16895" lon="6.98739">
        <ele>336</ele>
        <time>2011-05-08T06:59:26Z</time>
      </trkpt>
      <trkpt lat="49.16893" lon="6.98742">
        <ele>336</ele>
        <time>2011-05-08T06:59:28Z</time>
      </trkpt>
      <trkpt lat="49.16891" lon="6.98745">
        <ele>336</ele>
        <time>2011-05-08T06:59:30Z</time>
      </trkpt>
      <trkpt lat="49.1689" lon="6.98748">
        <ele>336</ele>
        <time>2011-05-08T06:59:32Z</time>
      </trkpt>
      <trkpt lat="49.16888" lon="6.98751">
        <ele>336</ele>
        <time>2011-05-08T06:59:34Z</time>
      </trkpt>
      <trkpt lat="49.16887" lon="6.98753">
        <ele>336</ele>
        <time>2011-05-08T06:59:35Z</time>
      </trkpt>
      <trkpt lat="49.16887" lon="6.98755">
        <ele>336</ele>
        <time>2011-05-08T06:59:36Z</time>
      </trkpt>
      <trkpt lat="49.16886" lon="6.98757">
        <ele>336</ele>
        <time>2011-05-08T06:59:37Z</time>
      </trkpt>
      <trkpt lat="49.16885" lon="6.98759">
        <ele>336</ele>
        <time>2011-05-08T06:59:38Z</time>
      </trkpt>
      <trkpt lat="49.16884" lon="6.98761">
        <ele>336</ele>
        <time>2011-05-08T06:59:40Z</time>
      </trkpt>
      <trkpt lat="49.16883" lon="6.98763">
        <ele>336</ele>
        <time>2011-05-08T06:59:41Z</time>
      </trkpt>
      <trkpt lat="49.16882" lon="6.98765">
        <ele>336</ele>
        <time>2011-05-08T06:59:42Z</time>
      </trkpt>
      <trkpt lat="49.16881" lon="6.98768">
        <ele>336</ele>
        <time>2011-05-08T06:59:44Z</time>
      </trkpt>
      <trkpt lat="49.16879" lon="6.98771">
        <ele>336</ele>
        <time>2011-05-08T06:59:46Z</time>
      </trkpt>
      <trkpt lat="49.16879" lon="6.98773">
        <ele>336</ele>
        <time>2011-05-08T06:59:47Z</time>
      </trkpt>
      <trkpt lat="49.16877" lon="6.98776">
        <ele>336</ele>
        <time>2011-05-08T06:59:49Z</time>
      </trkpt>
      <trkpt lat="49.16876" lon="6.98779">
        <ele>336</ele>
        <time>2011-05-08T06:59:51Z</time>
      </trkpt>
      <trkpt lat="49.16875" lon="6.9878">
        <ele>336</ele>
        <time>2011-05-08T06:59:52Z</time>
      </trkpt>
      <trkpt lat="49.16874" lon="6.98782">
        <ele>336</ele>
        <time>2011-05-08T06:59:53Z</time>
      </trkpt>
      <trkpt lat="49.16874" lon="6.98784">
        <ele>336</ele>
        <time>2011-05-08T06:59:54Z</time>
      </trkpt>
      <trkpt lat="49.16872" lon="6.98787">
        <ele>336</ele>
        <time>2011-05-08T06:59:56Z</time>
      </trkpt>
      <trkpt lat="49.16871" lon="6.98789">
        <ele>336</ele>
        <time>2011-05-08T06:59:57Z</time>
      </trkpt>
      <trkpt lat="49.16871" lon="6.98791">
        <ele>336</ele>
        <time>2011-05-08T06:59:58Z</time>
      </trkpt>
      <trkpt lat="49.1687" lon="6.98792">
        <ele>336</ele>
        <time>2011-05-08T06:59:59Z</time>
      </trkpt>
      <trkpt lat="49.16869" lon="6.98795">
        <ele>336</ele>
        <time>2011-05-08T07:00:01Z</time>
      </trkpt>
      <trkpt lat="49.16868" lon="6.98798">
        <ele>336</ele>
        <time>2011-05-08T07:00:03Z</time>
      </trkpt>
      <trkpt lat="49.16867" lon="6.988">
        <ele>336</ele>
        <time>2011-05-08T07:00:04Z</time>
      </trkpt>
      <trkpt lat="49.16866" lon="6.98802">
        <ele>336</ele>
        <time>2011-05-08T07:00:05Z</time>
      </trkpt>
      <trkpt lat="49.16866" lon="6.98803">
        <ele>336</ele>
        <time>2011-05-08T07:00:06Z</time>
      </trkpt>
      <trkpt lat="49.16865" lon="6.98805">
        <ele>336</ele>
        <time>2011-05-08T07:00:07Z</time>
      </trkpt>
      <trkpt lat="49.16865" lon="6.98807">
        <ele>336</ele>
        <time>2011-05-08T07:00:08Z</time>
      </trkpt>
      <trkpt lat="49.16864" lon="6.9881">
        <ele>336</ele>
        <time>2011-05-08T07:00:10Z</time>
      </trkpt>
      <trkpt lat="49.16863" lon="6.98811">
        <ele>336</ele>
        <time>2011-05-08T07:00:11Z</time>
      </trkpt>
      <trkpt lat="49.16862" lon="6.98813">
        <ele>336</ele>
        <time>2011-05-08T07:00:12Z</time>
      </trkpt>
      <trkpt lat="49.16861" lon="6.98815">
        <ele>336</ele>
        <time>2011-05-08T07:00:13Z</time>
      </trkpt>
      <trkpt lat="49.16861" lon="6.98817">
        <ele>336</ele>
        <time>2011-05-08T07:00:14Z</time>
      </trkpt>
      <trkpt lat="49.1686" lon="6.98818">
        <ele>336</ele>
        <time>2011-05-08T07:00:15Z</time>
      </trkpt>
      <trkpt lat="49.16859" lon="6.9882">
        <ele>336</ele>
        <time>2011-05-08T07:00:16Z</time>
      </trkpt>
      <trkpt lat="49.16859" lon="6.98822">
        <ele>336</ele>
        <time>2011-05-08T07:00:17Z</time>
      </trkpt>
      <trkpt lat="49.16858" lon="6.98824">
        <ele>336</ele>
        <time>2011-05-08T07:00:18Z</time>
      </trkpt>
      <trkpt lat="49.16857" lon="6.98826">
        <ele>336</ele>
        <time>2011-05-08T07:00:19Z</time>
      </trkpt>
      <trkpt lat="49.16856" lon="6.98827">
        <ele>336</ele>
        <time>2011-05-08T07:00:20Z</time>
      </trkpt>
      <trkpt lat="49.16856" lon="6.98829">
        <ele>336</ele>
        <time>2011-05-08T07:00:21Z</time>
      </trkpt>
      <trkpt lat="49.16854" lon="6.98832">
        <ele>336</ele>
        <time>2011-05-08T07:00:23Z</time>
      </trkpt>
      <trkpt lat="49.16853" lon="6.98835">
        <ele>336</ele>
        <time>2011-05-08T07:00:25Z</time>
      </trkpt>
      <trkpt lat="49.16852" lon="6.98837">
        <ele>336</ele>
        <time>2011-05-08T07:00:26Z</time>
      </trkpt>
      <trkpt lat="49.16851" lon="6.98839">
        <ele>336</ele>
        <time>2011-05-08T07:00:27Z</time>
      </trkpt>
      <trkpt lat="49.16851" lon="6.9884">
        <ele>336</ele>
        <time>2011-05-08T07:00:28Z</time>
      </trkpt>
      <trkpt lat="49.1685" lon="6.98842">
        <ele>336</ele>
        <time>2011-05-08T07:00:29Z</time>
      </trkpt>
      <trkpt lat="49.16849" lon="6.98844">
        <ele>336</ele>
        <time>2011-05-08T07:00:30Z</time>
      </trkpt>
      <trkpt lat="49.16848" lon="6.98846">
        <ele>336</ele>
        <time>2011-05-08T07:00:31Z</time>
      </trkpt>
      <trkpt lat="49.16847" lon="6.98847">
        <ele>336</ele>
        <time>2011-05-08T07:00:32Z</time>
      </trkpt>
      <trkpt lat="49.16846" lon="6.98849">
        <ele>336</ele>
        <time>2011-05-08T07:00:33Z</time>
      </trkpt>
      <trkpt lat="49.16846" lon="6.98851">
        <ele>336</ele>
        <time>2011-05-08T07:00:34Z</time>
      </trkpt>
      <trkpt lat="49.16845" lon="6.98852">
        <ele>336</ele>
        <time>2011-05-08T07:00:35Z</time>
      </trkpt>
      <trkpt lat="49.16845" lon="6.98854">
        <ele>336</ele>
        <time>2011-05-08T07:00:36Z</time>
      </trkpt>
      <trkpt lat="49.16843" lon="6.98856">
        <ele>336</ele>
        <time>2011-05-08T07:00:38Z</time>
      </trkpt>
      <trkpt lat="49.16842" lon="6.9886">
        <ele>336</ele>
        <time>2011-05-08T07:00:40Z</time>
      </trkpt>
      <trkpt lat="49.16841" lon="6.98861">
        <ele>336</ele>
        <time>2011-05-08T07:00:41Z</time>
      </trkpt>
      <trkpt lat="49.1684" lon="6.98863">
        <ele>336</ele>
        <time>2011-05-08T07:00:42Z</time>
      </trkpt>
      <trkpt lat="49.1684" lon="6.98865">
        <ele>336</ele>
        <time>2011-05-08T07:00:43Z</time>
      </trkpt>
      <trkpt lat="49.16839" lon="6.98866">
        <ele>336</ele>
        <time>2011-05-08T07:00:44Z</time>
      </trkpt>
      <trkpt lat="49.16838" lon="6.98868">
        <ele>336</ele>
        <time>2011-05-08T07:00:45Z</time>
      </trkpt>
      <trkpt lat="49.16837" lon="6.9887">
        <ele>336</ele>
        <time>2011-05-08T07:00:46Z</time>
      </trkpt>
      <trkpt lat="49.16835" lon="6.98871">
        <ele>336</ele>
        <time>2011-05-08T07:00:47Z</time>
      </trkpt>
      <trkpt lat="49.16833" lon="6.98872">
        <ele>336</ele>
        <time>2011-05-08T07:00:48Z</time>
      </trkpt>
      <trkpt lat="49.16832" lon="6.98874">
        <ele>336</ele>
        <time>2011-05-08T07:00:49Z</time>
      </trkpt>
      <trkpt lat="49.16831" lon="6.98877">
        <ele>336</ele>
        <time>2011-05-08T07:00:51Z</time>
      </trkpt>
      <trkpt lat="49.1683" lon="6.98879">
        <ele>336</ele>
        <time>2011-05-08T07:00:52Z</time>
      </trkpt>
      <trkpt lat="49.16829" lon="6.98881">
        <ele>336</ele>
        <time>2011-05-08T07:00:53Z</time>
      </trkpt>
      <trkpt lat="49.16828" lon="6.98884">
        <ele>336</ele>
        <time>2011-05-08T07:00:55Z</time>
      </trkpt>
      <trkpt lat="49.16827" lon="6.98885">
        <ele>336</ele>
        <time>2011-05-08T07:00:56Z</time>
      </trkpt>
      <trkpt lat="49.16826" lon="6.98887">
        <ele>336</ele>
        <time>2011-05-08T07:00:57Z</time>
      </trkpt>
      <trkpt lat="49.16826" lon="6.98889">
        <ele>336</ele>
        <time>2011-05-08T07:00:58Z</time>
      </trkpt>
      <trkpt lat="49.16825" lon="6.9889">
        <ele>336</ele>
        <time>2011-05-08T07:00:59Z</time>
      </trkpt>
      <trkpt lat="49.16824" lon="6.98892">
        <ele>336</ele>
        <time>2011-05-08T07:01:00Z</time>
      </trkpt>
      <trkpt lat="49.16824" lon="6.98894">
        <ele>336</ele>
        <time>2011-05-08T07:01:01Z</time>
      </trkpt>
      <trkpt lat="49.16823" lon="6.98896">
        <ele>336</ele>
        <time>2011-05-08T07:01:02Z</time>
      </trkpt>
      <trkpt lat="49.16822" lon="6.98898">
        <ele>336</ele>
        <time>2011-05-08T07:01:03Z</time>
      </trkpt>
      <trkpt lat="49.16821" lon="6.98899">
        <ele>336</ele>
        <time>2011-05-08T07:01:04Z</time>
      </trkpt>
      <trkpt lat="49.16821" lon="6.98901">
        <ele>336</ele>
        <time>2011-05-08T07:01:05Z</time>
      </trkpt>
      <trkpt lat="49.1682" lon="6.98903">
        <ele>336</ele>
        <time>2011-05-08T07:01:06Z</time>
      </trkpt>
      <trkpt lat="49.16819" lon="6.98905">
        <ele>336</ele>
        <time>2011-05-08T07:01:07Z</time>
      </trkpt>
      <trkpt lat="49.16818" lon="6.98906">
        <ele>336</ele>
        <time>2011-05-08T07:01:08Z</time>
      </trkpt>
      <trkpt lat="49.16817" lon="6.98908">
        <ele>336</ele>
        <time>2011-05-08T07:01:09Z</time>
      </trkpt>
      <trkpt lat="49.16817" lon="6.9891">
        <ele>336</ele>
        <time>2011-05-08T07:01:10Z</time>
      </trkpt>
      <trkpt lat="49.16816" lon="6.98912">
        <ele>336</ele>
        <time>2011-05-08T07:01:11Z</time>
      </trkpt>
      <trkpt lat="49.16815" lon="6.98913">
        <ele>336</ele>
        <time>2011-05-08T07:01:12Z</time>
      </trkpt>
      <trkpt lat="49.16814" lon="6.98915">
        <ele>336</ele>
        <time>2011-05-08T07:01:13Z</time>
      </trkpt>
      <trkpt lat="49.16814" lon="6.98917">
        <ele>336</ele>
        <time>2011-05-08T07:01:14Z</time>
      </trkpt>
      <trkpt lat="49.16812" lon="6.9892">
        <ele>335</ele>
        <time>2011-05-08T07:01:16Z</time>
      </trkpt>
      <trkpt lat="49.16811" lon="6.98923">
        <ele>335</ele>
        <time>2011-05-08T07:01:18Z</time>
      </trkpt>
      <trkpt lat="49.16811" lon="6.98925">
        <ele>335</ele>
        <time>2011-05-08T07:01:19Z</time>
      </trkpt>
      <trkpt lat="49.1681" lon="6.98927">
        <ele>335</ele>
        <time>2011-05-08T07:01:20Z</time>
      </trkpt>
      <trkpt lat="49.16809" lon="6.98928">
        <ele>335</ele>
        <time>2011-05-08T07:01:21Z</time>
      </trkpt>
      <trkpt lat="49.16809" lon="6.9893">
        <ele>335</ele>
        <time>2011-05-08T07:01:22Z</time>
      </trkpt>
      <trkpt lat="49.16808" lon="6.98932">
        <ele>335</ele>
        <time>2011-05-08T07:01:23Z</time>
      </trkpt>
      <trkpt lat="49.16807" lon="6.98934">
        <ele>335</ele>
        <time>2011-05-08T07:01:24Z</time>
      </trkpt>
      <trkpt lat="49.16806" lon="6.98935">
        <ele>335</ele>
        <time>2011-05-08T07:01:25Z</time>
      </trkpt>
      <trkpt lat="49.16806" lon="6.98937">
        <ele>334</ele>
        <time>2011-05-08T07:01:26Z</time>
      </trkpt>
      <trkpt lat="49.16805" lon="6.98939">
        <ele>334</ele>
        <time>2011-05-08T07:01:27Z</time>
      </trkpt>
      <trkpt lat="49.16805" lon="6.9894">
        <ele>334</ele>
        <time>2011-05-08T07:01:28Z</time>
      </trkpt>
      <trkpt lat="49.16804" lon="6.98942">
        <ele>334</ele>
        <time>2011-05-08T07:01:29Z</time>
      </trkpt>
      <trkpt lat="49.16803" lon="6.98945">
        <ele>334</ele>
        <time>2011-05-08T07:01:31Z</time>
      </trkpt>
      <trkpt lat="49.16801" lon="6.98948">
        <ele>334</ele>
        <time>2011-05-08T07:01:33Z</time>
      </trkpt>
      <trkpt lat="49.16801" lon="6.9895">
        <ele>333</ele>
        <time>2011-05-08T07:01:34Z</time>
      </trkpt>
      <trkpt lat="49.168" lon="6.98952">
        <ele>333</ele>
        <time>2011-05-08T07:01:35Z</time>
      </trkpt>
      <trkpt lat="49.16799" lon="6.98953">
        <ele>333</ele>
        <time>2011-05-08T07:01:36Z</time>
      </trkpt>
      <trkpt lat="49.16799" lon="6.98955">
        <ele>333</ele>
        <time>2011-05-08T07:01:37Z</time>
      </trkpt>
      <trkpt lat="49.16798" lon="6.98958">
        <ele>333</ele>
        <time>2011-05-08T07:01:39Z</time>
      </trkpt>
      <trkpt lat="49.16797" lon="6.9896">
        <ele>333</ele>
        <time>2011-05-08T07:01:40Z</time>
      </trkpt>
      <trkpt lat="49.16796" lon="6.98962">
        <ele>333</ele>
        <time>2011-05-08T07:01:41Z</time>
      </trkpt>
      <trkpt lat="49.16795" lon="6.98963">
        <ele>333</ele>
        <time>2011-05-08T07:01:42Z</time>
      </trkpt>
      <trkpt lat="49.16795" lon="6.98965">
        <ele>333</ele>
        <time>2011-05-08T07:01:43Z</time>
      </trkpt>
      <trkpt lat="49.16794" lon="6.98967">
        <ele>333</ele>
        <time>2011-05-08T07:01:44Z</time>
      </trkpt>
      <trkpt lat="49.16793" lon="6.98969">
        <ele>333</ele>
        <time>2011-05-08T07:01:45Z</time>
      </trkpt>
      <trkpt lat="49.16793" lon="6.9897">
        <ele>333</ele>
        <time>2011-05-08T07:01:46Z</time>
      </trkpt>
      <trkpt lat="49.16792" lon="6.98972">
        <ele>333</ele>
        <time>2011-05-08T07:01:47Z</time>
      </trkpt>
      <trkpt lat="49.16791" lon="6.98974">
        <ele>333</ele>
        <time>2011-05-08T07:01:48Z</time>
      </trkpt>
      <trkpt lat="49.1679" lon="6.98976">
        <ele>333</ele>
        <time>2011-05-08T07:01:49Z</time>
      </trkpt>
      <trkpt lat="49.1679" lon="6.98977">
        <ele>333</ele>
        <time>2011-05-08T07:01:50Z</time>
      </trkpt>
      <trkpt lat="49.16788" lon="6.9898">
        <ele>333</ele>
        <time>2011-05-08T07:01:52Z</time>
      </trkpt>
      <trkpt lat="49.16787" lon="6.98983">
        <ele>333</ele>
        <time>2011-05-08T07:01:54Z</time>
      </trkpt>
      <trkpt lat="49.16785" lon="6.98986">
        <ele>333</ele>
        <time>2011-05-08T07:01:56Z</time>
      </trkpt>
      <trkpt lat="49.16784" lon="6.98988">
        <ele>333</ele>
        <time>2011-05-08T07:01:57Z</time>
      </trkpt>
      <trkpt lat="49.16782" lon="6.98991">
        <ele>333</ele>
        <time>2011-05-08T07:01:59Z</time>
      </trkpt>
      <trkpt lat="49.16781" lon="6.98994">
        <ele>333</ele>
        <time>2011-05-08T07:02:00Z</time>
      </trkpt>
      <trkpt lat="49.1678" lon="6.98996">
        <ele>333</ele>
        <time>2011-05-08T07:02:01Z</time>
      </trkpt>
      <trkpt lat="49.16779" lon="6.98999">
        <ele>333</ele>
        <time>2011-05-08T07:02:03Z</time>
      </trkpt>
      <trkpt lat="49.16778" lon="6.99001">
        <ele>333</ele>
        <time>2011-05-08T07:02:04Z</time>
      </trkpt>
      <trkpt lat="49.16776" lon="6.99003">
        <ele>333</ele>
        <time>2011-05-08T07:02:06Z</time>
      </trkpt>
      <trkpt lat="49.16775" lon="6.99006">
        <ele>333</ele>
        <time>2011-05-08T07:02:08Z</time>
      </trkpt>
      <trkpt lat="49.16774" lon="6.99008">
        <ele>333</ele>
        <time>2011-05-08T07:02:09Z</time>
      </trkpt>
      <trkpt lat="49.16774" lon="6.9901">
        <ele>333</ele>
        <time>2011-05-08T07:02:10Z</time>
      </trkpt>
      <trkpt lat="49.16773" lon="6.99012">
        <ele>333</ele>
        <time>2011-05-08T07:02:11Z</time>
      </trkpt>
      <trkpt lat="49.16772" lon="6.99013">
        <ele>333</ele>
        <time>2011-05-08T07:02:12Z</time>
      </trkpt>
      <trkpt lat="49.16771" lon="6.99016">
        <ele>333</ele>
        <time>2011-05-08T07:02:14Z</time>
      </trkpt>
      <trkpt lat="49.1677" lon="6.99019">
        <ele>333</ele>
        <time>2011-05-08T07:02:16Z</time>
      </trkpt>
      <trkpt lat="49.16769" lon="6.99021">
        <ele>333</ele>
        <time>2011-05-08T07:02:17Z</time>
      </trkpt>
      <trkpt lat="49.16768" lon="6.99023">
        <ele>333</ele>
        <time>2011-05-08T07:02:18Z</time>
      </trkpt>
      <trkpt lat="49.16768" lon="6.99025">
        <ele>333</ele>
        <time>2011-05-08T07:02:19Z</time>
      </trkpt>
      <trkpt lat="49.16767" lon="6.99027">
        <ele>333</ele>
        <time>2011-05-08T07:02:20Z</time>
      </trkpt>
      <trkpt lat="49.16766" lon="6.9903">
        <ele>333</ele>
        <time>2011-05-08T07:02:22Z</time>
      </trkpt>
      <trkpt lat="49.16764" lon="6.99033">
        <ele>333</ele>
        <time>2011-05-08T07:02:24Z</time>
      </trkpt>
      <trkpt lat="49.16764" lon="6.99035">
        <ele>333</ele>
        <time>2011-05-08T07:02:25Z</time>
      </trkpt>
      <trkpt lat="49.16763" lon="6.99037">
        <ele>333</ele>
        <time>2011-05-08T07:02:26Z</time>
      </trkpt>
      <trkpt lat="49.16762" lon="6.9904">
        <ele>333</ele>
        <time>2011-05-08T07:02:28Z</time>
      </trkpt>
      <trkpt lat="49.16761" lon="6.99041">
        <ele>333</ele>
        <time>2011-05-08T07:02:29Z</time>
      </trkpt>
      <trkpt lat="49.1676" lon="6.99043">
        <ele>333</ele>
        <time>2011-05-08T07:02:30Z</time>
      </trkpt>
      <trkpt lat="49.16758" lon="6.99046">
        <ele>333</ele>
        <time>2011-05-08T07:02:32Z</time>
      </trkpt>
      <trkpt lat="49.16757" lon="6.99049">
        <ele>333</ele>
        <time>2011-05-08T07:02:34Z</time>
      </trkpt>
      <trkpt lat="49.16756" lon="6.99052">
        <ele>333</ele>
        <time>2011-05-08T07:02:36Z</time>
      </trkpt>
      <trkpt lat="49.16755" lon="6.99053">
        <ele>333</ele>
        <time>2011-05-08T07:02:37Z</time>
      </trkpt>
      <trkpt lat="49.16754" lon="6.99055">
        <ele>333</ele>
        <time>2011-05-08T07:02:38Z</time>
      </trkpt>
      <trkpt lat="49.16753" lon="6.99057">
        <ele>333</ele>
        <time>2011-05-08T07:02:39Z</time>
      </trkpt>
      <trkpt lat="49.16752" lon="6.9906">
        <ele>333</ele>
        <time>2011-05-08T07:02:41Z</time>
      </trkpt>
      <trkpt lat="49.16751" lon="6.99062">
        <ele>333</ele>
        <time>2011-05-08T07:02:42Z</time>
      </trkpt>
      <trkpt lat="49.1675" lon="6.99064">
        <ele>333</ele>
        <time>2011-05-08T07:02:43Z</time>
      </trkpt>
      <trkpt lat="49.16749" lon="6.99065">
        <ele>333</ele>
        <time>2011-05-08T07:02:44Z</time>
      </trkpt>
      <trkpt lat="49.16748" lon="6.99067">
        <ele>333</ele>
        <time>2011-05-08T07:02:45Z</time>
      </trkpt>
      <trkpt lat="49.16748" lon="6.99069">
        <ele>333</ele>
        <time>2011-05-08T07:02:46Z</time>
      </trkpt>
      <trkpt lat="49.16746" lon="6.99072">
        <ele>333</ele>
        <time>2011-05-08T07:02:48Z</time>
      </trkpt>
      <trkpt lat="49.16745" lon="6.99074">
        <ele>333</ele>
        <time>2011-05-08T07:02:49Z</time>
      </trkpt>
      <trkpt lat="49.16745" lon="6.99076">
        <ele>333</ele>
        <time>2011-05-08T07:02:50Z</time>
      </trkpt>
      <trkpt lat="49.16744" lon="6.99077">
        <ele>333</ele>
        <time>2011-05-08T07:02:51Z</time>
      </trkpt>
      <trkpt lat="49.16743" lon="6.99079">
        <ele>333</ele>
        <time>2011-05-08T07:02:52Z</time>
      </trkpt>
      <trkpt lat="49.16742" lon="6.99081">
        <ele>333</ele>
        <time>2011-05-08T07:02:53Z</time>
      </trkpt>
      <trkpt lat="49.16742" lon="6.99082">
        <ele>333</ele>
        <time>2011-05-08T07:02:54Z</time>
      </trkpt>
      <trkpt lat="49.16741" lon="6.99085">
        <ele>333</ele>
        <time>2011-05-08T07:02:56Z</time>
      </trkpt>
      <trkpt lat="49.16739" lon="6.99088">
        <ele>333</ele>
        <time>2011-05-08T07:02:58Z</time>
      </trkpt>
      <trkpt lat="49.16739" lon="6.99089">
        <ele>333</ele>
        <time>2011-05-08T07:02:59Z</time>
      </trkpt>
      <trkpt lat="49.16738" lon="6.99091">
        <ele>333</ele>
        <time>2011-05-08T07:03:00Z</time>
      </trkpt>
      <trkpt lat="49.16737" lon="6.99093">
        <ele>333</ele>
        <time>2011-05-08T07:03:01Z</time>
      </trkpt>
      <trkpt lat="49.16736" lon="6.99094">
        <ele>333</ele>
        <time>2011-05-08T07:03:02Z</time>
      </trkpt>
      <trkpt lat="49.16735" lon="6.99097">
        <ele>333</ele>
        <time>2011-05-08T07:03:04Z</time>
      </trkpt>
      <trkpt lat="49.16734" lon="6.991">
        <ele>333</ele>
        <time>2011-05-08T07:03:06Z</time>
      </trkpt>
      <trkpt lat="49.16732" lon="6.99104">
        <ele>333</ele>
        <time>2011-05-08T07:03:08Z</time>
      </trkpt>
      <trkpt lat="49.16732" lon="6.99105">
        <ele>333</ele>
        <time>2011-05-08T07:03:09Z</time>
      </trkpt>
      <trkpt lat="49.16731" lon="6.99107">
        <ele>333</ele>
        <time>2011-05-08T07:03:10Z</time>
      </trkpt>
      <trkpt lat="49.1673" lon="6.99109">
        <ele>333</ele>
        <time>2011-05-08T07:03:11Z</time>
      </trkpt>
      <trkpt lat="49.16729" lon="6.99111">
        <ele>333</ele>
        <time>2011-05-08T07:03:12Z</time>
      </trkpt>
      <trkpt lat="49.16728" lon="6.99112">
        <ele>333</ele>
        <time>2011-05-08T07:03:13Z</time>
      </trkpt>
      <trkpt lat="49.16727" lon="6.99115">
        <ele>333</ele>
        <time>2011-05-08T07:03:15Z</time>
      </trkpt>
      <trkpt lat="49.16726" lon="6.99117">
        <ele>333</ele>
        <time>2011-05-08T07:03:16Z</time>
      </trkpt>
      <trkpt lat="49.16725" lon="6.9912">
        <ele>333</ele>
        <time>2011-05-08T07:03:18Z</time>
      </trkpt>
      <trkpt lat="49.16724" lon="6.99122">
        <ele>333</ele>
        <time>2011-05-08T07:03:19Z</time>
      </trkpt>
      <trkpt lat="49.16722" lon="6.99125">
        <ele>333</ele>
        <time>2011-05-08T07:03:21Z</time>
      </trkpt>
      <trkpt lat="49.16722" lon="6.99126">
        <ele>333</ele>
        <time>2011-05-08T07:03:22Z</time>
      </trkpt>
      <trkpt lat="49.16721" lon="6.99128">
        <ele>333</ele>
        <time>2011-05-08T07:03:23Z</time>
      </trkpt>
      <trkpt lat="49.1672" lon="6.9913">
        <ele>333</ele>
        <time>2011-05-08T07:03:24Z</time>
      </trkpt>
      <trkpt lat="49.16719" lon="6.99133">
        <ele>333</ele>
        <time>2011-05-08T07:03:26Z</time>
      </trkpt>
      <trkpt lat="49.16717" lon="6.99136">
        <ele>333</ele>
        <time>2011-05-08T07:03:28Z</time>
      </trkpt>
      <trkpt lat="49.16715" lon="6.99139">
        <ele>333</ele>
        <time>2011-05-08T07:03:30Z</time>
      </trkpt>
      <trkpt lat="49.16714" lon="6.99142">
        <ele>333</ele>
        <time>2011-05-08T07:03:32Z</time>
      </trkpt>
      <trkpt lat="49.16713" lon="6.99144">
        <ele>333</ele>
        <time>2011-05-08T07:03:33Z</time>
      </trkpt>
      <trkpt lat="49.16712" lon="6.99145">
        <ele>333</ele>
        <time>2011-05-08T07:03:34Z</time>
      </trkpt>
      <trkpt lat="49.16711" lon="6.99148">
        <ele>333</ele>
        <time>2011-05-08T07:03:36Z</time>
      </trkpt>
      <trkpt lat="49.16709" lon="6.99151">
        <ele>333</ele>
        <time>2011-05-08T07:03:38Z</time>
      </trkpt>
      <trkpt lat="49.16708" lon="6.99153">
        <ele>333</ele>
        <time>2011-05-08T07:03:39Z</time>
      </trkpt>
      <trkpt lat="49.16707" lon="6.99156">
        <ele>333</ele>
        <time>2011-05-08T07:03:41Z</time>
      </trkpt>
      <trkpt lat="49.16705" lon="6.99159">
        <ele>333</ele>
        <time>2011-05-08T07:03:43Z</time>
      </trkpt>
      <trkpt lat="49.16704" lon="6.99162">
        <ele>333</ele>
        <time>2011-05-08T07:03:45Z</time>
      </trkpt>
      <trkpt lat="49.16703" lon="6.99164">
        <ele>333</ele>
        <time>2011-05-08T07:03:46Z</time>
      </trkpt>
      <trkpt lat="49.16703" lon="6.99165">
        <ele>333</ele>
        <time>2011-05-08T07:03:47Z</time>
      </trkpt>
      <trkpt lat="49.16701" lon="6.99168">
        <ele>333</ele>
        <time>2011-05-08T07:03:49Z</time>
      </trkpt>
      <trkpt lat="49.167" lon="6.99171">
        <ele>333</ele>
        <time>2011-05-08T07:03:51Z</time>
      </trkpt>
      <trkpt lat="49.16698" lon="6.99174">
        <ele>333</ele>
        <time>2011-05-08T07:03:53Z</time>
      </trkpt>
      <trkpt lat="49.16697" lon="6.99178">
        <ele>333</ele>
        <time>2011-05-08T07:03:55Z</time>
      </trkpt>
      <trkpt lat="49.16696" lon="6.9918">
        <ele>333</ele>
        <time>2011-05-08T07:03:56Z</time>
      </trkpt>
      <trkpt lat="49.16695" lon="6.99181">
        <ele>333</ele>
        <time>2011-05-08T07:03:57Z</time>
      </trkpt>
      <trkpt lat="49.16695" lon="6.99183">
        <ele>333</ele>
        <time>2011-05-08T07:03:58Z</time>
      </trkpt>
      <trkpt lat="49.16694" lon="6.99185">
        <ele>333</ele>
        <time>2011-05-08T07:03:59Z</time>
      </trkpt>
      <trkpt lat="49.16693" lon="6.99187">
        <ele>332</ele>
        <time>2011-05-08T07:04:00Z</time>
      </trkpt>
      <trkpt lat="49.16693" lon="6.99188">
        <ele>332</ele>
        <time>2011-05-08T07:04:01Z</time>
      </trkpt>
      <trkpt lat="49.16691" lon="6.99191">
        <ele>332</ele>
        <time>2011-05-08T07:04:03Z</time>
      </trkpt>
      <trkpt lat="49.1669" lon="6.99194">
        <ele>332</ele>
        <time>2011-05-08T07:04:05Z</time>
      </trkpt>
      <trkpt lat="49.16689" lon="6.99196">
        <ele>332</ele>
        <time>2011-05-08T07:04:06Z</time>
      </trkpt>
      <trkpt lat="49.16689" lon="6.99198">
        <ele>332</ele>
        <time>2011-05-08T07:04:07Z</time>
      </trkpt>
      <trkpt lat="49.16688" lon="6.99199">
        <ele>332</ele>
        <time>2011-05-08T07:04:08Z</time>
      </trkpt>
      <trkpt lat="49.16687" lon="6.99201">
        <ele>332</ele>
        <time>2011-05-08T07:04:09Z</time>
      </trkpt>
      <trkpt lat="49.16687" lon="6.99203">
        <ele>331</ele>
        <time>2011-05-08T07:04:10Z</time>
      </trkpt>
      <trkpt lat="49.16686" lon="6.99204">
        <ele>331</ele>
        <time>2011-05-08T07:04:11Z</time>
      </trkpt>
      <trkpt lat="49.16684" lon="6.99207">
        <ele>331</ele>
        <time>2011-05-08T07:04:13Z</time>
      </trkpt>
      <trkpt lat="49.16683" lon="6.99211">
        <ele>331</ele>
        <time>2011-05-08T07:04:15Z</time>
      </trkpt>
      <trkpt lat="49.16682" lon="6.99213">
        <ele>331</ele>
        <time>2011-05-08T07:04:16Z</time>
      </trkpt>
      <trkpt lat="49.16682" lon="6.99214">
        <ele>331</ele>
        <time>2011-05-08T07:04:17Z</time>
      </trkpt>
      <trkpt lat="49.1668" lon="6.99217">
        <ele>331</ele>
        <time>2011-05-08T07:04:19Z</time>
      </trkpt>
      <trkpt lat="49.1668" lon="6.99219">
        <ele>331</ele>
        <time>2011-05-08T07:04:20Z</time>
      </trkpt>
      <trkpt lat="49.16679" lon="6.99222">
        <ele>330</ele>
        <time>2011-05-08T07:04:22Z</time>
      </trkpt>
      <trkpt lat="49.16678" lon="6.99224">
        <ele>330</ele>
        <time>2011-05-08T07:04:23Z</time>
      </trkpt>
      <trkpt lat="49.16677" lon="6.99225">
        <ele>330</ele>
        <time>2011-05-08T07:04:24Z</time>
      </trkpt>
      <trkpt lat="49.16676" lon="6.99228">
        <ele>330</ele>
        <time>2011-05-08T07:04:26Z</time>
      </trkpt>
      <trkpt lat="49.16675" lon="6.99231">
        <ele>330</ele>
        <time>2011-05-08T07:04:28Z</time>
      </trkpt>
      <trkpt lat="49.16674" lon="6.99233">
        <ele>330</ele>
        <time>2011-05-08T07:04:29Z</time>
      </trkpt>
      <trkpt lat="49.16674" lon="6.99235">
        <ele>330</ele>
        <time>2011-05-08T07:04:30Z</time>
      </trkpt>
      <trkpt lat="49.16673" lon="6.99236">
        <ele>329</ele>
        <time>2011-05-08T07:04:31Z</time>
      </trkpt>
      <trkpt lat="49.16673" lon="6.99238">
        <ele>329</ele>
        <time>2011-05-08T07:04:32Z</time>
      </trkpt>
      <trkpt lat="49.16674" lon="6.9924">
        <ele>329</ele>
        <time>2011-05-08T07:04:33Z</time>
      </trkpt>
      <trkpt lat="49.16675" lon="6.99243">
        <ele>329</ele>
        <time>2011-05-08T07:04:35Z</time>
      </trkpt>
      <trkpt lat="49.16677" lon="6.99245">
        <ele>329</ele>
        <time>2011-05-08T07:04:37Z</time>
      </trkpt>
      <trkpt lat="49.16678" lon="6.99246">
        <ele>329</ele>
        <time>2011-05-08T07:04:38Z</time>
      </trkpt>
      <trkpt lat="49.16679" lon="6.99247">
        <ele>329</ele>
        <time>2011-05-08T07:04:39Z</time>
      </trkpt>
      <trkpt lat="49.16681" lon="6.99248">
        <ele>329</ele>
        <time>2011-05-08T07:04:40Z</time>
      </trkpt>
      <trkpt lat="49.16682" lon="6.99249">
        <ele>329</ele>
        <time>2011-05-08T07:04:42Z</time>
      </trkpt>
      <trkpt lat="49.16684" lon="6.99251">
        <ele>329</ele>
        <time>2011-05-08T07:04:44Z</time>
      </trkpt>
      <trkpt lat="49.16687" lon="6.99252">
        <ele>329</ele>
        <time>2011-05-08T07:04:46Z</time>
      </trkpt>
      <trkpt lat="49.16688" lon="6.99253">
        <ele>329</ele>
        <time>2011-05-08T07:04:47Z</time>
      </trkpt>
      <trkpt lat="49.1669" lon="6.99254">
        <ele>329</ele>
        <time>2011-05-08T07:04:49Z</time>
      </trkpt>
      <trkpt lat="49.16691" lon="6.99255">
        <ele>329</ele>
        <time>2011-05-08T07:04:50Z</time>
      </trkpt>
      <trkpt lat="49.16692" lon="6.99255">
        <ele>329</ele>
        <time>2011-05-08T07:04:51Z</time>
      </trkpt>
      <trkpt lat="49.16695" lon="6.99257">
        <ele>329</ele>
        <time>2011-05-08T07:04:53Z</time>
      </trkpt>
      <trkpt lat="49.16697" lon="6.99258">
        <ele>329</ele>
        <time>2011-05-08T07:04:55Z</time>
      </trkpt>
      <trkpt lat="49.16698" lon="6.99259">
        <ele>329</ele>
        <time>2011-05-08T07:04:56Z</time>
      </trkpt>
      <trkpt lat="49.16699" lon="6.99259">
        <ele>329</ele>
        <time>2011-05-08T07:04:57Z</time>
      </trkpt>
      <trkpt lat="49.16701" lon="6.9926">
        <ele>329</ele>
        <time>2011-05-08T07:04:59Z</time>
      </trkpt>
      <trkpt lat="49.16702" lon="6.99261">
        <ele>329</ele>
        <time>2011-05-08T07:05:00Z</time>
      </trkpt>
      <trkpt lat="49.16704" lon="6.99262">
        <ele>329</ele>
        <time>2011-05-08T07:05:02Z</time>
      </trkpt>
      <trkpt lat="49.16706" lon="6.99263">
        <ele>329</ele>
        <time>2011-05-08T07:05:04Z</time>
      </trkpt>
      <trkpt lat="49.16707" lon="6.99263">
        <ele>329</ele>
        <time>2011-05-08T07:05:05Z</time>
      </trkpt>
      <trkpt lat="49.16709" lon="6.99264">
        <ele>329</ele>
        <time>2011-05-08T07:05:07Z</time>
      </trkpt>
      <trkpt lat="49.1671" lon="6.99265">
        <ele>329</ele>
        <time>2011-05-08T07:05:08Z</time>
      </trkpt>
      <trkpt lat="49.16712" lon="6.99266">
        <ele>329</ele>
        <time>2011-05-08T07:05:10Z</time>
      </trkpt>
      <trkpt lat="49.16713" lon="6.99266">
        <ele>329</ele>
        <time>2011-05-08T07:05:11Z</time>
      </trkpt>
      <trkpt lat="49.16716" lon="6.99267">
        <ele>329</ele>
        <time>2011-05-08T07:05:13Z</time>
      </trkpt>
      <trkpt lat="49.16718" lon="6.99268">
        <ele>329</ele>
        <time>2011-05-08T07:05:15Z</time>
      </trkpt>
      <trkpt lat="49.16719" lon="6.99269">
        <ele>329</ele>
        <time>2011-05-08T07:05:16Z</time>
      </trkpt>
      <trkpt lat="49.1672" lon="6.99269">
        <ele>329</ele>
        <time>2011-05-08T07:05:17Z</time>
      </trkpt>
      <trkpt lat="49.16722" lon="6.9927">
        <ele>329</ele>
        <time>2011-05-08T07:05:19Z</time>
      </trkpt>
      <trkpt lat="49.16724" lon="6.99272">
        <ele>329</ele>
        <time>2011-05-08T07:05:21Z</time>
      </trkpt>
      <trkpt lat="49.16726" lon="6.99273">
        <ele>329</ele>
        <time>2011-05-08T07:05:23Z</time>
      </trkpt>
      <trkpt lat="49.16728" lon="6.99274">
        <ele>329</ele>
        <time>2011-05-08T07:05:25Z</time>
      </trkpt>
      <trkpt lat="49.16729" lon="6.99274">
        <ele>329</ele>
        <time>2011-05-08T07:05:26Z</time>
      </trkpt>
      <trkpt lat="49.16732" lon="6.99275">
        <ele>329</ele>
        <time>2011-05-08T07:05:28Z</time>
      </trkpt>
      <trkpt lat="49.16733" lon="6.99276">
        <ele>329</ele>
        <time>2011-05-08T07:05:30Z</time>
      </trkpt>
      <trkpt lat="49.16734" lon="6.99277">
        <ele>329</ele>
        <time>2011-05-08T07:05:31Z</time>
      </trkpt>
      <trkpt lat="49.16737" lon="6.99278">
        <ele>329</ele>
        <time>2011-05-08T07:05:33Z</time>
      </trkpt>
      <trkpt lat="49.16739" lon="6.99279">
        <ele>329</ele>
        <time>2011-05-08T07:05:35Z</time>
      </trkpt>
      <trkpt lat="49.16741" lon="6.9928">
        <ele>329</ele>
        <time>2011-05-08T07:05:37Z</time>
      </trkpt>
      <trkpt lat="49.16742" lon="6.99281">
        <ele>329</ele>
        <time>2011-05-08T07:05:38Z</time>
      </trkpt>
      <trkpt lat="49.16743" lon="6.99281">
        <ele>329</ele>
        <time>2011-05-08T07:05:39Z</time>
      </trkpt>
      <trkpt lat="49.16745" lon="6.99282">
        <ele>329</ele>
        <time>2011-05-08T07:05:41Z</time>
      </trkpt>
      <trkpt lat="49.16747" lon="6.99283">
        <ele>329</ele>
        <time>2011-05-08T07:05:42Z</time>
      </trkpt>
      <trkpt lat="49.16748" lon="6.99283">
        <ele>329</ele>
        <time>2011-05-08T07:05:43Z</time>
      </trkpt>
      <trkpt lat="49.1675" lon="6.99284">
        <ele>329</ele>
        <time>2011-05-08T07:05:45Z</time>
      </trkpt>
      <trkpt lat="49.16751" lon="6.99285">
        <ele>329</ele>
        <time>2011-05-08T07:05:47Z</time>
      </trkpt>
      <trkpt lat="49.16753" lon="6.99286">
        <ele>329</ele>
        <time>2011-05-08T07:05:48Z</time>
      </trkpt>
      <trkpt lat="49.16754" lon="6.99286">
        <ele>329</ele>
        <time>2011-05-08T07:05:49Z</time>
      </trkpt>
      <trkpt lat="49.16755" lon="6.99287">
        <ele>329</ele>
        <time>2011-05-08T07:05:50Z</time>
      </trkpt>
      <trkpt lat="49.16756" lon="6.99288">
        <ele>329</ele>
        <time>2011-05-08T07:05:51Z</time>
      </trkpt>
      <trkpt lat="49.16758" lon="6.99289">
        <ele>330</ele>
        <time>2011-05-08T07:05:53Z</time>
      </trkpt>
      <trkpt lat="49.1676" lon="6.9929">
        <ele>330</ele>
        <time>2011-05-08T07:05:55Z</time>
      </trkpt>
      <trkpt lat="49.16762" lon="6.99291">
        <ele>330</ele>
        <time>2011-05-08T07:05:57Z</time>
      </trkpt>
      <trkpt lat="49.16763" lon="6.99291">
        <ele>330</ele>
        <time>2011-05-08T07:05:58Z</time>
      </trkpt>
      <trkpt lat="49.16765" lon="6.99292">
        <ele>330</ele>
        <time>2011-05-08T07:06:00Z</time>
      </trkpt>
      <trkpt lat="49.16768" lon="6.99293">
        <ele>331</ele>
        <time>2011-05-08T07:06:02Z</time>
      </trkpt>
      <trkpt lat="49.16769" lon="6.99294">
        <ele>331</ele>
        <time>2011-05-08T07:06:04Z</time>
      </trkpt>
      <trkpt lat="49.16771" lon="6.99295">
        <ele>331</ele>
        <time>2011-05-08T07:06:06Z</time>
      </trkpt>
      <trkpt lat="49.16773" lon="6.99296">
        <ele>331</ele>
        <time>2011-05-08T07:06:07Z</time>
      </trkpt>
      <trkpt lat="49.16774" lon="6.99296">
        <ele>331</ele>
        <time>2011-05-08T07:06:08Z</time>
      </trkpt>
      <trkpt lat="49.16776" lon="6.99298">
        <ele>331</ele>
        <time>2011-05-08T07:06:10Z</time>
      </trkpt>
      <trkpt lat="49.16778" lon="6.99299">
        <ele>331</ele>
        <time>2011-05-08T07:06:12Z</time>
      </trkpt>
      <trkpt lat="49.16779" lon="6.993">
        <ele>331</ele>
        <time>2011-05-08T07:06:14Z</time>
      </trkpt>
      <trkpt lat="49.1678" lon="6.993">
        <ele>331</ele>
        <time>2011-05-08T07:06:15Z</time>
      </trkpt>
      <trkpt lat="49.16782" lon="6.99301">
        <ele>331</ele>
        <time>2011-05-08T07:06:16Z</time>
      </trkpt>
      <trkpt lat="49.16783" lon="6.99301">
        <ele>331</ele>
        <time>2011-05-08T07:06:17Z</time>
      </trkpt>
      <trkpt lat="49.16785" lon="6.99302">
        <ele>332</ele>
        <time>2011-05-08T07:06:19Z</time>
      </trkpt>
      <trkpt lat="49.16787" lon="6.99303">
        <ele>332</ele>
        <time>2011-05-08T07:06:21Z</time>
      </trkpt>
      <trkpt lat="49.16788" lon="6.99303">
        <ele>333</ele>
        <time>2011-05-08T07:06:23Z</time>
      </trkpt>
      <trkpt lat="49.1679" lon="6.99305">
        <ele>333</ele>
        <time>2011-05-08T07:06:25Z</time>
      </trkpt>
      <trkpt lat="49.16792" lon="6.99306">
        <ele>333</ele>
        <time>2011-05-08T07:06:27Z</time>
      </trkpt>
      <trkpt lat="49.16793" lon="6.99306">
        <ele>333</ele>
        <time>2011-05-08T07:06:29Z</time>
      </trkpt>
      <trkpt lat="49.16795" lon="6.99307">
        <ele>333</ele>
        <time>2011-05-08T07:06:31Z</time>
      </trkpt>
      <trkpt lat="49.16797" lon="6.99308">
        <ele>333</ele>
        <time>2011-05-08T07:06:33Z</time>
      </trkpt>
      <trkpt lat="49.16799" lon="6.99309">
        <ele>333</ele>
        <time>2011-05-08T07:06:35Z</time>
      </trkpt>
      <trkpt lat="49.16801" lon="6.9931">
        <ele>333</ele>
        <time>2011-05-08T07:06:37Z</time>
      </trkpt>
      <trkpt lat="49.16803" lon="6.99311">
        <ele>334</ele>
        <time>2011-05-08T07:06:39Z</time>
      </trkpt>
      <trkpt lat="49.16805" lon="6.99312">
        <ele>334</ele>
        <time>2011-05-08T07:06:41Z</time>
      </trkpt>
      <trkpt lat="49.16807" lon="6.99313">
        <ele>334</ele>
        <time>2011-05-08T07:06:43Z</time>
      </trkpt>
      <trkpt lat="49.16809" lon="6.99314">
        <ele>334</ele>
        <time>2011-05-08T07:06:45Z</time>
      </trkpt>
      <trkpt lat="49.16811" lon="6.99315">
        <ele>334</ele>
        <time>2011-05-08T07:06:47Z</time>
      </trkpt>
      <trkpt lat="49.16813" lon="6.99316">
        <ele>334</ele>
        <time>2011-05-08T07:06:49Z</time>
      </trkpt>
      <trkpt lat="49.16815" lon="6.99317">
        <ele>334</ele>
        <time>2011-05-08T07:06:51Z</time>
      </trkpt>
      <trkpt lat="49.16817" lon="6.99318">
        <ele>334</ele>
        <time>2011-05-08T07:06:53Z</time>
      </trkpt>
      <trkpt lat="49.16819" lon="6.99319">
        <ele>335</ele>
        <time>2011-05-08T07:06:54Z</time>
      </trkpt>
      <trkpt lat="49.1682" lon="6.9932">
        <ele>335</ele>
        <time>2011-05-08T07:06:56Z</time>
      </trkpt>
      <trkpt lat="49.16822" lon="6.99321">
        <ele>335</ele>
        <time>2011-05-08T07:06:58Z</time>
      </trkpt>
      <trkpt lat="49.16824" lon="6.99322">
        <ele>335</ele>
        <time>2011-05-08T07:07:00Z</time>
      </trkpt>
      <trkpt lat="49.16826" lon="6.99323">
        <ele>335</ele>
        <time>2011-05-08T07:07:02Z</time>
      </trkpt>
      <trkpt lat="49.16828" lon="6.99324">
        <ele>335</ele>
        <time>2011-05-08T07:07:04Z</time>
      </trkpt>
      <trkpt lat="49.1683" lon="6.99325">
        <ele>335</ele>
        <time>2011-05-08T07:07:06Z</time>
      </trkpt>
      <trkpt lat="49.16832" lon="6.99326">
        <ele>335</ele>
        <time>2011-05-08T07:07:08Z</time>
      </trkpt>
      <trkpt lat="49.16834" lon="6.99327">
        <ele>335</ele>
        <time>2011-05-08T07:07:10Z</time>
      </trkpt>
      <trkpt lat="49.16836" lon="6.99329">
        <ele>335</ele>
        <time>2011-05-08T07:07:12Z</time>
      </trkpt>
      <trkpt lat="49.16837" lon="6.9933">
        <ele>335</ele>
        <time>2011-05-08T07:07:14Z</time>
      </trkpt>
      <trkpt lat="49.16839" lon="6.99331">
        <ele>335</ele>
        <time>2011-05-08T07:07:16Z</time>
      </trkpt>
      <trkpt lat="49.16841" lon="6.99332">
        <ele>335</ele>
        <time>2011-05-08T07:07:18Z</time>
      </trkpt>
      <trkpt lat="49.16843" lon="6.99333">
        <ele>336</ele>
        <time>2011-05-08T07:07:20Z</time>
      </trkpt>
      <trkpt lat="49.16844" lon="6.99333">
        <ele>336</ele>
        <time>2011-05-08T07:07:21Z</time>
      </trkpt>
      <trkpt lat="49.16846" lon="6.99334">
        <ele>336</ele>
        <time>2011-05-08T07:07:23Z</time>
      </trkpt>
      <trkpt lat="49.16848" lon="6.99335">
        <ele>336</ele>
        <time>2011-05-08T07:07:25Z</time>
      </trkpt>
      <trkpt lat="49.16849" lon="6.99336">
        <ele>336</ele>
        <time>2011-05-08T07:07:26Z</time>
      </trkpt>
      <trkpt lat="49.16851" lon="6.99337">
        <ele>336</ele>
        <time>2011-05-08T07:07:28Z</time>
      </trkpt>
      <trkpt lat="49.16853" lon="6.99338">
        <ele>336</ele>
        <time>2011-05-08T07:07:30Z</time>
      </trkpt>
      <trkpt lat="49.16855" lon="6.99339">
        <ele>336</ele>
        <time>2011-05-08T07:07:32Z</time>
      </trkpt>
      <trkpt lat="49.16857" lon="6.99341">
        <ele>336</ele>
        <time>2011-05-08T07:07:34Z</time>
      </trkpt>
      <trkpt lat="49.16859" lon="6.99342">
        <ele>336</ele>
        <time>2011-05-08T07:07:36Z</time>
      </trkpt>
      <trkpt lat="49.16861" lon="6.99344">
        <ele>336</ele>
        <time>2011-05-08T07:07:38Z</time>
      </trkpt>
      <trkpt lat="49.16862" lon="6.99346">
        <ele>336</ele>
        <time>2011-05-08T07:07:40Z</time>
      </trkpt>
      <trkpt lat="49.16864" lon="6.99347">
        <ele>336</ele>
        <time>2011-05-08T07:07:41Z</time>
      </trkpt>
      <trkpt lat="49.16866" lon="6.99349">
        <ele>336</ele>
        <time>2011-05-08T07:07:43Z</time>
      </trkpt>
      <trkpt lat="49.16868" lon="6.99351">
        <ele>336</ele>
        <time>2011-05-08T07:07:45Z</time>
      </trkpt>
      <trkpt lat="49.1687" lon="6.99352">
        <ele>336</ele>
        <time>2011-05-08T07:07:47Z</time>
      </trkpt>
      <trkpt lat="49.16872" lon="6.99354">
        <ele>336</ele>
        <time>2011-05-08T07:07:49Z</time>
      </trkpt>
      <trkpt lat="49.16874" lon="6.99356">
        <ele>336</ele>
        <time>2011-05-08T07:07:51Z</time>
      </trkpt>
      <trkpt lat="49.16875" lon="6.99358">
        <ele>336</ele>
        <time>2011-05-08T07:07:53Z</time>
      </trkpt>
      <trkpt lat="49.16877" lon="6.99359">
        <ele>336</ele>
        <time>2011-05-08T07:07:54Z</time>
      </trkpt>
      <trkpt lat="49.16878" lon="6.9936">
        <ele>336</ele>
        <time>2011-05-08T07:07:56Z</time>
      </trkpt>
      <trkpt lat="49.1688" lon="6.99362">
        <ele>336</ele>
        <time>2011-05-08T07:07:58Z</time>
      </trkpt>
      <trkpt lat="49.16882" lon="6.99364">
        <ele>336</ele>
        <time>2011-05-08T07:08:00Z</time>
      </trkpt>
      <trkpt lat="49.16884" lon="6.99365">
        <ele>336</ele>
        <time>2011-05-08T07:08:02Z</time>
      </trkpt>
      <trkpt lat="49.16885" lon="6.99366">
        <ele>336</ele>
        <time>2011-05-08T07:08:03Z</time>
      </trkpt>
      <trkpt lat="49.16887" lon="6.99367">
        <ele>336</ele>
        <time>2011-05-08T07:08:04Z</time>
      </trkpt>
      <trkpt lat="49.16888" lon="6.99367">
        <ele>336</ele>
        <time>2011-05-08T07:08:05Z</time>
      </trkpt>
      <trkpt lat="49.16889" lon="6.99368">
        <ele>336</ele>
        <time>2011-05-08T07:08:06Z</time>
      </trkpt>
      <trkpt lat="49.16891" lon="6.9937">
        <ele>336</ele>
        <time>2011-05-08T07:08:08Z</time>
      </trkpt>
      <trkpt lat="49.16893" lon="6.99371">
        <ele>336</ele>
        <time>2011-05-08T07:08:09Z</time>
      </trkpt>
      <trkpt lat="49.16894" lon="6.99372">
        <ele>336</ele>
        <time>2011-05-08T07:08:10Z</time>
      </trkpt>
      <trkpt lat="49.16895" lon="6.99373">
        <ele>336</ele>
        <time>2011-05-08T07:08:11Z</time>
      </trkpt>
      <trkpt lat="49.16897" lon="6.99374">
        <ele>336</ele>
        <time>2011-05-08T07:08:13Z</time>
      </trkpt>
      <trkpt lat="49.16898" lon="6.99375">
        <ele>336</ele>
        <time>2011-05-08T07:08:14Z</time>
      </trkpt>
      <trkpt lat="49.169" lon="6.99376">
        <ele>336</ele>
        <time>2011-05-08T07:08:15Z</time>
      </trkpt>
      <trkpt lat="49.16901" lon="6.99377">
        <ele>336</ele>
        <time>2011-05-08T07:08:16Z</time>
      </trkpt>
      <trkpt lat="49.16902" lon="6.99378">
        <ele>336</ele>
        <time>2011-05-08T07:08:17Z</time>
      </trkpt>
      <trkpt lat="49.16903" lon="6.9938">
        <ele>336</ele>
        <time>2011-05-08T07:08:19Z</time>
      </trkpt>
      <trkpt lat="49.16905" lon="6.99382">
        <ele>336</ele>
        <time>2011-05-08T07:08:21Z</time>
      </trkpt>
      <trkpt lat="49.16906" lon="6.99383">
        <ele>336</ele>
        <time>2011-05-08T07:08:22Z</time>
      </trkpt>
      <trkpt lat="49.16908" lon="6.99385">
        <ele>336</ele>
        <time>2011-05-08T07:08:24Z</time>
      </trkpt>
      <trkpt lat="49.1691" lon="6.99386">
        <ele>336</ele>
        <time>2011-05-08T07:08:26Z</time>
      </trkpt>
      <trkpt lat="49.16911" lon="6.99387">
        <ele>336</ele>
        <time>2011-05-08T07:08:27Z</time>
      </trkpt>
      <trkpt lat="49.16914" lon="6.99389">
        <ele>336</ele>
        <time>2011-05-08T07:08:29Z</time>
      </trkpt>
      <trkpt lat="49.16916" lon="6.99389">
        <ele>336</ele>
        <time>2011-05-08T07:08:31Z</time>
      </trkpt>
      <trkpt lat="49.16917" lon="6.9939">
        <ele>336</ele>
        <time>2011-05-08T07:08:32Z</time>
      </trkpt>
      <trkpt lat="49.16919" lon="6.9939">
        <ele>336</ele>
        <time>2011-05-08T07:08:33Z</time>
      </trkpt>
      <trkpt lat="49.1692" lon="6.99391">
        <ele>336</ele>
        <time>2011-05-08T07:08:34Z</time>
      </trkpt>
      <trkpt lat="49.16922" lon="6.9939">
        <ele>336</ele>
        <time>2011-05-08T07:08:36Z</time>
      </trkpt>
      <trkpt lat="49.16923" lon="6.99392">
        <ele>336</ele>
        <time>2011-05-08T07:08:38Z</time>
      </trkpt>
      <trkpt lat="49.16925" lon="6.99392">
        <ele>337</ele>
        <time>2011-05-08T07:08:40Z</time>
      </trkpt>
      <trkpt lat="49.16927" lon="6.99391">
        <ele>338</ele>
        <time>2011-05-08T07:08:42Z</time>
      </trkpt>
      <trkpt lat="49.16928" lon="6.9939">
        <ele>340</ele>
        <time>2011-05-08T07:08:44Z</time>
      </trkpt>
      <trkpt lat="49.1693" lon="6.99389">
        <ele>340</ele>
        <time>2011-05-08T07:08:45Z</time>
      </trkpt>
      <trkpt lat="49.16931" lon="6.99389">
        <ele>341</ele>
        <time>2011-05-08T07:08:47Z</time>
      </trkpt>
      <trkpt lat="49.16933" lon="6.99388">
        <ele>341</ele>
        <time>2011-05-08T07:08:49Z</time>
      </trkpt>
      <trkpt lat="49.16934" lon="6.99388">
        <ele>341</ele>
        <time>2011-05-08T07:08:51Z</time>
      </trkpt>
      <trkpt lat="49.16936" lon="6.99387">
        <ele>341</ele>
        <time>2011-05-08T07:08:53Z</time>
      </trkpt>
      <trkpt lat="49.16938" lon="6.99387">
        <ele>342</ele>
        <time>2011-05-08T07:08:55Z</time>
      </trkpt>
      <trkpt lat="49.16939" lon="6.99387">
        <ele>343</ele>
        <time>2011-05-08T07:08:57Z</time>
      </trkpt>
      <trkpt lat="49.16941" lon="6.99388">
        <ele>344</ele>
        <time>2011-05-08T07:09:00Z</time>
      </trkpt>
      <trkpt lat="49.16943" lon="6.99387">
        <ele>345</ele>
        <time>2011-05-08T07:09:02Z</time>
      </trkpt>
      <trkpt lat="49.16944" lon="6.99387">
        <ele>345</ele>
        <time>2011-05-08T07:09:03Z</time>
      </trkpt>
      <trkpt lat="49.16945" lon="6.99387">
        <ele>346</ele>
        <time>2011-05-08T07:09:04Z</time>
      </trkpt>
      <trkpt lat="49.16946" lon="6.99387">
        <ele>346</ele>
        <time>2011-05-08T07:09:05Z</time>
      </trkpt>
      <trkpt lat="49.16948" lon="6.99387">
        <ele>347</ele>
        <time>2011-05-08T07:09:06Z</time>
      </trkpt>
      <trkpt lat="49.16949" lon="6.99387">
        <ele>347</ele>
        <time>2011-05-08T07:09:07Z</time>
      </trkpt>
      <trkpt lat="49.16951" lon="6.99387">
        <ele>347</ele>
        <time>2011-05-08T07:09:08Z</time>
      </trkpt>
      <trkpt lat="49.16952" lon="6.99387">
        <ele>348</ele>
        <time>2011-05-08T07:09:09Z</time>
      </trkpt>
      <trkpt lat="49.16953" lon="6.99387">
        <ele>348</ele>
        <time>2011-05-08T07:09:10Z</time>
      </trkpt>
      <trkpt lat="49.16954" lon="6.99387">
        <ele>348</ele>
        <time>2011-05-08T07:09:11Z</time>
      </trkpt>
      <trkpt lat="49.16956" lon="6.99386">
        <ele>348</ele>
        <time>2011-05-08T07:09:12Z</time>
      </trkpt>
      <trkpt lat="49.16957" lon="6.99386">
        <ele>349</ele>
        <time>2011-05-08T07:09:13Z</time>
      </trkpt>
      <trkpt lat="49.16959" lon="6.99386">
        <ele>349</ele>
        <time>2011-05-08T07:09:14Z</time>
      </trkpt>
      <trkpt lat="49.1696" lon="6.99386">
        <ele>349</ele>
        <time>2011-05-08T07:09:15Z</time>
      </trkpt>
      <trkpt lat="49.16961" lon="6.99386">
        <ele>349</ele>
        <time>2011-05-08T07:09:16Z</time>
      </trkpt>
      <trkpt lat="49.16963" lon="6.99387">
        <ele>349</ele>
        <time>2011-05-08T07:09:18Z</time>
      </trkpt>
      <trkpt lat="49.16964" lon="6.99388">
        <ele>349</ele>
        <time>2011-05-08T07:09:19Z</time>
      </trkpt>
      <trkpt lat="49.16966" lon="6.9939">
        <ele>349</ele>
        <time>2011-05-08T07:09:21Z</time>
      </trkpt>
      <trkpt lat="49.16965" lon="6.99392">
        <ele>351</ele>
        <time>2011-05-08T07:09:23Z</time>
      </trkpt>
      <trkpt lat="49.16964" lon="6.99394">
        <ele>352</ele>
        <time>2011-05-08T07:09:25Z</time>
      </trkpt>
      <trkpt lat="49.16964" lon="6.99396">
        <ele>354</ele>
        <time>2011-05-08T07:09:27Z</time>
      </trkpt>
      <trkpt lat="49.16963" lon="6.99399">
        <ele>355</ele>
        <time>2011-05-08T07:09:29Z</time>
      </trkpt>
      <trkpt lat="49.16962" lon="6.99401">
        <ele>356</ele>
        <time>2011-05-08T07:09:32Z</time>
      </trkpt>
      <trkpt lat="49.16961" lon="6.99403">
        <ele>358</ele>
        <time>2011-05-08T07:09:35Z</time>
      </trkpt>
      <trkpt lat="49.16962" lon="6.99404">
        <ele>360</ele>
        <time>2011-05-08T07:09:37Z</time>
      </trkpt>
      <trkpt lat="49.16963" lon="6.99406">
        <ele>360</ele>
        <time>2011-05-08T07:09:39Z</time>
      </trkpt>
      <trkpt lat="49.16966" lon="6.99406">
        <ele>360</ele>
        <time>2011-05-08T07:09:41Z</time>
      </trkpt>
      <trkpt lat="49.16967" lon="6.99405">
        <ele>360</ele>
        <time>2011-05-08T07:09:42Z</time>
      </trkpt>
      <trkpt lat="49.16969" lon="6.99406">
        <ele>360</ele>
        <time>2011-05-08T07:09:43Z</time>
      </trkpt>
      <trkpt lat="49.1697" lon="6.99407">
        <ele>360</ele>
        <time>2011-05-08T07:09:45Z</time>
      </trkpt>
      <trkpt lat="49.16972" lon="6.99407">
        <ele>360</ele>
        <time>2011-05-08T07:09:46Z</time>
      </trkpt>
      <trkpt lat="49.16973" lon="6.99407">
        <ele>360</ele>
        <time>2011-05-08T07:09:48Z</time>
      </trkpt>
      <trkpt lat="49.16975" lon="6.99408">
        <ele>360</ele>
        <time>2011-05-08T07:09:49Z</time>
      </trkpt>
      <trkpt lat="49.16977" lon="6.9941">
        <ele>360</ele>
        <time>2011-05-08T07:09:51Z</time>
      </trkpt>
      <trkpt lat="49.16978" lon="6.99411">
        <ele>360</ele>
        <time>2011-05-08T07:09:53Z</time>
      </trkpt>
      <trkpt lat="49.1698" lon="6.99413">
        <ele>360</ele>
        <time>2011-05-08T07:09:56Z</time>
      </trkpt>
      <trkpt lat="49.16981" lon="6.99413">
        <ele>360</ele>
        <time>2011-05-08T07:09:57Z</time>
      </trkpt>
      <trkpt lat="49.16983" lon="6.99414">
        <ele>359</ele>
        <time>2011-05-08T07:09:59Z</time>
      </trkpt>
      <trkpt lat="49.16985" lon="6.99415">
        <ele>358</ele>
        <time>2011-05-08T07:10:00Z</time>
      </trkpt>
      <trkpt lat="49.16986" lon="6.99417">
        <ele>358</ele>
        <time>2011-05-08T07:10:02Z</time>
      </trkpt>
      <trkpt lat="49.16988" lon="6.99418">
        <ele>357</ele>
        <time>2011-05-08T07:10:04Z</time>
      </trkpt>
      <trkpt lat="49.1699" lon="6.9942">
        <ele>356</ele>
        <time>2011-05-08T07:10:06Z</time>
      </trkpt>
      <trkpt lat="49.16991" lon="6.99421">
        <ele>355</ele>
        <time>2011-05-08T07:10:08Z</time>
      </trkpt>
      <trkpt lat="49.16993" lon="6.99422">
        <ele>353</ele>
        <time>2011-05-08T07:10:10Z</time>
      </trkpt>
      <trkpt lat="49.16995" lon="6.99424">
        <ele>352</ele>
        <time>2011-05-08T07:10:12Z</time>
      </trkpt>
      <trkpt lat="49.16996" lon="6.99425">
        <ele>351</ele>
        <time>2011-05-08T07:10:13Z</time>
      </trkpt>
      <trkpt lat="49.16997" lon="6.99427">
        <ele>351</ele>
        <time>2011-05-08T07:10:14Z</time>
      </trkpt>
      <trkpt lat="49.16999" lon="6.99428">
        <ele>350</ele>
        <time>2011-05-08T07:10:16Z</time>
      </trkpt>
      <trkpt lat="49.17001" lon="6.9943">
        <ele>349</ele>
        <time>2011-05-08T07:10:18Z</time>
      </trkpt>
      <trkpt lat="49.17002" lon="6.9943">
        <ele>349</ele>
        <time>2011-05-08T07:10:19Z</time>
      </trkpt>
      <trkpt lat="49.17004" lon="6.99432">
        <ele>349</ele>
        <time>2011-05-08T07:10:21Z</time>
      </trkpt>
      <trkpt lat="49.17005" lon="6.99434">
        <ele>349</ele>
        <time>2011-05-08T07:10:23Z</time>
      </trkpt>
      <trkpt lat="49.17007" lon="6.99437">
        <ele>349</ele>
        <time>2011-05-08T07:10:25Z</time>
      </trkpt>
      <trkpt lat="49.17008" lon="6.9944">
        <ele>348</ele>
        <time>2011-05-08T07:10:27Z</time>
      </trkpt>
      <trkpt lat="49.1701" lon="6.99443">
        <ele>348</ele>
        <time>2011-05-08T07:10:29Z</time>
      </trkpt>
      <trkpt lat="49.17011" lon="6.99445">
        <ele>347</ele>
        <time>2011-05-08T07:10:31Z</time>
      </trkpt>
      <trkpt lat="49.17013" lon="6.99446">
        <ele>347</ele>
        <time>2011-05-08T07:10:34Z</time>
      </trkpt>
      <trkpt lat="49.17014" lon="6.99446">
        <ele>347</ele>
        <time>2011-05-08T07:10:35Z</time>
      </trkpt>
      <trkpt lat="49.17016" lon="6.99448">
        <ele>347</ele>
        <time>2011-05-08T07:10:37Z</time>
      </trkpt>
      <trkpt lat="49.17017" lon="6.99449">
        <ele>347</ele>
        <time>2011-05-08T07:10:38Z</time>
      </trkpt>
      <trkpt lat="49.17019" lon="6.9945">
        <ele>347</ele>
        <time>2011-05-08T07:10:39Z</time>
      </trkpt>
      <trkpt lat="49.1702" lon="6.99451">
        <ele>347</ele>
        <time>2011-05-08T07:10:40Z</time>
      </trkpt>
      <trkpt lat="49.17021" lon="6.99452">
        <ele>347</ele>
        <time>2011-05-08T07:10:41Z</time>
      </trkpt>
      <trkpt lat="49.17023" lon="6.99454">
        <ele>347</ele>
        <time>2011-05-08T07:10:42Z</time>
      </trkpt>
      <trkpt lat="49.17025" lon="6.99455">
        <ele>347</ele>
        <time>2011-05-08T07:10:44Z</time>
      </trkpt>
      <trkpt lat="49.17027" lon="6.99457">
        <ele>347</ele>
        <time>2011-05-08T07:10:46Z</time>
      </trkpt>
      <trkpt lat="49.17028" lon="6.99459">
        <ele>347</ele>
        <time>2011-05-08T07:10:47Z</time>
      </trkpt>
      <trkpt lat="49.1703" lon="6.99461">
        <ele>347</ele>
        <time>2011-05-08T07:10:49Z</time>
      </trkpt>
      <trkpt lat="49.17031" lon="6.99462">
        <ele>347</ele>
        <time>2011-05-08T07:10:51Z</time>
      </trkpt>
      <trkpt lat="49.17032" lon="6.99464">
        <ele>347</ele>
        <time>2011-05-08T07:10:53Z</time>
      </trkpt>
      <trkpt lat="49.17034" lon="6.99466">
        <ele>347</ele>
        <time>2011-05-08T07:10:55Z</time>
      </trkpt>
      <trkpt lat="49.17035" lon="6.99467">
        <ele>347</ele>
        <time>2011-05-08T07:10:56Z</time>
      </trkpt>
      <trkpt lat="49.17038" lon="6.99468">
        <ele>347</ele>
        <time>2011-05-08T07:10:58Z</time>
      </trkpt>
      <trkpt lat="49.17039" lon="6.99469">
        <ele>347</ele>
        <time>2011-05-08T07:11:00Z</time>
      </trkpt>
      <trkpt lat="49.17042" lon="6.99469">
        <ele>347</ele>
        <time>2011-05-08T07:11:02Z</time>
      </trkpt>
      <trkpt lat="49.17043" lon="6.99471">
        <ele>347</ele>
        <time>2011-05-08T07:11:03Z</time>
      </trkpt>
      <trkpt lat="49.17044" lon="6.99473">
        <ele>347</ele>
        <time>2011-05-08T07:11:04Z</time>
      </trkpt>
      <trkpt lat="49.17046" lon="6.99476">
        <ele>347</ele>
        <time>2011-05-08T07:11:06Z</time>
      </trkpt>
      <trkpt lat="49.17047" lon="6.99478">
        <ele>347</ele>
        <time>2011-05-08T07:11:08Z</time>
      </trkpt>
      <trkpt lat="49.17049" lon="6.99479">
        <ele>347</ele>
        <time>2011-05-08T07:11:10Z</time>
      </trkpt>
      <trkpt lat="49.17049" lon="6.99481">
        <ele>347</ele>
        <time>2011-05-08T07:11:12Z</time>
      </trkpt>
      <trkpt lat="49.17051" lon="6.99482">
        <ele>347</ele>
        <time>2011-05-08T07:11:13Z</time>
      </trkpt>
      <trkpt lat="49.17052" lon="6.99483">
        <ele>347</ele>
        <time>2011-05-08T07:11:15Z</time>
      </trkpt>
      <trkpt lat="49.17054" lon="6.99484">
        <ele>347</ele>
        <time>2011-05-08T07:11:16Z</time>
      </trkpt>
      <trkpt lat="49.17057" lon="6.99486">
        <ele>347</ele>
        <time>2011-05-08T07:11:17Z</time>
      </trkpt>
      <trkpt lat="49.17058" lon="6.99487">
        <ele>347</ele>
        <time>2011-05-08T07:11:18Z</time>
      </trkpt>
      <trkpt lat="49.1706" lon="6.99488">
        <ele>347</ele>
        <time>2011-05-08T07:11:19Z</time>
      </trkpt>
      <trkpt lat="49.17061" lon="6.99489">
        <ele>348</ele>
        <time>2011-05-08T07:11:20Z</time>
      </trkpt>
      <trkpt lat="49.17063" lon="6.9949">
        <ele>348</ele>
        <time>2011-05-08T07:11:21Z</time>
      </trkpt>
      <trkpt lat="49.17065" lon="6.99492">
        <ele>348</ele>
        <time>2011-05-08T07:11:22Z</time>
      </trkpt>
      <trkpt lat="49.17066" lon="6.99494">
        <ele>348</ele>
        <time>2011-05-08T07:11:23Z</time>
      </trkpt>
      <trkpt lat="49.17067" lon="6.99496">
        <ele>348</ele>
        <time>2011-05-08T07:11:25Z</time>
      </trkpt>
      <trkpt lat="49.17069" lon="6.99499">
        <ele>348</ele>
        <time>2011-05-08T07:11:27Z</time>
      </trkpt>
      <trkpt lat="49.1707" lon="6.99501">
        <ele>348</ele>
        <time>2011-05-08T07:11:29Z</time>
      </trkpt>
      <trkpt lat="49.17072" lon="6.99502">
        <ele>348</ele>
        <time>2011-05-08T07:11:30Z</time>
      </trkpt>
      <trkpt lat="49.17074" lon="6.99504">
        <ele>348</ele>
        <time>2011-05-08T07:11:31Z</time>
      </trkpt>
      <trkpt lat="49.17075" lon="6.99505">
        <ele>348</ele>
        <time>2011-05-08T07:11:32Z</time>
      </trkpt>
      <trkpt lat="49.17077" lon="6.99506">
        <ele>348</ele>
        <time>2011-05-08T07:11:33Z</time>
      </trkpt>
      <trkpt lat="49.17079" lon="6.99507">
        <ele>348</ele>
        <time>2011-05-08T07:11:34Z</time>
      </trkpt>
      <trkpt lat="49.1708" lon="6.99509">
        <ele>348</ele>
        <time>2011-05-08T07:11:36Z</time>
      </trkpt>
      <trkpt lat="49.17082" lon="6.99511">
        <ele>348</ele>
        <time>2011-05-08T07:11:38Z</time>
      </trkpt>
      <trkpt lat="49.17084" lon="6.99512">
        <ele>348</ele>
        <time>2011-05-08T07:11:40Z</time>
      </trkpt>
      <trkpt lat="49.17085" lon="6.99514">
        <ele>348</ele>
        <time>2011-05-08T07:11:42Z</time>
      </trkpt>
      <trkpt lat="49.17087" lon="6.99515">
        <ele>348</ele>
        <time>2011-05-08T07:11:44Z</time>
      </trkpt>
      <trkpt lat="49.17089" lon="6.99516">
        <ele>348</ele>
        <time>2011-05-08T07:11:46Z</time>
      </trkpt>
      <trkpt lat="49.1709" lon="6.99516">
        <ele>348</ele>
        <time>2011-05-08T07:11:48Z</time>
      </trkpt>
      <trkpt lat="49.17092" lon="6.99519">
        <ele>348</ele>
        <time>2011-05-08T07:11:50Z</time>
      </trkpt>
      <trkpt lat="49.17094" lon="6.99519">
        <ele>348</ele>
        <time>2011-05-08T07:11:51Z</time>
      </trkpt>
      <trkpt lat="49.17095" lon="6.9952">
        <ele>348</ele>
        <time>2011-05-08T07:11:52Z</time>
      </trkpt>
      <trkpt lat="49.17096" lon="6.9952">
        <ele>348</ele>
        <time>2011-05-08T07:11:53Z</time>
      </trkpt>
      <trkpt lat="49.17098" lon="6.99522">
        <ele>348</ele>
        <time>2011-05-08T07:11:54Z</time>
      </trkpt>
      <trkpt lat="49.17099" lon="6.99523">
        <ele>348</ele>
        <time>2011-05-08T07:11:55Z</time>
      </trkpt>
      <trkpt lat="49.17101" lon="6.99527">
        <ele>348</ele>
        <time>2011-05-08T07:11:57Z</time>
      </trkpt>
      <trkpt lat="49.17102" lon="6.99528">
        <ele>348</ele>
        <time>2011-05-08T07:11:58Z</time>
      </trkpt>
      <trkpt lat="49.17103" lon="6.99532">
        <ele>348</ele>
        <time>2011-05-08T07:12:00Z</time>
      </trkpt>
      <trkpt lat="49.17104" lon="6.99534">
        <ele>348</ele>
        <time>2011-05-08T07:12:02Z</time>
      </trkpt>
      <trkpt lat="49.17106" lon="6.99536">
        <ele>348</ele>
        <time>2011-05-08T07:12:03Z</time>
      </trkpt>
      <trkpt lat="49.17107" lon="6.99539">
        <ele>348</ele>
        <time>2011-05-08T07:12:05Z</time>
      </trkpt>
      <trkpt lat="49.17109" lon="6.99541">
        <ele>348</ele>
        <time>2011-05-08T07:12:07Z</time>
      </trkpt>
      <trkpt lat="49.17112" lon="6.99544">
        <ele>348</ele>
        <time>2011-05-08T07:12:09Z</time>
      </trkpt>
      <trkpt lat="49.17113" lon="6.99545">
        <ele>348</ele>
        <time>2011-05-08T07:12:10Z</time>
      </trkpt>
      <trkpt lat="49.17114" lon="6.99546">
        <ele>348</ele>
        <time>2011-05-08T07:12:11Z</time>
      </trkpt>
      <trkpt lat="49.17116" lon="6.99546">
        <ele>348</ele>
        <time>2011-05-08T07:12:12Z</time>
      </trkpt>
      <trkpt lat="49.17117" lon="6.99547">
        <ele>348</ele>
        <time>2011-05-08T07:12:13Z</time>
      </trkpt>
      <trkpt lat="49.17119" lon="6.99548">
        <ele>348</ele>
        <time>2011-05-08T07:12:15Z</time>
      </trkpt>
      <trkpt lat="49.1712" lon="6.99549">
        <ele>348</ele>
        <time>2011-05-08T07:12:16Z</time>
      </trkpt>
      <trkpt lat="49.17122" lon="6.99549">
        <ele>348</ele>
        <time>2011-05-08T07:12:17Z</time>
      </trkpt>
      <trkpt lat="49.17123" lon="6.9955">
        <ele>348</ele>
        <time>2011-05-08T07:12:18Z</time>
      </trkpt>
      <trkpt lat="49.17125" lon="6.99552">
        <ele>348</ele>
        <time>2011-05-08T07:12:20Z</time>
      </trkpt>
      <trkpt lat="49.17127" lon="6.99552">
        <ele>348</ele>
        <time>2011-05-08T07:12:22Z</time>
      </trkpt>
      <trkpt lat="49.17129" lon="6.99553">
        <ele>348</ele>
        <time>2011-05-08T07:12:24Z</time>
      </trkpt>
      <trkpt lat="49.17131" lon="6.99554">
        <ele>348</ele>
        <time>2011-05-08T07:12:25Z</time>
      </trkpt>
      <trkpt lat="49.17131" lon="6.99556">
        <ele>348</ele>
        <time>2011-05-08T07:12:26Z</time>
      </trkpt>
      <trkpt lat="49.17132" lon="6.99558">
        <ele>348</ele>
        <time>2011-05-08T07:12:27Z</time>
      </trkpt>
      <trkpt lat="49.17133" lon="6.99559">
        <ele>348</ele>
        <time>2011-05-08T07:12:28Z</time>
      </trkpt>
      <trkpt lat="49.17135" lon="6.9956">
        <ele>348</ele>
        <time>2011-05-08T07:12:29Z</time>
      </trkpt>
      <trkpt lat="49.17136" lon="6.99561">
        <ele>348</ele>
        <time>2011-05-08T07:12:30Z</time>
      </trkpt>
      <trkpt lat="49.17137" lon="6.99561">
        <ele>348</ele>
        <time>2011-05-08T07:12:31Z</time>
      </trkpt>
      <trkpt lat="49.17138" lon="6.9956">
        <ele>348</ele>
        <time>2011-05-08T07:12:32Z</time>
      </trkpt>
      <trkpt lat="49.1714" lon="6.9956">
        <ele>349</ele>
        <time>2011-05-08T07:12:33Z</time>
      </trkpt>
      <trkpt lat="49.17142" lon="6.99562">
        <ele>349</ele>
        <time>2011-05-08T07:12:35Z</time>
      </trkpt>
      <trkpt lat="49.17144" lon="6.99563">
        <ele>349</ele>
        <time>2011-05-08T07:12:37Z</time>
      </trkpt>
      <trkpt lat="49.17146" lon="6.99564">
        <ele>349</ele>
        <time>2011-05-08T07:12:39Z</time>
      </trkpt>
      <trkpt lat="49.17147" lon="6.99564">
        <ele>349</ele>
        <time>2011-05-08T07:12:40Z</time>
      </trkpt>
      <trkpt lat="49.17149" lon="6.99565">
        <ele>349</ele>
        <time>2011-05-08T07:12:41Z</time>
      </trkpt>
      <trkpt lat="49.17151" lon="6.99567">
        <ele>349</ele>
        <time>2011-05-08T07:12:43Z</time>
      </trkpt>
      <trkpt lat="49.17152" lon="6.9957">
        <ele>349</ele>
        <time>2011-05-08T07:12:45Z</time>
      </trkpt>
      <trkpt lat="49.17154" lon="6.99571">
        <ele>349</ele>
        <time>2011-05-08T07:12:46Z</time>
      </trkpt>
      <trkpt lat="49.17155" lon="6.99572">
        <ele>349</ele>
        <time>2011-05-08T07:12:47Z</time>
      </trkpt>
      <trkpt lat="49.17157" lon="6.99575">
        <ele>349</ele>
        <time>2011-05-08T07:12:49Z</time>
      </trkpt>
      <trkpt lat="49.17157" lon="6.99577">
        <ele>349</ele>
        <time>2011-05-08T07:12:51Z</time>
      </trkpt>
      <trkpt lat="49.17159" lon="6.99579">
        <ele>349</ele>
        <time>2011-05-08T07:12:53Z</time>
      </trkpt>
      <trkpt lat="49.17161" lon="6.99582">
        <ele>349</ele>
        <time>2011-05-08T07:12:55Z</time>
      </trkpt>
      <trkpt lat="49.17162" lon="6.99584">
        <ele>349</ele>
        <time>2011-05-08T07:12:57Z</time>
      </trkpt>
      <trkpt lat="49.17165" lon="6.99585">
        <ele>349</ele>
        <time>2011-05-08T07:12:59Z</time>
      </trkpt>
      <trkpt lat="49.17166" lon="6.99586">
        <ele>349</ele>
        <time>2011-05-08T07:13:00Z</time>
      </trkpt>
      <trkpt lat="49.17168" lon="6.99586">
        <ele>349</ele>
        <time>2011-05-08T07:13:01Z</time>
      </trkpt>
      <trkpt lat="49.17169" lon="6.99586">
        <ele>349</ele>
        <time>2011-05-08T07:13:02Z</time>
      </trkpt>
      <trkpt lat="49.1717" lon="6.99585">
        <ele>349</ele>
        <time>2011-05-08T07:13:04Z</time>
      </trkpt>
      <trkpt lat="49.17171" lon="6.99585">
        <ele>349</ele>
        <time>2011-05-08T07:13:05Z</time>
      </trkpt>
      <trkpt lat="49.17173" lon="6.99585">
        <ele>349</ele>
        <time>2011-05-08T07:13:06Z</time>
      </trkpt>
      <trkpt lat="49.17175" lon="6.99585">
        <ele>349</ele>
        <time>2011-05-08T07:13:08Z</time>
      </trkpt>
      <trkpt lat="49.17176" lon="6.99585">
        <ele>349</ele>
        <time>2011-05-08T07:13:09Z</time>
      </trkpt>
      <trkpt lat="49.17177" lon="6.99585">
        <ele>349</ele>
        <time>2011-05-08T07:13:10Z</time>
      </trkpt>
      <trkpt lat="49.17178" lon="6.99584">
        <ele>349</ele>
        <time>2011-05-08T07:13:11Z</time>
      </trkpt>
      <trkpt lat="49.17179" lon="6.99583">
        <ele>349</ele>
        <time>2011-05-08T07:13:12Z</time>
      </trkpt>
      <trkpt lat="49.17181" lon="6.99581">
        <ele>349</ele>
        <time>2011-05-08T07:13:14Z</time>
      </trkpt>
      <trkpt lat="49.17183" lon="6.99581">
        <ele>349</ele>
        <time>2011-05-08T07:13:16Z</time>
      </trkpt>
      <trkpt lat="49.17186" lon="6.99581">
        <ele>349</ele>
        <time>2011-05-08T07:13:18Z</time>
      </trkpt>
      <trkpt lat="49.17187" lon="6.99582">
        <ele>349</ele>
        <time>2011-05-08T07:13:20Z</time>
      </trkpt>
      <trkpt lat="49.17189" lon="6.99582">
        <ele>349</ele>
        <time>2011-05-08T07:13:22Z</time>
      </trkpt>
      <trkpt lat="49.1719" lon="6.99582">
        <ele>349</ele>
        <time>2011-05-08T07:13:23Z</time>
      </trkpt>
      <trkpt lat="49.17191" lon="6.99583">
        <ele>349</ele>
        <time>2011-05-08T07:13:24Z</time>
      </trkpt>
      <trkpt lat="49.17193" lon="6.99583">
        <ele>349</ele>
        <time>2011-05-08T07:13:25Z</time>
      </trkpt>
      <trkpt lat="49.17194" lon="6.99583">
        <ele>349</ele>
        <time>2011-05-08T07:13:26Z</time>
      </trkpt>
      <trkpt lat="49.17196" lon="6.99584">
        <ele>349</ele>
        <time>2011-05-08T07:13:27Z</time>
      </trkpt>
      <trkpt lat="49.17198" lon="6.99584">
        <ele>349</ele>
        <time>2011-05-08T07:13:28Z</time>
      </trkpt>
      <trkpt lat="49.172" lon="6.99584">
        <ele>349</ele>
        <time>2011-05-08T07:13:29Z</time>
      </trkpt>
      <trkpt lat="49.17202" lon="6.99584">
        <ele>349</ele>
        <time>2011-05-08T07:13:30Z</time>
      </trkpt>
      <trkpt lat="49.17204" lon="6.99585">
        <ele>349</ele>
        <time>2011-05-08T07:13:32Z</time>
      </trkpt>
      <trkpt lat="49.17205" lon="6.99587">
        <ele>349</ele>
        <time>2011-05-08T07:13:34Z</time>
      </trkpt>
      <trkpt lat="49.17207" lon="6.99589">
        <ele>349</ele>
        <time>2011-05-08T07:13:37Z</time>
      </trkpt>
      <trkpt lat="49.17209" lon="6.99591">
        <ele>349</ele>
        <time>2011-05-08T07:13:39Z</time>
      </trkpt>
      <trkpt lat="49.17211" lon="6.99593">
        <ele>349</ele>
        <time>2011-05-08T07:13:41Z</time>
      </trkpt>
      <trkpt lat="49.17212" lon="6.99594">
        <ele>349</ele>
        <time>2011-05-08T07:13:43Z</time>
      </trkpt>
      <trkpt lat="49.17215" lon="6.99595">
        <ele>349</ele>
        <time>2011-05-08T07:13:45Z</time>
      </trkpt>
      <trkpt lat="49.17216" lon="6.99595">
        <ele>349</ele>
        <time>2011-05-08T07:13:46Z</time>
      </trkpt>
      <trkpt lat="49.17217" lon="6.99595">
        <ele>349</ele>
        <time>2011-05-08T07:13:47Z</time>
      </trkpt>
      <trkpt lat="49.17219" lon="6.99598">
        <ele>349</ele>
        <time>2011-05-08T07:13:49Z</time>
      </trkpt>
      <trkpt lat="49.17221" lon="6.99601">
        <ele>349</ele>
        <time>2011-05-08T07:13:51Z</time>
      </trkpt>
      <trkpt lat="49.17222" lon="6.99603">
        <ele>349</ele>
        <time>2011-05-08T07:13:52Z</time>
      </trkpt>
      <trkpt lat="49.17224" lon="6.99605">
        <ele>349</ele>
        <time>2011-05-08T07:13:54Z</time>
      </trkpt>
      <trkpt lat="49.17225" lon="6.99605">
        <ele>349</ele>
        <time>2011-05-08T07:13:55Z</time>
      </trkpt>
      <trkpt lat="49.17226" lon="6.99605">
        <ele>349</ele>
        <time>2011-05-08T07:13:56Z</time>
      </trkpt>
      <trkpt lat="49.17228" lon="6.99605">
        <ele>349</ele>
        <time>2011-05-08T07:13:57Z</time>
      </trkpt>
      <trkpt lat="49.17229" lon="6.99606">
        <ele>349</ele>
        <time>2011-05-08T07:13:58Z</time>
      </trkpt>
      <trkpt lat="49.17231" lon="6.99606">
        <ele>349</ele>
        <time>2011-05-08T07:13:59Z</time>
      </trkpt>
      <trkpt lat="49.17232" lon="6.99606">
        <ele>349</ele>
        <time>2011-05-08T07:14:00Z</time>
      </trkpt>
      <trkpt lat="49.17234" lon="6.99607">
        <ele>349</ele>
        <time>2011-05-08T07:14:02Z</time>
      </trkpt>
      <trkpt lat="49.17236" lon="6.99607">
        <ele>349</ele>
        <time>2011-05-08T07:14:04Z</time>
      </trkpt>
      <trkpt lat="49.17237" lon="6.99608">
        <ele>349</ele>
        <time>2011-05-08T07:14:05Z</time>
      </trkpt>
      <trkpt lat="49.17239" lon="6.9961">
        <ele>349</ele>
        <time>2011-05-08T07:14:07Z</time>
      </trkpt>
      <trkpt lat="49.17241" lon="6.99613">
        <ele>349</ele>
        <time>2011-05-08T07:14:09Z</time>
      </trkpt>
      <trkpt lat="49.17242" lon="6.99614">
        <ele>349</ele>
        <time>2011-05-08T07:14:10Z</time>
      </trkpt>
      <trkpt lat="49.17244" lon="6.99614">
        <ele>349</ele>
        <time>2011-05-08T07:14:12Z</time>
      </trkpt>
      <trkpt lat="49.17247" lon="6.99614">
        <ele>349</ele>
        <time>2011-05-08T07:14:14Z</time>
      </trkpt>
      <trkpt lat="49.17249" lon="6.99614">
        <ele>349</ele>
        <time>2011-05-08T07:14:15Z</time>
      </trkpt>
      <trkpt lat="49.1725" lon="6.99615">
        <ele>349</ele>
        <time>2011-05-08T07:14:17Z</time>
      </trkpt>
      <trkpt lat="49.17252" lon="6.99616">
        <ele>349</ele>
        <time>2011-05-08T07:14:19Z</time>
      </trkpt>
      <trkpt lat="49.17254" lon="6.99615">
        <ele>349</ele>
        <time>2011-05-08T07:14:20Z</time>
      </trkpt>
      <trkpt lat="49.17255" lon="6.99615">
        <ele>349</ele>
        <time>2011-05-08T07:14:21Z</time>
      </trkpt>
      <trkpt lat="49.17257" lon="6.99615">
        <ele>349</ele>
        <time>2011-05-08T07:14:22Z</time>
      </trkpt>
      <trkpt lat="49.17258" lon="6.99615">
        <ele>349</ele>
        <time>2011-05-08T07:14:23Z</time>
      </trkpt>
      <trkpt lat="49.1726" lon="6.99616">
        <ele>349</ele>
        <time>2011-05-08T07:14:24Z</time>
      </trkpt>
      <trkpt lat="49.17261" lon="6.99617">
        <ele>350</ele>
        <time>2011-05-08T07:14:25Z</time>
      </trkpt>
      <trkpt lat="49.17263" lon="6.99617">
        <ele>350</ele>
        <time>2011-05-08T07:14:26Z</time>
      </trkpt>
      <trkpt lat="49.17265" lon="6.99617">
        <ele>350</ele>
        <time>2011-05-08T07:14:27Z</time>
      </trkpt>
      <trkpt lat="49.17266" lon="6.99618">
        <ele>350</ele>
        <time>2011-05-08T07:14:28Z</time>
      </trkpt>
      <trkpt lat="49.17268" lon="6.99619">
        <ele>351</ele>
        <time>2011-05-08T07:14:29Z</time>
      </trkpt>
      <trkpt lat="49.1727" lon="6.99619">
        <ele>351</ele>
        <time>2011-05-08T07:14:30Z</time>
      </trkpt>
      <trkpt lat="49.17271" lon="6.99619">
        <ele>351</ele>
        <time>2011-05-08T07:14:31Z</time>
      </trkpt>
      <trkpt lat="49.17272" lon="6.99618">
        <ele>351</ele>
        <time>2011-05-08T07:14:32Z</time>
      </trkpt>
      <trkpt lat="49.17274" lon="6.99618">
        <ele>351</ele>
        <time>2011-05-08T07:14:33Z</time>
      </trkpt>
      <trkpt lat="49.17276" lon="6.99619">
        <ele>351</ele>
        <time>2011-05-08T07:14:35Z</time>
      </trkpt>
      <trkpt lat="49.17278" lon="6.9962">
        <ele>351</ele>
        <time>2011-05-08T07:14:37Z</time>
      </trkpt>
      <trkpt lat="49.17279" lon="6.99619">
        <ele>351</ele>
        <time>2011-05-08T07:14:38Z</time>
      </trkpt>
      <trkpt lat="49.17282" lon="6.9962">
        <ele>351</ele>
        <time>2011-05-08T07:14:40Z</time>
      </trkpt>
      <trkpt lat="49.17283" lon="6.99622">
        <ele>351</ele>
        <time>2011-05-08T07:14:42Z</time>
      </trkpt>
      <trkpt lat="49.17284" lon="6.99623">
        <ele>351</ele>
        <time>2011-05-08T07:14:43Z</time>
      </trkpt>
      <trkpt lat="49.17286" lon="6.99626">
        <ele>349</ele>
        <time>2011-05-08T07:14:45Z</time>
      </trkpt>
      <trkpt lat="49.17287" lon="6.99627">
        <ele>349</ele>
        <time>2011-05-08T07:14:46Z</time>
      </trkpt>
      <trkpt lat="49.17288" lon="6.99629">
        <ele>348</ele>
        <time>2011-05-08T07:14:48Z</time>
      </trkpt>
      <trkpt lat="49.1729" lon="6.9963">
        <ele>347</ele>
        <time>2011-05-08T07:14:50Z</time>
      </trkpt>
      <trkpt lat="49.17292" lon="6.99631">
        <ele>346</ele>
        <time>2011-05-08T07:14:52Z</time>
      </trkpt>
      <trkpt lat="49.17293" lon="6.99632">
        <ele>344</ele>
        <time>2011-05-08T07:14:54Z</time>
      </trkpt>
      <trkpt lat="49.17296" lon="6.99632">
        <ele>344</ele>
        <time>2011-05-08T07:14:56Z</time>
      </trkpt>
      <trkpt lat="49.17298" lon="6.99632">
        <ele>343</ele>
        <time>2011-05-08T07:14:58Z</time>
      </trkpt>
      <trkpt lat="49.173" lon="6.99632">
        <ele>342</ele>
        <time>2011-05-08T07:15:00Z</time>
      </trkpt>
      <trkpt lat="49.17301" lon="6.99633">
        <ele>341</ele>
        <time>2011-05-08T07:15:01Z</time>
      </trkpt>
      <trkpt lat="49.17303" lon="6.99634">
        <ele>340</ele>
        <time>2011-05-08T07:15:03Z</time>
      </trkpt>
      <trkpt lat="49.17305" lon="6.99635">
        <ele>338</ele>
        <time>2011-05-08T07:15:06Z</time>
      </trkpt>
      <trkpt lat="49.17308" lon="6.99637">
        <ele>337</ele>
        <time>2011-05-08T07:15:08Z</time>
      </trkpt>
      <trkpt lat="49.17309" lon="6.99638">
        <ele>337</ele>
        <time>2011-05-08T07:15:09Z</time>
      </trkpt>
      <trkpt lat="49.17311" lon="6.99637">
        <ele>337</ele>
        <time>2011-05-08T07:15:10Z</time>
      </trkpt>
      <trkpt lat="49.17312" lon="6.99637">
        <ele>336</ele>
        <time>2011-05-08T07:15:11Z</time>
      </trkpt>
      <trkpt lat="49.17313" lon="6.99636">
        <ele>336</ele>
        <time>2011-05-08T07:15:12Z</time>
      </trkpt>
      <trkpt lat="49.17315" lon="6.99637">
        <ele>336</ele>
        <time>2011-05-08T07:15:14Z</time>
      </trkpt>
      <trkpt lat="49.17317" lon="6.99639">
        <ele>336</ele>
        <time>2011-05-08T07:15:16Z</time>
      </trkpt>
      <trkpt lat="49.17319" lon="6.99639">
        <ele>336</ele>
        <time>2011-05-08T07:15:18Z</time>
      </trkpt>
      <trkpt lat="49.1732" lon="6.99639">
        <ele>335</ele>
        <time>2011-05-08T07:15:19Z</time>
      </trkpt>
      <trkpt lat="49.17322" lon="6.99639">
        <ele>335</ele>
        <time>2011-05-08T07:15:20Z</time>
      </trkpt>
      <trkpt lat="49.17323" lon="6.99639">
        <ele>335</ele>
        <time>2011-05-08T07:15:21Z</time>
      </trkpt>
      <trkpt lat="49.17324" lon="6.99639">
        <ele>335</ele>
        <time>2011-05-08T07:15:22Z</time>
      </trkpt>
      <trkpt lat="49.17325" lon="6.99639">
        <ele>335</ele>
        <time>2011-05-08T07:15:23Z</time>
      </trkpt>
      <trkpt lat="49.17327" lon="6.99638">
        <ele>335</ele>
        <time>2011-05-08T07:15:25Z</time>
      </trkpt>
      <trkpt lat="49.17329" lon="6.99637">
        <ele>335</ele>
        <time>2011-05-08T07:15:27Z</time>
      </trkpt>
      <trkpt lat="49.1733" lon="6.99637">
        <ele>335</ele>
        <time>2011-05-08T07:15:28Z</time>
      </trkpt>
      <trkpt lat="49.1733" lon="6.99639">
        <ele>335</ele>
        <time>2011-05-08T07:15:33Z</time>
      </trkpt>
      <trkpt lat="49.17329" lon="6.9964">
        <ele>335</ele>
        <time>2011-05-08T07:15:43Z</time>
      </trkpt>
      <trkpt lat="49.17327" lon="6.99642">
        <ele>333</ele>
        <time>2011-05-08T07:15:53Z</time>
      </trkpt>
      <trkpt lat="49.17329" lon="6.99641">
        <ele>333</ele>
        <time>2011-05-08T07:16:04Z</time>
      </trkpt>
      <trkpt lat="49.1733" lon="6.99642">
        <ele>333</ele>
        <time>2011-05-08T07:16:06Z</time>
      </trkpt>
      <trkpt lat="49.17332" lon="6.99642">
        <ele>333</ele>
        <time>2011-05-08T07:16:08Z</time>
      </trkpt>
      <trkpt lat="49.17333" lon="6.99643">
        <ele>333</ele>
        <time>2011-05-08T07:16:10Z</time>
      </trkpt>
      <trkpt lat="49.17334" lon="6.99643">
        <ele>333</ele>
        <time>2011-05-08T07:16:12Z</time>
      </trkpt>
      <trkpt lat="49.17334" lon="6.99645">
        <ele>333</ele>
        <time>2011-05-08T07:16:26Z</time>
      </trkpt>
      <trkpt lat="49.17333" lon="6.99645">
        <ele>333</ele>
        <time>2011-05-08T07:16:37Z</time>
      </trkpt>
      <trkpt lat="49.17332" lon="6.99646">
        <ele>333</ele>
        <time>2011-05-08T07:16:41Z</time>
      </trkpt>
      <trkpt lat="49.17333" lon="6.99647">
        <ele>333</ele>
        <time>2011-05-08T07:16:56Z</time>
      </trkpt>
      <trkpt lat="49.17334" lon="6.99648">
        <ele>333</ele>
        <time>2011-05-08T07:17:45Z</time>
      </trkpt>
      <trkpt lat="49.17336" lon="6.99648">
        <ele>333</ele>
        <time>2011-05-08T07:18:06Z</time>
      </trkpt>
      <trkpt lat="49.17334" lon="6.99649">
        <ele>333</ele>
        <time>2011-05-08T07:18:34Z</time>
      </trkpt>
      <trkpt lat="49.17335" lon="6.99649">
        <ele>333</ele>
        <time>2011-05-08T07:19:12Z</time>
      </trkpt>
      <trkpt lat="49.17334" lon="6.9965">
        <ele>333</ele>
        <time>2011-05-08T07:19:20Z</time>
      </trkpt>
      <trkpt lat="49.17335" lon="6.99651">
        <ele>333</ele>
        <time>2011-05-08T07:19:26Z</time>
      </trkpt>
      <trkpt lat="49.17335" lon="6.99649">
        <ele>333</ele>
        <time>2011-05-08T07:19:36Z</time>
      </trkpt>
      <trkpt lat="49.17334" lon="6.99647">
        <ele>333</ele>
        <time>2011-05-08T07:19:50Z</time>
      </trkpt>
      <trkpt lat="49.17335" lon="6.99648">
        <ele>333</ele>
        <time>2011-05-08T07:20:07Z</time>
      </trkpt>
      <trkpt lat="49.17334" lon="6.99649">
        <ele>333</ele>
        <time>2011-05-08T07:20:42Z</time>
      </trkpt>
      <trkpt lat="49.17333" lon="6.9965">
        <ele>334</ele>
        <time>2011-05-08T07:20:44Z</time>
      </trkpt>
      <trkpt lat="49.17332" lon="6.99651">
        <ele>336</ele>
        <time>2011-05-08T07:20:46Z</time>
      </trkpt>
      <trkpt lat="49.17333" lon="6.99651">
        <ele>338</ele>
        <time>2011-05-08T07:20:53Z</time>
      </trkpt>
      <trkpt lat="49.17333" lon="6.99653">
        <ele>338</ele>
        <time>2011-05-08T07:21:03Z</time>
      </trkpt>
      <trkpt lat="49.17334" lon="6.99652">
        <ele>338</ele>
        <time>2011-05-08T07:21:10Z</time>
      </trkpt>
      <trkpt lat="49.17336" lon="6.9965">
        <ele>338</ele>
        <time>2011-05-08T07:21:14Z</time>
      </trkpt>
      <trkpt lat="49.17336" lon="6.99648">
        <ele>338</ele>
        <time>2011-05-08T07:21:22Z</time>
      </trkpt>
      <trkpt lat="49.17337" lon="6.99647">
        <ele>338</ele>
        <time>2011-05-08T07:21:30Z</time>
      </trkpt>
      <trkpt lat="49.17339" lon="6.99649">
        <ele>338</ele>
        <time>2011-05-08T07:21:33Z</time>
      </trkpt>
      <trkpt lat="49.1734" lon="6.9965">
        <ele>337</ele>
        <time>2011-05-08T07:21:35Z</time>
      </trkpt>
      <trkpt lat="49.17341" lon="6.99652">
        <ele>337</ele>
        <time>2011-05-08T07:21:37Z</time>
      </trkpt>
      <trkpt lat="49.17342" lon="6.99654">
        <ele>336</ele>
        <time>2011-05-08T07:21:39Z</time>
      </trkpt>
      <trkpt lat="49.17344" lon="6.99656">
        <ele>336</ele>
        <time>2011-05-08T07:21:41Z</time>
      </trkpt>
      <trkpt lat="49.17345" lon="6.99658">
        <ele>336</ele>
        <time>2011-05-08T07:21:43Z</time>
      </trkpt>
      <trkpt lat="49.17346" lon="6.9966">
        <ele>335</ele>
        <time>2011-05-08T07:21:45Z</time>
      </trkpt>
      <trkpt lat="49.17347" lon="6.99663">
        <ele>335</ele>
        <time>2011-05-08T07:21:47Z</time>
      </trkpt>
      <trkpt lat="49.17349" lon="6.99664">
        <ele>335</ele>
        <time>2011-05-08T07:21:49Z</time>
      </trkpt>
      <trkpt lat="49.17351" lon="6.99666">
        <ele>334</ele>
        <time>2011-05-08T07:21:51Z</time>
      </trkpt>
      <trkpt lat="49.17353" lon="6.99667">
        <ele>334</ele>
        <time>2011-05-08T07:21:53Z</time>
      </trkpt>
      <trkpt lat="49.17354" lon="6.99667">
        <ele>334</ele>
        <time>2011-05-08T07:21:54Z</time>
      </trkpt>
      <trkpt lat="49.17356" lon="6.99667">
        <ele>333</ele>
        <time>2011-05-08T07:21:56Z</time>
      </trkpt>
      <trkpt lat="49.17357" lon="6.99667">
        <ele>333</ele>
        <time>2011-05-08T07:21:57Z</time>
      </trkpt>
      <trkpt lat="49.17359" lon="6.99666">
        <ele>332</ele>
        <time>2011-05-08T07:21:59Z</time>
      </trkpt>
      <trkpt lat="49.17361" lon="6.99665">
        <ele>332</ele>
        <time>2011-05-08T07:22:01Z</time>
      </trkpt>
      <trkpt lat="49.17363" lon="6.99663">
        <ele>331</ele>
        <time>2011-05-08T07:22:03Z</time>
      </trkpt>
      <trkpt lat="49.17364" lon="6.99661">
        <ele>331</ele>
        <time>2011-05-08T07:22:05Z</time>
      </trkpt>
      <trkpt lat="49.17366" lon="6.99658">
        <ele>331</ele>
        <time>2011-05-08T07:22:07Z</time>
      </trkpt>
      <trkpt lat="49.17368" lon="6.99656">
        <ele>330</ele>
        <time>2011-05-08T07:22:09Z</time>
      </trkpt>
      <trkpt lat="49.17369" lon="6.99655">
        <ele>330</ele>
        <time>2011-05-08T07:22:10Z</time>
      </trkpt>
      <trkpt lat="49.1737" lon="6.99654">
        <ele>330</ele>
        <time>2011-05-08T07:22:11Z</time>
      </trkpt>
      <trkpt lat="49.17371" lon="6.99652">
        <ele>330</ele>
        <time>2011-05-08T07:22:12Z</time>
      </trkpt>
      <trkpt lat="49.17373" lon="6.99651">
        <ele>330</ele>
        <time>2011-05-08T07:22:13Z</time>
      </trkpt>
      <trkpt lat="49.17374" lon="6.99648">
        <ele>330</ele>
        <time>2011-05-08T07:22:15Z</time>
      </trkpt>
      <trkpt lat="49.17375" lon="6.99646">
        <ele>330</ele>
        <time>2011-05-08T07:22:17Z</time>
      </trkpt>
      <trkpt lat="49.17377" lon="6.99643">
        <ele>330</ele>
        <time>2011-05-08T07:22:19Z</time>
      </trkpt>
      <trkpt lat="49.17378" lon="6.9964">
        <ele>329</ele>
        <time>2011-05-08T07:22:21Z</time>
      </trkpt>
      <trkpt lat="49.17379" lon="6.99638">
        <ele>329</ele>
        <time>2011-05-08T07:22:23Z</time>
      </trkpt>
      <trkpt lat="49.17381" lon="6.99635">
        <ele>328</ele>
        <time>2011-05-08T07:22:25Z</time>
      </trkpt>
      <trkpt lat="49.17382" lon="6.99633">
        <ele>327</ele>
        <time>2011-05-08T07:22:27Z</time>
      </trkpt>
      <trkpt lat="49.17383" lon="6.9963">
        <ele>327</ele>
        <time>2011-05-08T07:22:29Z</time>
      </trkpt>
      <trkpt lat="49.17385" lon="6.9963">
        <ele>327</ele>
        <time>2011-05-08T07:22:30Z</time>
      </trkpt>
      <trkpt lat="49.17386" lon="6.99627">
        <ele>327</ele>
        <time>2011-05-08T07:22:32Z</time>
      </trkpt>
      <trkpt lat="49.17387" lon="6.99625">
        <ele>327</ele>
        <time>2011-05-08T07:22:33Z</time>
      </trkpt>
      <trkpt lat="49.17387" lon="6.99623">
        <ele>327</ele>
        <time>2011-05-08T07:22:34Z</time>
      </trkpt>
      <trkpt lat="49.17389" lon="6.99621">
        <ele>327</ele>
        <time>2011-05-08T07:22:36Z</time>
      </trkpt>
      <trkpt lat="49.1739" lon="6.99618">
        <ele>327</ele>
        <time>2011-05-08T07:22:38Z</time>
      </trkpt>
      <trkpt lat="49.17391" lon="6.99615">
        <ele>327</ele>
        <time>2011-05-08T07:22:40Z</time>
      </trkpt>
      <trkpt lat="49.17392" lon="6.99613">
        <ele>327</ele>
        <time>2011-05-08T07:22:41Z</time>
      </trkpt>
      <trkpt lat="49.17392" lon="6.99611">
        <ele>327</ele>
        <time>2011-05-08T07:22:42Z</time>
      </trkpt>
      <trkpt lat="49.17395" lon="6.99608">
        <ele>327</ele>
        <time>2011-05-08T07:22:44Z</time>
      </trkpt>
      <trkpt lat="49.17397" lon="6.99606">
        <ele>327</ele>
        <time>2011-05-08T07:22:46Z</time>
      </trkpt>
      <trkpt lat="49.17398" lon="6.99604">
        <ele>327</ele>
        <time>2011-05-08T07:22:47Z</time>
      </trkpt>
      <trkpt lat="49.174" lon="6.99602">
        <ele>327</ele>
        <time>2011-05-08T07:22:49Z</time>
      </trkpt>
      <trkpt lat="49.17402" lon="6.996">
        <ele>327</ele>
        <time>2011-05-08T07:22:51Z</time>
      </trkpt>
      <trkpt lat="49.17403" lon="6.99599">
        <ele>327</ele>
        <time>2011-05-08T07:22:52Z</time>
      </trkpt>
      <trkpt lat="49.17404" lon="6.99597">
        <ele>327</ele>
        <time>2011-05-08T07:22:54Z</time>
      </trkpt>
      <trkpt lat="49.17406" lon="6.99594">
        <ele>326</ele>
        <time>2011-05-08T07:22:56Z</time>
      </trkpt>
      <trkpt lat="49.17407" lon="6.99593">
        <ele>326</ele>
        <time>2011-05-08T07:22:57Z</time>
      </trkpt>
      <trkpt lat="49.17409" lon="6.99592">
        <ele>325</ele>
        <time>2011-05-08T07:22:59Z</time>
      </trkpt>
      <trkpt lat="49.17411" lon="6.99592">
        <ele>325</ele>
        <time>2011-05-08T07:23:00Z</time>
      </trkpt>
      <trkpt lat="49.17412" lon="6.99592">
        <ele>325</ele>
        <time>2011-05-08T07:23:01Z</time>
      </trkpt>
      <trkpt lat="49.17413" lon="6.99591">
        <ele>325</ele>
        <time>2011-05-08T07:23:02Z</time>
      </trkpt>
      <trkpt lat="49.17415" lon="6.99591">
        <ele>325</ele>
        <time>2011-05-08T07:23:03Z</time>
      </trkpt>
      <trkpt lat="49.17416" lon="6.99591">
        <ele>325</ele>
        <time>2011-05-08T07:23:04Z</time>
      </trkpt>
      <trkpt lat="49.17418" lon="6.99591">
        <ele>325</ele>
        <time>2011-05-08T07:23:05Z</time>
      </trkpt>
      <trkpt lat="49.17419" lon="6.99591">
        <ele>325</ele>
        <time>2011-05-08T07:23:08Z</time>
      </trkpt>
      <trkpt lat="49.17419" lon="6.99593">
        <ele>325</ele>
        <time>2011-05-08T07:23:11Z</time>
      </trkpt>
      <trkpt lat="49.17421" lon="6.99592">
        <ele>325</ele>
        <time>2011-05-08T07:23:16Z</time>
      </trkpt>
      <trkpt lat="49.17423" lon="6.99591">
        <ele>325</ele>
        <time>2011-05-08T07:23:18Z</time>
      </trkpt>
      <trkpt lat="49.17424" lon="6.99591">
        <ele>325</ele>
        <time>2011-05-08T07:23:19Z</time>
      </trkpt>
      <trkpt lat="49.17426" lon="6.9959">
        <ele>325</ele>
        <time>2011-05-08T07:23:21Z</time>
      </trkpt>
      <trkpt lat="49.17427" lon="6.9959">
        <ele>325</ele>
        <time>2011-05-08T07:23:22Z</time>
      </trkpt>
      <trkpt lat="49.17429" lon="6.99589">
        <ele>325</ele>
        <time>2011-05-08T07:23:23Z</time>
      </trkpt>
      <trkpt lat="49.1743" lon="6.99588">
        <ele>325</ele>
        <time>2011-05-08T07:23:24Z</time>
      </trkpt>
      <trkpt lat="49.17431" lon="6.99588">
        <ele>325</ele>
        <time>2011-05-08T07:23:25Z</time>
      </trkpt>
      <trkpt lat="49.17433" lon="6.99587">
        <ele>325</ele>
        <time>2011-05-08T07:23:26Z</time>
      </trkpt>
      <trkpt lat="49.17434" lon="6.99587">
        <ele>325</ele>
        <time>2011-05-08T07:23:27Z</time>
      </trkpt>
      <trkpt lat="49.17435" lon="6.99586">
        <ele>325</ele>
        <time>2011-05-08T07:23:28Z</time>
      </trkpt>
      <trkpt lat="49.17437" lon="6.99586">
        <ele>325</ele>
        <time>2011-05-08T07:23:29Z</time>
      </trkpt>
      <trkpt lat="49.17438" lon="6.99584">
        <ele>325</ele>
        <time>2011-05-08T07:23:31Z</time>
      </trkpt>
      <trkpt lat="49.1744" lon="6.99582">
        <ele>325</ele>
        <time>2011-05-08T07:23:33Z</time>
      </trkpt>
      <trkpt lat="49.17441" lon="6.99581">
        <ele>325</ele>
        <time>2011-05-08T07:23:34Z</time>
      </trkpt>
      <trkpt lat="49.17443" lon="6.99579">
        <ele>325</ele>
        <time>2011-05-08T07:23:36Z</time>
      </trkpt>
      <trkpt lat="49.17444" lon="6.99577">
        <ele>324</ele>
        <time>2011-05-08T07:23:38Z</time>
      </trkpt>
      <trkpt lat="49.17445" lon="6.99576">
        <ele>323</ele>
        <time>2011-05-08T07:23:39Z</time>
      </trkpt>
      <trkpt lat="49.17447" lon="6.99575">
        <ele>323</ele>
        <time>2011-05-08T07:23:40Z</time>
      </trkpt>
      <trkpt lat="49.17449" lon="6.99574">
        <ele>323</ele>
        <time>2011-05-08T07:23:41Z</time>
      </trkpt>
      <trkpt lat="49.1745" lon="6.99573">
        <ele>323</ele>
        <time>2011-05-08T07:23:42Z</time>
      </trkpt>
      <trkpt lat="49.17451" lon="6.99572">
        <ele>323</ele>
        <time>2011-05-08T07:23:43Z</time>
      </trkpt>
      <trkpt lat="49.17453" lon="6.9957">
        <ele>323</ele>
        <time>2011-05-08T07:23:45Z</time>
      </trkpt>
      <trkpt lat="49.17455" lon="6.99568">
        <ele>323</ele>
        <time>2011-05-08T07:23:47Z</time>
      </trkpt>
      <trkpt lat="49.17456" lon="6.99567">
        <ele>323</ele>
        <time>2011-05-08T07:23:48Z</time>
      </trkpt>
      <trkpt lat="49.17458" lon="6.99566">
        <ele>323</ele>
        <time>2011-05-08T07:23:50Z</time>
      </trkpt>
      <trkpt lat="49.17459" lon="6.99565">
        <ele>323</ele>
        <time>2011-05-08T07:23:51Z</time>
      </trkpt>
      <trkpt lat="49.1746" lon="6.99564">
        <ele>323</ele>
        <time>2011-05-08T07:23:52Z</time>
      </trkpt>
      <trkpt lat="49.17461" lon="6.99563">
        <ele>323</ele>
        <time>2011-05-08T07:23:53Z</time>
      </trkpt>
      <trkpt lat="49.17463" lon="6.99562">
        <ele>323</ele>
        <time>2011-05-08T07:23:54Z</time>
      </trkpt>
      <trkpt lat="49.17465" lon="6.9956">
        <ele>323</ele>
        <time>2011-05-08T07:23:56Z</time>
      </trkpt>
      <trkpt lat="49.17466" lon="6.99559">
        <ele>323</ele>
        <time>2011-05-08T07:23:57Z</time>
      </trkpt>
      <trkpt lat="49.17468" lon="6.99557">
        <ele>323</ele>
        <time>2011-05-08T07:23:59Z</time>
      </trkpt>
      <trkpt lat="49.1747" lon="6.99556">
        <ele>323</ele>
        <time>2011-05-08T07:24:01Z</time>
      </trkpt>
      <trkpt lat="49.17472" lon="6.99554">
        <ele>323</ele>
        <time>2011-05-08T07:24:03Z</time>
      </trkpt>
      <trkpt lat="49.17473" lon="6.99553">
        <ele>323</ele>
        <time>2011-05-08T07:24:04Z</time>
      </trkpt>
      <trkpt lat="49.17474" lon="6.99551">
        <ele>323</ele>
        <time>2011-05-08T07:24:06Z</time>
      </trkpt>
      <trkpt lat="49.17477" lon="6.9955">
        <ele>323</ele>
        <time>2011-05-08T07:24:08Z</time>
      </trkpt>
      <trkpt lat="49.17478" lon="6.9955">
        <ele>323</ele>
        <time>2011-05-08T07:24:09Z</time>
      </trkpt>
      <trkpt lat="49.17479" lon="6.99549">
        <ele>323</ele>
        <time>2011-05-08T07:24:10Z</time>
      </trkpt>
      <trkpt lat="49.1748" lon="6.99548">
        <ele>323</ele>
        <time>2011-05-08T07:24:11Z</time>
      </trkpt>
      <trkpt lat="49.17482" lon="6.99548">
        <ele>323</ele>
        <time>2011-05-08T07:24:12Z</time>
      </trkpt>
      <trkpt lat="49.17484" lon="6.99547">
        <ele>323</ele>
        <time>2011-05-08T07:24:14Z</time>
      </trkpt>
      <trkpt lat="49.17486" lon="6.99545">
        <ele>323</ele>
        <time>2011-05-08T07:24:16Z</time>
      </trkpt>
      <trkpt lat="49.17487" lon="6.99544">
        <ele>323</ele>
        <time>2011-05-08T07:24:17Z</time>
      </trkpt>
      <trkpt lat="49.17488" lon="6.99544">
        <ele>323</ele>
        <time>2011-05-08T07:24:18Z</time>
      </trkpt>
      <trkpt lat="49.1749" lon="6.99543">
        <ele>323</ele>
        <time>2011-05-08T07:24:20Z</time>
      </trkpt>
      <trkpt lat="49.17492" lon="6.9954">
        <ele>323</ele>
        <time>2011-05-08T07:24:22Z</time>
      </trkpt>
      <trkpt lat="49.17493" lon="6.99538">
        <ele>323</ele>
        <time>2011-05-08T07:24:24Z</time>
      </trkpt>
      <trkpt lat="49.17495" lon="6.99537">
        <ele>323</ele>
        <time>2011-05-08T07:24:25Z</time>
      </trkpt>
      <trkpt lat="49.17496" lon="6.99537">
        <ele>323</ele>
        <time>2011-05-08T07:24:26Z</time>
      </trkpt>
      <trkpt lat="49.17498" lon="6.99536">
        <ele>323</ele>
        <time>2011-05-08T07:24:27Z</time>
      </trkpt>
      <trkpt lat="49.17499" lon="6.99535">
        <ele>323</ele>
        <time>2011-05-08T07:24:28Z</time>
      </trkpt>
      <trkpt lat="49.17501" lon="6.99532">
        <ele>323</ele>
        <time>2011-05-08T07:24:30Z</time>
      </trkpt>
      <trkpt lat="49.17502" lon="6.99531">
        <ele>323</ele>
        <time>2011-05-08T07:24:31Z</time>
      </trkpt>
      <trkpt lat="49.17505" lon="6.99529">
        <ele>323</ele>
        <time>2011-05-08T07:24:33Z</time>
      </trkpt>
      <trkpt lat="49.17506" lon="6.99527">
        <ele>323</ele>
        <time>2011-05-08T07:24:35Z</time>
      </trkpt>
      <trkpt lat="49.17508" lon="6.99525">
        <ele>323</ele>
        <time>2011-05-08T07:24:37Z</time>
      </trkpt>
      <trkpt lat="49.1751" lon="6.99524">
        <ele>323</ele>
        <time>2011-05-08T07:24:39Z</time>
      </trkpt>
      <trkpt lat="49.17512" lon="6.99523">
        <ele>323</ele>
        <time>2011-05-08T07:24:40Z</time>
      </trkpt>
      <trkpt lat="49.17513" lon="6.99522">
        <ele>323</ele>
        <time>2011-05-08T07:24:41Z</time>
      </trkpt>
      <trkpt lat="49.17514" lon="6.99521">
        <ele>323</ele>
        <time>2011-05-08T07:24:42Z</time>
      </trkpt>
      <trkpt lat="49.17516" lon="6.9952">
        <ele>323</ele>
        <time>2011-05-08T07:24:43Z</time>
      </trkpt>
      <trkpt lat="49.17517" lon="6.99519">
        <ele>323</ele>
        <time>2011-05-08T07:24:44Z</time>
      </trkpt>
      <trkpt lat="49.17519" lon="6.99517">
        <ele>323</ele>
        <time>2011-05-08T07:24:46Z</time>
      </trkpt>
      <trkpt lat="49.17522" lon="6.99515">
        <ele>323</ele>
        <time>2011-05-08T07:24:48Z</time>
      </trkpt>
      <trkpt lat="49.17524" lon="6.99513">
        <ele>323</ele>
        <time>2011-05-08T07:24:50Z</time>
      </trkpt>
      <trkpt lat="49.17526" lon="6.99513">
        <ele>323</ele>
        <time>2011-05-08T07:24:51Z</time>
      </trkpt>
      <trkpt lat="49.17527" lon="6.99512">
        <ele>323</ele>
        <time>2011-05-08T07:24:52Z</time>
      </trkpt>
      <trkpt lat="49.17529" lon="6.99512">
        <ele>323</ele>
        <time>2011-05-08T07:24:53Z</time>
      </trkpt>
      <trkpt lat="49.17531" lon="6.9951">
        <ele>323</ele>
        <time>2011-05-08T07:24:55Z</time>
      </trkpt>
      <trkpt lat="49.17532" lon="6.99509">
        <ele>323</ele>
        <time>2011-05-08T07:24:56Z</time>
      </trkpt>
      <trkpt lat="49.17535" lon="6.99508">
        <ele>323</ele>
        <time>2011-05-08T07:24:58Z</time>
      </trkpt>
      <trkpt lat="49.17536" lon="6.99507">
        <ele>323</ele>
        <time>2011-05-08T07:24:59Z</time>
      </trkpt>
      <trkpt lat="49.17538" lon="6.99506">
        <ele>323</ele>
        <time>2011-05-08T07:25:01Z</time>
      </trkpt>
      <trkpt lat="49.1754" lon="6.99505">
        <ele>323</ele>
        <time>2011-05-08T07:25:02Z</time>
      </trkpt>
      <trkpt lat="49.17541" lon="6.99504">
        <ele>323</ele>
        <time>2011-05-08T07:25:03Z</time>
      </trkpt>
      <trkpt lat="49.17542" lon="6.99503">
        <ele>323</ele>
        <time>2011-05-08T07:25:04Z</time>
      </trkpt>
      <trkpt lat="49.17544" lon="6.99502">
        <ele>323</ele>
        <time>2011-05-08T07:25:05Z</time>
      </trkpt>
      <trkpt lat="49.17546" lon="6.995">
        <ele>323</ele>
        <time>2011-05-08T07:25:07Z</time>
      </trkpt>
      <trkpt lat="49.17547" lon="6.99499">
        <ele>323</ele>
        <time>2011-05-08T07:25:08Z</time>
      </trkpt>
      <trkpt lat="49.17548" lon="6.99499">
        <ele>324</ele>
        <time>2011-05-08T07:25:09Z</time>
      </trkpt>
      <trkpt lat="49.17549" lon="6.99498">
        <ele>324</ele>
        <time>2011-05-08T07:25:10Z</time>
      </trkpt>
      <trkpt lat="49.17552" lon="6.99497">
        <ele>324</ele>
        <time>2011-05-08T07:25:12Z</time>
      </trkpt>
      <trkpt lat="49.17553" lon="6.99496">
        <ele>324</ele>
        <time>2011-05-08T07:25:13Z</time>
      </trkpt>
      <trkpt lat="49.17555" lon="6.99493">
        <ele>324</ele>
        <time>2011-05-08T07:25:15Z</time>
      </trkpt>
      <trkpt lat="49.17557" lon="6.99491">
        <ele>324</ele>
        <time>2011-05-08T07:25:17Z</time>
      </trkpt>
      <trkpt lat="49.17558" lon="6.99489">
        <ele>324</ele>
        <time>2011-05-08T07:25:19Z</time>
      </trkpt>
      <trkpt lat="49.1756" lon="6.99487">
        <ele>324</ele>
        <time>2011-05-08T07:25:21Z</time>
      </trkpt>
      <trkpt lat="49.17561" lon="6.99484">
        <ele>324</ele>
        <time>2011-05-08T07:25:23Z</time>
      </trkpt>
      <trkpt lat="49.17564" lon="6.99482">
        <ele>324</ele>
        <time>2011-05-08T07:25:25Z</time>
      </trkpt>
      <trkpt lat="49.17565" lon="6.9948">
        <ele>324</ele>
        <time>2011-05-08T07:25:27Z</time>
      </trkpt>
      <trkpt lat="49.17566" lon="6.99478">
        <ele>324</ele>
        <time>2011-05-08T07:25:28Z</time>
      </trkpt>
      <trkpt lat="49.17567" lon="6.99477">
        <ele>324</ele>
        <time>2011-05-08T07:25:29Z</time>
      </trkpt>
      <trkpt lat="49.17569" lon="6.99474">
        <ele>324</ele>
        <time>2011-05-08T07:25:31Z</time>
      </trkpt>
      <trkpt lat="49.17569" lon="6.99472">
        <ele>324</ele>
        <time>2011-05-08T07:25:32Z</time>
      </trkpt>
      <trkpt lat="49.17569" lon="6.9947">
        <ele>324</ele>
        <time>2011-05-08T07:25:33Z</time>
      </trkpt>
      <trkpt lat="49.17571" lon="6.99467">
        <ele>324</ele>
        <time>2011-05-08T07:25:35Z</time>
      </trkpt>
      <trkpt lat="49.17572" lon="6.99466">
        <ele>324</ele>
        <time>2011-05-08T07:25:36Z</time>
      </trkpt>
      <trkpt lat="49.17575" lon="6.99466">
        <ele>324</ele>
        <time>2011-05-08T07:25:37Z</time>
      </trkpt>
      <trkpt lat="49.17577" lon="6.99464">
        <ele>324</ele>
        <time>2011-05-08T07:25:39Z</time>
      </trkpt>
      <trkpt lat="49.1758" lon="6.99461">
        <ele>324</ele>
        <time>2011-05-08T07:25:41Z</time>
      </trkpt>
      <trkpt lat="49.17581" lon="6.9946">
        <ele>324</ele>
        <time>2011-05-08T07:25:42Z</time>
      </trkpt>
      <trkpt lat="49.17582" lon="6.99458">
        <ele>324</ele>
        <time>2011-05-08T07:25:44Z</time>
      </trkpt>
      <trkpt lat="49.17584" lon="6.99456">
        <ele>324</ele>
        <time>2011-05-08T07:25:46Z</time>
      </trkpt>
      <trkpt lat="49.17586" lon="6.99455">
        <ele>324</ele>
        <time>2011-05-08T07:25:47Z</time>
      </trkpt>
      <trkpt lat="49.17587" lon="6.99454">
        <ele>324</ele>
        <time>2011-05-08T07:25:48Z</time>
      </trkpt>
      <trkpt lat="49.17589" lon="6.99453">
        <ele>324</ele>
        <time>2011-05-08T07:25:50Z</time>
      </trkpt>
      <trkpt lat="49.17591" lon="6.99451">
        <ele>324</ele>
        <time>2011-05-08T07:25:52Z</time>
      </trkpt>
      <trkpt lat="49.17592" lon="6.9945">
        <ele>324</ele>
        <time>2011-05-08T07:25:53Z</time>
      </trkpt>
      <trkpt lat="49.17593" lon="6.99449">
        <ele>324</ele>
        <time>2011-05-08T07:25:54Z</time>
      </trkpt>
      <trkpt lat="49.17596" lon="6.99447">
        <ele>324</ele>
        <time>2011-05-08T07:25:56Z</time>
      </trkpt>
      <trkpt lat="49.17597" lon="6.99446">
        <ele>324</ele>
        <time>2011-05-08T07:25:57Z</time>
      </trkpt>
      <trkpt lat="49.17598" lon="6.99445">
        <ele>324</ele>
        <time>2011-05-08T07:25:58Z</time>
      </trkpt>
      <trkpt lat="49.176" lon="6.99444">
        <ele>324</ele>
        <time>2011-05-08T07:26:00Z</time>
      </trkpt>
      <trkpt lat="49.17602" lon="6.99442">
        <ele>324</ele>
        <time>2011-05-08T07:26:02Z</time>
      </trkpt>
      <trkpt lat="49.17604" lon="6.9944">
        <ele>324</ele>
        <time>2011-05-08T07:26:04Z</time>
      </trkpt>
      <trkpt lat="49.17606" lon="6.9944">
        <ele>324</ele>
        <time>2011-05-08T07:26:05Z</time>
      </trkpt>
      <trkpt lat="49.17608" lon="6.99439">
        <ele>324</ele>
        <time>2011-05-08T07:26:06Z</time>
      </trkpt>
      <trkpt lat="49.17609" lon="6.99438">
        <ele>324</ele>
        <time>2011-05-08T07:26:07Z</time>
      </trkpt>
      <trkpt lat="49.17611" lon="6.99436">
        <ele>325</ele>
        <time>2011-05-08T07:26:09Z</time>
      </trkpt>
      <trkpt lat="49.17612" lon="6.99435">
        <ele>325</ele>
        <time>2011-05-08T07:26:10Z</time>
      </trkpt>
      <trkpt lat="49.17614" lon="6.99434">
        <ele>325</ele>
        <time>2011-05-08T07:26:11Z</time>
      </trkpt>
      <trkpt lat="49.17615" lon="6.99434">
        <ele>325</ele>
        <time>2011-05-08T07:26:12Z</time>
      </trkpt>
      <trkpt lat="49.17616" lon="6.99433">
        <ele>325</ele>
        <time>2011-05-08T07:26:13Z</time>
      </trkpt>
      <trkpt lat="49.17618" lon="6.99432">
        <ele>325</ele>
        <time>2011-05-08T07:26:14Z</time>
      </trkpt>
      <trkpt lat="49.1762" lon="6.9943">
        <ele>326</ele>
        <time>2011-05-08T07:26:16Z</time>
      </trkpt>
      <trkpt lat="49.17622" lon="6.99429">
        <ele>326</ele>
        <time>2011-05-08T07:26:18Z</time>
      </trkpt>
      <trkpt lat="49.17625" lon="6.99427">
        <ele>327</ele>
        <time>2011-05-08T07:26:20Z</time>
      </trkpt>
      <trkpt lat="49.17626" lon="6.99426">
        <ele>327</ele>
        <time>2011-05-08T07:26:21Z</time>
      </trkpt>
      <trkpt lat="49.17627" lon="6.99425">
        <ele>327</ele>
        <time>2011-05-08T07:26:22Z</time>
      </trkpt>
      <trkpt lat="49.17629" lon="6.99423">
        <ele>327</ele>
        <time>2011-05-08T07:26:24Z</time>
      </trkpt>
      <trkpt lat="49.1763" lon="6.99421">
        <ele>327</ele>
        <time>2011-05-08T07:26:25Z</time>
      </trkpt>
      <trkpt lat="49.17632" lon="6.99419">
        <ele>327</ele>
        <time>2011-05-08T07:26:27Z</time>
      </trkpt>
      <trkpt lat="49.17634" lon="6.99417">
        <ele>327</ele>
        <time>2011-05-08T07:26:29Z</time>
      </trkpt>
      <trkpt lat="49.17636" lon="6.99416">
        <ele>327</ele>
        <time>2011-05-08T07:26:31Z</time>
      </trkpt>
      <trkpt lat="49.17637" lon="6.99415">
        <ele>327</ele>
        <time>2011-05-08T07:26:32Z</time>
      </trkpt>
      <trkpt lat="49.17638" lon="6.99414">
        <ele>327</ele>
        <time>2011-05-08T07:26:33Z</time>
      </trkpt>
      <trkpt lat="49.1764" lon="6.99414">
        <ele>327</ele>
        <time>2011-05-08T07:26:34Z</time>
      </trkpt>
      <trkpt lat="49.17641" lon="6.99413">
        <ele>327</ele>
        <time>2011-05-08T07:26:35Z</time>
      </trkpt>
      <trkpt lat="49.17642" lon="6.99411">
        <ele>327</ele>
        <time>2011-05-08T07:26:36Z</time>
      </trkpt>
      <trkpt lat="49.17643" lon="6.99411">
        <ele>327</ele>
        <time>2011-05-08T07:26:37Z</time>
      </trkpt>
      <trkpt lat="49.17644" lon="6.9941">
        <ele>327</ele>
        <time>2011-05-08T07:26:38Z</time>
      </trkpt>
      <trkpt lat="49.17646" lon="6.99408">
        <ele>327</ele>
        <time>2011-05-08T07:26:40Z</time>
      </trkpt>
      <trkpt lat="49.17648" lon="6.99407">
        <ele>327</ele>
        <time>2011-05-08T07:26:41Z</time>
      </trkpt>
      <trkpt lat="49.17649" lon="6.99406">
        <ele>327</ele>
        <time>2011-05-08T07:26:42Z</time>
      </trkpt>
      <trkpt lat="49.1765" lon="6.99406">
        <ele>327</ele>
        <time>2011-05-08T07:26:43Z</time>
      </trkpt>
      <trkpt lat="49.17652" lon="6.99403">
        <ele>327</ele>
        <time>2011-05-08T07:26:45Z</time>
      </trkpt>
      <trkpt lat="49.17654" lon="6.99402">
        <ele>327</ele>
        <time>2011-05-08T07:26:47Z</time>
      </trkpt>
      <trkpt lat="49.17656" lon="6.99401">
        <ele>327</ele>
        <time>2011-05-08T07:26:49Z</time>
      </trkpt>
      <trkpt lat="49.17657" lon="6.994">
        <ele>327</ele>
        <time>2011-05-08T07:26:50Z</time>
      </trkpt>
      <trkpt lat="49.17658" lon="6.99399">
        <ele>327</ele>
        <time>2011-05-08T07:26:51Z</time>
      </trkpt>
      <trkpt lat="49.17659" lon="6.99399">
        <ele>327</ele>
        <time>2011-05-08T07:26:52Z</time>
      </trkpt>
      <trkpt lat="49.17661" lon="6.99397">
        <ele>327</ele>
        <time>2011-05-08T07:26:54Z</time>
      </trkpt>
      <trkpt lat="49.17663" lon="6.99395">
        <ele>327</ele>
        <time>2011-05-08T07:26:56Z</time>
      </trkpt>
      <trkpt lat="49.17664" lon="6.99394">
        <ele>327</ele>
        <time>2011-05-08T07:26:57Z</time>
      </trkpt>
      <trkpt lat="49.17665" lon="6.99394">
        <ele>327</ele>
        <time>2011-05-08T07:26:58Z</time>
      </trkpt>
      <trkpt lat="49.17667" lon="6.99393">
        <ele>327</ele>
        <time>2011-05-08T07:26:59Z</time>
      </trkpt>
      <trkpt lat="49.17668" lon="6.99392">
        <ele>327</ele>
        <time>2011-05-08T07:27:00Z</time>
      </trkpt>
      <trkpt lat="49.17669" lon="6.99391">
        <ele>327</ele>
        <time>2011-05-08T07:27:01Z</time>
      </trkpt>
      <trkpt lat="49.1767" lon="6.99391">
        <ele>327</ele>
        <time>2011-05-08T07:27:02Z</time>
      </trkpt>
      <trkpt lat="49.17672" lon="6.9939">
        <ele>327</ele>
        <time>2011-05-08T07:27:03Z</time>
      </trkpt>
      <trkpt lat="49.17673" lon="6.99389">
        <ele>327</ele>
        <time>2011-05-08T07:27:04Z</time>
      </trkpt>
      <trkpt lat="49.17674" lon="6.99388">
        <ele>327</ele>
        <time>2011-05-08T07:27:05Z</time>
      </trkpt>
      <trkpt lat="49.17675" lon="6.99388">
        <ele>327</ele>
        <time>2011-05-08T07:27:06Z</time>
      </trkpt>
      <trkpt lat="49.17678" lon="6.99385">
        <ele>327</ele>
        <time>2011-05-08T07:27:08Z</time>
      </trkpt>
      <trkpt lat="49.17679" lon="6.99384">
        <ele>327</ele>
        <time>2011-05-08T07:27:10Z</time>
      </trkpt>
      <trkpt lat="49.1768" lon="6.99383">
        <ele>328</ele>
        <time>2011-05-08T07:27:11Z</time>
      </trkpt>
      <trkpt lat="49.17682" lon="6.99382">
        <ele>328</ele>
        <time>2011-05-08T07:27:12Z</time>
      </trkpt>
      <trkpt lat="49.17684" lon="6.9938">
        <ele>328</ele>
        <time>2011-05-08T07:27:14Z</time>
      </trkpt>
      <trkpt lat="49.17685" lon="6.99379">
        <ele>328</ele>
        <time>2011-05-08T07:27:15Z</time>
      </trkpt>
      <trkpt lat="49.17686" lon="6.99379">
        <ele>328</ele>
        <time>2011-05-08T07:27:16Z</time>
      </trkpt>
      <trkpt lat="49.17688" lon="6.99378">
        <ele>328</ele>
        <time>2011-05-08T07:27:17Z</time>
      </trkpt>
      <trkpt lat="49.1769" lon="6.99377">
        <ele>328</ele>
        <time>2011-05-08T07:27:19Z</time>
      </trkpt>
      <trkpt lat="49.17691" lon="6.99376">
        <ele>328</ele>
        <time>2011-05-08T07:27:20Z</time>
      </trkpt>
      <trkpt lat="49.17692" lon="6.99375">
        <ele>329</ele>
        <time>2011-05-08T07:27:21Z</time>
      </trkpt>
      <trkpt lat="49.17694" lon="6.99374">
        <ele>329</ele>
        <time>2011-05-08T07:27:23Z</time>
      </trkpt>
      <trkpt lat="49.17696" lon="6.99373">
        <ele>329</ele>
        <time>2011-05-08T07:27:25Z</time>
      </trkpt>
      <trkpt lat="49.17697" lon="6.99372">
        <ele>329</ele>
        <time>2011-05-08T07:27:27Z</time>
      </trkpt>
      <trkpt lat="49.17699" lon="6.9937">
        <ele>330</ele>
        <time>2011-05-08T07:27:30Z</time>
      </trkpt>
      <trkpt lat="49.17701" lon="6.99368">
        <ele>330</ele>
        <time>2011-05-08T07:27:32Z</time>
      </trkpt>
      <trkpt lat="49.17703" lon="6.99367">
        <ele>330</ele>
        <time>2011-05-08T07:27:34Z</time>
      </trkpt>
      <trkpt lat="49.17704" lon="6.99365">
        <ele>331</ele>
        <time>2011-05-08T07:27:36Z</time>
      </trkpt>
      <trkpt lat="49.17707" lon="6.99362">
        <ele>331</ele>
        <time>2011-05-08T07:27:38Z</time>
      </trkpt>
      <trkpt lat="49.17708" lon="6.9936">
        <ele>332</ele>
        <time>2011-05-08T07:27:40Z</time>
      </trkpt>
      <trkpt lat="49.1771" lon="6.99357">
        <ele>332</ele>
        <time>2011-05-08T07:27:42Z</time>
      </trkpt>
      <trkpt lat="49.17711" lon="6.99356">
        <ele>332</ele>
        <time>2011-05-08T07:27:44Z</time>
      </trkpt>
      <trkpt lat="49.17713" lon="6.99355">
        <ele>333</ele>
        <time>2011-05-08T07:27:46Z</time>
      </trkpt>
      <trkpt lat="49.17715" lon="6.99353">
        <ele>333</ele>
        <time>2011-05-08T07:27:48Z</time>
      </trkpt>
      <trkpt lat="49.17717" lon="6.99352">
        <ele>333</ele>
        <time>2011-05-08T07:27:49Z</time>
      </trkpt>
      <trkpt lat="49.17719" lon="6.9935">
        <ele>333</ele>
        <time>2011-05-08T07:27:51Z</time>
      </trkpt>
      <trkpt lat="49.1772" lon="6.99349">
        <ele>333</ele>
        <time>2011-05-08T07:27:53Z</time>
      </trkpt>
      <trkpt lat="49.17722" lon="6.99348">
        <ele>333</ele>
        <time>2011-05-08T07:27:54Z</time>
      </trkpt>
      <trkpt lat="49.17723" lon="6.99348">
        <ele>333</ele>
        <time>2011-05-08T07:27:55Z</time>
      </trkpt>
      <trkpt lat="49.17724" lon="6.99347">
        <ele>333</ele>
        <time>2011-05-08T07:27:56Z</time>
      </trkpt>
      <trkpt lat="49.17725" lon="6.99347">
        <ele>333</ele>
        <time>2011-05-08T07:27:57Z</time>
      </trkpt>
      <trkpt lat="49.17727" lon="6.99346">
        <ele>333</ele>
        <time>2011-05-08T07:27:58Z</time>
      </trkpt>
      <trkpt lat="49.17728" lon="6.99346">
        <ele>333</ele>
        <time>2011-05-08T07:27:59Z</time>
      </trkpt>
      <trkpt lat="49.17731" lon="6.99345">
        <ele>333</ele>
        <time>2011-05-08T07:28:01Z</time>
      </trkpt>
      <trkpt lat="49.17732" lon="6.99344">
        <ele>333</ele>
        <time>2011-05-08T07:28:02Z</time>
      </trkpt>
      <trkpt lat="49.17733" lon="6.99343">
        <ele>333</ele>
        <time>2011-05-08T07:28:03Z</time>
      </trkpt>
      <trkpt lat="49.17734" lon="6.99343">
        <ele>333</ele>
        <time>2011-05-08T07:28:04Z</time>
      </trkpt>
      <trkpt lat="49.17736" lon="6.99342">
        <ele>333</ele>
        <time>2011-05-08T07:28:05Z</time>
      </trkpt>
      <trkpt lat="49.17737" lon="6.99342">
        <ele>333</ele>
        <time>2011-05-08T07:28:06Z</time>
      </trkpt>
      <trkpt lat="49.17738" lon="6.99341">
        <ele>333</ele>
        <time>2011-05-08T07:28:07Z</time>
      </trkpt>
      <trkpt lat="49.1774" lon="6.99341">
        <ele>333</ele>
        <time>2011-05-08T07:28:08Z</time>
      </trkpt>
      <trkpt lat="49.17741" lon="6.9934">
        <ele>333</ele>
        <time>2011-05-08T07:28:09Z</time>
      </trkpt>
      <trkpt lat="49.17742" lon="6.9934">
        <ele>333</ele>
        <time>2011-05-08T07:28:10Z</time>
      </trkpt>
      <trkpt lat="49.17743" lon="6.99339">
        <ele>333</ele>
        <time>2011-05-08T07:28:11Z</time>
      </trkpt>
      <trkpt lat="49.17745" lon="6.99339">
        <ele>333</ele>
        <time>2011-05-08T07:28:12Z</time>
      </trkpt>
      <trkpt lat="49.17746" lon="6.99339">
        <ele>333</ele>
        <time>2011-05-08T07:28:13Z</time>
      </trkpt>
      <trkpt lat="49.17747" lon="6.99338">
        <ele>333</ele>
        <time>2011-05-08T07:28:14Z</time>
      </trkpt>
      <trkpt lat="49.17749" lon="6.99337">
        <ele>333</ele>
        <time>2011-05-08T07:28:15Z</time>
      </trkpt>
      <trkpt lat="49.1775" lon="6.99337">
        <ele>333</ele>
        <time>2011-05-08T07:28:16Z</time>
      </trkpt>
      <trkpt lat="49.17752" lon="6.99336">
        <ele>333</ele>
        <time>2011-05-08T07:28:18Z</time>
      </trkpt>
      <trkpt lat="49.17753" lon="6.99335">
        <ele>333</ele>
        <time>2011-05-08T07:28:19Z</time>
      </trkpt>
      <trkpt lat="49.17754" lon="6.99335">
        <ele>333</ele>
        <time>2011-05-08T07:28:20Z</time>
      </trkpt>
      <trkpt lat="49.17756" lon="6.99334">
        <ele>333</ele>
        <time>2011-05-08T07:28:21Z</time>
      </trkpt>
      <trkpt lat="49.17757" lon="6.99333">
        <ele>333</ele>
        <time>2011-05-08T07:28:22Z</time>
      </trkpt>
      <trkpt lat="49.17758" lon="6.99332">
        <ele>333</ele>
        <time>2011-05-08T07:28:23Z</time>
      </trkpt>
      <trkpt lat="49.1776" lon="6.99331">
        <ele>333</ele>
        <time>2011-05-08T07:28:24Z</time>
      </trkpt>
      <trkpt lat="49.17761" lon="6.99331">
        <ele>333</ele>
        <time>2011-05-08T07:28:25Z</time>
      </trkpt>
      <trkpt lat="49.17763" lon="6.9933">
        <ele>333</ele>
        <time>2011-05-08T07:28:26Z</time>
      </trkpt>
      <trkpt lat="49.17764" lon="6.99328">
        <ele>333</ele>
        <time>2011-05-08T07:28:28Z</time>
      </trkpt>
      <trkpt lat="49.17766" lon="6.99327">
        <ele>333</ele>
        <time>2011-05-08T07:28:30Z</time>
      </trkpt>
      <trkpt lat="49.17768" lon="6.99326">
        <ele>333</ele>
        <time>2011-05-08T07:28:32Z</time>
      </trkpt>
      <trkpt lat="49.17769" lon="6.99326">
        <ele>333</ele>
        <time>2011-05-08T07:28:33Z</time>
      </trkpt>
      <trkpt lat="49.17771" lon="6.99324">
        <ele>333</ele>
        <time>2011-05-08T07:28:35Z</time>
      </trkpt>
      <trkpt lat="49.17772" lon="6.99324">
        <ele>333</ele>
        <time>2011-05-08T07:28:36Z</time>
      </trkpt>
      <trkpt lat="49.17773" lon="6.99323">
        <ele>333</ele>
        <time>2011-05-08T07:28:38Z</time>
      </trkpt>
      <trkpt lat="49.17775" lon="6.99322">
        <ele>333</ele>
        <time>2011-05-08T07:28:39Z</time>
      </trkpt>
      <trkpt lat="49.17776" lon="6.99322">
        <ele>333</ele>
        <time>2011-05-08T07:28:40Z</time>
      </trkpt>
      <trkpt lat="49.17777" lon="6.99321">
        <ele>333</ele>
        <time>2011-05-08T07:28:41Z</time>
      </trkpt>
      <trkpt lat="49.17779" lon="6.9932">
        <ele>333</ele>
        <time>2011-05-08T07:28:42Z</time>
      </trkpt>
      <trkpt lat="49.17781" lon="6.99319">
        <ele>333</ele>
        <time>2011-05-08T07:28:44Z</time>
      </trkpt>
      <trkpt lat="49.17783" lon="6.99319">
        <ele>333</ele>
        <time>2011-05-08T07:28:45Z</time>
      </trkpt>
      <trkpt lat="49.17784" lon="6.99319">
        <ele>333</ele>
        <time>2011-05-08T07:28:46Z</time>
      </trkpt>
      <trkpt lat="49.17786" lon="6.99318">
        <ele>332</ele>
        <time>2011-05-08T07:28:47Z</time>
      </trkpt>
      <trkpt lat="49.17787" lon="6.99317">
        <ele>332</ele>
        <time>2011-05-08T07:28:48Z</time>
      </trkpt>
      <trkpt lat="49.17789" lon="6.99315">
        <ele>332</ele>
        <time>2011-05-08T07:28:50Z</time>
      </trkpt>
      <trkpt lat="49.1779" lon="6.99315">
        <ele>332</ele>
        <time>2011-05-08T07:28:51Z</time>
      </trkpt>
      <trkpt lat="49.17791" lon="6.99315">
        <ele>332</ele>
        <time>2011-05-08T07:28:52Z</time>
      </trkpt>
      <trkpt lat="49.17793" lon="6.99314">
        <ele>331</ele>
        <time>2011-05-08T07:28:53Z</time>
      </trkpt>
      <trkpt lat="49.17794" lon="6.99313">
        <ele>331</ele>
        <time>2011-05-08T07:28:54Z</time>
      </trkpt>
      <trkpt lat="49.17795" lon="6.99312">
        <ele>331</ele>
        <time>2011-05-08T07:28:55Z</time>
      </trkpt>
      <trkpt lat="49.17796" lon="6.99311">
        <ele>331</ele>
        <time>2011-05-08T07:28:56Z</time>
      </trkpt>
      <trkpt lat="49.17798" lon="6.9931">
        <ele>331</ele>
        <time>2011-05-08T07:28:57Z</time>
      </trkpt>
      <trkpt lat="49.17799" lon="6.9931">
        <ele>331</ele>
        <time>2011-05-08T07:28:58Z</time>
      </trkpt>
      <trkpt lat="49.17801" lon="6.99309">
        <ele>331</ele>
        <time>2011-05-08T07:28:59Z</time>
      </trkpt>
      <trkpt lat="49.17802" lon="6.99308">
        <ele>331</ele>
        <time>2011-05-08T07:29:00Z</time>
      </trkpt>
      <trkpt lat="49.17804" lon="6.99308">
        <ele>331</ele>
        <time>2011-05-08T07:29:01Z</time>
      </trkpt>
      <trkpt lat="49.17805" lon="6.99307">
        <ele>331</ele>
        <time>2011-05-08T07:29:02Z</time>
      </trkpt>
      <trkpt lat="49.17807" lon="6.99307">
        <ele>331</ele>
        <time>2011-05-08T07:29:03Z</time>
      </trkpt>
      <trkpt lat="49.17809" lon="6.99306">
        <ele>331</ele>
        <time>2011-05-08T07:29:04Z</time>
      </trkpt>
      <trkpt lat="49.1781" lon="6.99305">
        <ele>331</ele>
        <time>2011-05-08T07:29:05Z</time>
      </trkpt>
      <trkpt lat="49.17812" lon="6.99303">
        <ele>331</ele>
        <time>2011-05-08T07:29:07Z</time>
      </trkpt>
      <trkpt lat="49.17813" lon="6.99303">
        <ele>331</ele>
        <time>2011-05-08T07:29:08Z</time>
      </trkpt>
      <trkpt lat="49.17815" lon="6.99301">
        <ele>330</ele>
        <time>2011-05-08T07:29:10Z</time>
      </trkpt>
      <trkpt lat="49.17816" lon="6.993">
        <ele>330</ele>
        <time>2011-05-08T07:29:11Z</time>
      </trkpt>
      <trkpt lat="49.17817" lon="6.993">
        <ele>330</ele>
        <time>2011-05-08T07:29:12Z</time>
      </trkpt>
      <trkpt lat="49.17818" lon="6.99299">
        <ele>329</ele>
        <time>2011-05-08T07:29:13Z</time>
      </trkpt>
      <trkpt lat="49.1782" lon="6.99299">
        <ele>329</ele>
        <time>2011-05-08T07:29:14Z</time>
      </trkpt>
      <trkpt lat="49.17821" lon="6.99298">
        <ele>329</ele>
        <time>2011-05-08T07:29:15Z</time>
      </trkpt>
      <trkpt lat="49.17823" lon="6.99298">
        <ele>329</ele>
        <time>2011-05-08T07:29:16Z</time>
      </trkpt>
      <trkpt lat="49.17824" lon="6.99297">
        <ele>329</ele>
        <time>2011-05-08T07:29:17Z</time>
      </trkpt>
      <trkpt lat="49.17826" lon="6.99295">
        <ele>329</ele>
        <time>2011-05-08T07:29:19Z</time>
      </trkpt>
      <trkpt lat="49.17828" lon="6.99294">
        <ele>329</ele>
        <time>2011-05-08T07:29:20Z</time>
      </trkpt>
      <trkpt lat="49.17829" lon="6.99293">
        <ele>328</ele>
        <time>2011-05-08T07:29:21Z</time>
      </trkpt>
      <trkpt lat="49.1783" lon="6.99292">
        <ele>328</ele>
        <time>2011-05-08T07:29:22Z</time>
      </trkpt>
      <trkpt lat="49.17831" lon="6.99291">
        <ele>328</ele>
        <time>2011-05-08T07:29:23Z</time>
      </trkpt>
      <trkpt lat="49.17833" lon="6.9929">
        <ele>328</ele>
        <time>2011-05-08T07:29:24Z</time>
      </trkpt>
      <trkpt lat="49.17835" lon="6.99288">
        <ele>328</ele>
        <time>2011-05-08T07:29:26Z</time>
      </trkpt>
      <trkpt lat="49.17837" lon="6.99287">
        <ele>328</ele>
        <time>2011-05-08T07:29:28Z</time>
      </trkpt>
      <trkpt lat="49.17839" lon="6.99286">
        <ele>328</ele>
        <time>2011-05-08T07:29:29Z</time>
      </trkpt>
      <trkpt lat="49.1784" lon="6.99285">
        <ele>328</ele>
        <time>2011-05-08T07:29:30Z</time>
      </trkpt>
      <trkpt lat="49.17841" lon="6.99283">
        <ele>327</ele>
        <time>2011-05-08T07:29:32Z</time>
      </trkpt>
      <trkpt lat="49.17843" lon="6.99282">
        <ele>327</ele>
        <time>2011-05-08T07:29:33Z</time>
      </trkpt>
      <trkpt lat="49.17844" lon="6.99281">
        <ele>327</ele>
        <time>2011-05-08T07:29:34Z</time>
      </trkpt>
      <trkpt lat="49.17846" lon="6.99279">
        <ele>326</ele>
        <time>2011-05-08T07:29:36Z</time>
      </trkpt>
      <trkpt lat="49.17848" lon="6.99277">
        <ele>326</ele>
        <time>2011-05-08T07:29:38Z</time>
      </trkpt>
      <trkpt lat="49.17849" lon="6.99276">
        <ele>326</ele>
        <time>2011-05-08T07:29:39Z</time>
      </trkpt>
      <trkpt lat="49.1785" lon="6.99274">
        <ele>325</ele>
        <time>2011-05-08T07:29:41Z</time>
      </trkpt>
      <trkpt lat="49.17851" lon="6.99275">
        <ele>324</ele>
        <time>2011-05-08T07:29:44Z</time>
      </trkpt>
      <trkpt lat="49.17853" lon="6.99272">
        <ele>324</ele>
        <time>2011-05-08T07:29:48Z</time>
      </trkpt>
      <trkpt lat="49.17854" lon="6.99272">
        <ele>324</ele>
        <time>2011-05-08T07:29:49Z</time>
      </trkpt>
      <trkpt lat="49.17855" lon="6.99271">
        <ele>324</ele>
        <time>2011-05-08T07:29:50Z</time>
      </trkpt>
      <trkpt lat="49.17857" lon="6.9927">
        <ele>324</ele>
        <time>2011-05-08T07:29:52Z</time>
      </trkpt>
      <trkpt lat="49.17859" lon="6.99269">
        <ele>324</ele>
        <time>2011-05-08T07:29:53Z</time>
      </trkpt>
      <trkpt lat="49.1786" lon="6.99268">
        <ele>324</ele>
        <time>2011-05-08T07:29:54Z</time>
      </trkpt>
      <trkpt lat="49.17862" lon="6.99267">
        <ele>324</ele>
        <time>2011-05-08T07:29:55Z</time>
      </trkpt>
      <trkpt lat="49.17863" lon="6.99264">
        <ele>324</ele>
        <time>2011-05-08T07:29:57Z</time>
      </trkpt>
      <trkpt lat="49.17865" lon="6.99263">
        <ele>324</ele>
        <time>2011-05-08T07:29:58Z</time>
      </trkpt>
      <trkpt lat="49.17866" lon="6.99262">
        <ele>324</ele>
        <time>2011-05-08T07:29:59Z</time>
      </trkpt>
      <trkpt lat="49.17867" lon="6.99261">
        <ele>324</ele>
        <time>2011-05-08T07:30:00Z</time>
      </trkpt>
      <trkpt lat="49.17868" lon="6.9926">
        <ele>324</ele>
        <time>2011-05-08T07:30:01Z</time>
      </trkpt>
      <trkpt lat="49.1787" lon="6.99259">
        <ele>324</ele>
        <time>2011-05-08T07:30:02Z</time>
      </trkpt>
      <trkpt lat="49.17871" lon="6.99258">
        <ele>324</ele>
        <time>2011-05-08T07:30:03Z</time>
      </trkpt>
      <trkpt lat="49.17872" lon="6.99257">
        <ele>323</ele>
        <time>2011-05-08T07:30:04Z</time>
      </trkpt>
      <trkpt lat="49.17873" lon="6.99257">
        <ele>323</ele>
        <time>2011-05-08T07:30:05Z</time>
      </trkpt>
      <trkpt lat="49.17875" lon="6.99256">
        <ele>323</ele>
        <time>2011-05-08T07:30:06Z</time>
      </trkpt>
      <trkpt lat="49.17876" lon="6.99255">
        <ele>323</ele>
        <time>2011-05-08T07:30:07Z</time>
      </trkpt>
      <trkpt lat="49.17878" lon="6.99253">
        <ele>323</ele>
        <time>2011-05-08T07:30:09Z</time>
      </trkpt>
      <trkpt lat="49.17879" lon="6.99252">
        <ele>323</ele>
        <time>2011-05-08T07:30:10Z</time>
      </trkpt>
      <trkpt lat="49.17881" lon="6.99251">
        <ele>323</ele>
        <time>2011-05-08T07:30:11Z</time>
      </trkpt>
      <trkpt lat="49.17883" lon="6.99249">
        <ele>323</ele>
        <time>2011-05-08T07:30:13Z</time>
      </trkpt>
      <trkpt lat="49.17884" lon="6.99247">
        <ele>322</ele>
        <time>2011-05-08T07:30:15Z</time>
      </trkpt>
      <trkpt lat="49.17886" lon="6.99245">
        <ele>322</ele>
        <time>2011-05-08T07:30:17Z</time>
      </trkpt>
      <trkpt lat="49.17887" lon="6.99244">
        <ele>321</ele>
        <time>2011-05-08T07:30:18Z</time>
      </trkpt>
      <trkpt lat="49.17888" lon="6.99242">
        <ele>321</ele>
        <time>2011-05-08T07:30:20Z</time>
      </trkpt>
      <trkpt lat="49.17889" lon="6.99241">
        <ele>320</ele>
        <time>2011-05-08T07:30:21Z</time>
      </trkpt>
      <trkpt lat="49.17891" lon="6.99239">
        <ele>320</ele>
        <time>2011-05-08T07:30:23Z</time>
      </trkpt>
      <trkpt lat="49.17893" lon="6.99236">
        <ele>319</ele>
        <time>2011-05-08T07:30:25Z</time>
      </trkpt>
      <trkpt lat="49.17896" lon="6.99234">
        <ele>319</ele>
        <time>2011-05-08T07:30:27Z</time>
      </trkpt>
      <trkpt lat="49.17897" lon="6.99232">
        <ele>318</ele>
        <time>2011-05-08T07:30:29Z</time>
      </trkpt>
      <trkpt lat="49.17899" lon="6.99231">
        <ele>318</ele>
        <time>2011-05-08T07:30:30Z</time>
      </trkpt>
      <trkpt lat="49.179" lon="6.9923">
        <ele>318</ele>
        <time>2011-05-08T07:30:32Z</time>
      </trkpt>
      <trkpt lat="49.17902" lon="6.99228">
        <ele>318</ele>
        <time>2011-05-08T07:30:34Z</time>
      </trkpt>
      <trkpt lat="49.17903" lon="6.99227">
        <ele>317</ele>
        <time>2011-05-08T07:30:35Z</time>
      </trkpt>
      <trkpt lat="49.17905" lon="6.99225">
        <ele>317</ele>
        <time>2011-05-08T07:30:37Z</time>
      </trkpt>
      <trkpt lat="49.17907" lon="6.99222">
        <ele>316</ele>
        <time>2011-05-08T07:30:39Z</time>
      </trkpt>
      <trkpt lat="49.17909" lon="6.9922">
        <ele>316</ele>
        <time>2011-05-08T07:30:41Z</time>
      </trkpt>
      <trkpt lat="49.1791" lon="6.99217">
        <ele>315</ele>
        <time>2011-05-08T07:30:43Z</time>
      </trkpt>
      <trkpt lat="49.17911" lon="6.99214">
        <ele>313</ele>
        <time>2011-05-08T07:30:45Z</time>
      </trkpt>
      <trkpt lat="49.17911" lon="6.99213">
        <ele>313</ele>
        <time>2011-05-08T07:30:46Z</time>
      </trkpt>
      <trkpt lat="49.17913" lon="6.9921">
        <ele>311</ele>
        <time>2011-05-08T07:30:49Z</time>
      </trkpt>
      <trkpt lat="49.17914" lon="6.99207">
        <ele>310</ele>
        <time>2011-05-08T07:30:51Z</time>
      </trkpt>
      <trkpt lat="49.17915" lon="6.99204">
        <ele>310</ele>
        <time>2011-05-08T07:30:53Z</time>
      </trkpt>
      <trkpt lat="49.17916" lon="6.99202">
        <ele>310</ele>
        <time>2011-05-08T07:30:54Z</time>
      </trkpt>
      <trkpt lat="49.17916" lon="6.992">
        <ele>309</ele>
        <time>2011-05-08T07:30:55Z</time>
      </trkpt>
      <trkpt lat="49.17916" lon="6.99197">
        <ele>309</ele>
        <time>2011-05-08T07:30:57Z</time>
      </trkpt>
      <trkpt lat="49.17917" lon="6.99195">
        <ele>308</ele>
        <time>2011-05-08T07:30:59Z</time>
      </trkpt>
      <trkpt lat="49.17918" lon="6.99193">
        <ele>307</ele>
        <time>2011-05-08T07:31:01Z</time>
      </trkpt>
      <trkpt lat="49.17919" lon="6.99191">
        <ele>307</ele>
        <time>2011-05-08T07:31:03Z</time>
      </trkpt>
      <trkpt lat="49.1792" lon="6.99189">
        <ele>307</ele>
        <time>2011-05-08T07:31:05Z</time>
      </trkpt>
      <trkpt lat="49.17921" lon="6.99187">
        <ele>307</ele>
        <time>2011-05-08T07:31:07Z</time>
      </trkpt>
      <trkpt lat="49.1792" lon="6.99185">
        <ele>307</ele>
        <time>2011-05-08T07:31:09Z</time>
      </trkpt>
      <trkpt lat="49.17919" lon="6.99182">
        <ele>307</ele>
        <time>2011-05-08T07:31:11Z</time>
      </trkpt>
      <trkpt lat="49.17919" lon="6.9918">
        <ele>307</ele>
        <time>2011-05-08T07:31:12Z</time>
      </trkpt>
      <trkpt lat="49.17918" lon="6.99179">
        <ele>307</ele>
        <time>2011-05-08T07:31:13Z</time>
      </trkpt>
      <trkpt lat="49.17917" lon="6.99175">
        <ele>307</ele>
        <time>2011-05-08T07:31:15Z</time>
      </trkpt>
      <trkpt lat="49.17917" lon="6.99173">
        <ele>307</ele>
        <time>2011-05-08T07:31:16Z</time>
      </trkpt>
      <trkpt lat="49.17917" lon="6.99171">
        <ele>307</ele>
        <time>2011-05-08T07:31:17Z</time>
      </trkpt>
      <trkpt lat="49.17916" lon="6.99169">
        <ele>307</ele>
        <time>2011-05-08T07:31:18Z</time>
      </trkpt>
      <trkpt lat="49.17916" lon="6.99167">
        <ele>307</ele>
        <time>2011-05-08T07:31:20Z</time>
      </trkpt>
      <trkpt lat="49.17916" lon="6.99165">
        <ele>307</ele>
        <time>2011-05-08T07:31:22Z</time>
      </trkpt>
      <trkpt lat="49.17915" lon="6.99163">
        <ele>307</ele>
        <time>2011-05-08T07:31:25Z</time>
      </trkpt>
      <trkpt lat="49.17914" lon="6.99161">
        <ele>307</ele>
        <time>2011-05-08T07:31:28Z</time>
      </trkpt>
      <trkpt lat="49.17914" lon="6.99159">
        <ele>307</ele>
        <time>2011-05-08T07:31:31Z</time>
      </trkpt>
      <trkpt lat="49.17914" lon="6.99156">
        <ele>307</ele>
        <time>2011-05-08T07:31:34Z</time>
      </trkpt>
      <trkpt lat="49.17915" lon="6.99155">
        <ele>307</ele>
        <time>2011-05-08T07:31:35Z</time>
      </trkpt>
      <trkpt lat="49.17916" lon="6.99153">
        <ele>308</ele>
        <time>2011-05-08T07:31:36Z</time>
      </trkpt>
      <trkpt lat="49.17916" lon="6.99151">
        <ele>308</ele>
        <time>2011-05-08T07:31:38Z</time>
      </trkpt>
      <trkpt lat="49.17916" lon="6.99148">
        <ele>309</ele>
        <time>2011-05-08T07:31:40Z</time>
      </trkpt>
      <trkpt lat="49.17915" lon="6.99146">
        <ele>309</ele>
        <time>2011-05-08T07:31:41Z</time>
      </trkpt>
      <trkpt lat="49.17915" lon="6.99144">
        <ele>309</ele>
        <time>2011-05-08T07:31:42Z</time>
      </trkpt>
      <trkpt lat="49.17914" lon="6.99142">
        <ele>309</ele>
        <time>2011-05-08T07:31:43Z</time>
      </trkpt>
      <trkpt lat="49.17913" lon="6.99141">
        <ele>309</ele>
        <time>2011-05-08T07:31:44Z</time>
      </trkpt>
      <trkpt lat="49.17913" lon="6.99139">
        <ele>309</ele>
        <time>2011-05-08T07:31:45Z</time>
      </trkpt>
      <trkpt lat="49.17913" lon="6.99136">
        <ele>309</ele>
        <time>2011-05-08T07:31:47Z</time>
      </trkpt>
      <trkpt lat="49.17912" lon="6.99133">
        <ele>309</ele>
        <time>2011-05-08T07:31:49Z</time>
      </trkpt>
      <trkpt lat="49.17912" lon="6.99132">
        <ele>309</ele>
        <time>2011-05-08T07:31:50Z</time>
      </trkpt>
      <trkpt lat="49.17911" lon="6.9913">
        <ele>309</ele>
        <time>2011-05-08T07:31:51Z</time>
      </trkpt>
      <trkpt lat="49.17911" lon="6.99128">
        <ele>309</ele>
        <time>2011-05-08T07:31:52Z</time>
      </trkpt>
      <trkpt lat="49.1791" lon="6.99125">
        <ele>309</ele>
        <time>2011-05-08T07:31:53Z</time>
      </trkpt>
      <trkpt lat="49.17909" lon="6.99123">
        <ele>309</ele>
        <time>2011-05-08T07:31:54Z</time>
      </trkpt>
      <trkpt lat="49.17907" lon="6.9912">
        <ele>309</ele>
        <time>2011-05-08T07:31:56Z</time>
      </trkpt>
      <trkpt lat="49.17907" lon="6.99117">
        <ele>309</ele>
        <time>2011-05-08T07:31:58Z</time>
      </trkpt>
      <trkpt lat="49.17907" lon="6.99115">
        <ele>309</ele>
        <time>2011-05-08T07:31:59Z</time>
      </trkpt>
      <trkpt lat="49.17906" lon="6.99112">
        <ele>309</ele>
        <time>2011-05-08T07:32:01Z</time>
      </trkpt>
      <trkpt lat="49.17905" lon="6.99109">
        <ele>309</ele>
        <time>2011-05-08T07:32:02Z</time>
      </trkpt>
      <trkpt lat="49.17905" lon="6.99107">
        <ele>309</ele>
        <time>2011-05-08T07:32:03Z</time>
      </trkpt>
      <trkpt lat="49.17905" lon="6.99104">
        <ele>309</ele>
        <time>2011-05-08T07:32:04Z</time>
      </trkpt>
      <trkpt lat="49.17904" lon="6.99101">
        <ele>309</ele>
        <time>2011-05-08T07:32:06Z</time>
      </trkpt>
      <trkpt lat="49.17904" lon="6.99098">
        <ele>309</ele>
        <time>2011-05-08T07:32:08Z</time>
      </trkpt>
      <trkpt lat="49.17904" lon="6.99095">
        <ele>309</ele>
        <time>2011-05-08T07:32:09Z</time>
      </trkpt>
      <trkpt lat="49.17903" lon="6.99093">
        <ele>309</ele>
        <time>2011-05-08T07:32:10Z</time>
      </trkpt>
      <trkpt lat="49.17903" lon="6.99091">
        <ele>309</ele>
        <time>2011-05-08T07:32:11Z</time>
      </trkpt>
      <trkpt lat="49.17902" lon="6.99089">
        <ele>309</ele>
        <time>2011-05-08T07:32:13Z</time>
      </trkpt>
      <trkpt lat="49.17902" lon="6.99087">
        <ele>309</ele>
        <time>2011-05-08T07:32:15Z</time>
      </trkpt>
      <trkpt lat="49.17902" lon="6.99084">
        <ele>309</ele>
        <time>2011-05-08T07:32:17Z</time>
      </trkpt>
      <trkpt lat="49.179" lon="6.99082">
        <ele>309</ele>
        <time>2011-05-08T07:32:19Z</time>
      </trkpt>
      <trkpt lat="49.17899" lon="6.9908">
        <ele>309</ele>
        <time>2011-05-08T07:32:22Z</time>
      </trkpt>
      <trkpt lat="49.17899" lon="6.99078">
        <ele>309</ele>
        <time>2011-05-08T07:32:23Z</time>
      </trkpt>
      <trkpt lat="49.17899" lon="6.99075">
        <ele>309</ele>
        <time>2011-05-08T07:32:24Z</time>
      </trkpt>
      <trkpt lat="49.17899" lon="6.99073">
        <ele>309</ele>
        <time>2011-05-08T07:32:25Z</time>
      </trkpt>
      <trkpt lat="49.179" lon="6.99071">
        <ele>309</ele>
        <time>2011-05-08T07:32:26Z</time>
      </trkpt>
      <trkpt lat="49.179" lon="6.99069">
        <ele>309</ele>
        <time>2011-05-08T07:32:27Z</time>
      </trkpt>
      <trkpt lat="49.179" lon="6.99066">
        <ele>309</ele>
        <time>2011-05-08T07:32:28Z</time>
      </trkpt>
      <trkpt lat="49.17899" lon="6.99063">
        <ele>310</ele>
        <time>2011-05-08T07:32:30Z</time>
      </trkpt>
      <trkpt lat="49.17898" lon="6.99062">
        <ele>310</ele>
        <time>2011-05-08T07:32:31Z</time>
      </trkpt>
      <trkpt lat="49.17898" lon="6.99059">
        <ele>310</ele>
        <time>2011-05-08T07:32:32Z</time>
      </trkpt>
      <trkpt lat="49.17898" lon="6.99057">
        <ele>310</ele>
        <time>2011-05-08T07:32:33Z</time>
      </trkpt>
      <trkpt lat="49.17897" lon="6.99054">
        <ele>311</ele>
        <time>2011-05-08T07:32:35Z</time>
      </trkpt>
      <trkpt lat="49.17896" lon="6.99051">
        <ele>312</ele>
        <time>2011-05-08T07:32:37Z</time>
      </trkpt>
      <trkpt lat="49.17896" lon="6.99048">
        <ele>313</ele>
        <time>2011-05-08T07:32:39Z</time>
      </trkpt>
      <trkpt lat="49.17897" lon="6.99045">
        <ele>314</ele>
        <time>2011-05-08T07:32:41Z</time>
      </trkpt>
      <trkpt lat="49.17897" lon="6.99043">
        <ele>315</ele>
        <time>2011-05-08T07:32:43Z</time>
      </trkpt>
      <trkpt lat="49.17897" lon="6.99041">
        <ele>315</ele>
        <time>2011-05-08T07:32:44Z</time>
      </trkpt>
      <trkpt lat="49.17896" lon="6.99038">
        <ele>315</ele>
        <time>2011-05-08T07:32:45Z</time>
      </trkpt>
      <trkpt lat="49.17895" lon="6.99036">
        <ele>315</ele>
        <time>2011-05-08T07:32:46Z</time>
      </trkpt>
      <trkpt lat="49.17895" lon="6.99034">
        <ele>315</ele>
        <time>2011-05-08T07:32:47Z</time>
      </trkpt>
      <trkpt lat="49.17895" lon="6.99032">
        <ele>315</ele>
        <time>2011-05-08T07:32:48Z</time>
      </trkpt>
      <trkpt lat="49.17895" lon="6.9903">
        <ele>315</ele>
        <time>2011-05-08T07:32:49Z</time>
      </trkpt>
      <trkpt lat="49.17896" lon="6.99028">
        <ele>315</ele>
        <time>2011-05-08T07:32:51Z</time>
      </trkpt>
      <trkpt lat="49.17897" lon="6.99026">
        <ele>315</ele>
        <time>2011-05-08T07:32:52Z</time>
      </trkpt>
      <trkpt lat="49.17898" lon="6.99024">
        <ele>315</ele>
        <time>2011-05-08T07:32:53Z</time>
      </trkpt>
      <trkpt lat="49.17898" lon="6.99021">
        <ele>316</ele>
        <time>2011-05-08T07:32:55Z</time>
      </trkpt>
      <trkpt lat="49.17899" lon="6.99019">
        <ele>316</ele>
        <time>2011-05-08T07:32:56Z</time>
      </trkpt>
      <trkpt lat="49.17899" lon="6.99018">
        <ele>316</ele>
        <time>2011-05-08T07:32:57Z</time>
      </trkpt>
      <trkpt lat="49.179" lon="6.99016">
        <ele>316</ele>
        <time>2011-05-08T07:32:58Z</time>
      </trkpt>
      <trkpt lat="49.179" lon="6.99014">
        <ele>316</ele>
        <time>2011-05-08T07:32:59Z</time>
      </trkpt>
      <trkpt lat="49.179" lon="6.99011">
        <ele>316</ele>
        <time>2011-05-08T07:33:01Z</time>
      </trkpt>
      <trkpt lat="49.179" lon="6.99008">
        <ele>316</ele>
        <time>2011-05-08T07:33:03Z</time>
      </trkpt>
      <trkpt lat="49.17899" lon="6.99006">
        <ele>316</ele>
        <time>2011-05-08T07:33:05Z</time>
      </trkpt>
      <trkpt lat="49.17897" lon="6.99004">
        <ele>316</ele>
        <time>2011-05-08T07:33:06Z</time>
      </trkpt>
      <trkpt lat="49.17896" lon="6.99001">
        <ele>316</ele>
        <time>2011-05-08T07:33:08Z</time>
      </trkpt>
      <trkpt lat="49.17895" lon="6.98999">
        <ele>315</ele>
        <time>2011-05-08T07:33:10Z</time>
      </trkpt>
      <trkpt lat="49.17894" lon="6.98997">
        <ele>315</ele>
        <time>2011-05-08T07:33:12Z</time>
      </trkpt>
      <trkpt lat="49.17893" lon="6.98995">
        <ele>315</ele>
        <time>2011-05-08T07:33:14Z</time>
      </trkpt>
      <trkpt lat="49.17893" lon="6.98993">
        <ele>315</ele>
        <time>2011-05-08T07:33:16Z</time>
      </trkpt>
      <trkpt lat="49.17894" lon="6.98993">
        <ele>315</ele>
        <time>2011-05-08T07:33:17Z</time>
      </trkpt>
      <trkpt lat="49.17894" lon="6.9899">
        <ele>315</ele>
        <time>2011-05-08T07:33:19Z</time>
      </trkpt>
      <trkpt lat="49.17894" lon="6.98988">
        <ele>315</ele>
        <time>2011-05-08T07:33:20Z</time>
      </trkpt>
      <trkpt lat="49.17895" lon="6.98986">
        <ele>315</ele>
        <time>2011-05-08T07:33:21Z</time>
      </trkpt>
      <trkpt lat="49.17895" lon="6.98983">
        <ele>315</ele>
        <time>2011-05-08T07:33:23Z</time>
      </trkpt>
      <trkpt lat="49.17896" lon="6.98981">
        <ele>315</ele>
        <time>2011-05-08T07:33:25Z</time>
      </trkpt>
      <trkpt lat="49.17896" lon="6.98978">
        <ele>315</ele>
        <time>2011-05-08T07:33:27Z</time>
      </trkpt>
      <trkpt lat="49.17896" lon="6.98977">
        <ele>315</ele>
        <time>2011-05-08T07:33:28Z</time>
      </trkpt>
      <trkpt lat="49.17897" lon="6.98975">
        <ele>315</ele>
        <time>2011-05-08T07:33:29Z</time>
      </trkpt>
      <trkpt lat="49.17897" lon="6.98973">
        <ele>315</ele>
        <time>2011-05-08T07:33:30Z</time>
      </trkpt>
      <trkpt lat="49.17897" lon="6.98971">
        <ele>315</ele>
        <time>2011-05-08T07:33:31Z</time>
      </trkpt>
      <trkpt lat="49.17896" lon="6.98969">
        <ele>315</ele>
        <time>2011-05-08T07:33:32Z</time>
      </trkpt>
      <trkpt lat="49.17895" lon="6.98967">
        <ele>315</ele>
        <time>2011-05-08T07:33:33Z</time>
      </trkpt>
      <trkpt lat="49.17894" lon="6.98965">
        <ele>315</ele>
        <time>2011-05-08T07:33:34Z</time>
      </trkpt>
      <trkpt lat="49.17892" lon="6.98962">
        <ele>315</ele>
        <time>2011-05-08T07:33:36Z</time>
      </trkpt>
      <trkpt lat="49.17893" lon="6.9896">
        <ele>315</ele>
        <time>2011-05-08T07:33:38Z</time>
      </trkpt>
      <trkpt lat="49.17892" lon="6.98958">
        <ele>315</ele>
        <time>2011-05-08T07:33:40Z</time>
      </trkpt>
      <trkpt lat="49.17892" lon="6.98956">
        <ele>315</ele>
        <time>2011-05-08T07:33:42Z</time>
      </trkpt>
      <trkpt lat="49.17892" lon="6.98953">
        <ele>315</ele>
        <time>2011-05-08T07:33:44Z</time>
      </trkpt>
      <trkpt lat="49.17894" lon="6.9895">
        <ele>314</ele>
        <time>2011-05-08T07:33:46Z</time>
      </trkpt>
      <trkpt lat="49.17894" lon="6.98948">
        <ele>314</ele>
        <time>2011-05-08T07:33:47Z</time>
      </trkpt>
      <trkpt lat="49.17894" lon="6.98946">
        <ele>313</ele>
        <time>2011-05-08T07:33:48Z</time>
      </trkpt>
      <trkpt lat="49.17894" lon="6.98944">
        <ele>313</ele>
        <time>2011-05-08T07:33:49Z</time>
      </trkpt>
      <trkpt lat="49.17895" lon="6.98943">
        <ele>313</ele>
        <time>2011-05-08T07:33:50Z</time>
      </trkpt>
      <trkpt lat="49.17895" lon="6.98939">
        <ele>313</ele>
        <time>2011-05-08T07:33:52Z</time>
      </trkpt>
      <trkpt lat="49.17895" lon="6.98937">
        <ele>313</ele>
        <time>2011-05-08T07:33:54Z</time>
      </trkpt>
      <trkpt lat="49.17894" lon="6.98934">
        <ele>313</ele>
        <time>2011-05-08T07:33:56Z</time>
      </trkpt>
      <trkpt lat="49.17894" lon="6.98932">
        <ele>313</ele>
        <time>2011-05-08T07:33:58Z</time>
      </trkpt>
      <trkpt lat="49.17894" lon="6.98928">
        <ele>313</ele>
        <time>2011-05-08T07:34:00Z</time>
      </trkpt>
      <trkpt lat="49.17894" lon="6.98927">
        <ele>313</ele>
        <time>2011-05-08T07:34:01Z</time>
      </trkpt>
      <trkpt lat="49.17894" lon="6.98923">
        <ele>313</ele>
        <time>2011-05-08T07:34:03Z</time>
      </trkpt>
      <trkpt lat="49.17894" lon="6.98922">
        <ele>313</ele>
        <time>2011-05-08T07:34:04Z</time>
      </trkpt>
      <trkpt lat="49.17894" lon="6.9892">
        <ele>313</ele>
        <time>2011-05-08T07:34:05Z</time>
      </trkpt>
      <trkpt lat="49.17895" lon="6.98917">
        <ele>313</ele>
        <time>2011-05-08T07:34:07Z</time>
      </trkpt>
      <trkpt lat="49.17896" lon="6.98915">
        <ele>313</ele>
        <time>2011-05-08T07:34:08Z</time>
      </trkpt>
      <trkpt lat="49.17896" lon="6.98913">
        <ele>313</ele>
        <time>2011-05-08T07:34:09Z</time>
      </trkpt>
      <trkpt lat="49.17897" lon="6.9891">
        <ele>313</ele>
        <time>2011-05-08T07:34:11Z</time>
      </trkpt>
      <trkpt lat="49.17897" lon="6.98907">
        <ele>313</ele>
        <time>2011-05-08T07:34:12Z</time>
      </trkpt>
      <trkpt lat="49.17897" lon="6.98906">
        <ele>313</ele>
        <time>2011-05-08T07:34:13Z</time>
      </trkpt>
      <trkpt lat="49.17896" lon="6.98903">
        <ele>313</ele>
        <time>2011-05-08T07:34:15Z</time>
      </trkpt>
      <trkpt lat="49.17896" lon="6.98901">
        <ele>313</ele>
        <time>2011-05-08T07:34:16Z</time>
      </trkpt>
      <trkpt lat="49.17896" lon="6.98898">
        <ele>313</ele>
        <time>2011-05-08T07:34:17Z</time>
      </trkpt>
      <trkpt lat="49.17895" lon="6.98896">
        <ele>313</ele>
        <time>2011-05-08T07:34:18Z</time>
      </trkpt>
      <trkpt lat="49.17895" lon="6.98893">
        <ele>313</ele>
        <time>2011-05-08T07:34:20Z</time>
      </trkpt>
      <trkpt lat="49.17896" lon="6.9889">
        <ele>313</ele>
        <time>2011-05-08T07:34:22Z</time>
      </trkpt>
      <trkpt lat="49.17896" lon="6.98888">
        <ele>313</ele>
        <time>2011-05-08T07:34:24Z</time>
      </trkpt>
      <trkpt lat="49.17897" lon="6.98885">
        <ele>313</ele>
        <time>2011-05-08T07:34:26Z</time>
      </trkpt>
      <trkpt lat="49.17897" lon="6.98883">
        <ele>313</ele>
        <time>2011-05-08T07:34:27Z</time>
      </trkpt>
      <trkpt lat="49.17897" lon="6.98882">
        <ele>313</ele>
        <time>2011-05-08T07:34:28Z</time>
      </trkpt>
      <trkpt lat="49.17897" lon="6.9888">
        <ele>313</ele>
        <time>2011-05-08T07:34:29Z</time>
      </trkpt>
      <trkpt lat="49.17897" lon="6.98878">
        <ele>313</ele>
        <time>2011-05-08T07:34:30Z</time>
      </trkpt>
      <trkpt lat="49.17897" lon="6.98876">
        <ele>313</ele>
        <time>2011-05-08T07:34:31Z</time>
      </trkpt>
      <trkpt lat="49.17897" lon="6.98874">
        <ele>313</ele>
        <time>2011-05-08T07:34:32Z</time>
      </trkpt>
      <trkpt lat="49.17897" lon="6.98871">
        <ele>313</ele>
        <time>2011-05-08T07:34:33Z</time>
      </trkpt>
      <trkpt lat="49.17897" lon="6.9887">
        <ele>313</ele>
        <time>2011-05-08T07:34:34Z</time>
      </trkpt>
      <trkpt lat="49.17897" lon="6.98868">
        <ele>313</ele>
        <time>2011-05-08T07:34:35Z</time>
      </trkpt>
      <trkpt lat="49.17896" lon="6.98866">
        <ele>313</ele>
        <time>2011-05-08T07:34:36Z</time>
      </trkpt>
      <trkpt lat="49.17896" lon="6.98864">
        <ele>313</ele>
        <time>2011-05-08T07:34:37Z</time>
      </trkpt>
      <trkpt lat="49.17896" lon="6.98862">
        <ele>313</ele>
        <time>2011-05-08T07:34:38Z</time>
      </trkpt>
      <trkpt lat="49.17896" lon="6.98859">
        <ele>313</ele>
        <time>2011-05-08T07:34:40Z</time>
      </trkpt>
      <trkpt lat="49.17897" lon="6.98857">
        <ele>313</ele>
        <time>2011-05-08T07:34:41Z</time>
      </trkpt>
      <trkpt lat="49.17897" lon="6.98855">
        <ele>313</ele>
        <time>2011-05-08T07:34:42Z</time>
      </trkpt>
      <trkpt lat="49.17897" lon="6.98853">
        <ele>313</ele>
        <time>2011-05-08T07:34:43Z</time>
      </trkpt>
      <trkpt lat="49.17898" lon="6.98851">
        <ele>313</ele>
        <time>2011-05-08T07:34:44Z</time>
      </trkpt>
      <trkpt lat="49.17898" lon="6.98849">
        <ele>313</ele>
        <time>2011-05-08T07:34:45Z</time>
      </trkpt>
      <trkpt lat="49.17899" lon="6.98846">
        <ele>313</ele>
        <time>2011-05-08T07:34:47Z</time>
      </trkpt>
      <trkpt lat="49.179" lon="6.98844">
        <ele>313</ele>
        <time>2011-05-08T07:34:48Z</time>
      </trkpt>
      <trkpt lat="49.17901" lon="6.98841">
        <ele>313</ele>
        <time>2011-05-08T07:34:50Z</time>
      </trkpt>
      <trkpt lat="49.17902" lon="6.98838">
        <ele>313</ele>
        <time>2011-05-08T07:34:52Z</time>
      </trkpt>
      <trkpt lat="49.17903" lon="6.98835">
        <ele>313</ele>
        <time>2011-05-08T07:34:54Z</time>
      </trkpt>
      <trkpt lat="49.17902" lon="6.98833">
        <ele>313</ele>
        <time>2011-05-08T07:34:55Z</time>
      </trkpt>
      <trkpt lat="49.17902" lon="6.98831">
        <ele>313</ele>
        <time>2011-05-08T07:34:57Z</time>
      </trkpt>
      <trkpt lat="49.17902" lon="6.98829">
        <ele>313</ele>
        <time>2011-05-08T07:34:58Z</time>
      </trkpt>
      <trkpt lat="49.17901" lon="6.98827">
        <ele>313</ele>
        <time>2011-05-08T07:34:59Z</time>
      </trkpt>
      <trkpt lat="49.17901" lon="6.98825">
        <ele>313</ele>
        <time>2011-05-08T07:35:00Z</time>
      </trkpt>
      <trkpt lat="49.17901" lon="6.98822">
        <ele>313</ele>
        <time>2011-05-08T07:35:01Z</time>
      </trkpt>
      <trkpt lat="49.17901" lon="6.9882">
        <ele>313</ele>
        <time>2011-05-08T07:35:02Z</time>
      </trkpt>
      <trkpt lat="49.17902" lon="6.98818">
        <ele>313</ele>
        <time>2011-05-08T07:35:03Z</time>
      </trkpt>
      <trkpt lat="49.17901" lon="6.98817">
        <ele>313</ele>
        <time>2011-05-08T07:35:04Z</time>
      </trkpt>
      <trkpt lat="49.17901" lon="6.98815">
        <ele>313</ele>
        <time>2011-05-08T07:35:05Z</time>
      </trkpt>
      <trkpt lat="49.17901" lon="6.98813">
        <ele>313</ele>
        <time>2011-05-08T07:35:06Z</time>
      </trkpt>
      <trkpt lat="49.17901" lon="6.98811">
        <ele>313</ele>
        <time>2011-05-08T07:35:07Z</time>
      </trkpt>
      <trkpt lat="49.179" lon="6.98809">
        <ele>313</ele>
        <time>2011-05-08T07:35:08Z</time>
      </trkpt>
      <trkpt lat="49.179" lon="6.98807">
        <ele>313</ele>
        <time>2011-05-08T07:35:09Z</time>
      </trkpt>
      <trkpt lat="49.179" lon="6.98805">
        <ele>313</ele>
        <time>2011-05-08T07:35:10Z</time>
      </trkpt>
      <trkpt lat="49.179" lon="6.98802">
        <ele>313</ele>
        <time>2011-05-08T07:35:12Z</time>
      </trkpt>
      <trkpt lat="49.17899" lon="6.988">
        <ele>313</ele>
        <time>2011-05-08T07:35:13Z</time>
      </trkpt>
      <trkpt lat="49.17899" lon="6.98798">
        <ele>313</ele>
        <time>2011-05-08T07:35:14Z</time>
      </trkpt>
      <trkpt lat="49.179" lon="6.98795">
        <ele>313</ele>
        <time>2011-05-08T07:35:16Z</time>
      </trkpt>
      <trkpt lat="49.179" lon="6.98793">
        <ele>313</ele>
        <time>2011-05-08T07:35:17Z</time>
      </trkpt>
      <trkpt lat="49.17901" lon="6.9879">
        <ele>313</ele>
        <time>2011-05-08T07:35:19Z</time>
      </trkpt>
      <trkpt lat="49.17902" lon="6.98788">
        <ele>313</ele>
        <time>2011-05-08T07:35:20Z</time>
      </trkpt>
      <trkpt lat="49.17902" lon="6.98787">
        <ele>313</ele>
        <time>2011-05-08T07:35:21Z</time>
      </trkpt>
      <trkpt lat="49.17902" lon="6.98785">
        <ele>313</ele>
        <time>2011-05-08T07:35:22Z</time>
      </trkpt>
      <trkpt lat="49.17902" lon="6.98782">
        <ele>313</ele>
        <time>2011-05-08T07:35:23Z</time>
      </trkpt>
      <trkpt lat="49.17902" lon="6.9878">
        <ele>313</ele>
        <time>2011-05-08T07:35:24Z</time>
      </trkpt>
      <trkpt lat="49.17902" lon="6.98778">
        <ele>313</ele>
        <time>2011-05-08T07:35:25Z</time>
      </trkpt>
      <trkpt lat="49.17902" lon="6.98777">
        <ele>312</ele>
        <time>2011-05-08T07:35:26Z</time>
      </trkpt>
      <trkpt lat="49.17904" lon="6.98776">
        <ele>312</ele>
        <time>2011-05-08T07:35:27Z</time>
      </trkpt>
      <trkpt lat="49.17904" lon="6.98774">
        <ele>312</ele>
        <time>2011-05-08T07:35:28Z</time>
      </trkpt>
      <trkpt lat="49.17905" lon="6.98771">
        <ele>311</ele>
        <time>2011-05-08T07:35:30Z</time>
      </trkpt>
      <trkpt lat="49.17905" lon="6.98769">
        <ele>311</ele>
        <time>2011-05-08T07:35:32Z</time>
      </trkpt>
      <trkpt lat="49.17906" lon="6.98767">
        <ele>311</ele>
        <time>2011-05-08T07:35:33Z</time>
      </trkpt>
      <trkpt lat="49.17906" lon="6.98765">
        <ele>311</ele>
        <time>2011-05-08T07:35:34Z</time>
      </trkpt>
      <trkpt lat="49.17907" lon="6.98763">
        <ele>311</ele>
        <time>2011-05-08T07:35:35Z</time>
      </trkpt>
      <trkpt lat="49.17907" lon="6.98761">
        <ele>311</ele>
        <time>2011-05-08T07:35:36Z</time>
      </trkpt>
      <trkpt lat="49.17908" lon="6.98759">
        <ele>311</ele>
        <time>2011-05-08T07:35:37Z</time>
      </trkpt>
      <trkpt lat="49.17909" lon="6.98756">
        <ele>311</ele>
        <time>2011-05-08T07:35:39Z</time>
      </trkpt>
      <trkpt lat="49.1791" lon="6.98754">
        <ele>311</ele>
        <time>2011-05-08T07:35:40Z</time>
      </trkpt>
      <trkpt lat="49.1791" lon="6.98752">
        <ele>311</ele>
        <time>2011-05-08T07:35:41Z</time>
      </trkpt>
      <trkpt lat="49.17909" lon="6.98749">
        <ele>311</ele>
        <time>2011-05-08T07:35:43Z</time>
      </trkpt>
      <trkpt lat="49.1791" lon="6.98747">
        <ele>311</ele>
        <time>2011-05-08T07:35:45Z</time>
      </trkpt>
      <trkpt lat="49.17911" lon="6.98744">
        <ele>311</ele>
        <time>2011-05-08T07:35:47Z</time>
      </trkpt>
      <trkpt lat="49.17912" lon="6.98742">
        <ele>311</ele>
        <time>2011-05-08T07:35:48Z</time>
      </trkpt>
      <trkpt lat="49.17913" lon="6.9874">
        <ele>311</ele>
        <time>2011-05-08T07:35:49Z</time>
      </trkpt>
      <trkpt lat="49.17913" lon="6.98738">
        <ele>311</ele>
        <time>2011-05-08T07:35:50Z</time>
      </trkpt>
      <trkpt lat="49.17913" lon="6.98736">
        <ele>311</ele>
        <time>2011-05-08T07:35:51Z</time>
      </trkpt>
      <trkpt lat="49.17913" lon="6.98734">
        <ele>311</ele>
        <time>2011-05-08T07:35:52Z</time>
      </trkpt>
      <trkpt lat="49.17913" lon="6.98731">
        <ele>311</ele>
        <time>2011-05-08T07:35:54Z</time>
      </trkpt>
      <trkpt lat="49.17915" lon="6.98728">
        <ele>311</ele>
        <time>2011-05-08T07:35:56Z</time>
      </trkpt>
      <trkpt lat="49.17915" lon="6.98726">
        <ele>310</ele>
        <time>2011-05-08T07:35:57Z</time>
      </trkpt>
      <trkpt lat="49.17916" lon="6.98724">
        <ele>310</ele>
        <time>2011-05-08T07:35:59Z</time>
      </trkpt>
      <trkpt lat="49.17916" lon="6.98722">
        <ele>310</ele>
        <time>2011-05-08T07:36:00Z</time>
      </trkpt>
      <trkpt lat="49.17918" lon="6.98721">
        <ele>310</ele>
        <time>2011-05-08T07:36:01Z</time>
      </trkpt>
      <trkpt lat="49.17919" lon="6.98719">
        <ele>310</ele>
        <time>2011-05-08T07:36:02Z</time>
      </trkpt>
      <trkpt lat="49.17919" lon="6.98717">
        <ele>310</ele>
        <time>2011-05-08T07:36:03Z</time>
      </trkpt>
      <trkpt lat="49.17919" lon="6.98716">
        <ele>310</ele>
        <time>2011-05-08T07:36:04Z</time>
      </trkpt>
      <trkpt lat="49.1792" lon="6.98712">
        <ele>310</ele>
        <time>2011-05-08T07:36:06Z</time>
      </trkpt>
      <trkpt lat="49.17922" lon="6.98711">
        <ele>310</ele>
        <time>2011-05-08T07:36:07Z</time>
      </trkpt>
      <trkpt lat="49.17924" lon="6.98711">
        <ele>310</ele>
        <time>2011-05-08T07:36:08Z</time>
      </trkpt>
      <trkpt lat="49.17925" lon="6.98708">
        <ele>310</ele>
        <time>2011-05-08T07:36:10Z</time>
      </trkpt>
      <trkpt lat="49.17925" lon="6.98706">
        <ele>310</ele>
        <time>2011-05-08T07:36:11Z</time>
      </trkpt>
      <trkpt lat="49.17926" lon="6.98704">
        <ele>310</ele>
        <time>2011-05-08T07:36:12Z</time>
      </trkpt>
      <trkpt lat="49.17926" lon="6.98702">
        <ele>310</ele>
        <time>2011-05-08T07:36:13Z</time>
      </trkpt>
      <trkpt lat="49.17926" lon="6.98701">
        <ele>311</ele>
        <time>2011-05-08T07:36:14Z</time>
      </trkpt>
      <trkpt lat="49.17927" lon="6.98698">
        <ele>312</ele>
        <time>2011-05-08T07:36:16Z</time>
      </trkpt>
      <trkpt lat="49.17927" lon="6.98696">
        <ele>312</ele>
        <time>2011-05-08T07:36:17Z</time>
      </trkpt>
      <trkpt lat="49.17928" lon="6.98693">
        <ele>312</ele>
        <time>2011-05-08T07:36:19Z</time>
      </trkpt>
      <trkpt lat="49.17928" lon="6.98691">
        <ele>312</ele>
        <time>2011-05-08T07:36:20Z</time>
      </trkpt>
      <trkpt lat="49.17928" lon="6.98689">
        <ele>312</ele>
        <time>2011-05-08T07:36:22Z</time>
      </trkpt>
      <trkpt lat="49.17929" lon="6.98686">
        <ele>312</ele>
        <time>2011-05-08T07:36:24Z</time>
      </trkpt>
      <trkpt lat="49.1793" lon="6.98685">
        <ele>312</ele>
        <time>2011-05-08T07:36:25Z</time>
      </trkpt>
      <trkpt lat="49.17931" lon="6.98683">
        <ele>312</ele>
        <time>2011-05-08T07:36:26Z</time>
      </trkpt>
      <trkpt lat="49.17931" lon="6.98681">
        <ele>312</ele>
        <time>2011-05-08T07:36:27Z</time>
      </trkpt>
      <trkpt lat="49.17933" lon="6.98678">
        <ele>312</ele>
        <time>2011-05-08T07:36:29Z</time>
      </trkpt>
      <trkpt lat="49.17933" lon="6.98676">
        <ele>312</ele>
        <time>2011-05-08T07:36:30Z</time>
      </trkpt>
      <trkpt lat="49.17934" lon="6.98674">
        <ele>312</ele>
        <time>2011-05-08T07:36:31Z</time>
      </trkpt>
      <trkpt lat="49.17935" lon="6.98673">
        <ele>312</ele>
        <time>2011-05-08T07:36:32Z</time>
      </trkpt>
      <trkpt lat="49.17936" lon="6.9867">
        <ele>313</ele>
        <time>2011-05-08T07:36:34Z</time>
      </trkpt>
      <trkpt lat="49.17937" lon="6.98668">
        <ele>315</ele>
        <time>2011-05-08T07:36:36Z</time>
      </trkpt>
      <trkpt lat="49.17938" lon="6.98664">
        <ele>316</ele>
        <time>2011-05-08T07:36:38Z</time>
      </trkpt>
      <trkpt lat="49.17938" lon="6.98663">
        <ele>316</ele>
        <time>2011-05-08T07:36:39Z</time>
      </trkpt>
      <trkpt lat="49.17938" lon="6.98661">
        <ele>317</ele>
        <time>2011-05-08T07:36:40Z</time>
      </trkpt>
      <trkpt lat="49.17939" lon="6.98658">
        <ele>317</ele>
        <time>2011-05-08T07:36:42Z</time>
      </trkpt>
      <trkpt lat="49.17939" lon="6.98656">
        <ele>317</ele>
        <time>2011-05-08T07:36:43Z</time>
      </trkpt>
      <trkpt lat="49.17939" lon="6.98655">
        <ele>317</ele>
        <time>2011-05-08T07:36:44Z</time>
      </trkpt>
      <trkpt lat="49.17939" lon="6.98652">
        <ele>317</ele>
        <time>2011-05-08T07:36:46Z</time>
      </trkpt>
      <trkpt lat="49.17939" lon="6.9865">
        <ele>317</ele>
        <time>2011-05-08T07:36:47Z</time>
      </trkpt>
      <trkpt lat="49.17939" lon="6.98648">
        <ele>317</ele>
        <time>2011-05-08T07:36:48Z</time>
      </trkpt>
      <trkpt lat="49.1794" lon="6.98647">
        <ele>317</ele>
        <time>2011-05-08T07:36:49Z</time>
      </trkpt>
      <trkpt lat="49.17941" lon="6.98643">
        <ele>317</ele>
        <time>2011-05-08T07:36:51Z</time>
      </trkpt>
      <trkpt lat="49.17942" lon="6.9864">
        <ele>317</ele>
        <time>2011-05-08T07:36:53Z</time>
      </trkpt>
      <trkpt lat="49.17942" lon="6.98637">
        <ele>317</ele>
        <time>2011-05-08T07:36:54Z</time>
      </trkpt>
      <trkpt lat="49.17943" lon="6.98635">
        <ele>317</ele>
        <time>2011-05-08T07:36:55Z</time>
      </trkpt>
      <trkpt lat="49.17943" lon="6.98632">
        <ele>317</ele>
        <time>2011-05-08T07:36:56Z</time>
      </trkpt>
      <trkpt lat="49.17943" lon="6.9863">
        <ele>317</ele>
        <time>2011-05-08T07:36:57Z</time>
      </trkpt>
      <trkpt lat="49.17943" lon="6.98629">
        <ele>317</ele>
        <time>2011-05-08T07:36:58Z</time>
      </trkpt>
      <trkpt lat="49.17943" lon="6.98625">
        <ele>317</ele>
        <time>2011-05-08T07:37:00Z</time>
      </trkpt>
      <trkpt lat="49.17943" lon="6.98623">
        <ele>317</ele>
        <time>2011-05-08T07:37:01Z</time>
      </trkpt>
      <trkpt lat="49.17943" lon="6.98621">
        <ele>317</ele>
        <time>2011-05-08T07:37:02Z</time>
      </trkpt>
      <trkpt lat="49.17944" lon="6.98619">
        <ele>317</ele>
        <time>2011-05-08T07:37:04Z</time>
      </trkpt>
      <trkpt lat="49.17946" lon="6.98616">
        <ele>317</ele>
        <time>2011-05-08T07:37:06Z</time>
      </trkpt>
      <trkpt lat="49.17947" lon="6.98614">
        <ele>317</ele>
        <time>2011-05-08T07:37:07Z</time>
      </trkpt>
      <trkpt lat="49.17947" lon="6.98613">
        <ele>317</ele>
        <time>2011-05-08T07:37:08Z</time>
      </trkpt>
      <trkpt lat="49.17947" lon="6.98611">
        <ele>317</ele>
        <time>2011-05-08T07:37:09Z</time>
      </trkpt>
      <trkpt lat="49.17948" lon="6.98608">
        <ele>316</ele>
        <time>2011-05-08T07:37:11Z</time>
      </trkpt>
      <trkpt lat="49.17949" lon="6.98606">
        <ele>316</ele>
        <time>2011-05-08T07:37:13Z</time>
      </trkpt>
      <trkpt lat="49.1795" lon="6.98602">
        <ele>316</ele>
        <time>2011-05-08T07:37:15Z</time>
      </trkpt>
      <trkpt lat="49.1795" lon="6.98601">
        <ele>316</ele>
        <time>2011-05-08T07:37:16Z</time>
      </trkpt>
      <trkpt lat="49.17951" lon="6.98597">
        <ele>316</ele>
        <time>2011-05-08T07:37:18Z</time>
      </trkpt>
      <trkpt lat="49.17952" lon="6.98595">
        <ele>316</ele>
        <time>2011-05-08T07:37:19Z</time>
      </trkpt>
      <trkpt lat="49.17952" lon="6.98592">
        <ele>316</ele>
        <time>2011-05-08T07:37:21Z</time>
      </trkpt>
      <trkpt lat="49.17953" lon="6.98591">
        <ele>316</ele>
        <time>2011-05-08T07:37:22Z</time>
      </trkpt>
      <trkpt lat="49.17955" lon="6.9859">
        <ele>316</ele>
        <time>2011-05-08T07:37:24Z</time>
      </trkpt>
      <trkpt lat="49.17957" lon="6.98588">
        <ele>316</ele>
        <time>2011-05-08T07:37:26Z</time>
      </trkpt>
      <trkpt lat="49.17958" lon="6.98586">
        <ele>316</ele>
        <time>2011-05-08T07:37:28Z</time>
      </trkpt>
      <trkpt lat="49.1796" lon="6.98585">
        <ele>316</ele>
        <time>2011-05-08T07:37:29Z</time>
      </trkpt>
      <trkpt lat="49.1796" lon="6.98583">
        <ele>316</ele>
        <time>2011-05-08T07:37:30Z</time>
      </trkpt>
      <trkpt lat="49.17962" lon="6.98583">
        <ele>316</ele>
        <time>2011-05-08T07:37:31Z</time>
      </trkpt>
      <trkpt lat="49.17963" lon="6.98579">
        <ele>316</ele>
        <time>2011-05-08T07:37:33Z</time>
      </trkpt>
      <trkpt lat="49.17964" lon="6.98577">
        <ele>316</ele>
        <time>2011-05-08T07:37:35Z</time>
      </trkpt>
      <trkpt lat="49.17965" lon="6.98575">
        <ele>316</ele>
        <time>2011-05-08T07:37:36Z</time>
      </trkpt>
      <trkpt lat="49.17966" lon="6.98573">
        <ele>316</ele>
        <time>2011-05-08T07:37:37Z</time>
      </trkpt>
      <trkpt lat="49.17968" lon="6.98572">
        <ele>316</ele>
        <time>2011-05-08T07:37:38Z</time>
      </trkpt>
      <trkpt lat="49.1797" lon="6.98571">
        <ele>316</ele>
        <time>2011-05-08T07:37:39Z</time>
      </trkpt>
      <trkpt lat="49.1797" lon="6.98569">
        <ele>316</ele>
        <time>2011-05-08T07:37:40Z</time>
      </trkpt>
      <trkpt lat="49.17972" lon="6.98569">
        <ele>316</ele>
        <time>2011-05-08T07:37:41Z</time>
      </trkpt>
      <trkpt lat="49.17973" lon="6.98566">
        <ele>316</ele>
        <time>2011-05-08T07:37:43Z</time>
      </trkpt>
      <trkpt lat="49.17974" lon="6.98564">
        <ele>316</ele>
        <time>2011-05-08T07:37:44Z</time>
      </trkpt>
      <trkpt lat="49.17975" lon="6.98563">
        <ele>316</ele>
        <time>2011-05-08T07:37:45Z</time>
      </trkpt>
      <trkpt lat="49.17976" lon="6.98561">
        <ele>316</ele>
        <time>2011-05-08T07:37:47Z</time>
      </trkpt>
      <trkpt lat="49.17977" lon="6.9856">
        <ele>316</ele>
        <time>2011-05-08T07:37:48Z</time>
      </trkpt>
      <trkpt lat="49.17978" lon="6.98558">
        <ele>316</ele>
        <time>2011-05-08T07:37:49Z</time>
      </trkpt>
      <trkpt lat="49.17979" lon="6.98555">
        <ele>316</ele>
        <time>2011-05-08T07:37:50Z</time>
      </trkpt>
      <trkpt lat="49.17979" lon="6.98553">
        <ele>316</ele>
        <time>2011-05-08T07:37:51Z</time>
      </trkpt>
      <trkpt lat="49.1798" lon="6.98552">
        <ele>316</ele>
        <time>2011-05-08T07:37:52Z</time>
      </trkpt>
      <trkpt lat="49.17982" lon="6.98549">
        <ele>316</ele>
        <time>2011-05-08T07:37:54Z</time>
      </trkpt>
      <trkpt lat="49.17982" lon="6.98547">
        <ele>316</ele>
        <time>2011-05-08T07:37:55Z</time>
      </trkpt>
      <trkpt lat="49.17983" lon="6.98544">
        <ele>316</ele>
        <time>2011-05-08T07:37:57Z</time>
      </trkpt>
      <trkpt lat="49.17984" lon="6.98541">
        <ele>316</ele>
        <time>2011-05-08T07:37:59Z</time>
      </trkpt>
      <trkpt lat="49.17985" lon="6.9854">
        <ele>316</ele>
        <time>2011-05-08T07:38:00Z</time>
      </trkpt>
      <trkpt lat="49.17987" lon="6.98538">
        <ele>316</ele>
        <time>2011-05-08T07:38:02Z</time>
      </trkpt>
      <trkpt lat="49.17987" lon="6.98536">
        <ele>316</ele>
        <time>2011-05-08T07:38:03Z</time>
      </trkpt>
      <trkpt lat="49.17988" lon="6.98534">
        <ele>316</ele>
        <time>2011-05-08T07:38:04Z</time>
      </trkpt>
      <trkpt lat="49.17989" lon="6.98531">
        <ele>316</ele>
        <time>2011-05-08T07:38:05Z</time>
      </trkpt>
      <trkpt lat="49.17989" lon="6.98529">
        <ele>316</ele>
        <time>2011-05-08T07:38:06Z</time>
      </trkpt>
      <trkpt lat="49.17991" lon="6.98528">
        <ele>316</ele>
        <time>2011-05-08T07:38:08Z</time>
      </trkpt>
      <trkpt lat="49.17991" lon="6.98526">
        <ele>316</ele>
        <time>2011-05-08T07:38:09Z</time>
      </trkpt>
      <trkpt lat="49.17994" lon="6.98524">
        <ele>316</ele>
        <time>2011-05-08T07:38:11Z</time>
      </trkpt>
      <trkpt lat="49.17997" lon="6.98524">
        <ele>316</ele>
        <time>2011-05-08T07:38:12Z</time>
      </trkpt>
      <trkpt lat="49.17997" lon="6.98522">
        <ele>316</ele>
        <time>2011-05-08T07:38:13Z</time>
      </trkpt>
      <trkpt lat="49.17999" lon="6.98521">
        <ele>316</ele>
        <time>2011-05-08T07:38:14Z</time>
      </trkpt>
      <trkpt lat="49.18" lon="6.98519">
        <ele>316</ele>
        <time>2011-05-08T07:38:15Z</time>
      </trkpt>
      <trkpt lat="49.18001" lon="6.98518">
        <ele>316</ele>
        <time>2011-05-08T07:38:16Z</time>
      </trkpt>
      <trkpt lat="49.18003" lon="6.98518">
        <ele>316</ele>
        <time>2011-05-08T07:38:17Z</time>
      </trkpt>
      <trkpt lat="49.18005" lon="6.98515">
        <ele>316</ele>
        <time>2011-05-08T07:38:19Z</time>
      </trkpt>
      <trkpt lat="49.18006" lon="6.98513">
        <ele>316</ele>
        <time>2011-05-08T07:38:20Z</time>
      </trkpt>
      <trkpt lat="49.18006" lon="6.98511">
        <ele>316</ele>
        <time>2011-05-08T07:38:21Z</time>
      </trkpt>
      <trkpt lat="49.18007" lon="6.98509">
        <ele>316</ele>
        <time>2011-05-08T07:38:22Z</time>
      </trkpt>
      <trkpt lat="49.18008" lon="6.98508">
        <ele>316</ele>
        <time>2011-05-08T07:38:23Z</time>
      </trkpt>
      <trkpt lat="49.18008" lon="6.98506">
        <ele>316</ele>
        <time>2011-05-08T07:38:24Z</time>
      </trkpt>
      <trkpt lat="49.1801" lon="6.98505">
        <ele>316</ele>
        <time>2011-05-08T07:38:25Z</time>
      </trkpt>
      <trkpt lat="49.18011" lon="6.98504">
        <ele>316</ele>
        <time>2011-05-08T07:38:26Z</time>
      </trkpt>
      <trkpt lat="49.18011" lon="6.98502">
        <ele>316</ele>
        <time>2011-05-08T07:38:27Z</time>
      </trkpt>
      <trkpt lat="49.18012" lon="6.985">
        <ele>316</ele>
        <time>2011-05-08T07:38:28Z</time>
      </trkpt>
      <trkpt lat="49.18013" lon="6.98497">
        <ele>316</ele>
        <time>2011-05-08T07:38:30Z</time>
      </trkpt>
      <trkpt lat="49.18014" lon="6.98495">
        <ele>316</ele>
        <time>2011-05-08T07:38:31Z</time>
      </trkpt>
      <trkpt lat="49.18016" lon="6.98493">
        <ele>316</ele>
        <time>2011-05-08T07:38:33Z</time>
      </trkpt>
      <trkpt lat="49.18018" lon="6.9849">
        <ele>316</ele>
        <time>2011-05-08T07:38:35Z</time>
      </trkpt>
      <trkpt lat="49.1802" lon="6.9849">
        <ele>316</ele>
        <time>2011-05-08T07:38:36Z</time>
      </trkpt>
      <trkpt lat="49.18022" lon="6.9849">
        <ele>316</ele>
        <time>2011-05-08T07:38:37Z</time>
      </trkpt>
      <trkpt lat="49.18023" lon="6.98488">
        <ele>316</ele>
        <time>2011-05-08T07:38:38Z</time>
      </trkpt>
      <trkpt lat="49.18023" lon="6.98486">
        <ele>316</ele>
        <time>2011-05-08T07:38:39Z</time>
      </trkpt>
      <trkpt lat="49.18025" lon="6.98485">
        <ele>316</ele>
        <time>2011-05-08T07:38:40Z</time>
      </trkpt>
      <trkpt lat="49.18026" lon="6.98483">
        <ele>316</ele>
        <time>2011-05-08T07:38:41Z</time>
      </trkpt>
      <trkpt lat="49.18027" lon="6.98481">
        <ele>316</ele>
        <time>2011-05-08T07:38:43Z</time>
      </trkpt>
      <trkpt lat="49.18028" lon="6.98479">
        <ele>316</ele>
        <time>2011-05-08T07:38:45Z</time>
      </trkpt>
      <trkpt lat="49.18029" lon="6.98477">
        <ele>316</ele>
        <time>2011-05-08T07:38:46Z</time>
      </trkpt>
      <trkpt lat="49.18029" lon="6.98475">
        <ele>316</ele>
        <time>2011-05-08T07:38:47Z</time>
      </trkpt>
      <trkpt lat="49.18029" lon="6.98473">
        <ele>316</ele>
        <time>2011-05-08T07:38:48Z</time>
      </trkpt>
      <trkpt lat="49.18029" lon="6.98471">
        <ele>316</ele>
        <time>2011-05-08T07:38:49Z</time>
      </trkpt>
      <trkpt lat="49.18029" lon="6.98468">
        <ele>316</ele>
        <time>2011-05-08T07:38:50Z</time>
      </trkpt>
      <trkpt lat="49.1803" lon="6.98466">
        <ele>316</ele>
        <time>2011-05-08T07:38:51Z</time>
      </trkpt>
      <trkpt lat="49.1803" lon="6.98464">
        <ele>316</ele>
        <time>2011-05-08T07:38:52Z</time>
      </trkpt>
      <trkpt lat="49.18031" lon="6.98461">
        <ele>315</ele>
        <time>2011-05-08T07:38:54Z</time>
      </trkpt>
      <trkpt lat="49.18032" lon="6.9846">
        <ele>315</ele>
        <time>2011-05-08T07:38:55Z</time>
      </trkpt>
      <trkpt lat="49.18034" lon="6.98458">
        <ele>315</ele>
        <time>2011-05-08T07:38:57Z</time>
      </trkpt>
      <trkpt lat="49.18036" lon="6.98456">
        <ele>315</ele>
        <time>2011-05-08T07:38:59Z</time>
      </trkpt>
      <trkpt lat="49.18037" lon="6.98454">
        <ele>315</ele>
        <time>2011-05-08T07:39:00Z</time>
      </trkpt>
      <trkpt lat="49.18039" lon="6.98453">
        <ele>315</ele>
        <time>2011-05-08T07:39:02Z</time>
      </trkpt>
      <trkpt lat="49.1804" lon="6.98451">
        <ele>315</ele>
        <time>2011-05-08T07:39:03Z</time>
      </trkpt>
      <trkpt lat="49.18042" lon="6.98448">
        <ele>315</ele>
        <time>2011-05-08T07:39:05Z</time>
      </trkpt>
      <trkpt lat="49.18044" lon="6.98445">
        <ele>315</ele>
        <time>2011-05-08T07:39:07Z</time>
      </trkpt>
      <trkpt lat="49.18046" lon="6.98443">
        <ele>315</ele>
        <time>2011-05-08T07:39:09Z</time>
      </trkpt>
      <trkpt lat="49.18048" lon="6.98442">
        <ele>315</ele>
        <time>2011-05-08T07:39:10Z</time>
      </trkpt>
      <trkpt lat="49.18048" lon="6.9844">
        <ele>315</ele>
        <time>2011-05-08T07:39:12Z</time>
      </trkpt>
      <trkpt lat="49.1805" lon="6.98437">
        <ele>315</ele>
        <time>2011-05-08T07:39:14Z</time>
      </trkpt>
      <trkpt lat="49.18052" lon="6.98434">
        <ele>315</ele>
        <time>2011-05-08T07:39:16Z</time>
      </trkpt>
      <trkpt lat="49.18053" lon="6.98433">
        <ele>315</ele>
        <time>2011-05-08T07:39:17Z</time>
      </trkpt>
      <trkpt lat="49.18054" lon="6.98431">
        <ele>315</ele>
        <time>2011-05-08T07:39:18Z</time>
      </trkpt>
      <trkpt lat="49.18055" lon="6.9843">
        <ele>315</ele>
        <time>2011-05-08T07:39:19Z</time>
      </trkpt>
      <trkpt lat="49.18056" lon="6.98428">
        <ele>315</ele>
        <time>2011-05-08T07:39:20Z</time>
      </trkpt>
      <trkpt lat="49.18058" lon="6.98425">
        <ele>315</ele>
        <time>2011-05-08T07:39:22Z</time>
      </trkpt>
      <trkpt lat="49.18059" lon="6.98424">
        <ele>315</ele>
        <time>2011-05-08T07:39:23Z</time>
      </trkpt>
      <trkpt lat="49.1806" lon="6.98422">
        <ele>315</ele>
        <time>2011-05-08T07:39:24Z</time>
      </trkpt>
      <trkpt lat="49.18061" lon="6.9842">
        <ele>315</ele>
        <time>2011-05-08T07:39:25Z</time>
      </trkpt>
      <trkpt lat="49.18062" lon="6.98418">
        <ele>315</ele>
        <time>2011-05-08T07:39:27Z</time>
      </trkpt>
      <trkpt lat="49.18063" lon="6.98416">
        <ele>315</ele>
        <time>2011-05-08T07:39:29Z</time>
      </trkpt>
      <trkpt lat="49.18065" lon="6.98415">
        <ele>315</ele>
        <time>2011-05-08T07:39:30Z</time>
      </trkpt>
      <trkpt lat="49.18067" lon="6.98413">
        <ele>315</ele>
        <time>2011-05-08T07:39:32Z</time>
      </trkpt>
      <trkpt lat="49.18068" lon="6.98412">
        <ele>315</ele>
        <time>2011-05-08T07:39:33Z</time>
      </trkpt>
      <trkpt lat="49.1807" lon="6.98409">
        <ele>315</ele>
        <time>2011-05-08T07:39:35Z</time>
      </trkpt>
      <trkpt lat="49.18071" lon="6.98407">
        <ele>315</ele>
        <time>2011-05-08T07:39:37Z</time>
      </trkpt>
      <trkpt lat="49.18071" lon="6.98405">
        <ele>315</ele>
        <time>2011-05-08T07:39:38Z</time>
      </trkpt>
      <trkpt lat="49.18071" lon="6.98403">
        <ele>315</ele>
        <time>2011-05-08T07:39:39Z</time>
      </trkpt>
      <trkpt lat="49.18071" lon="6.98401">
        <ele>315</ele>
        <time>2011-05-08T07:39:40Z</time>
      </trkpt>
      <trkpt lat="49.18071" lon="6.98399">
        <ele>315</ele>
        <time>2011-05-08T07:39:41Z</time>
      </trkpt>
      <trkpt lat="49.18071" lon="6.98397">
        <ele>315</ele>
        <time>2011-05-08T07:39:42Z</time>
      </trkpt>
      <trkpt lat="49.18072" lon="6.98396">
        <ele>315</ele>
        <time>2011-05-08T07:39:43Z</time>
      </trkpt>
      <trkpt lat="49.18073" lon="6.98393">
        <ele>315</ele>
        <time>2011-05-08T07:39:44Z</time>
      </trkpt>
      <trkpt lat="49.18074" lon="6.98392">
        <ele>315</ele>
        <time>2011-05-08T07:39:45Z</time>
      </trkpt>
      <trkpt lat="49.18075" lon="6.98389">
        <ele>315</ele>
        <time>2011-05-08T07:39:47Z</time>
      </trkpt>
      <trkpt lat="49.18076" lon="6.98387">
        <ele>315</ele>
        <time>2011-05-08T07:39:48Z</time>
      </trkpt>
      <trkpt lat="49.18077" lon="6.98385">
        <ele>315</ele>
        <time>2011-05-08T07:39:49Z</time>
      </trkpt>
      <trkpt lat="49.18078" lon="6.98383">
        <ele>315</ele>
        <time>2011-05-08T07:39:50Z</time>
      </trkpt>
      <trkpt lat="49.18078" lon="6.98381">
        <ele>315</ele>
        <time>2011-05-08T07:39:51Z</time>
      </trkpt>
      <trkpt lat="49.18078" lon="6.98379">
        <ele>315</ele>
        <time>2011-05-08T07:39:52Z</time>
      </trkpt>
      <trkpt lat="49.18079" lon="6.98376">
        <ele>315</ele>
        <time>2011-05-08T07:39:54Z</time>
      </trkpt>
      <trkpt lat="49.18079" lon="6.98373">
        <ele>315</ele>
        <time>2011-05-08T07:39:56Z</time>
      </trkpt>
      <trkpt lat="49.18079" lon="6.98371">
        <ele>315</ele>
        <time>2011-05-08T07:39:57Z</time>
      </trkpt>
      <trkpt lat="49.18079" lon="6.98368">
        <ele>315</ele>
        <time>2011-05-08T07:39:58Z</time>
      </trkpt>
      <trkpt lat="49.18078" lon="6.98366">
        <ele>315</ele>
        <time>2011-05-08T07:39:59Z</time>
      </trkpt>
      <trkpt lat="49.18079" lon="6.98364">
        <ele>315</ele>
        <time>2011-05-08T07:40:01Z</time>
      </trkpt>
      <trkpt lat="49.18079" lon="6.98362">
        <ele>315</ele>
        <time>2011-05-08T07:40:03Z</time>
      </trkpt>
      <trkpt lat="49.18081" lon="6.9836">
        <ele>315</ele>
        <time>2011-05-08T07:40:05Z</time>
      </trkpt>
      <trkpt lat="49.18082" lon="6.98359">
        <ele>315</ele>
        <time>2011-05-08T07:40:06Z</time>
      </trkpt>
      <trkpt lat="49.18082" lon="6.98357">
        <ele>315</ele>
        <time>2011-05-08T07:40:08Z</time>
      </trkpt>
      <trkpt lat="49.18083" lon="6.98355">
        <ele>315</ele>
        <time>2011-05-08T07:40:09Z</time>
      </trkpt>
      <trkpt lat="49.18083" lon="6.98353">
        <ele>315</ele>
        <time>2011-05-08T07:40:10Z</time>
      </trkpt>
      <trkpt lat="49.18084" lon="6.98352">
        <ele>315</ele>
        <time>2011-05-08T07:40:11Z</time>
      </trkpt>
      <trkpt lat="49.18086" lon="6.9835">
        <ele>315</ele>
        <time>2011-05-08T07:40:12Z</time>
      </trkpt>
      <trkpt lat="49.18086" lon="6.98349">
        <ele>315</ele>
        <time>2011-05-08T07:40:13Z</time>
      </trkpt>
      <trkpt lat="49.18086" lon="6.98347">
        <ele>315</ele>
        <time>2011-05-08T07:40:14Z</time>
      </trkpt>
      <trkpt lat="49.18086" lon="6.98344">
        <ele>315</ele>
        <time>2011-05-08T07:40:15Z</time>
      </trkpt>
      <trkpt lat="49.18086" lon="6.98342">
        <ele>315</ele>
        <time>2011-05-08T07:40:16Z</time>
      </trkpt>
      <trkpt lat="49.18085" lon="6.9834">
        <ele>315</ele>
        <time>2011-05-08T07:40:17Z</time>
      </trkpt>
      <trkpt lat="49.18085" lon="6.98339">
        <ele>315</ele>
        <time>2011-05-08T07:40:18Z</time>
      </trkpt>
      <trkpt lat="49.18085" lon="6.98337">
        <ele>315</ele>
        <time>2011-05-08T07:40:19Z</time>
      </trkpt>
      <trkpt lat="49.18085" lon="6.98335">
        <ele>314</ele>
        <time>2011-05-08T07:40:20Z</time>
      </trkpt>
      <trkpt lat="49.18085" lon="6.98333">
        <ele>314</ele>
        <time>2011-05-08T07:40:21Z</time>
      </trkpt>
      <trkpt lat="49.18085" lon="6.98331">
        <ele>314</ele>
        <time>2011-05-08T07:40:22Z</time>
      </trkpt>
      <trkpt lat="49.18086" lon="6.98329">
        <ele>314</ele>
        <time>2011-05-08T07:40:23Z</time>
      </trkpt>
      <trkpt lat="49.18086" lon="6.98327">
        <ele>314</ele>
        <time>2011-05-08T07:40:24Z</time>
      </trkpt>
      <trkpt lat="49.18085" lon="6.98325">
        <ele>314</ele>
        <time>2011-05-08T07:40:25Z</time>
      </trkpt>
      <trkpt lat="49.18085" lon="6.98323">
        <ele>314</ele>
        <time>2011-05-08T07:40:26Z</time>
      </trkpt>
      <trkpt lat="49.18085" lon="6.98321">
        <ele>314</ele>
        <time>2011-05-08T07:40:27Z</time>
      </trkpt>
      <trkpt lat="49.18085" lon="6.98319">
        <ele>314</ele>
        <time>2011-05-08T07:40:28Z</time>
      </trkpt>
      <trkpt lat="49.18086" lon="6.98317">
        <ele>314</ele>
        <time>2011-05-08T07:40:29Z</time>
      </trkpt>
      <trkpt lat="49.18086" lon="6.98315">
        <ele>314</ele>
        <time>2011-05-08T07:40:30Z</time>
      </trkpt>
      <trkpt lat="49.18087" lon="6.98313">
        <ele>314</ele>
        <time>2011-05-08T07:40:31Z</time>
      </trkpt>
      <trkpt lat="49.18086" lon="6.9831">
        <ele>314</ele>
        <time>2011-05-08T07:40:32Z</time>
      </trkpt>
      <trkpt lat="49.18087" lon="6.98309">
        <ele>314</ele>
        <time>2011-05-08T07:40:33Z</time>
      </trkpt>
      <trkpt lat="49.18087" lon="6.98306">
        <ele>314</ele>
        <time>2011-05-08T07:40:34Z</time>
      </trkpt>
      <trkpt lat="49.18087" lon="6.98304">
        <ele>314</ele>
        <time>2011-05-08T07:40:35Z</time>
      </trkpt>
      <trkpt lat="49.18087" lon="6.98301">
        <ele>314</ele>
        <time>2011-05-08T07:40:37Z</time>
      </trkpt>
      <trkpt lat="49.18087" lon="6.983">
        <ele>314</ele>
        <time>2011-05-08T07:40:38Z</time>
      </trkpt>
      <trkpt lat="49.18087" lon="6.98298">
        <ele>314</ele>
        <time>2011-05-08T07:40:39Z</time>
      </trkpt>
      <trkpt lat="49.18087" lon="6.98296">
        <ele>314</ele>
        <time>2011-05-08T07:40:40Z</time>
      </trkpt>
      <trkpt lat="49.18087" lon="6.98294">
        <ele>314</ele>
        <time>2011-05-08T07:40:41Z</time>
      </trkpt>
      <trkpt lat="49.18089" lon="6.98291">
        <ele>314</ele>
        <time>2011-05-08T07:40:43Z</time>
      </trkpt>
      <trkpt lat="49.1809" lon="6.98287">
        <ele>316</ele>
        <time>2011-05-08T07:40:45Z</time>
      </trkpt>
      <trkpt lat="49.18091" lon="6.98284">
        <ele>317</ele>
        <time>2011-05-08T07:40:47Z</time>
      </trkpt>
      <trkpt lat="49.18091" lon="6.98282">
        <ele>317</ele>
        <time>2011-05-08T07:40:48Z</time>
      </trkpt>
      <trkpt lat="49.18091" lon="6.9828">
        <ele>317</ele>
        <time>2011-05-08T07:40:49Z</time>
      </trkpt>
      <trkpt lat="49.18091" lon="6.98278">
        <ele>317</ele>
        <time>2011-05-08T07:40:50Z</time>
      </trkpt>
      <trkpt lat="49.1809" lon="6.98276">
        <ele>317</ele>
        <time>2011-05-08T07:40:52Z</time>
      </trkpt>
      <trkpt lat="49.1809" lon="6.98273">
        <ele>317</ele>
        <time>2011-05-08T07:40:53Z</time>
      </trkpt>
      <trkpt lat="49.1809" lon="6.98271">
        <ele>317</ele>
        <time>2011-05-08T07:40:54Z</time>
      </trkpt>
      <trkpt lat="49.1809" lon="6.98269">
        <ele>317</ele>
        <time>2011-05-08T07:40:55Z</time>
      </trkpt>
      <trkpt lat="49.1809" lon="6.98267">
        <ele>317</ele>
        <time>2011-05-08T07:40:56Z</time>
      </trkpt>
      <trkpt lat="49.18091" lon="6.98265">
        <ele>317</ele>
        <time>2011-05-08T07:40:57Z</time>
      </trkpt>
      <trkpt lat="49.1809" lon="6.98263">
        <ele>317</ele>
        <time>2011-05-08T07:40:58Z</time>
      </trkpt>
      <trkpt lat="49.1809" lon="6.9826">
        <ele>317</ele>
        <time>2011-05-08T07:40:59Z</time>
      </trkpt>
      <trkpt lat="49.1809" lon="6.98258">
        <ele>317</ele>
        <time>2011-05-08T07:41:00Z</time>
      </trkpt>
      <trkpt lat="49.1809" lon="6.98257">
        <ele>317</ele>
        <time>2011-05-08T07:41:01Z</time>
      </trkpt>
      <trkpt lat="49.1809" lon="6.98255">
        <ele>317</ele>
        <time>2011-05-08T07:41:02Z</time>
      </trkpt>
      <trkpt lat="49.18091" lon="6.98253">
        <ele>317</ele>
        <time>2011-05-08T07:41:03Z</time>
      </trkpt>
      <trkpt lat="49.18092" lon="6.98251">
        <ele>317</ele>
        <time>2011-05-08T07:41:04Z</time>
      </trkpt>
      <trkpt lat="49.18092" lon="6.98249">
        <ele>317</ele>
        <time>2011-05-08T07:41:05Z</time>
      </trkpt>
      <trkpt lat="49.18094" lon="6.98247">
        <ele>317</ele>
        <time>2011-05-08T07:41:07Z</time>
      </trkpt>
      <trkpt lat="49.18094" lon="6.98245">
        <ele>317</ele>
        <time>2011-05-08T07:41:09Z</time>
      </trkpt>
      <trkpt lat="49.18093" lon="6.98242">
        <ele>317</ele>
        <time>2011-05-08T07:41:10Z</time>
      </trkpt>
      <trkpt lat="49.18093" lon="6.9824">
        <ele>317</ele>
        <time>2011-05-08T07:41:11Z</time>
      </trkpt>
      <trkpt lat="49.18093" lon="6.98237">
        <ele>317</ele>
        <time>2011-05-08T07:41:12Z</time>
      </trkpt>
      <trkpt lat="49.18093" lon="6.98235">
        <ele>317</ele>
        <time>2011-05-08T07:41:13Z</time>
      </trkpt>
      <trkpt lat="49.18094" lon="6.98233">
        <ele>317</ele>
        <time>2011-05-08T07:41:14Z</time>
      </trkpt>
      <trkpt lat="49.18095" lon="6.9823">
        <ele>317</ele>
        <time>2011-05-08T07:41:15Z</time>
      </trkpt>
      <trkpt lat="49.18095" lon="6.98228">
        <ele>317</ele>
        <time>2011-05-08T07:41:16Z</time>
      </trkpt>
      <trkpt lat="49.18094" lon="6.98226">
        <ele>317</ele>
        <time>2011-05-08T07:41:17Z</time>
      </trkpt>
      <trkpt lat="49.18093" lon="6.98224">
        <ele>317</ele>
        <time>2011-05-08T07:41:18Z</time>
      </trkpt>
      <trkpt lat="49.18092" lon="6.98221">
        <ele>317</ele>
        <time>2011-05-08T07:41:20Z</time>
      </trkpt>
      <trkpt lat="49.18093" lon="6.98218">
        <ele>317</ele>
        <time>2011-05-08T07:41:22Z</time>
      </trkpt>
      <trkpt lat="49.18094" lon="6.98217">
        <ele>317</ele>
        <time>2011-05-08T07:41:23Z</time>
      </trkpt>
      <trkpt lat="49.18093" lon="6.98214">
        <ele>317</ele>
        <time>2011-05-08T07:41:24Z</time>
      </trkpt>
      <trkpt lat="49.18093" lon="6.98211">
        <ele>317</ele>
        <time>2011-05-08T07:41:25Z</time>
      </trkpt>
      <trkpt lat="49.18093" lon="6.98209">
        <ele>317</ele>
        <time>2011-05-08T07:41:26Z</time>
      </trkpt>
      <trkpt lat="49.18094" lon="6.98207">
        <ele>317</ele>
        <time>2011-05-08T07:41:27Z</time>
      </trkpt>
      <trkpt lat="49.18094" lon="6.98205">
        <ele>317</ele>
        <time>2011-05-08T07:41:28Z</time>
      </trkpt>
      <trkpt lat="49.18095" lon="6.98203">
        <ele>317</ele>
        <time>2011-05-08T07:41:30Z</time>
      </trkpt>
      <trkpt lat="49.18096" lon="6.98201">
        <ele>317</ele>
        <time>2011-05-08T07:41:31Z</time>
      </trkpt>
      <trkpt lat="49.18095" lon="6.98198">
        <ele>317</ele>
        <time>2011-05-08T07:41:32Z</time>
      </trkpt>
      <trkpt lat="49.18095" lon="6.98196">
        <ele>317</ele>
        <time>2011-05-08T07:41:33Z</time>
      </trkpt>
      <trkpt lat="49.18095" lon="6.98194">
        <ele>317</ele>
        <time>2011-05-08T07:41:34Z</time>
      </trkpt>
      <trkpt lat="49.18095" lon="6.98192">
        <ele>317</ele>
        <time>2011-05-08T07:41:35Z</time>
      </trkpt>
      <trkpt lat="49.18095" lon="6.9819">
        <ele>317</ele>
        <time>2011-05-08T07:41:36Z</time>
      </trkpt>
      <trkpt lat="49.18096" lon="6.98188">
        <ele>317</ele>
        <time>2011-05-08T07:41:37Z</time>
      </trkpt>
      <trkpt lat="49.18096" lon="6.98186">
        <ele>317</ele>
        <time>2011-05-08T07:41:38Z</time>
      </trkpt>
      <trkpt lat="49.18097" lon="6.98183">
        <ele>317</ele>
        <time>2011-05-08T07:41:40Z</time>
      </trkpt>
      <trkpt lat="49.18095" lon="6.9818">
        <ele>317</ele>
        <time>2011-05-08T07:41:42Z</time>
      </trkpt>
      <trkpt lat="49.18096" lon="6.98178">
        <ele>317</ele>
        <time>2011-05-08T07:41:44Z</time>
      </trkpt>
      <trkpt lat="49.18096" lon="6.98176">
        <ele>317</ele>
        <time>2011-05-08T07:41:45Z</time>
      </trkpt>
      <trkpt lat="49.18098" lon="6.98174">
        <ele>317</ele>
        <time>2011-05-08T07:41:46Z</time>
      </trkpt>
      <trkpt lat="49.18098" lon="6.98171">
        <ele>317</ele>
        <time>2011-05-08T07:41:47Z</time>
      </trkpt>
      <trkpt lat="49.18098" lon="6.98169">
        <ele>317</ele>
        <time>2011-05-08T07:41:48Z</time>
      </trkpt>
      <trkpt lat="49.18099" lon="6.98167">
        <ele>317</ele>
        <time>2011-05-08T07:41:49Z</time>
      </trkpt>
      <trkpt lat="49.18099" lon="6.98165">
        <ele>317</ele>
        <time>2011-05-08T07:41:50Z</time>
      </trkpt>
      <trkpt lat="49.181" lon="6.98164">
        <ele>317</ele>
        <time>2011-05-08T07:41:51Z</time>
      </trkpt>
      <trkpt lat="49.18101" lon="6.98162">
        <ele>317</ele>
        <time>2011-05-08T07:41:52Z</time>
      </trkpt>
      <trkpt lat="49.18101" lon="6.98159">
        <ele>317</ele>
        <time>2011-05-08T07:41:54Z</time>
      </trkpt>
      <trkpt lat="49.18101" lon="6.98157">
        <ele>317</ele>
        <time>2011-05-08T07:41:55Z</time>
      </trkpt>
      <trkpt lat="49.18102" lon="6.98155">
        <ele>317</ele>
        <time>2011-05-08T07:41:56Z</time>
      </trkpt>
      <trkpt lat="49.18102" lon="6.98154">
        <ele>317</ele>
        <time>2011-05-08T07:41:57Z</time>
      </trkpt>
      <trkpt lat="49.18102" lon="6.98152">
        <ele>317</ele>
        <time>2011-05-08T07:41:58Z</time>
      </trkpt>
      <trkpt lat="49.18103" lon="6.98149">
        <ele>317</ele>
        <time>2011-05-08T07:41:59Z</time>
      </trkpt>
      <trkpt lat="49.18105" lon="6.98147">
        <ele>317</ele>
        <time>2011-05-08T07:42:01Z</time>
      </trkpt>
      <trkpt lat="49.18106" lon="6.98145">
        <ele>317</ele>
        <time>2011-05-08T07:42:03Z</time>
      </trkpt>
      <trkpt lat="49.18109" lon="6.98143">
        <ele>317</ele>
        <time>2011-05-08T07:42:05Z</time>
      </trkpt>
      <trkpt lat="49.1811" lon="6.98141">
        <ele>317</ele>
        <time>2011-05-08T07:42:07Z</time>
      </trkpt>
      <trkpt lat="49.18111" lon="6.98138">
        <ele>318</ele>
        <time>2011-05-08T07:42:09Z</time>
      </trkpt>
      <trkpt lat="49.18111" lon="6.98137">
        <ele>318</ele>
        <time>2011-05-08T07:42:10Z</time>
      </trkpt>
      <trkpt lat="49.18111" lon="6.98135">
        <ele>318</ele>
        <time>2011-05-08T07:42:11Z</time>
      </trkpt>
      <trkpt lat="49.18112" lon="6.98131">
        <ele>319</ele>
        <time>2011-05-08T07:42:13Z</time>
      </trkpt>
      <trkpt lat="49.18113" lon="6.9813">
        <ele>319</ele>
        <time>2011-05-08T07:42:14Z</time>
      </trkpt>
      <trkpt lat="49.18115" lon="6.98127">
        <ele>319</ele>
        <time>2011-05-08T07:42:16Z</time>
      </trkpt>
      <trkpt lat="49.18115" lon="6.98125">
        <ele>319</ele>
        <time>2011-05-08T07:42:17Z</time>
      </trkpt>
      <trkpt lat="49.18116" lon="6.98123">
        <ele>319</ele>
        <time>2011-05-08T07:42:19Z</time>
      </trkpt>
      <trkpt lat="49.18116" lon="6.98121">
        <ele>319</ele>
        <time>2011-05-08T07:42:20Z</time>
      </trkpt>
      <trkpt lat="49.18116" lon="6.98119">
        <ele>319</ele>
        <time>2011-05-08T07:42:21Z</time>
      </trkpt>
      <trkpt lat="49.18116" lon="6.98118">
        <ele>319</ele>
        <time>2011-05-08T07:42:22Z</time>
      </trkpt>
      <trkpt lat="49.18117" lon="6.98114">
        <ele>319</ele>
        <time>2011-05-08T07:42:23Z</time>
      </trkpt>
      <trkpt lat="49.18118" lon="6.98112">
        <ele>319</ele>
        <time>2011-05-08T07:42:24Z</time>
      </trkpt>
      <trkpt lat="49.18118" lon="6.98109">
        <ele>319</ele>
        <time>2011-05-08T07:42:26Z</time>
      </trkpt>
      <trkpt lat="49.18117" lon="6.98106">
        <ele>319</ele>
        <time>2011-05-08T07:42:28Z</time>
      </trkpt>
      <trkpt lat="49.18117" lon="6.98104">
        <ele>319</ele>
        <time>2011-05-08T07:42:29Z</time>
      </trkpt>
      <trkpt lat="49.18118" lon="6.98102">
        <ele>319</ele>
        <time>2011-05-08T07:42:31Z</time>
      </trkpt>
      <trkpt lat="49.18118" lon="6.981">
        <ele>319</ele>
        <time>2011-05-08T07:42:32Z</time>
      </trkpt>
      <trkpt lat="49.18119" lon="6.98097">
        <ele>319</ele>
        <time>2011-05-08T07:42:33Z</time>
      </trkpt>
      <trkpt lat="49.1812" lon="6.98095">
        <ele>319</ele>
        <time>2011-05-08T07:42:34Z</time>
      </trkpt>
      <trkpt lat="49.1812" lon="6.98092">
        <ele>319</ele>
        <time>2011-05-08T07:42:35Z</time>
      </trkpt>
      <trkpt lat="49.18121" lon="6.9809">
        <ele>319</ele>
        <time>2011-05-08T07:42:36Z</time>
      </trkpt>
      <trkpt lat="49.18121" lon="6.98088">
        <ele>319</ele>
        <time>2011-05-08T07:42:37Z</time>
      </trkpt>
      <trkpt lat="49.18121" lon="6.98085">
        <ele>319</ele>
        <time>2011-05-08T07:42:38Z</time>
      </trkpt>
      <trkpt lat="49.18121" lon="6.98083">
        <ele>319</ele>
        <time>2011-05-08T07:42:40Z</time>
      </trkpt>
      <trkpt lat="49.18122" lon="6.98081">
        <ele>319</ele>
        <time>2011-05-08T07:42:42Z</time>
      </trkpt>
      <trkpt lat="49.18122" lon="6.98079">
        <ele>319</ele>
        <time>2011-05-08T07:42:43Z</time>
      </trkpt>
      <trkpt lat="49.18123" lon="6.98077">
        <ele>319</ele>
        <time>2011-05-08T07:42:44Z</time>
      </trkpt>
      <trkpt lat="49.18123" lon="6.98075">
        <ele>319</ele>
        <time>2011-05-08T07:42:45Z</time>
      </trkpt>
      <trkpt lat="49.18124" lon="6.98072">
        <ele>319</ele>
        <time>2011-05-08T07:42:46Z</time>
      </trkpt>
      <trkpt lat="49.18124" lon="6.98069">
        <ele>319</ele>
        <time>2011-05-08T07:42:48Z</time>
      </trkpt>
      <trkpt lat="49.18124" lon="6.98066">
        <ele>319</ele>
        <time>2011-05-08T07:42:50Z</time>
      </trkpt>
      <trkpt lat="49.18124" lon="6.98064">
        <ele>319</ele>
        <time>2011-05-08T07:42:51Z</time>
      </trkpt>
      <trkpt lat="49.18125" lon="6.98062">
        <ele>319</ele>
        <time>2011-05-08T07:42:52Z</time>
      </trkpt>
      <trkpt lat="49.18126" lon="6.98061">
        <ele>319</ele>
        <time>2011-05-08T07:42:53Z</time>
      </trkpt>
      <trkpt lat="49.18127" lon="6.98058">
        <ele>319</ele>
        <time>2011-05-08T07:42:55Z</time>
      </trkpt>
      <trkpt lat="49.18127" lon="6.98056">
        <ele>319</ele>
        <time>2011-05-08T07:42:56Z</time>
      </trkpt>
      <trkpt lat="49.18129" lon="6.98054">
        <ele>319</ele>
        <time>2011-05-08T07:42:58Z</time>
      </trkpt>
      <trkpt lat="49.1813" lon="6.98051">
        <ele>319</ele>
        <time>2011-05-08T07:43:00Z</time>
      </trkpt>
      <trkpt lat="49.1813" lon="6.98048">
        <ele>319</ele>
        <time>2011-05-08T07:43:01Z</time>
      </trkpt>
      <trkpt lat="49.1813" lon="6.98047">
        <ele>319</ele>
        <time>2011-05-08T07:43:02Z</time>
      </trkpt>
      <trkpt lat="49.18131" lon="6.98044">
        <ele>319</ele>
        <time>2011-05-08T07:43:04Z</time>
      </trkpt>
      <trkpt lat="49.18131" lon="6.98042">
        <ele>319</ele>
        <time>2011-05-08T07:43:05Z</time>
      </trkpt>
      <trkpt lat="49.18132" lon="6.98039">
        <ele>319</ele>
        <time>2011-05-08T07:43:07Z</time>
      </trkpt>
      <trkpt lat="49.18133" lon="6.98037">
        <ele>319</ele>
        <time>2011-05-08T07:43:08Z</time>
      </trkpt>
      <trkpt lat="49.18134" lon="6.98035">
        <ele>319</ele>
        <time>2011-05-08T07:43:09Z</time>
      </trkpt>
      <trkpt lat="49.18134" lon="6.98033">
        <ele>319</ele>
        <time>2011-05-08T07:43:10Z</time>
      </trkpt>
      <trkpt lat="49.18134" lon="6.98031">
        <ele>319</ele>
        <time>2011-05-08T07:43:11Z</time>
      </trkpt>
      <trkpt lat="49.18134" lon="6.98027">
        <ele>319</ele>
        <time>2011-05-08T07:43:13Z</time>
      </trkpt>
      <trkpt lat="49.18135" lon="6.98025">
        <ele>319</ele>
        <time>2011-05-08T07:43:14Z</time>
      </trkpt>
      <trkpt lat="49.18136" lon="6.98022">
        <ele>319</ele>
        <time>2011-05-08T07:43:16Z</time>
      </trkpt>
      <trkpt lat="49.18137" lon="6.98021">
        <ele>319</ele>
        <time>2011-05-08T07:43:17Z</time>
      </trkpt>
      <trkpt lat="49.18139" lon="6.9802">
        <ele>319</ele>
        <time>2011-05-08T07:43:18Z</time>
      </trkpt>
      <trkpt lat="49.1814" lon="6.98018">
        <ele>319</ele>
        <time>2011-05-08T07:43:19Z</time>
      </trkpt>
      <trkpt lat="49.1814" lon="6.98016">
        <ele>319</ele>
        <time>2011-05-08T07:43:20Z</time>
      </trkpt>
      <trkpt lat="49.18142" lon="6.98014">
        <ele>319</ele>
        <time>2011-05-08T07:43:21Z</time>
      </trkpt>
      <trkpt lat="49.18142" lon="6.98012">
        <ele>319</ele>
        <time>2011-05-08T07:43:22Z</time>
      </trkpt>
      <trkpt lat="49.18143" lon="6.9801">
        <ele>319</ele>
        <time>2011-05-08T07:43:23Z</time>
      </trkpt>
      <trkpt lat="49.18143" lon="6.98008">
        <ele>319</ele>
        <time>2011-05-08T07:43:24Z</time>
      </trkpt>
      <trkpt lat="49.18144" lon="6.98005">
        <ele>319</ele>
        <time>2011-05-08T07:43:26Z</time>
      </trkpt>
      <trkpt lat="49.18144" lon="6.98003">
        <ele>319</ele>
        <time>2011-05-08T07:43:27Z</time>
      </trkpt>
      <trkpt lat="49.18144" lon="6.98">
        <ele>319</ele>
        <time>2011-05-08T07:43:29Z</time>
      </trkpt>
      <trkpt lat="49.18144" lon="6.97998">
        <ele>319</ele>
        <time>2011-05-08T07:43:30Z</time>
      </trkpt>
      <trkpt lat="49.18144" lon="6.97996">
        <ele>319</ele>
        <time>2011-05-08T07:43:33Z</time>
      </trkpt>
      <trkpt lat="49.18144" lon="6.97994">
        <ele>320</ele>
        <time>2011-05-08T07:43:35Z</time>
      </trkpt>
      <trkpt lat="49.18146" lon="6.97993">
        <ele>320</ele>
        <time>2011-05-08T07:43:38Z</time>
      </trkpt>
      <trkpt lat="49.18145" lon="6.97995">
        <ele>323</ele>
        <time>2011-05-08T07:43:52Z</time>
      </trkpt>
      <trkpt lat="49.18145" lon="6.97992">
        <ele>327</ele>
        <time>2011-05-08T07:43:59Z</time>
      </trkpt>
      <trkpt lat="49.18144" lon="6.97989">
        <ele>327</ele>
        <time>2011-05-08T07:44:01Z</time>
      </trkpt>
      <trkpt lat="49.18144" lon="6.97987">
        <ele>327</ele>
        <time>2011-05-08T07:44:02Z</time>
      </trkpt>
      <trkpt lat="49.18143" lon="6.97984">
        <ele>327</ele>
        <time>2011-05-08T07:44:04Z</time>
      </trkpt>
      <trkpt lat="49.18143" lon="6.97982">
        <ele>327</ele>
        <time>2011-05-08T07:44:05Z</time>
      </trkpt>
      <trkpt lat="49.18142" lon="6.9798">
        <ele>327</ele>
        <time>2011-05-08T07:44:06Z</time>
      </trkpt>
      <trkpt lat="49.18143" lon="6.97978">
        <ele>327</ele>
        <time>2011-05-08T07:44:08Z</time>
      </trkpt>
      <trkpt lat="49.18143" lon="6.97974">
        <ele>327</ele>
        <time>2011-05-08T07:44:10Z</time>
      </trkpt>
      <trkpt lat="49.18143" lon="6.97971">
        <ele>327</ele>
        <time>2011-05-08T07:44:11Z</time>
      </trkpt>
      <trkpt lat="49.18144" lon="6.97969">
        <ele>326</ele>
        <time>2011-05-08T07:44:12Z</time>
      </trkpt>
      <trkpt lat="49.18144" lon="6.97966">
        <ele>324</ele>
        <time>2011-05-08T07:44:14Z</time>
      </trkpt>
      <trkpt lat="49.18145" lon="6.97964">
        <ele>323</ele>
        <time>2011-05-08T07:44:15Z</time>
      </trkpt>
      <trkpt lat="49.18145" lon="6.97963">
        <ele>323</ele>
        <time>2011-05-08T07:44:16Z</time>
      </trkpt>
      <trkpt lat="49.18147" lon="6.9796">
        <ele>322</ele>
        <time>2011-05-08T07:44:18Z</time>
      </trkpt>
      <trkpt lat="49.18148" lon="6.97959">
        <ele>322</ele>
        <time>2011-05-08T07:44:19Z</time>
      </trkpt>
      <trkpt lat="49.1815" lon="6.97957">
        <ele>322</ele>
        <time>2011-05-08T07:44:21Z</time>
      </trkpt>
      <trkpt lat="49.1815" lon="6.97954">
        <ele>322</ele>
        <time>2011-05-08T07:44:22Z</time>
      </trkpt>
      <trkpt lat="49.1815" lon="6.97952">
        <ele>322</ele>
        <time>2011-05-08T07:44:24Z</time>
      </trkpt>
      <trkpt lat="49.1815" lon="6.9795">
        <ele>322</ele>
        <time>2011-05-08T07:44:25Z</time>
      </trkpt>
      <trkpt lat="49.18151" lon="6.97948">
        <ele>322</ele>
        <time>2011-05-08T07:44:26Z</time>
      </trkpt>
      <trkpt lat="49.18151" lon="6.97945">
        <ele>322</ele>
        <time>2011-05-08T07:44:27Z</time>
      </trkpt>
      <trkpt lat="49.18152" lon="6.97944">
        <ele>322</ele>
        <time>2011-05-08T07:44:28Z</time>
      </trkpt>
      <trkpt lat="49.18153" lon="6.97942">
        <ele>322</ele>
        <time>2011-05-08T07:44:29Z</time>
      </trkpt>
      <trkpt lat="49.18154" lon="6.97938">
        <ele>321</ele>
        <time>2011-05-08T07:44:31Z</time>
      </trkpt>
      <trkpt lat="49.18155" lon="6.97935">
        <ele>320</ele>
        <time>2011-05-08T07:44:33Z</time>
      </trkpt>
      <trkpt lat="49.18156" lon="6.97933">
        <ele>320</ele>
        <time>2011-05-08T07:44:34Z</time>
      </trkpt>
      <trkpt lat="49.18156" lon="6.97931">
        <ele>319</ele>
        <time>2011-05-08T07:44:35Z</time>
      </trkpt>
      <trkpt lat="49.18158" lon="6.97928">
        <ele>318</ele>
        <time>2011-05-08T07:44:37Z</time>
      </trkpt>
      <trkpt lat="49.18159" lon="6.97927">
        <ele>318</ele>
        <time>2011-05-08T07:44:38Z</time>
      </trkpt>
      <trkpt lat="49.1816" lon="6.97925">
        <ele>318</ele>
        <time>2011-05-08T07:44:39Z</time>
      </trkpt>
      <trkpt lat="49.1816" lon="6.97924">
        <ele>317</ele>
        <time>2011-05-08T07:44:40Z</time>
      </trkpt>
      <trkpt lat="49.18161" lon="6.97922">
        <ele>317</ele>
        <time>2011-05-08T07:44:41Z</time>
      </trkpt>
      <trkpt lat="49.18162" lon="6.9792">
        <ele>316</ele>
        <time>2011-05-08T07:44:42Z</time>
      </trkpt>
      <trkpt lat="49.18163" lon="6.97919">
        <ele>316</ele>
        <time>2011-05-08T07:44:43Z</time>
      </trkpt>
      <trkpt lat="49.18164" lon="6.97917">
        <ele>316</ele>
        <time>2011-05-08T07:44:44Z</time>
      </trkpt>
      <trkpt lat="49.18165" lon="6.97915">
        <ele>316</ele>
        <time>2011-05-08T07:44:45Z</time>
      </trkpt>
      <trkpt lat="49.18166" lon="6.97913">
        <ele>316</ele>
        <time>2011-05-08T07:44:47Z</time>
      </trkpt>
      <trkpt lat="49.18167" lon="6.97911">
        <ele>316</ele>
        <time>2011-05-08T07:44:50Z</time>
      </trkpt>
      <trkpt lat="49.18169" lon="6.97908">
        <ele>316</ele>
        <time>2011-05-08T07:44:52Z</time>
      </trkpt>
      <trkpt lat="49.18171" lon="6.97906">
        <ele>316</ele>
        <time>2011-05-08T07:44:54Z</time>
      </trkpt>
      <trkpt lat="49.18171" lon="6.97903">
        <ele>316</ele>
        <time>2011-05-08T07:44:55Z</time>
      </trkpt>
      <trkpt lat="49.18172" lon="6.97901">
        <ele>316</ele>
        <time>2011-05-08T07:44:56Z</time>
      </trkpt>
      <trkpt lat="49.18172" lon="6.97899">
        <ele>316</ele>
        <time>2011-05-08T07:44:57Z</time>
      </trkpt>
      <trkpt lat="49.18173" lon="6.97896">
        <ele>316</ele>
        <time>2011-05-08T07:44:59Z</time>
      </trkpt>
      <trkpt lat="49.18174" lon="6.97894">
        <ele>316</ele>
        <time>2011-05-08T07:45:00Z</time>
      </trkpt>
      <trkpt lat="49.18176" lon="6.97891">
        <ele>316</ele>
        <time>2011-05-08T07:45:02Z</time>
      </trkpt>
      <trkpt lat="49.18176" lon="6.97889">
        <ele>316</ele>
        <time>2011-05-08T07:45:03Z</time>
      </trkpt>
      <trkpt lat="49.18178" lon="6.97888">
        <ele>316</ele>
        <time>2011-05-08T07:45:05Z</time>
      </trkpt>
      <trkpt lat="49.1818" lon="6.97885">
        <ele>317</ele>
        <time>2011-05-08T07:45:07Z</time>
      </trkpt>
      <trkpt lat="49.18181" lon="6.97884">
        <ele>317</ele>
        <time>2011-05-08T07:45:08Z</time>
      </trkpt>
      <trkpt lat="49.18182" lon="6.97882">
        <ele>317</ele>
        <time>2011-05-08T07:45:09Z</time>
      </trkpt>
      <trkpt lat="49.18182" lon="6.9788">
        <ele>318</ele>
        <time>2011-05-08T07:45:10Z</time>
      </trkpt>
      <trkpt lat="49.18183" lon="6.97878">
        <ele>318</ele>
        <time>2011-05-08T07:45:11Z</time>
      </trkpt>
      <trkpt lat="49.18183" lon="6.97875">
        <ele>318</ele>
        <time>2011-05-08T07:45:13Z</time>
      </trkpt>
      <trkpt lat="49.18185" lon="6.97872">
        <ele>318</ele>
        <time>2011-05-08T07:45:15Z</time>
      </trkpt>
      <trkpt lat="49.18186" lon="6.97869">
        <ele>318</ele>
        <time>2011-05-08T07:45:17Z</time>
      </trkpt>
      <trkpt lat="49.18186" lon="6.97867">
        <ele>318</ele>
        <time>2011-05-08T07:45:18Z</time>
      </trkpt>
      <trkpt lat="49.18186" lon="6.97865">
        <ele>318</ele>
        <time>2011-05-08T07:45:19Z</time>
      </trkpt>
      <trkpt lat="49.18187" lon="6.97863">
        <ele>318</ele>
        <time>2011-05-08T07:45:20Z</time>
      </trkpt>
      <trkpt lat="49.18187" lon="6.97861">
        <ele>318</ele>
        <time>2011-05-08T07:45:21Z</time>
      </trkpt>
      <trkpt lat="49.18188" lon="6.97859">
        <ele>318</ele>
        <time>2011-05-08T07:45:22Z</time>
      </trkpt>
      <trkpt lat="49.18188" lon="6.97858">
        <ele>318</ele>
        <time>2011-05-08T07:45:23Z</time>
      </trkpt>
      <trkpt lat="49.1819" lon="6.97856">
        <ele>318</ele>
        <time>2011-05-08T07:45:25Z</time>
      </trkpt>
      <trkpt lat="49.1819" lon="6.97853">
        <ele>318</ele>
        <time>2011-05-08T07:45:27Z</time>
      </trkpt>
      <trkpt lat="49.18191" lon="6.97851">
        <ele>318</ele>
        <time>2011-05-08T07:45:28Z</time>
      </trkpt>
      <trkpt lat="49.18192" lon="6.97849">
        <ele>318</ele>
        <time>2011-05-08T07:45:29Z</time>
      </trkpt>
      <trkpt lat="49.18192" lon="6.97847">
        <ele>318</ele>
        <time>2011-05-08T07:45:30Z</time>
      </trkpt>
      <trkpt lat="49.18193" lon="6.97845">
        <ele>318</ele>
        <time>2011-05-08T07:45:31Z</time>
      </trkpt>
      <trkpt lat="49.18193" lon="6.97843">
        <ele>318</ele>
        <time>2011-05-08T07:45:32Z</time>
      </trkpt>
      <trkpt lat="49.18194" lon="6.97841">
        <ele>318</ele>
        <time>2011-05-08T07:45:33Z</time>
      </trkpt>
      <trkpt lat="49.18194" lon="6.97839">
        <ele>318</ele>
        <time>2011-05-08T07:45:34Z</time>
      </trkpt>
      <trkpt lat="49.18195" lon="6.97837">
        <ele>318</ele>
        <time>2011-05-08T07:45:36Z</time>
      </trkpt>
      <trkpt lat="49.18196" lon="6.97834">
        <ele>318</ele>
        <time>2011-05-08T07:45:38Z</time>
      </trkpt>
      <trkpt lat="49.18197" lon="6.97831">
        <ele>318</ele>
        <time>2011-05-08T07:45:40Z</time>
      </trkpt>
      <trkpt lat="49.18198" lon="6.97829">
        <ele>318</ele>
        <time>2011-05-08T07:45:41Z</time>
      </trkpt>
      <trkpt lat="49.18198" lon="6.97827">
        <ele>318</ele>
        <time>2011-05-08T07:45:42Z</time>
      </trkpt>
      <trkpt lat="49.18199" lon="6.97824">
        <ele>318</ele>
        <time>2011-05-08T07:45:44Z</time>
      </trkpt>
      <trkpt lat="49.182" lon="6.97822">
        <ele>318</ele>
        <time>2011-05-08T07:45:45Z</time>
      </trkpt>
      <trkpt lat="49.18201" lon="6.9782">
        <ele>318</ele>
        <time>2011-05-08T07:45:46Z</time>
      </trkpt>
      <trkpt lat="49.18202" lon="6.97817">
        <ele>318</ele>
        <time>2011-05-08T07:45:48Z</time>
      </trkpt>
      <trkpt lat="49.18203" lon="6.97815">
        <ele>318</ele>
        <time>2011-05-08T07:45:50Z</time>
      </trkpt>
      <trkpt lat="49.18204" lon="6.97814">
        <ele>318</ele>
        <time>2011-05-08T07:45:51Z</time>
      </trkpt>
      <trkpt lat="49.18205" lon="6.97812">
        <ele>318</ele>
        <time>2011-05-08T07:45:52Z</time>
      </trkpt>
      <trkpt lat="49.18206" lon="6.97808">
        <ele>318</ele>
        <time>2011-05-08T07:45:54Z</time>
      </trkpt>
      <trkpt lat="49.18207" lon="6.97806">
        <ele>318</ele>
        <time>2011-05-08T07:45:56Z</time>
      </trkpt>
      <trkpt lat="49.18208" lon="6.97804">
        <ele>318</ele>
        <time>2011-05-08T07:45:57Z</time>
      </trkpt>
      <trkpt lat="49.18208" lon="6.97802">
        <ele>318</ele>
        <time>2011-05-08T07:45:58Z</time>
      </trkpt>
      <trkpt lat="49.18209" lon="6.97798">
        <ele>318</ele>
        <time>2011-05-08T07:46:00Z</time>
      </trkpt>
      <trkpt lat="49.1821" lon="6.97796">
        <ele>318</ele>
        <time>2011-05-08T07:46:01Z</time>
      </trkpt>
      <trkpt lat="49.1821" lon="6.97794">
        <ele>318</ele>
        <time>2011-05-08T07:46:02Z</time>
      </trkpt>
      <trkpt lat="49.18211" lon="6.97792">
        <ele>318</ele>
        <time>2011-05-08T07:46:03Z</time>
      </trkpt>
      <trkpt lat="49.18211" lon="6.9779">
        <ele>318</ele>
        <time>2011-05-08T07:46:04Z</time>
      </trkpt>
      <trkpt lat="49.18211" lon="6.97788">
        <ele>318</ele>
        <time>2011-05-08T07:46:05Z</time>
      </trkpt>
      <trkpt lat="49.18213" lon="6.97786">
        <ele>318</ele>
        <time>2011-05-08T07:46:07Z</time>
      </trkpt>
      <trkpt lat="49.18214" lon="6.97783">
        <ele>318</ele>
        <time>2011-05-08T07:46:09Z</time>
      </trkpt>
      <trkpt lat="49.18215" lon="6.97779">
        <ele>318</ele>
        <time>2011-05-08T07:46:11Z</time>
      </trkpt>
      <trkpt lat="49.18215" lon="6.97777">
        <ele>318</ele>
        <time>2011-05-08T07:46:12Z</time>
      </trkpt>
      <trkpt lat="49.18216" lon="6.97776">
        <ele>318</ele>
        <time>2011-05-08T07:46:13Z</time>
      </trkpt>
      <trkpt lat="49.18218" lon="6.97773">
        <ele>318</ele>
        <time>2011-05-08T07:46:15Z</time>
      </trkpt>
      <trkpt lat="49.18219" lon="6.97771">
        <ele>318</ele>
        <time>2011-05-08T07:46:16Z</time>
      </trkpt>
      <trkpt lat="49.18219" lon="6.97769">
        <ele>318</ele>
        <time>2011-05-08T07:46:17Z</time>
      </trkpt>
      <trkpt lat="49.18219" lon="6.97766">
        <ele>318</ele>
        <time>2011-05-08T07:46:18Z</time>
      </trkpt>
      <trkpt lat="49.1822" lon="6.97764">
        <ele>318</ele>
        <time>2011-05-08T07:46:19Z</time>
      </trkpt>
      <trkpt lat="49.1822" lon="6.97761">
        <ele>318</ele>
        <time>2011-05-08T07:46:20Z</time>
      </trkpt>
      <trkpt lat="49.18221" lon="6.97759">
        <ele>318</ele>
        <time>2011-05-08T07:46:21Z</time>
      </trkpt>
      <trkpt lat="49.18222" lon="6.97758">
        <ele>318</ele>
        <time>2011-05-08T07:46:22Z</time>
      </trkpt>
      <trkpt lat="49.18222" lon="6.97756">
        <ele>318</ele>
        <time>2011-05-08T07:46:23Z</time>
      </trkpt>
      <trkpt lat="49.18223" lon="6.97754">
        <ele>318</ele>
        <time>2011-05-08T07:46:24Z</time>
      </trkpt>
      <trkpt lat="49.18223" lon="6.97753">
        <ele>318</ele>
        <time>2011-05-08T07:46:25Z</time>
      </trkpt>
      <trkpt lat="49.18224" lon="6.9775">
        <ele>318</ele>
        <time>2011-05-08T07:46:27Z</time>
      </trkpt>
      <trkpt lat="49.18223" lon="6.97748">
        <ele>318</ele>
        <time>2011-05-08T07:46:28Z</time>
      </trkpt>
      <trkpt lat="49.18223" lon="6.97746">
        <ele>318</ele>
        <time>2011-05-08T07:46:29Z</time>
      </trkpt>
      <trkpt lat="49.18223" lon="6.97744">
        <ele>318</ele>
        <time>2011-05-08T07:46:30Z</time>
      </trkpt>
      <trkpt lat="49.18223" lon="6.97742">
        <ele>318</ele>
        <time>2011-05-08T07:46:31Z</time>
      </trkpt>
      <trkpt lat="49.18223" lon="6.9774">
        <ele>318</ele>
        <time>2011-05-08T07:46:32Z</time>
      </trkpt>
      <trkpt lat="49.18223" lon="6.97737">
        <ele>318</ele>
        <time>2011-05-08T07:46:33Z</time>
      </trkpt>
      <trkpt lat="49.18223" lon="6.97735">
        <ele>318</ele>
        <time>2011-05-08T07:46:34Z</time>
      </trkpt>
      <trkpt lat="49.18223" lon="6.97733">
        <ele>318</ele>
        <time>2011-05-08T07:46:35Z</time>
      </trkpt>
      <trkpt lat="49.18225" lon="6.97731">
        <ele>318</ele>
        <time>2011-05-08T07:46:37Z</time>
      </trkpt>
      <trkpt lat="49.18225" lon="6.97729">
        <ele>318</ele>
        <time>2011-05-08T07:46:38Z</time>
      </trkpt>
      <trkpt lat="49.18226" lon="6.97727">
        <ele>318</ele>
        <time>2011-05-08T07:46:39Z</time>
      </trkpt>
      <trkpt lat="49.18227" lon="6.97725">
        <ele>318</ele>
        <time>2011-05-08T07:46:40Z</time>
      </trkpt>
      <trkpt lat="49.18228" lon="6.97723">
        <ele>318</ele>
        <time>2011-05-08T07:46:41Z</time>
      </trkpt>
      <trkpt lat="49.18229" lon="6.9772">
        <ele>318</ele>
        <time>2011-05-08T07:46:43Z</time>
      </trkpt>
      <trkpt lat="49.18229" lon="6.97718">
        <ele>318</ele>
        <time>2011-05-08T07:46:44Z</time>
      </trkpt>
      <trkpt lat="49.1823" lon="6.97716">
        <ele>318</ele>
        <time>2011-05-08T07:46:45Z</time>
      </trkpt>
      <trkpt lat="49.18231" lon="6.97714">
        <ele>318</ele>
        <time>2011-05-08T07:46:47Z</time>
      </trkpt>
      <trkpt lat="49.18232" lon="6.97712">
        <ele>318</ele>
        <time>2011-05-08T07:46:48Z</time>
      </trkpt>
      <trkpt lat="49.18233" lon="6.9771">
        <ele>318</ele>
        <time>2011-05-08T07:46:49Z</time>
      </trkpt>
      <trkpt lat="49.18233" lon="6.97707">
        <ele>318</ele>
        <time>2011-05-08T07:46:50Z</time>
      </trkpt>
      <trkpt lat="49.18233" lon="6.97705">
        <ele>318</ele>
        <time>2011-05-08T07:46:51Z</time>
      </trkpt>
      <trkpt lat="49.18233" lon="6.97703">
        <ele>318</ele>
        <time>2011-05-08T07:46:52Z</time>
      </trkpt>
      <trkpt lat="49.18235" lon="6.97701">
        <ele>318</ele>
        <time>2011-05-08T07:46:54Z</time>
      </trkpt>
      <trkpt lat="49.18236" lon="6.97697">
        <ele>318</ele>
        <time>2011-05-08T07:46:56Z</time>
      </trkpt>
      <trkpt lat="49.18237" lon="6.97696">
        <ele>318</ele>
        <time>2011-05-08T07:46:57Z</time>
      </trkpt>
      <trkpt lat="49.18238" lon="6.97694">
        <ele>318</ele>
        <time>2011-05-08T07:46:58Z</time>
      </trkpt>
      <trkpt lat="49.18239" lon="6.97691">
        <ele>318</ele>
        <time>2011-05-08T07:47:00Z</time>
      </trkpt>
      <trkpt lat="49.18241" lon="6.97688">
        <ele>320</ele>
        <time>2011-05-08T07:47:02Z</time>
      </trkpt>
      <trkpt lat="49.18242" lon="6.97687">
        <ele>321</ele>
        <time>2011-05-08T07:47:03Z</time>
      </trkpt>
      <trkpt lat="49.18243" lon="6.97685">
        <ele>321</ele>
        <time>2011-05-08T07:47:04Z</time>
      </trkpt>
      <trkpt lat="49.18244" lon="6.97683">
        <ele>322</ele>
        <time>2011-05-08T07:47:05Z</time>
      </trkpt>
      <trkpt lat="49.18245" lon="6.9768">
        <ele>323</ele>
        <time>2011-05-08T07:47:07Z</time>
      </trkpt>
      <trkpt lat="49.18245" lon="6.97678">
        <ele>323</ele>
        <time>2011-05-08T07:47:08Z</time>
      </trkpt>
      <trkpt lat="49.18246" lon="6.97675">
        <ele>323</ele>
        <time>2011-05-08T07:47:09Z</time>
      </trkpt>
      <trkpt lat="49.18246" lon="6.97673">
        <ele>323</ele>
        <time>2011-05-08T07:47:10Z</time>
      </trkpt>
      <trkpt lat="49.18248" lon="6.97671">
        <ele>323</ele>
        <time>2011-05-08T07:47:11Z</time>
      </trkpt>
      <trkpt lat="49.1825" lon="6.97669">
        <ele>323</ele>
        <time>2011-05-08T07:47:13Z</time>
      </trkpt>
      <trkpt lat="49.18251" lon="6.97667">
        <ele>323</ele>
        <time>2011-05-08T07:47:14Z</time>
      </trkpt>
      <trkpt lat="49.18252" lon="6.97663">
        <ele>323</ele>
        <time>2011-05-08T07:47:15Z</time>
      </trkpt>
      <trkpt lat="49.18253" lon="6.97661">
        <ele>323</ele>
        <time>2011-05-08T07:47:16Z</time>
      </trkpt>
      <trkpt lat="49.18254" lon="6.97658">
        <ele>323</ele>
        <time>2011-05-08T07:47:18Z</time>
      </trkpt>
      <trkpt lat="49.18255" lon="6.97655">
        <ele>323</ele>
        <time>2011-05-08T07:47:20Z</time>
      </trkpt>
      <trkpt lat="49.18256" lon="6.97653">
        <ele>323</ele>
        <time>2011-05-08T07:47:22Z</time>
      </trkpt>
      <trkpt lat="49.18258" lon="6.97651">
        <ele>323</ele>
        <time>2011-05-08T07:47:23Z</time>
      </trkpt>
      <trkpt lat="49.18259" lon="6.97648">
        <ele>323</ele>
        <time>2011-05-08T07:47:24Z</time>
      </trkpt>
      <trkpt lat="49.1826" lon="6.97646">
        <ele>323</ele>
        <time>2011-05-08T07:47:25Z</time>
      </trkpt>
      <trkpt lat="49.18261" lon="6.97644">
        <ele>323</ele>
        <time>2011-05-08T07:47:27Z</time>
      </trkpt>
      <trkpt lat="49.1826" lon="6.97641">
        <ele>326</ele>
        <time>2011-05-08T07:47:33Z</time>
      </trkpt>
      <trkpt lat="49.18261" lon="6.97638">
        <ele>326</ele>
        <time>2011-05-08T07:47:35Z</time>
      </trkpt>
      <trkpt lat="49.18261" lon="6.97636">
        <ele>327</ele>
        <time>2011-05-08T07:47:36Z</time>
      </trkpt>
      <trkpt lat="49.18262" lon="6.97634">
        <ele>327</ele>
        <time>2011-05-08T07:47:37Z</time>
      </trkpt>
      <trkpt lat="49.18263" lon="6.97632">
        <ele>327</ele>
        <time>2011-05-08T07:47:39Z</time>
      </trkpt>
      <trkpt lat="49.18263" lon="6.97629">
        <ele>327</ele>
        <time>2011-05-08T07:47:40Z</time>
      </trkpt>
      <trkpt lat="49.18265" lon="6.97625">
        <ele>328</ele>
        <time>2011-05-08T07:47:42Z</time>
      </trkpt>
      <trkpt lat="49.18266" lon="6.97621">
        <ele>328</ele>
        <time>2011-05-08T07:47:43Z</time>
      </trkpt>
      <trkpt lat="49.18267" lon="6.97619">
        <ele>328</ele>
        <time>2011-05-08T07:47:44Z</time>
      </trkpt>
      <trkpt lat="49.18268" lon="6.97616">
        <ele>328</ele>
        <time>2011-05-08T07:47:45Z</time>
      </trkpt>
      <trkpt lat="49.18269" lon="6.97614">
        <ele>328</ele>
        <time>2011-05-08T07:47:46Z</time>
      </trkpt>
      <trkpt lat="49.18269" lon="6.97612">
        <ele>328</ele>
        <time>2011-05-08T07:47:47Z</time>
      </trkpt>
      <trkpt lat="49.18269" lon="6.9761">
        <ele>328</ele>
        <time>2011-05-08T07:47:48Z</time>
      </trkpt>
      <trkpt lat="49.1827" lon="6.97608">
        <ele>328</ele>
        <time>2011-05-08T07:47:49Z</time>
      </trkpt>
      <trkpt lat="49.18271" lon="6.97607">
        <ele>328</ele>
        <time>2011-05-08T07:47:50Z</time>
      </trkpt>
      <trkpt lat="49.18272" lon="6.97605">
        <ele>328</ele>
        <time>2011-05-08T07:47:51Z</time>
      </trkpt>
      <trkpt lat="49.18274" lon="6.97602">
        <ele>328</ele>
        <time>2011-05-08T07:47:53Z</time>
      </trkpt>
      <trkpt lat="49.18274" lon="6.97599">
        <ele>328</ele>
        <time>2011-05-08T07:47:54Z</time>
      </trkpt>
      <trkpt lat="49.18274" lon="6.97597">
        <ele>328</ele>
        <time>2011-05-08T07:47:55Z</time>
      </trkpt>
      <trkpt lat="49.18275" lon="6.97595">
        <ele>327</ele>
        <time>2011-05-08T07:47:56Z</time>
      </trkpt>
      <trkpt lat="49.18275" lon="6.97593">
        <ele>327</ele>
        <time>2011-05-08T07:47:57Z</time>
      </trkpt>
      <trkpt lat="49.18275" lon="6.97591">
        <ele>326</ele>
        <time>2011-05-08T07:47:58Z</time>
      </trkpt>
      <trkpt lat="49.18275" lon="6.97589">
        <ele>325</ele>
        <time>2011-05-08T07:47:59Z</time>
      </trkpt>
      <trkpt lat="49.18276" lon="6.97585">
        <ele>324</ele>
        <time>2011-05-08T07:48:01Z</time>
      </trkpt>
      <trkpt lat="49.18276" lon="6.97584">
        <ele>323</ele>
        <time>2011-05-08T07:48:02Z</time>
      </trkpt>
      <trkpt lat="49.18277" lon="6.97581">
        <ele>323</ele>
        <time>2011-05-08T07:48:04Z</time>
      </trkpt>
      <trkpt lat="49.18277" lon="6.97579">
        <ele>323</ele>
        <time>2011-05-08T07:48:05Z</time>
      </trkpt>
      <trkpt lat="49.18278" lon="6.97577">
        <ele>323</ele>
        <time>2011-05-08T07:48:07Z</time>
      </trkpt>
      <trkpt lat="49.18277" lon="6.97574">
        <ele>323</ele>
        <time>2011-05-08T07:48:09Z</time>
      </trkpt>
      <trkpt lat="49.18277" lon="6.97573">
        <ele>323</ele>
        <time>2011-05-08T07:48:10Z</time>
      </trkpt>
      <trkpt lat="49.18278" lon="6.97571">
        <ele>323</ele>
        <time>2011-05-08T07:48:11Z</time>
      </trkpt>
      <trkpt lat="49.18278" lon="6.97569">
        <ele>323</ele>
        <time>2011-05-08T07:48:12Z</time>
      </trkpt>
      <trkpt lat="49.18278" lon="6.97567">
        <ele>323</ele>
        <time>2011-05-08T07:48:13Z</time>
      </trkpt>
      <trkpt lat="49.1828" lon="6.97566">
        <ele>323</ele>
        <time>2011-05-08T07:48:14Z</time>
      </trkpt>
      <trkpt lat="49.1828" lon="6.97563">
        <ele>323</ele>
        <time>2011-05-08T07:48:16Z</time>
      </trkpt>
      <trkpt lat="49.1828" lon="6.97561">
        <ele>323</ele>
        <time>2011-05-08T07:48:17Z</time>
      </trkpt>
      <trkpt lat="49.1828" lon="6.97559">
        <ele>323</ele>
        <time>2011-05-08T07:48:18Z</time>
      </trkpt>
      <trkpt lat="49.18281" lon="6.97555">
        <ele>323</ele>
        <time>2011-05-08T07:48:20Z</time>
      </trkpt>
      <trkpt lat="49.18282" lon="6.97553">
        <ele>323</ele>
        <time>2011-05-08T07:48:21Z</time>
      </trkpt>
      <trkpt lat="49.18283" lon="6.97551">
        <ele>323</ele>
        <time>2011-05-08T07:48:22Z</time>
      </trkpt>
      <trkpt lat="49.18283" lon="6.97549">
        <ele>323</ele>
        <time>2011-05-08T07:48:23Z</time>
      </trkpt>
      <trkpt lat="49.18283" lon="6.97547">
        <ele>323</ele>
        <time>2011-05-08T07:48:24Z</time>
      </trkpt>
      <trkpt lat="49.18283" lon="6.97544">
        <ele>323</ele>
        <time>2011-05-08T07:48:25Z</time>
      </trkpt>
      <trkpt lat="49.18282" lon="6.97542">
        <ele>323</ele>
        <time>2011-05-08T07:48:27Z</time>
      </trkpt>
      <trkpt lat="49.18282" lon="6.9754">
        <ele>323</ele>
        <time>2011-05-08T07:48:28Z</time>
      </trkpt>
      <trkpt lat="49.18283" lon="6.97538">
        <ele>323</ele>
        <time>2011-05-08T07:48:30Z</time>
      </trkpt>
      <trkpt lat="49.18283" lon="6.97536">
        <ele>323</ele>
        <time>2011-05-08T07:48:31Z</time>
      </trkpt>
      <trkpt lat="49.18283" lon="6.97534">
        <ele>323</ele>
        <time>2011-05-08T07:48:32Z</time>
      </trkpt>
      <trkpt lat="49.18283" lon="6.97532">
        <ele>323</ele>
        <time>2011-05-08T07:48:33Z</time>
      </trkpt>
      <trkpt lat="49.18282" lon="6.9753">
        <ele>323</ele>
        <time>2011-05-08T07:48:34Z</time>
      </trkpt>
      <trkpt lat="49.18282" lon="6.97527">
        <ele>323</ele>
        <time>2011-05-08T07:48:35Z</time>
      </trkpt>
      <trkpt lat="49.18282" lon="6.97526">
        <ele>323</ele>
        <time>2011-05-08T07:48:36Z</time>
      </trkpt>
      <trkpt lat="49.18282" lon="6.97523">
        <ele>321</ele>
        <time>2011-05-08T07:48:38Z</time>
      </trkpt>
      <trkpt lat="49.18282" lon="6.97521">
        <ele>321</ele>
        <time>2011-05-08T07:48:39Z</time>
      </trkpt>
      <trkpt lat="49.18282" lon="6.97519">
        <ele>321</ele>
        <time>2011-05-08T07:48:40Z</time>
      </trkpt>
      <trkpt lat="49.18283" lon="6.97517">
        <ele>320</ele>
        <time>2011-05-08T07:48:41Z</time>
      </trkpt>
      <trkpt lat="49.18282" lon="6.97514">
        <ele>320</ele>
        <time>2011-05-08T07:48:42Z</time>
      </trkpt>
      <trkpt lat="49.18282" lon="6.97511">
        <ele>319</ele>
        <time>2011-05-08T07:48:44Z</time>
      </trkpt>
      <trkpt lat="49.18282" lon="6.97509">
        <ele>318</ele>
        <time>2011-05-08T07:48:45Z</time>
      </trkpt>
      <trkpt lat="49.18283" lon="6.97506">
        <ele>318</ele>
        <time>2011-05-08T07:48:47Z</time>
      </trkpt>
      <trkpt lat="49.18284" lon="6.97505">
        <ele>318</ele>
        <time>2011-05-08T07:48:48Z</time>
      </trkpt>
      <trkpt lat="49.18286" lon="6.97503">
        <ele>318</ele>
        <time>2011-05-08T07:48:49Z</time>
      </trkpt>
      <trkpt lat="49.18287" lon="6.97502">
        <ele>318</ele>
        <time>2011-05-08T07:48:50Z</time>
      </trkpt>
      <trkpt lat="49.18287" lon="6.97499">
        <ele>318</ele>
        <time>2011-05-08T07:48:52Z</time>
      </trkpt>
      <trkpt lat="49.18288" lon="6.97498">
        <ele>318</ele>
        <time>2011-05-08T07:48:53Z</time>
      </trkpt>
      <trkpt lat="49.18288" lon="6.97496">
        <ele>318</ele>
        <time>2011-05-08T07:48:54Z</time>
      </trkpt>
      <trkpt lat="49.18289" lon="6.97493">
        <ele>318</ele>
        <time>2011-05-08T07:48:55Z</time>
      </trkpt>
      <trkpt lat="49.1829" lon="6.9749">
        <ele>318</ele>
        <time>2011-05-08T07:48:56Z</time>
      </trkpt>
      <trkpt lat="49.18291" lon="6.97487">
        <ele>318</ele>
        <time>2011-05-08T07:48:57Z</time>
      </trkpt>
      <trkpt lat="49.18292" lon="6.97486">
        <ele>318</ele>
        <time>2011-05-08T07:48:58Z</time>
      </trkpt>
      <trkpt lat="49.18291" lon="6.97484">
        <ele>318</ele>
        <time>2011-05-08T07:48:59Z</time>
      </trkpt>
      <trkpt lat="49.18291" lon="6.97481">
        <ele>318</ele>
        <time>2011-05-08T07:49:01Z</time>
      </trkpt>
      <trkpt lat="49.18291" lon="6.97479">
        <ele>318</ele>
        <time>2011-05-08T07:49:02Z</time>
      </trkpt>
      <trkpt lat="49.18292" lon="6.97477">
        <ele>318</ele>
        <time>2011-05-08T07:49:03Z</time>
      </trkpt>
      <trkpt lat="49.18291" lon="6.97475">
        <ele>318</ele>
        <time>2011-05-08T07:49:04Z</time>
      </trkpt>
      <trkpt lat="49.18292" lon="6.97472">
        <ele>318</ele>
        <time>2011-05-08T07:49:06Z</time>
      </trkpt>
      <trkpt lat="49.18291" lon="6.9747">
        <ele>318</ele>
        <time>2011-05-08T07:49:07Z</time>
      </trkpt>
      <trkpt lat="49.18291" lon="6.97469">
        <ele>318</ele>
        <time>2011-05-08T07:49:08Z</time>
      </trkpt>
      <trkpt lat="49.18292" lon="6.97467">
        <ele>318</ele>
        <time>2011-05-08T07:49:09Z</time>
      </trkpt>
      <trkpt lat="49.18293" lon="6.97465">
        <ele>318</ele>
        <time>2011-05-08T07:49:10Z</time>
      </trkpt>
      <trkpt lat="49.18293" lon="6.97462">
        <ele>318</ele>
        <time>2011-05-08T07:49:11Z</time>
      </trkpt>
      <trkpt lat="49.18292" lon="6.97459">
        <ele>318</ele>
        <time>2011-05-08T07:49:13Z</time>
      </trkpt>
      <trkpt lat="49.18293" lon="6.97456">
        <ele>318</ele>
        <time>2011-05-08T07:49:15Z</time>
      </trkpt>
      <trkpt lat="49.18293" lon="6.97453">
        <ele>318</ele>
        <time>2011-05-08T07:49:16Z</time>
      </trkpt>
      <trkpt lat="49.18293" lon="6.97451">
        <ele>318</ele>
        <time>2011-05-08T07:49:17Z</time>
      </trkpt>
      <trkpt lat="49.18293" lon="6.97449">
        <ele>318</ele>
        <time>2011-05-08T07:49:18Z</time>
      </trkpt>
      <trkpt lat="49.18293" lon="6.97447">
        <ele>319</ele>
        <time>2011-05-08T07:49:19Z</time>
      </trkpt>
      <trkpt lat="49.18291" lon="6.97446">
        <ele>320</ele>
        <time>2011-05-08T07:49:20Z</time>
      </trkpt>
      <trkpt lat="49.1829" lon="6.97443">
        <ele>320</ele>
        <time>2011-05-08T07:49:21Z</time>
      </trkpt>
      <trkpt lat="49.1829" lon="6.97441">
        <ele>321</ele>
        <time>2011-05-08T07:49:22Z</time>
      </trkpt>
      <trkpt lat="49.1829" lon="6.97439">
        <ele>321</ele>
        <time>2011-05-08T07:49:23Z</time>
      </trkpt>
      <trkpt lat="49.18291" lon="6.97436">
        <ele>322</ele>
        <time>2011-05-08T07:49:24Z</time>
      </trkpt>
      <trkpt lat="49.18292" lon="6.97435">
        <ele>323</ele>
        <time>2011-05-08T07:49:25Z</time>
      </trkpt>
      <trkpt lat="49.18293" lon="6.97432">
        <ele>323</ele>
        <time>2011-05-08T07:49:26Z</time>
      </trkpt>
      <trkpt lat="49.18293" lon="6.9743">
        <ele>324</ele>
        <time>2011-05-08T07:49:27Z</time>
      </trkpt>
      <trkpt lat="49.18292" lon="6.97427">
        <ele>324</ele>
        <time>2011-05-08T07:49:28Z</time>
      </trkpt>
      <trkpt lat="49.18292" lon="6.97424">
        <ele>325</ele>
        <time>2011-05-08T07:49:29Z</time>
      </trkpt>
      <trkpt lat="49.18292" lon="6.97421">
        <ele>325</ele>
        <time>2011-05-08T07:49:30Z</time>
      </trkpt>
      <trkpt lat="49.18291" lon="6.97419">
        <ele>326</ele>
        <time>2011-05-08T07:49:31Z</time>
      </trkpt>
      <trkpt lat="49.18291" lon="6.97416">
        <ele>326</ele>
        <time>2011-05-08T07:49:32Z</time>
      </trkpt>
      <trkpt lat="49.18291" lon="6.97414">
        <ele>326</ele>
        <time>2011-05-08T07:49:33Z</time>
      </trkpt>
      <trkpt lat="49.18291" lon="6.97412">
        <ele>327</ele>
        <time>2011-05-08T07:49:34Z</time>
      </trkpt>
      <trkpt lat="49.18291" lon="6.9741">
        <ele>327</ele>
        <time>2011-05-08T07:49:35Z</time>
      </trkpt>
      <trkpt lat="49.18291" lon="6.97407">
        <ele>327</ele>
        <time>2011-05-08T07:49:37Z</time>
      </trkpt>
      <trkpt lat="49.18291" lon="6.97404">
        <ele>327</ele>
        <time>2011-05-08T07:49:38Z</time>
      </trkpt>
      <trkpt lat="49.18291" lon="6.97402">
        <ele>327</ele>
        <time>2011-05-08T07:49:39Z</time>
      </trkpt>
      <trkpt lat="49.18291" lon="6.97401">
        <ele>327</ele>
        <time>2011-05-08T07:49:40Z</time>
      </trkpt>
      <trkpt lat="49.18291" lon="6.97399">
        <ele>327</ele>
        <time>2011-05-08T07:49:41Z</time>
      </trkpt>
      <trkpt lat="49.18293" lon="6.97397">
        <ele>327</ele>
        <time>2011-05-08T07:49:43Z</time>
      </trkpt>
      <trkpt lat="49.18294" lon="6.97394">
        <ele>327</ele>
        <time>2011-05-08T07:49:45Z</time>
      </trkpt>
      <trkpt lat="49.18294" lon="6.9739">
        <ele>327</ele>
        <time>2011-05-08T07:49:47Z</time>
      </trkpt>
      <trkpt lat="49.18295" lon="6.97388">
        <ele>327</ele>
        <time>2011-05-08T07:49:49Z</time>
      </trkpt>
      <trkpt lat="49.18296" lon="6.97384">
        <ele>327</ele>
        <time>2011-05-08T07:49:51Z</time>
      </trkpt>
      <trkpt lat="49.18296" lon="6.97381">
        <ele>327</ele>
        <time>2011-05-08T07:49:52Z</time>
      </trkpt>
      <trkpt lat="49.18297" lon="6.9738">
        <ele>327</ele>
        <time>2011-05-08T07:49:53Z</time>
      </trkpt>
      <trkpt lat="49.18298" lon="6.97377">
        <ele>327</ele>
        <time>2011-05-08T07:49:55Z</time>
      </trkpt>
      <trkpt lat="49.183" lon="6.97375">
        <ele>327</ele>
        <time>2011-05-08T07:49:57Z</time>
      </trkpt>
      <trkpt lat="49.18301" lon="6.97374">
        <ele>327</ele>
        <time>2011-05-08T07:49:58Z</time>
      </trkpt>
      <trkpt lat="49.18302" lon="6.97371">
        <ele>327</ele>
        <time>2011-05-08T07:50:00Z</time>
      </trkpt>
      <trkpt lat="49.18303" lon="6.97368">
        <ele>327</ele>
        <time>2011-05-08T07:50:02Z</time>
      </trkpt>
      <trkpt lat="49.18304" lon="6.97367">
        <ele>327</ele>
        <time>2011-05-08T07:50:03Z</time>
      </trkpt>
      <trkpt lat="49.18305" lon="6.97365">
        <ele>327</ele>
        <time>2011-05-08T07:50:04Z</time>
      </trkpt>
      <trkpt lat="49.18304" lon="6.97363">
        <ele>327</ele>
        <time>2011-05-08T07:50:05Z</time>
      </trkpt>
      <trkpt lat="49.18305" lon="6.97361">
        <ele>327</ele>
        <time>2011-05-08T07:50:06Z</time>
      </trkpt>
      <trkpt lat="49.18306" lon="6.9736">
        <ele>327</ele>
        <time>2011-05-08T07:50:07Z</time>
      </trkpt>
      <trkpt lat="49.18309" lon="6.97356">
        <ele>327</ele>
        <time>2011-05-08T07:50:09Z</time>
      </trkpt>
      <trkpt lat="49.1831" lon="6.97354">
        <ele>327</ele>
        <time>2011-05-08T07:50:10Z</time>
      </trkpt>
      <trkpt lat="49.18311" lon="6.97353">
        <ele>327</ele>
        <time>2011-05-08T07:50:11Z</time>
      </trkpt>
      <trkpt lat="49.18313" lon="6.97352">
        <ele>327</ele>
        <time>2011-05-08T07:50:12Z</time>
      </trkpt>
      <trkpt lat="49.18314" lon="6.97352">
        <ele>327</ele>
        <time>2011-05-08T07:50:13Z</time>
      </trkpt>
      <trkpt lat="49.18316" lon="6.97349">
        <ele>327</ele>
        <time>2011-05-08T07:50:15Z</time>
      </trkpt>
      <trkpt lat="49.18317" lon="6.97348">
        <ele>327</ele>
        <time>2011-05-08T07:50:16Z</time>
      </trkpt>
      <trkpt lat="49.18319" lon="6.97348">
        <ele>327</ele>
        <time>2011-05-08T07:50:17Z</time>
      </trkpt>
      <trkpt lat="49.18321" lon="6.97348">
        <ele>327</ele>
        <time>2011-05-08T07:50:18Z</time>
      </trkpt>
      <trkpt lat="49.18322" lon="6.97345">
        <ele>327</ele>
        <time>2011-05-08T07:50:19Z</time>
      </trkpt>
      <trkpt lat="49.18324" lon="6.97345">
        <ele>327</ele>
        <time>2011-05-08T07:50:20Z</time>
      </trkpt>
      <trkpt lat="49.18324" lon="6.97343">
        <ele>327</ele>
        <time>2011-05-08T07:50:22Z</time>
      </trkpt>
      <trkpt lat="49.18325" lon="6.97341">
        <ele>327</ele>
        <time>2011-05-08T07:50:23Z</time>
      </trkpt>
      <trkpt lat="49.18326" lon="6.97339">
        <ele>327</ele>
        <time>2011-05-08T07:50:24Z</time>
      </trkpt>
      <trkpt lat="49.18327" lon="6.97338">
        <ele>327</ele>
        <time>2011-05-08T07:50:25Z</time>
      </trkpt>
      <trkpt lat="49.18327" lon="6.97336">
        <ele>327</ele>
        <time>2011-05-08T07:50:26Z</time>
      </trkpt>
      <trkpt lat="49.18327" lon="6.97333">
        <ele>327</ele>
        <time>2011-05-08T07:50:28Z</time>
      </trkpt>
      <trkpt lat="49.18327" lon="6.9733">
        <ele>327</ele>
        <time>2011-05-08T07:50:30Z</time>
      </trkpt>
      <trkpt lat="49.18328" lon="6.97327">
        <ele>327</ele>
        <time>2011-05-08T07:50:32Z</time>
      </trkpt>
      <trkpt lat="49.18328" lon="6.97325">
        <ele>327</ele>
        <time>2011-05-08T07:50:33Z</time>
      </trkpt>
      <trkpt lat="49.18328" lon="6.97323">
        <ele>327</ele>
        <time>2011-05-08T07:50:34Z</time>
      </trkpt>
      <trkpt lat="49.18329" lon="6.9732">
        <ele>327</ele>
        <time>2011-05-08T07:50:36Z</time>
      </trkpt>
      <trkpt lat="49.1833" lon="6.9732">
        <ele>326</ele>
        <time>2011-05-08T07:50:37Z</time>
      </trkpt>
      <trkpt lat="49.18332" lon="6.97317">
        <ele>326</ele>
        <time>2011-05-08T07:50:39Z</time>
      </trkpt>
      <trkpt lat="49.18333" lon="6.97316">
        <ele>326</ele>
        <time>2011-05-08T07:50:40Z</time>
      </trkpt>
      <trkpt lat="49.18333" lon="6.97313">
        <ele>326</ele>
        <time>2011-05-08T07:50:41Z</time>
      </trkpt>
      <trkpt lat="49.18333" lon="6.97312">
        <ele>326</ele>
        <time>2011-05-08T07:50:42Z</time>
      </trkpt>
      <trkpt lat="49.18333" lon="6.97309">
        <ele>326</ele>
        <time>2011-05-08T07:50:43Z</time>
      </trkpt>
      <trkpt lat="49.18333" lon="6.97307">
        <ele>325</ele>
        <time>2011-05-08T07:50:44Z</time>
      </trkpt>
      <trkpt lat="49.18333" lon="6.97305">
        <ele>325</ele>
        <time>2011-05-08T07:50:45Z</time>
      </trkpt>
      <trkpt lat="49.18334" lon="6.97301">
        <ele>324</ele>
        <time>2011-05-08T07:50:47Z</time>
      </trkpt>
      <trkpt lat="49.18334" lon="6.97299">
        <ele>324</ele>
        <time>2011-05-08T07:50:48Z</time>
      </trkpt>
      <trkpt lat="49.18335" lon="6.97296">
        <ele>323</ele>
        <time>2011-05-08T07:50:50Z</time>
      </trkpt>
      <trkpt lat="49.18336" lon="6.97293">
        <ele>323</ele>
        <time>2011-05-08T07:50:51Z</time>
      </trkpt>
      <trkpt lat="49.18336" lon="6.97291">
        <ele>323</ele>
        <time>2011-05-08T07:50:52Z</time>
      </trkpt>
      <trkpt lat="49.18337" lon="6.97289">
        <ele>323</ele>
        <time>2011-05-08T07:50:53Z</time>
      </trkpt>
      <trkpt lat="49.18337" lon="6.97287">
        <ele>323</ele>
        <time>2011-05-08T07:50:54Z</time>
      </trkpt>
      <trkpt lat="49.18338" lon="6.97283">
        <ele>323</ele>
        <time>2011-05-08T07:50:55Z</time>
      </trkpt>
      <trkpt lat="49.18337" lon="6.97281">
        <ele>323</ele>
        <time>2011-05-08T07:50:56Z</time>
      </trkpt>
      <trkpt lat="49.18337" lon="6.97278">
        <ele>323</ele>
        <time>2011-05-08T07:50:57Z</time>
      </trkpt>
      <trkpt lat="49.18339" lon="6.97276">
        <ele>323</ele>
        <time>2011-05-08T07:50:59Z</time>
      </trkpt>
      <trkpt lat="49.1834" lon="6.97274">
        <ele>323</ele>
        <time>2011-05-08T07:51:01Z</time>
      </trkpt>
      <trkpt lat="49.18341" lon="6.97271">
        <ele>323</ele>
        <time>2011-05-08T07:51:03Z</time>
      </trkpt>
      <trkpt lat="49.18341" lon="6.97269">
        <ele>323</ele>
        <time>2011-05-08T07:51:04Z</time>
      </trkpt>
      <trkpt lat="49.18342" lon="6.97266">
        <ele>323</ele>
        <time>2011-05-08T07:51:06Z</time>
      </trkpt>
      <trkpt lat="49.18344" lon="6.97263">
        <ele>323</ele>
        <time>2011-05-08T07:51:08Z</time>
      </trkpt>
      <trkpt lat="49.18345" lon="6.97261">
        <ele>323</ele>
        <time>2011-05-08T07:51:10Z</time>
      </trkpt>
      <trkpt lat="49.18346" lon="6.9726">
        <ele>323</ele>
        <time>2011-05-08T07:51:11Z</time>
      </trkpt>
      <trkpt lat="49.18348" lon="6.97258">
        <ele>323</ele>
        <time>2011-05-08T07:51:12Z</time>
      </trkpt>
      <trkpt lat="49.18349" lon="6.97257">
        <ele>323</ele>
        <time>2011-05-08T07:51:13Z</time>
      </trkpt>
      <trkpt lat="49.18351" lon="6.97256">
        <ele>323</ele>
        <time>2011-05-08T07:51:14Z</time>
      </trkpt>
      <trkpt lat="49.18353" lon="6.97255">
        <ele>323</ele>
        <time>2011-05-08T07:51:15Z</time>
      </trkpt>
      <trkpt lat="49.18354" lon="6.97254">
        <ele>323</ele>
        <time>2011-05-08T07:51:16Z</time>
      </trkpt>
      <trkpt lat="49.18356" lon="6.97253">
        <ele>323</ele>
        <time>2011-05-08T07:51:17Z</time>
      </trkpt>
      <trkpt lat="49.18358" lon="6.9725">
        <ele>323</ele>
        <time>2011-05-08T07:51:19Z</time>
      </trkpt>
      <trkpt lat="49.18359" lon="6.97249">
        <ele>325</ele>
        <time>2011-05-08T07:51:21Z</time>
      </trkpt>
      <trkpt lat="49.18361" lon="6.97248">
        <ele>325</ele>
        <time>2011-05-08T07:51:23Z</time>
      </trkpt>
      <trkpt lat="49.18363" lon="6.97246">
        <ele>326</ele>
        <time>2011-05-08T07:51:25Z</time>
      </trkpt>
      <trkpt lat="49.18364" lon="6.97245">
        <ele>326</ele>
        <time>2011-05-08T07:51:26Z</time>
      </trkpt>
      <trkpt lat="49.18365" lon="6.97242">
        <ele>326</ele>
        <time>2011-05-08T07:51:27Z</time>
      </trkpt>
      <trkpt lat="49.18367" lon="6.9724">
        <ele>326</ele>
        <time>2011-05-08T07:51:28Z</time>
      </trkpt>
      <trkpt lat="49.18367" lon="6.97238">
        <ele>327</ele>
        <time>2011-05-08T07:51:29Z</time>
      </trkpt>
      <trkpt lat="49.18369" lon="6.97237">
        <ele>327</ele>
        <time>2011-05-08T07:51:30Z</time>
      </trkpt>
      <trkpt lat="49.1837" lon="6.97236">
        <ele>327</ele>
        <time>2011-05-08T07:51:31Z</time>
      </trkpt>
      <trkpt lat="49.18372" lon="6.97234">
        <ele>328</ele>
        <time>2011-05-08T07:51:34Z</time>
      </trkpt>
      <trkpt lat="49.18373" lon="6.97233">
        <ele>328</ele>
        <time>2011-05-08T07:51:35Z</time>
      </trkpt>
      <trkpt lat="49.18374" lon="6.9723">
        <ele>328</ele>
        <time>2011-05-08T07:51:37Z</time>
      </trkpt>
      <trkpt lat="49.18375" lon="6.97228">
        <ele>329</ele>
        <time>2011-05-08T07:51:38Z</time>
      </trkpt>
      <trkpt lat="49.18376" lon="6.97226">
        <ele>329</ele>
        <time>2011-05-08T07:51:39Z</time>
      </trkpt>
      <trkpt lat="49.18378" lon="6.97224">
        <ele>329</ele>
        <time>2011-05-08T07:51:41Z</time>
      </trkpt>
      <trkpt lat="49.18379" lon="6.97223">
        <ele>329</ele>
        <time>2011-05-08T07:51:42Z</time>
      </trkpt>
      <trkpt lat="49.1838" lon="6.9722">
        <ele>329</ele>
        <time>2011-05-08T07:51:43Z</time>
      </trkpt>
      <trkpt lat="49.18382" lon="6.97217">
        <ele>329</ele>
        <time>2011-05-08T07:51:45Z</time>
      </trkpt>
      <trkpt lat="49.18382" lon="6.97214">
        <ele>329</ele>
        <time>2011-05-08T07:51:46Z</time>
      </trkpt>
      <trkpt lat="49.18383" lon="6.97212">
        <ele>329</ele>
        <time>2011-05-08T07:51:47Z</time>
      </trkpt>
      <trkpt lat="49.18385" lon="6.97211">
        <ele>329</ele>
        <time>2011-05-08T07:51:48Z</time>
      </trkpt>
      <trkpt lat="49.18386" lon="6.9721">
        <ele>329</ele>
        <time>2011-05-08T07:51:49Z</time>
      </trkpt>
      <trkpt lat="49.18389" lon="6.97209">
        <ele>329</ele>
        <time>2011-05-08T07:51:50Z</time>
      </trkpt>
      <trkpt lat="49.1839" lon="6.97208">
        <ele>329</ele>
        <time>2011-05-08T07:51:51Z</time>
      </trkpt>
      <trkpt lat="49.18392" lon="6.97208">
        <ele>329</ele>
        <time>2011-05-08T07:51:52Z</time>
      </trkpt>
      <trkpt lat="49.18395" lon="6.97207">
        <ele>329</ele>
        <time>2011-05-08T07:51:53Z</time>
      </trkpt>
      <trkpt lat="49.18396" lon="6.97206">
        <ele>329</ele>
        <time>2011-05-08T07:51:54Z</time>
      </trkpt>
      <trkpt lat="49.18397" lon="6.97207">
        <ele>329</ele>
        <time>2011-05-08T07:51:55Z</time>
      </trkpt>
      <trkpt lat="49.18398" lon="6.97207">
        <ele>329</ele>
        <time>2011-05-08T07:51:56Z</time>
      </trkpt>
      <trkpt lat="49.184" lon="6.97207">
        <ele>329</ele>
        <time>2011-05-08T07:51:57Z</time>
      </trkpt>
      <trkpt lat="49.18402" lon="6.97208">
        <ele>329</ele>
        <time>2011-05-08T07:51:59Z</time>
      </trkpt>
      <trkpt lat="49.18403" lon="6.97208">
        <ele>330</ele>
        <time>2011-05-08T07:52:01Z</time>
      </trkpt>
      <trkpt lat="49.18404" lon="6.97208">
        <ele>330</ele>
        <time>2011-05-08T07:52:02Z</time>
      </trkpt>
      <trkpt lat="49.18406" lon="6.97207">
        <ele>330</ele>
        <time>2011-05-08T07:52:03Z</time>
      </trkpt>
      <trkpt lat="49.18407" lon="6.97207">
        <ele>331</ele>
        <time>2011-05-08T07:52:04Z</time>
      </trkpt>
      <trkpt lat="49.18409" lon="6.97205">
        <ele>331</ele>
        <time>2011-05-08T07:52:06Z</time>
      </trkpt>
      <trkpt lat="49.18409" lon="6.97202">
        <ele>331</ele>
        <time>2011-05-08T07:52:08Z</time>
      </trkpt>
      <trkpt lat="49.18411" lon="6.972">
        <ele>331</ele>
        <time>2011-05-08T07:52:09Z</time>
      </trkpt>
      <trkpt lat="49.18411" lon="6.97198">
        <ele>331</ele>
        <time>2011-05-08T07:52:10Z</time>
      </trkpt>
      <trkpt lat="49.18412" lon="6.97195">
        <ele>331</ele>
        <time>2011-05-08T07:52:12Z</time>
      </trkpt>
      <trkpt lat="49.18414" lon="6.97193">
        <ele>331</ele>
        <time>2011-05-08T07:52:14Z</time>
      </trkpt>
      <trkpt lat="49.18415" lon="6.97192">
        <ele>331</ele>
        <time>2011-05-08T07:52:15Z</time>
      </trkpt>
      <trkpt lat="49.18417" lon="6.97189">
        <ele>331</ele>
        <time>2011-05-08T07:52:17Z</time>
      </trkpt>
      <trkpt lat="49.18418" lon="6.97187">
        <ele>331</ele>
        <time>2011-05-08T07:52:18Z</time>
      </trkpt>
      <trkpt lat="49.18419" lon="6.97186">
        <ele>331</ele>
        <time>2011-05-08T07:52:20Z</time>
      </trkpt>
      <trkpt lat="49.18421" lon="6.97184">
        <ele>331</ele>
        <time>2011-05-08T07:52:22Z</time>
      </trkpt>
      <trkpt lat="49.18422" lon="6.97182">
        <ele>331</ele>
        <time>2011-05-08T07:52:24Z</time>
      </trkpt>
      <trkpt lat="49.18422" lon="6.9718">
        <ele>331</ele>
        <time>2011-05-08T07:52:25Z</time>
      </trkpt>
      <trkpt lat="49.18424" lon="6.97179">
        <ele>331</ele>
        <time>2011-05-08T07:52:26Z</time>
      </trkpt>
      <trkpt lat="49.18426" lon="6.97177">
        <ele>331</ele>
        <time>2011-05-08T07:52:28Z</time>
      </trkpt>
      <trkpt lat="49.18427" lon="6.97175">
        <ele>331</ele>
        <time>2011-05-08T07:52:29Z</time>
      </trkpt>
      <trkpt lat="49.18428" lon="6.97174">
        <ele>331</ele>
        <time>2011-05-08T07:52:30Z</time>
      </trkpt>
      <trkpt lat="49.18429" lon="6.97171">
        <ele>331</ele>
        <time>2011-05-08T07:52:32Z</time>
      </trkpt>
      <trkpt lat="49.18431" lon="6.97169">
        <ele>331</ele>
        <time>2011-05-08T07:52:34Z</time>
      </trkpt>
      <trkpt lat="49.18434" lon="6.97167">
        <ele>331</ele>
        <time>2011-05-08T07:52:36Z</time>
      </trkpt>
      <trkpt lat="49.18435" lon="6.97166">
        <ele>331</ele>
        <time>2011-05-08T07:52:37Z</time>
      </trkpt>
      <trkpt lat="49.18436" lon="6.97163">
        <ele>331</ele>
        <time>2011-05-08T07:52:39Z</time>
      </trkpt>
      <trkpt lat="49.18437" lon="6.97161">
        <ele>331</ele>
        <time>2011-05-08T07:52:40Z</time>
      </trkpt>
      <trkpt lat="49.18439" lon="6.97158">
        <ele>331</ele>
        <time>2011-05-08T07:52:42Z</time>
      </trkpt>
      <trkpt lat="49.18439" lon="6.97156">
        <ele>331</ele>
        <time>2011-05-08T07:52:43Z</time>
      </trkpt>
      <trkpt lat="49.18441" lon="6.97153">
        <ele>329</ele>
        <time>2011-05-08T07:52:45Z</time>
      </trkpt>
      <trkpt lat="49.18441" lon="6.9715">
        <ele>328</ele>
        <time>2011-05-08T07:52:47Z</time>
      </trkpt>
      <trkpt lat="49.18443" lon="6.97148">
        <ele>328</ele>
        <time>2011-05-08T07:52:49Z</time>
      </trkpt>
      <trkpt lat="49.18444" lon="6.97146">
        <ele>328</ele>
        <time>2011-05-08T07:52:50Z</time>
      </trkpt>
      <trkpt lat="49.18446" lon="6.97143">
        <ele>328</ele>
        <time>2011-05-08T07:52:52Z</time>
      </trkpt>
      <trkpt lat="49.18446" lon="6.97141">
        <ele>328</ele>
        <time>2011-05-08T07:52:55Z</time>
      </trkpt>
      <trkpt lat="49.18447" lon="6.9714">
        <ele>328</ele>
        <time>2011-05-08T07:52:55Z</time>
      </trkpt>
      <trkpt lat="49.18448" lon="6.97138">
        <ele>328</ele>
        <time>2011-05-08T07:52:56Z</time>
      </trkpt>
      <trkpt lat="49.18449" lon="6.97137">
        <ele>328</ele>
        <time>2011-05-08T07:52:57Z</time>
      </trkpt>
      <trkpt lat="49.18451" lon="6.97133">
        <ele>328</ele>
        <time>2011-05-08T07:52:59Z</time>
      </trkpt>
      <trkpt lat="49.18451" lon="6.9713">
        <ele>328</ele>
        <time>2011-05-08T07:53:00Z</time>
      </trkpt>
      <trkpt lat="49.18452" lon="6.97129">
        <ele>328</ele>
        <time>2011-05-08T07:53:01Z</time>
      </trkpt>
      <trkpt lat="49.18452" lon="6.97127">
        <ele>328</ele>
        <time>2011-05-08T07:53:02Z</time>
      </trkpt>
      <trkpt lat="49.18453" lon="6.97125">
        <ele>328</ele>
        <time>2011-05-08T07:53:03Z</time>
      </trkpt>
      <trkpt lat="49.18454" lon="6.97123">
        <ele>328</ele>
        <time>2011-05-08T07:53:04Z</time>
      </trkpt>
      <trkpt lat="49.18455" lon="6.97121">
        <ele>328</ele>
        <time>2011-05-08T07:53:05Z</time>
      </trkpt>
      <trkpt lat="49.18456" lon="6.97119">
        <ele>328</ele>
        <time>2011-05-08T07:53:07Z</time>
      </trkpt>
      <trkpt lat="49.18456" lon="6.97116">
        <ele>328</ele>
        <time>2011-05-08T07:53:08Z</time>
      </trkpt>
      <trkpt lat="49.18456" lon="6.97114">
        <ele>328</ele>
        <time>2011-05-08T07:53:09Z</time>
      </trkpt>
      <trkpt lat="49.18457" lon="6.97111">
        <ele>328</ele>
        <time>2011-05-08T07:53:11Z</time>
      </trkpt>
      <trkpt lat="49.18457" lon="6.97109">
        <ele>328</ele>
        <time>2011-05-08T07:53:12Z</time>
      </trkpt>
      <trkpt lat="49.18457" lon="6.97106">
        <ele>328</ele>
        <time>2011-05-08T07:53:13Z</time>
      </trkpt>
      <trkpt lat="49.18457" lon="6.97104">
        <ele>328</ele>
        <time>2011-05-08T07:53:14Z</time>
      </trkpt>
      <trkpt lat="49.18458" lon="6.97102">
        <ele>328</ele>
        <time>2011-05-08T07:53:16Z</time>
      </trkpt>
      <trkpt lat="49.18459" lon="6.97099">
        <ele>328</ele>
        <time>2011-05-08T07:53:18Z</time>
      </trkpt>
      <trkpt lat="49.1846" lon="6.97098">
        <ele>328</ele>
        <time>2011-05-08T07:53:19Z</time>
      </trkpt>
      <trkpt lat="49.18461" lon="6.97095">
        <ele>328</ele>
        <time>2011-05-08T07:53:21Z</time>
      </trkpt>
      <trkpt lat="49.18461" lon="6.97093">
        <ele>328</ele>
        <time>2011-05-08T07:53:22Z</time>
      </trkpt>
      <trkpt lat="49.18462" lon="6.97092">
        <ele>328</ele>
        <time>2011-05-08T07:53:23Z</time>
      </trkpt>
      <trkpt lat="49.18464" lon="6.97089">
        <ele>328</ele>
        <time>2011-05-08T07:53:25Z</time>
      </trkpt>
      <trkpt lat="49.18465" lon="6.97087">
        <ele>328</ele>
        <time>2011-05-08T07:53:26Z</time>
      </trkpt>
      <trkpt lat="49.18466" lon="6.97084">
        <ele>328</ele>
        <time>2011-05-08T07:53:27Z</time>
      </trkpt>
      <trkpt lat="49.18467" lon="6.97082">
        <ele>328</ele>
        <time>2011-05-08T07:53:28Z</time>
      </trkpt>
      <trkpt lat="49.18467" lon="6.9708">
        <ele>328</ele>
        <time>2011-05-08T07:53:29Z</time>
      </trkpt>
      <trkpt lat="49.18469" lon="6.97077">
        <ele>328</ele>
        <time>2011-05-08T07:53:31Z</time>
      </trkpt>
      <trkpt lat="49.1847" lon="6.97074">
        <ele>328</ele>
        <time>2011-05-08T07:53:33Z</time>
      </trkpt>
      <trkpt lat="49.1847" lon="6.97072">
        <ele>328</ele>
        <time>2011-05-08T07:53:34Z</time>
      </trkpt>
      <trkpt lat="49.18471" lon="6.9707">
        <ele>329</ele>
        <time>2011-05-08T07:53:36Z</time>
      </trkpt>
      <trkpt lat="49.18472" lon="6.97067">
        <ele>329</ele>
        <time>2011-05-08T07:53:38Z</time>
      </trkpt>
      <trkpt lat="49.18473" lon="6.97065">
        <ele>329</ele>
        <time>2011-05-08T07:53:39Z</time>
      </trkpt>
      <trkpt lat="49.18473" lon="6.97062">
        <ele>329</ele>
        <time>2011-05-08T07:53:42Z</time>
      </trkpt>
      <trkpt lat="49.18474" lon="6.97059">
        <ele>329</ele>
        <time>2011-05-08T07:53:44Z</time>
      </trkpt>
      <trkpt lat="49.18477" lon="6.97059">
        <ele>329</ele>
        <time>2011-05-08T07:53:45Z</time>
      </trkpt>
      <trkpt lat="49.18478" lon="6.97057">
        <ele>329</ele>
        <time>2011-05-08T07:53:46Z</time>
      </trkpt>
      <trkpt lat="49.18479" lon="6.97055">
        <ele>329</ele>
        <time>2011-05-08T07:53:47Z</time>
      </trkpt>
      <trkpt lat="49.1848" lon="6.97052">
        <ele>330</ele>
        <time>2011-05-08T07:53:49Z</time>
      </trkpt>
      <trkpt lat="49.18482" lon="6.9705">
        <ele>332</ele>
        <time>2011-05-08T07:53:52Z</time>
      </trkpt>
      <trkpt lat="49.18483" lon="6.97048">
        <ele>333</ele>
        <time>2011-05-08T07:53:53Z</time>
      </trkpt>
      <trkpt lat="49.18485" lon="6.97046">
        <ele>334</ele>
        <time>2011-05-08T07:53:54Z</time>
      </trkpt>
      <trkpt lat="49.18486" lon="6.97044">
        <ele>334</ele>
        <time>2011-05-08T07:53:55Z</time>
      </trkpt>
      <trkpt lat="49.18487" lon="6.97042">
        <ele>334</ele>
        <time>2011-05-08T07:53:58Z</time>
      </trkpt>
      <trkpt lat="49.18489" lon="6.9704">
        <ele>334</ele>
        <time>2011-05-08T07:54:00Z</time>
      </trkpt>
      <trkpt lat="49.18491" lon="6.97038">
        <ele>335</ele>
        <time>2011-05-08T07:54:02Z</time>
      </trkpt>
      <trkpt lat="49.18492" lon="6.97036">
        <ele>335</ele>
        <time>2011-05-08T07:54:03Z</time>
      </trkpt>
      <trkpt lat="49.18493" lon="6.97034">
        <ele>335</ele>
        <time>2011-05-08T07:54:04Z</time>
      </trkpt>
      <trkpt lat="49.18494" lon="6.97033">
        <ele>335</ele>
        <time>2011-05-08T07:54:05Z</time>
      </trkpt>
      <trkpt lat="49.18495" lon="6.97032">
        <ele>335</ele>
        <time>2011-05-08T07:54:06Z</time>
      </trkpt>
      <trkpt lat="49.18496" lon="6.97031">
        <ele>335</ele>
        <time>2011-05-08T07:54:07Z</time>
      </trkpt>
      <trkpt lat="49.18497" lon="6.9703">
        <ele>335</ele>
        <time>2011-05-08T07:54:08Z</time>
      </trkpt>
      <trkpt lat="49.18499" lon="6.97028">
        <ele>335</ele>
        <time>2011-05-08T07:54:10Z</time>
      </trkpt>
      <trkpt lat="49.185" lon="6.97026">
        <ele>335</ele>
        <time>2011-05-08T07:54:11Z</time>
      </trkpt>
      <trkpt lat="49.18502" lon="6.97026">
        <ele>335</ele>
        <time>2011-05-08T07:54:12Z</time>
      </trkpt>
      <trkpt lat="49.18503" lon="6.97025">
        <ele>335</ele>
        <time>2011-05-08T07:54:14Z</time>
      </trkpt>
      <trkpt lat="49.18505" lon="6.97023">
        <ele>335</ele>
        <time>2011-05-08T07:54:15Z</time>
      </trkpt>
      <trkpt lat="49.18507" lon="6.97022">
        <ele>335</ele>
        <time>2011-05-08T07:54:16Z</time>
      </trkpt>
      <trkpt lat="49.18508" lon="6.97021">
        <ele>335</ele>
        <time>2011-05-08T07:54:17Z</time>
      </trkpt>
      <trkpt lat="49.18509" lon="6.97019">
        <ele>335</ele>
        <time>2011-05-08T07:54:18Z</time>
      </trkpt>
      <trkpt lat="49.1851" lon="6.97018">
        <ele>335</ele>
        <time>2011-05-08T07:54:19Z</time>
      </trkpt>
      <trkpt lat="49.18512" lon="6.97017">
        <ele>335</ele>
        <time>2011-05-08T07:54:20Z</time>
      </trkpt>
      <trkpt lat="49.18513" lon="6.97015">
        <ele>335</ele>
        <time>2011-05-08T07:54:22Z</time>
      </trkpt>
      <trkpt lat="49.18514" lon="6.97013">
        <ele>335</ele>
        <time>2011-05-08T07:54:24Z</time>
      </trkpt>
      <trkpt lat="49.18516" lon="6.97013">
        <ele>335</ele>
        <time>2011-05-08T07:54:26Z</time>
      </trkpt>
      <trkpt lat="49.18518" lon="6.97012">
        <ele>335</ele>
        <time>2011-05-08T07:54:27Z</time>
      </trkpt>
      <trkpt lat="49.18519" lon="6.97011">
        <ele>335</ele>
        <time>2011-05-08T07:54:28Z</time>
      </trkpt>
      <trkpt lat="49.1852" lon="6.97008">
        <ele>335</ele>
        <time>2011-05-08T07:54:30Z</time>
      </trkpt>
      <trkpt lat="49.18522" lon="6.97008">
        <ele>335</ele>
        <time>2011-05-08T07:54:31Z</time>
      </trkpt>
      <trkpt lat="49.18523" lon="6.97006">
        <ele>335</ele>
        <time>2011-05-08T07:54:33Z</time>
      </trkpt>
      <trkpt lat="49.18524" lon="6.97003">
        <ele>335</ele>
        <time>2011-05-08T07:54:35Z</time>
      </trkpt>
      <trkpt lat="49.18525" lon="6.97002">
        <ele>335</ele>
        <time>2011-05-08T07:54:36Z</time>
      </trkpt>
      <trkpt lat="49.18526" lon="6.97">
        <ele>335</ele>
        <time>2011-05-08T07:54:38Z</time>
      </trkpt>
      <trkpt lat="49.18527" lon="6.96997">
        <ele>335</ele>
        <time>2011-05-08T07:54:40Z</time>
      </trkpt>
      <trkpt lat="49.18528" lon="6.96995">
        <ele>335</ele>
        <time>2011-05-08T07:54:41Z</time>
      </trkpt>
      <trkpt lat="49.1853" lon="6.96992">
        <ele>335</ele>
        <time>2011-05-08T07:54:42Z</time>
      </trkpt>
      <trkpt lat="49.18531" lon="6.96991">
        <ele>335</ele>
        <time>2011-05-08T07:54:43Z</time>
      </trkpt>
      <trkpt lat="49.18533" lon="6.9699">
        <ele>335</ele>
        <time>2011-05-08T07:54:44Z</time>
      </trkpt>
      <trkpt lat="49.18534" lon="6.96989">
        <ele>335</ele>
        <time>2011-05-08T07:54:45Z</time>
      </trkpt>
      <trkpt lat="49.18536" lon="6.96988">
        <ele>335</ele>
        <time>2011-05-08T07:54:46Z</time>
      </trkpt>
      <trkpt lat="49.18537" lon="6.96988">
        <ele>335</ele>
        <time>2011-05-08T07:54:47Z</time>
      </trkpt>
      <trkpt lat="49.18537" lon="6.96985">
        <ele>336</ele>
        <time>2011-05-08T07:54:50Z</time>
      </trkpt>
      <trkpt lat="49.18539" lon="6.96984">
        <ele>336</ele>
        <time>2011-05-08T07:54:51Z</time>
      </trkpt>
      <trkpt lat="49.1854" lon="6.96982">
        <ele>336</ele>
        <time>2011-05-08T07:54:52Z</time>
      </trkpt>
      <trkpt lat="49.18541" lon="6.96982">
        <ele>336</ele>
        <time>2011-05-08T07:54:53Z</time>
      </trkpt>
      <trkpt lat="49.18542" lon="6.96981">
        <ele>336</ele>
        <time>2011-05-08T07:54:54Z</time>
      </trkpt>
      <trkpt lat="49.18544" lon="6.9698">
        <ele>336</ele>
        <time>2011-05-08T07:54:55Z</time>
      </trkpt>
      <trkpt lat="49.18545" lon="6.96978">
        <ele>337</ele>
        <time>2011-05-08T07:54:56Z</time>
      </trkpt>
      <trkpt lat="49.18547" lon="6.96976">
        <ele>337</ele>
        <time>2011-05-08T07:54:58Z</time>
      </trkpt>
      <trkpt lat="49.18548" lon="6.96975">
        <ele>337</ele>
        <time>2011-05-08T07:55:00Z</time>
      </trkpt>
      <trkpt lat="49.18549" lon="6.96974">
        <ele>337</ele>
        <time>2011-05-08T07:55:01Z</time>
      </trkpt>
      <trkpt lat="49.18551" lon="6.96974">
        <ele>337</ele>
        <time>2011-05-08T07:55:02Z</time>
      </trkpt>
      <trkpt lat="49.18552" lon="6.96974">
        <ele>337</ele>
        <time>2011-05-08T07:55:03Z</time>
      </trkpt>
      <trkpt lat="49.18553" lon="6.96974">
        <ele>337</ele>
        <time>2011-05-08T07:55:04Z</time>
      </trkpt>
      <trkpt lat="49.18555" lon="6.96974">
        <ele>337</ele>
        <time>2011-05-08T07:55:06Z</time>
      </trkpt>
      <trkpt lat="49.18557" lon="6.96974">
        <ele>337</ele>
        <time>2011-05-08T07:55:07Z</time>
      </trkpt>
      <trkpt lat="49.18558" lon="6.96975">
        <ele>337</ele>
        <time>2011-05-08T07:55:08Z</time>
      </trkpt>
      <trkpt lat="49.18559" lon="6.96975">
        <ele>337</ele>
        <time>2011-05-08T07:55:09Z</time>
      </trkpt>
      <trkpt lat="49.1856" lon="6.96975">
        <ele>337</ele>
        <time>2011-05-08T07:55:10Z</time>
      </trkpt>
      <trkpt lat="49.18562" lon="6.96975">
        <ele>337</ele>
        <time>2011-05-08T07:55:11Z</time>
      </trkpt>
      <trkpt lat="49.18564" lon="6.96974">
        <ele>337</ele>
        <time>2011-05-08T07:55:13Z</time>
      </trkpt>
      <trkpt lat="49.18565" lon="6.96974">
        <ele>337</ele>
        <time>2011-05-08T07:55:14Z</time>
      </trkpt>
      <trkpt lat="49.18566" lon="6.96974">
        <ele>337</ele>
        <time>2011-05-08T07:55:15Z</time>
      </trkpt>
      <trkpt lat="49.18567" lon="6.96974">
        <ele>337</ele>
        <time>2011-05-08T07:55:16Z</time>
      </trkpt>
      <trkpt lat="49.1857" lon="6.96972">
        <ele>337</ele>
        <time>2011-05-08T07:55:18Z</time>
      </trkpt>
      <trkpt lat="49.18571" lon="6.96972">
        <ele>337</ele>
        <time>2011-05-08T07:55:19Z</time>
      </trkpt>
      <trkpt lat="49.18572" lon="6.96971">
        <ele>337</ele>
        <time>2011-05-08T07:55:20Z</time>
      </trkpt>
      <trkpt lat="49.18574" lon="6.9697">
        <ele>337</ele>
        <time>2011-05-08T07:55:22Z</time>
      </trkpt>
      <trkpt lat="49.18576" lon="6.96968">
        <ele>337</ele>
        <time>2011-05-08T07:55:24Z</time>
      </trkpt>
      <trkpt lat="49.18578" lon="6.96967">
        <ele>337</ele>
        <time>2011-05-08T07:55:26Z</time>
      </trkpt>
      <trkpt lat="49.1858" lon="6.96965">
        <ele>337</ele>
        <time>2011-05-08T07:55:28Z</time>
      </trkpt>
      <trkpt lat="49.18581" lon="6.96963">
        <ele>337</ele>
        <time>2011-05-08T07:55:30Z</time>
      </trkpt>
      <trkpt lat="49.18584" lon="6.96961">
        <ele>337</ele>
        <time>2011-05-08T07:55:32Z</time>
      </trkpt>
      <trkpt lat="49.18585" lon="6.9696">
        <ele>337</ele>
        <time>2011-05-08T07:55:33Z</time>
      </trkpt>
      <trkpt lat="49.18587" lon="6.96959">
        <ele>337</ele>
        <time>2011-05-08T07:55:35Z</time>
      </trkpt>
      <trkpt lat="49.18588" lon="6.96958">
        <ele>337</ele>
        <time>2011-05-08T07:55:36Z</time>
      </trkpt>
      <trkpt lat="49.18589" lon="6.96957">
        <ele>337</ele>
        <time>2011-05-08T07:55:38Z</time>
      </trkpt>
      <trkpt lat="49.18591" lon="6.96956">
        <ele>337</ele>
        <time>2011-05-08T07:55:40Z</time>
      </trkpt>
      <trkpt lat="49.18593" lon="6.96954">
        <ele>337</ele>
        <time>2011-05-08T07:55:42Z</time>
      </trkpt>
      <trkpt lat="49.18595" lon="6.96953">
        <ele>337</ele>
        <time>2011-05-08T07:55:44Z</time>
      </trkpt>
      <trkpt lat="49.18597" lon="6.96951">
        <ele>337</ele>
        <time>2011-05-08T07:55:46Z</time>
      </trkpt>
      <trkpt lat="49.18599" lon="6.96949">
        <ele>337</ele>
        <time>2011-05-08T07:55:48Z</time>
      </trkpt>
      <trkpt lat="49.186" lon="6.96948">
        <ele>337</ele>
        <time>2011-05-08T07:55:49Z</time>
      </trkpt>
      <trkpt lat="49.18602" lon="6.96947">
        <ele>337</ele>
        <time>2011-05-08T07:55:50Z</time>
      </trkpt>
      <trkpt lat="49.18603" lon="6.96945">
        <ele>337</ele>
        <time>2011-05-08T07:55:52Z</time>
      </trkpt>
      <trkpt lat="49.18605" lon="6.96944">
        <ele>337</ele>
        <time>2011-05-08T07:55:54Z</time>
      </trkpt>
      <trkpt lat="49.18606" lon="6.96942">
        <ele>337</ele>
        <time>2011-05-08T07:55:56Z</time>
      </trkpt>
      <trkpt lat="49.18608" lon="6.96939">
        <ele>337</ele>
        <time>2011-05-08T07:55:58Z</time>
      </trkpt>
      <trkpt lat="49.1861" lon="6.96938">
        <ele>337</ele>
        <time>2011-05-08T07:56:00Z</time>
      </trkpt>
      <trkpt lat="49.18611" lon="6.96937">
        <ele>337</ele>
        <time>2011-05-08T07:56:01Z</time>
      </trkpt>
      <trkpt lat="49.18612" lon="6.96934">
        <ele>337</ele>
        <time>2011-05-08T07:56:03Z</time>
      </trkpt>
      <trkpt lat="49.18613" lon="6.96932">
        <ele>337</ele>
        <time>2011-05-08T07:56:05Z</time>
      </trkpt>
      <trkpt lat="49.18613" lon="6.96929">
        <ele>337</ele>
        <time>2011-05-08T07:56:07Z</time>
      </trkpt>
      <trkpt lat="49.18614" lon="6.96927">
        <ele>337</ele>
        <time>2011-05-08T07:56:09Z</time>
      </trkpt>
      <trkpt lat="49.18615" lon="6.96924">
        <ele>337</ele>
        <time>2011-05-08T07:56:11Z</time>
      </trkpt>
      <trkpt lat="49.18616" lon="6.96922">
        <ele>337</ele>
        <time>2011-05-08T07:56:13Z</time>
      </trkpt>
      <trkpt lat="49.18618" lon="6.9692">
        <ele>337</ele>
        <time>2011-05-08T07:56:15Z</time>
      </trkpt>
      <trkpt lat="49.18619" lon="6.96919">
        <ele>337</ele>
        <time>2011-05-08T07:56:17Z</time>
      </trkpt>
      <trkpt lat="49.1862" lon="6.96919">
        <ele>337</ele>
        <time>2011-05-08T07:56:19Z</time>
      </trkpt>
      <trkpt lat="49.18621" lon="6.96917">
        <ele>337</ele>
        <time>2011-05-08T07:56:25Z</time>
      </trkpt>
      <trkpt lat="49.18623" lon="6.96916">
        <ele>337</ele>
        <time>2011-05-08T07:56:31Z</time>
      </trkpt>
      <trkpt lat="49.18625" lon="6.96913">
        <ele>337</ele>
        <time>2011-05-08T07:56:34Z</time>
      </trkpt>
      <trkpt lat="49.18626" lon="6.96911">
        <ele>335</ele>
        <time>2011-05-08T07:56:38Z</time>
      </trkpt>
      <trkpt lat="49.18624" lon="6.96913">
        <ele>335</ele>
        <time>2011-05-08T07:56:40Z</time>
      </trkpt>
      <trkpt lat="49.18624" lon="6.96914">
        <ele>336</ele>
        <time>2011-05-08T07:56:44Z</time>
      </trkpt>
      <trkpt lat="49.18623" lon="6.96916">
        <ele>340</ele>
        <time>2011-05-08T07:56:49Z</time>
      </trkpt>
      <trkpt lat="49.18622" lon="6.96918">
        <ele>340</ele>
        <time>2011-05-08T07:56:52Z</time>
      </trkpt>
      <trkpt lat="49.18621" lon="6.9692">
        <ele>340</ele>
        <time>2011-05-08T07:57:00Z</time>
      </trkpt>
      <trkpt lat="49.18622" lon="6.96922">
        <ele>340</ele>
        <time>2011-05-08T07:57:07Z</time>
      </trkpt>
      <trkpt lat="49.18621" lon="6.96922">
        <ele>340</ele>
        <time>2011-05-08T07:57:13Z</time>
      </trkpt>
      <trkpt lat="49.1862" lon="6.96922">
        <ele>340</ele>
        <time>2011-05-08T07:57:21Z</time>
      </trkpt>
      <trkpt lat="49.18621" lon="6.96921">
        <ele>340</ele>
        <time>2011-05-08T07:57:38Z</time>
      </trkpt>
      <trkpt lat="49.18623" lon="6.96921">
        <ele>340</ele>
        <time>2011-05-08T07:57:42Z</time>
      </trkpt>
      <trkpt lat="49.18623" lon="6.96919">
        <ele>336</ele>
        <time>2011-05-08T07:58:12Z</time>
      </trkpt>
      <trkpt lat="49.18621" lon="6.96919">
        <ele>335</ele>
        <time>2011-05-08T07:58:33Z</time>
      </trkpt>
      <trkpt lat="49.18621" lon="6.96917">
        <ele>335</ele>
        <time>2011-05-08T07:58:47Z</time>
      </trkpt>
      <trkpt lat="49.1862" lon="6.96915">
        <ele>335</ele>
        <time>2011-05-08T07:58:53Z</time>
      </trkpt>
      <trkpt lat="49.18622" lon="6.96914">
        <ele>335</ele>
        <time>2011-05-08T07:58:57Z</time>
      </trkpt>
      <trkpt lat="49.18623" lon="6.96913">
        <ele>335</ele>
        <time>2011-05-08T07:59:00Z</time>
      </trkpt>
      <trkpt lat="49.18625" lon="6.96913">
        <ele>336</ele>
        <time>2011-05-08T07:59:02Z</time>
      </trkpt>
      <trkpt lat="49.18626" lon="6.96913">
        <ele>336</ele>
        <time>2011-05-08T07:59:03Z</time>
      </trkpt>
      <trkpt lat="49.18628" lon="6.96913">
        <ele>336</ele>
        <time>2011-05-08T07:59:04Z</time>
      </trkpt>
      <trkpt lat="49.18629" lon="6.96913">
        <ele>337</ele>
        <time>2011-05-08T07:59:06Z</time>
      </trkpt>
      <trkpt lat="49.18631" lon="6.96913">
        <ele>337</ele>
        <time>2011-05-08T07:59:08Z</time>
      </trkpt>
      <trkpt lat="49.18633" lon="6.96912">
        <ele>337</ele>
        <time>2011-05-08T07:59:09Z</time>
      </trkpt>
      <trkpt lat="49.18634" lon="6.96912">
        <ele>337</ele>
        <time>2011-05-08T07:59:10Z</time>
      </trkpt>
      <trkpt lat="49.18636" lon="6.9691">
        <ele>337</ele>
        <time>2011-05-08T07:59:12Z</time>
      </trkpt>
      <trkpt lat="49.18637" lon="6.96908">
        <ele>337</ele>
        <time>2011-05-08T07:59:14Z</time>
      </trkpt>
      <trkpt lat="49.18637" lon="6.96905">
        <ele>337</ele>
        <time>2011-05-08T07:59:16Z</time>
      </trkpt>
      <trkpt lat="49.18639" lon="6.96902">
        <ele>337</ele>
        <time>2011-05-08T07:59:18Z</time>
      </trkpt>
      <trkpt lat="49.1864" lon="6.969">
        <ele>337</ele>
        <time>2011-05-08T07:59:20Z</time>
      </trkpt>
      <trkpt lat="49.18641" lon="6.96898">
        <ele>337</ele>
        <time>2011-05-08T07:59:22Z</time>
      </trkpt>
      <trkpt lat="49.18643" lon="6.96896">
        <ele>337</ele>
        <time>2011-05-08T07:59:24Z</time>
      </trkpt>
      <trkpt lat="49.18644" lon="6.96894">
        <ele>337</ele>
        <time>2011-05-08T07:59:26Z</time>
      </trkpt>
      <trkpt lat="49.18645" lon="6.96892">
        <ele>337</ele>
        <time>2011-05-08T07:59:28Z</time>
      </trkpt>
      <trkpt lat="49.18646" lon="6.9689">
        <ele>337</ele>
        <time>2011-05-08T07:59:30Z</time>
      </trkpt>
      <trkpt lat="49.18647" lon="6.96888">
        <ele>337</ele>
        <time>2011-05-08T07:59:32Z</time>
      </trkpt>
      <trkpt lat="49.18648" lon="6.96885">
        <ele>337</ele>
        <time>2011-05-08T07:59:34Z</time>
      </trkpt>
      <trkpt lat="49.18649" lon="6.96882">
        <ele>337</ele>
        <time>2011-05-08T07:59:36Z</time>
      </trkpt>
      <trkpt lat="49.18649" lon="6.9688">
        <ele>337</ele>
        <time>2011-05-08T07:59:37Z</time>
      </trkpt>
      <trkpt lat="49.1865" lon="6.96878">
        <ele>337</ele>
        <time>2011-05-08T07:59:39Z</time>
      </trkpt>
      <trkpt lat="49.18652" lon="6.96875">
        <ele>337</ele>
        <time>2011-05-08T07:59:41Z</time>
      </trkpt>
      <trkpt lat="49.18653" lon="6.96873">
        <ele>337</ele>
        <time>2011-05-08T07:59:43Z</time>
      </trkpt>
      <trkpt lat="49.18654" lon="6.9687">
        <ele>337</ele>
        <time>2011-05-08T07:59:45Z</time>
      </trkpt>
      <trkpt lat="49.18655" lon="6.96868">
        <ele>337</ele>
        <time>2011-05-08T07:59:47Z</time>
      </trkpt>
      <trkpt lat="49.18657" lon="6.96866">
        <ele>337</ele>
        <time>2011-05-08T07:59:49Z</time>
      </trkpt>
      <trkpt lat="49.18658" lon="6.96866">
        <ele>337</ele>
        <time>2011-05-08T07:59:50Z</time>
      </trkpt>
      <trkpt lat="49.1866" lon="6.96864">
        <ele>337</ele>
        <time>2011-05-08T07:59:52Z</time>
      </trkpt>
      <trkpt lat="49.18661" lon="6.96862">
        <ele>337</ele>
        <time>2011-05-08T07:59:54Z</time>
      </trkpt>
      <trkpt lat="49.18663" lon="6.9686">
        <ele>337</ele>
        <time>2011-05-08T07:59:56Z</time>
      </trkpt>
      <trkpt lat="49.18663" lon="6.96858">
        <ele>337</ele>
        <time>2011-05-08T07:59:58Z</time>
      </trkpt>
      <trkpt lat="49.18664" lon="6.96855">
        <ele>337</ele>
        <time>2011-05-08T08:00:00Z</time>
      </trkpt>
      <trkpt lat="49.18665" lon="6.96852">
        <ele>337</ele>
        <time>2011-05-08T08:00:02Z</time>
      </trkpt>
      <trkpt lat="49.18666" lon="6.9685">
        <ele>337</ele>
        <time>2011-05-08T08:00:04Z</time>
      </trkpt>
      <trkpt lat="49.18667" lon="6.96847">
        <ele>337</ele>
        <time>2011-05-08T08:00:06Z</time>
      </trkpt>
      <trkpt lat="49.18668" lon="6.96844">
        <ele>337</ele>
        <time>2011-05-08T08:00:08Z</time>
      </trkpt>
      <trkpt lat="49.1867" lon="6.96844">
        <ele>337</ele>
        <time>2011-05-08T08:00:09Z</time>
      </trkpt>
      <trkpt lat="49.18671" lon="6.96841">
        <ele>337</ele>
        <time>2011-05-08T08:00:11Z</time>
      </trkpt>
      <trkpt lat="49.18673" lon="6.96838">
        <ele>337</ele>
        <time>2011-05-08T08:00:13Z</time>
      </trkpt>
      <trkpt lat="49.18674" lon="6.96837">
        <ele>337</ele>
        <time>2011-05-08T08:00:14Z</time>
      </trkpt>
      <trkpt lat="49.18674" lon="6.96835">
        <ele>337</ele>
        <time>2011-05-08T08:00:15Z</time>
      </trkpt>
      <trkpt lat="49.18674" lon="6.96833">
        <ele>337</ele>
        <time>2011-05-08T08:00:16Z</time>
      </trkpt>
      <trkpt lat="49.18676" lon="6.9683">
        <ele>337</ele>
        <time>2011-05-08T08:00:18Z</time>
      </trkpt>
      <trkpt lat="49.18677" lon="6.96827">
        <ele>337</ele>
        <time>2011-05-08T08:00:20Z</time>
      </trkpt>
      <trkpt lat="49.18678" lon="6.96824">
        <ele>337</ele>
        <time>2011-05-08T08:00:22Z</time>
      </trkpt>
      <trkpt lat="49.18679" lon="6.96822">
        <ele>337</ele>
        <time>2011-05-08T08:00:23Z</time>
      </trkpt>
      <trkpt lat="49.18679" lon="6.9682">
        <ele>337</ele>
        <time>2011-05-08T08:00:24Z</time>
      </trkpt>
      <trkpt lat="49.1868" lon="6.96819">
        <ele>337</ele>
        <time>2011-05-08T08:00:25Z</time>
      </trkpt>
      <trkpt lat="49.1868" lon="6.96817">
        <ele>337</ele>
        <time>2011-05-08T08:00:26Z</time>
      </trkpt>
      <trkpt lat="49.18681" lon="6.96815">
        <ele>337</ele>
        <time>2011-05-08T08:00:27Z</time>
      </trkpt>
      <trkpt lat="49.18681" lon="6.96814">
        <ele>337</ele>
        <time>2011-05-08T08:00:28Z</time>
      </trkpt>
      <trkpt lat="49.18681" lon="6.96812">
        <ele>337</ele>
        <time>2011-05-08T08:00:29Z</time>
      </trkpt>
      <trkpt lat="49.18681" lon="6.96808">
        <ele>337</ele>
        <time>2011-05-08T08:00:31Z</time>
      </trkpt>
      <trkpt lat="49.18681" lon="6.96806">
        <ele>337</ele>
        <time>2011-05-08T08:00:32Z</time>
      </trkpt>
      <trkpt lat="49.18681" lon="6.96803">
        <ele>337</ele>
        <time>2011-05-08T08:00:34Z</time>
      </trkpt>
      <trkpt lat="49.18681" lon="6.96801">
        <ele>337</ele>
        <time>2011-05-08T08:00:35Z</time>
      </trkpt>
      <trkpt lat="49.18682" lon="6.96798">
        <ele>337</ele>
        <time>2011-05-08T08:00:37Z</time>
      </trkpt>
      <trkpt lat="49.18682" lon="6.96796">
        <ele>337</ele>
        <time>2011-05-08T08:00:38Z</time>
      </trkpt>
      <trkpt lat="49.18682" lon="6.96793">
        <ele>337</ele>
        <time>2011-05-08T08:00:40Z</time>
      </trkpt>
      <trkpt lat="49.18683" lon="6.96791">
        <ele>337</ele>
        <time>2011-05-08T08:00:41Z</time>
      </trkpt>
      <trkpt lat="49.18683" lon="6.9679">
        <ele>337</ele>
        <time>2011-05-08T08:00:42Z</time>
      </trkpt>
      <trkpt lat="49.18683" lon="6.96788">
        <ele>337</ele>
        <time>2011-05-08T08:00:43Z</time>
      </trkpt>
      <trkpt lat="49.18684" lon="6.96786">
        <ele>337</ele>
        <time>2011-05-08T08:00:44Z</time>
      </trkpt>
      <trkpt lat="49.18684" lon="6.96784">
        <ele>337</ele>
        <time>2011-05-08T08:00:45Z</time>
      </trkpt>
      <trkpt lat="49.18684" lon="6.96782">
        <ele>337</ele>
        <time>2011-05-08T08:00:46Z</time>
      </trkpt>
      <trkpt lat="49.18684" lon="6.9678">
        <ele>337</ele>
        <time>2011-05-08T08:00:47Z</time>
      </trkpt>
      <trkpt lat="49.18684" lon="6.96778">
        <ele>337</ele>
        <time>2011-05-08T08:00:48Z</time>
      </trkpt>
      <trkpt lat="49.18684" lon="6.96776">
        <ele>337</ele>
        <time>2011-05-08T08:00:49Z</time>
      </trkpt>
      <trkpt lat="49.18684" lon="6.96775">
        <ele>337</ele>
        <time>2011-05-08T08:00:50Z</time>
      </trkpt>
      <trkpt lat="49.18685" lon="6.96773">
        <ele>337</ele>
        <time>2011-05-08T08:00:51Z</time>
      </trkpt>
      <trkpt lat="49.18685" lon="6.96771">
        <ele>337</ele>
        <time>2011-05-08T08:00:52Z</time>
      </trkpt>
      <trkpt lat="49.18685" lon="6.9677">
        <ele>337</ele>
        <time>2011-05-08T08:00:53Z</time>
      </trkpt>
      <trkpt lat="49.18686" lon="6.96768">
        <ele>337</ele>
        <time>2011-05-08T08:00:54Z</time>
      </trkpt>
      <trkpt lat="49.18686" lon="6.96766">
        <ele>337</ele>
        <time>2011-05-08T08:00:55Z</time>
      </trkpt>
      <trkpt lat="49.18687" lon="6.96764">
        <ele>337</ele>
        <time>2011-05-08T08:00:56Z</time>
      </trkpt>
      <trkpt lat="49.18687" lon="6.96762">
        <ele>337</ele>
        <time>2011-05-08T08:00:58Z</time>
      </trkpt>
      <trkpt lat="49.18688" lon="6.96759">
        <ele>337</ele>
        <time>2011-05-08T08:01:00Z</time>
      </trkpt>
      <trkpt lat="49.1869" lon="6.96756">
        <ele>337</ele>
        <time>2011-05-08T08:01:02Z</time>
      </trkpt>
      <trkpt lat="49.18691" lon="6.96753">
        <ele>337</ele>
        <time>2011-05-08T08:01:04Z</time>
      </trkpt>
      <trkpt lat="49.18692" lon="6.96751">
        <ele>337</ele>
        <time>2011-05-08T08:01:05Z</time>
      </trkpt>
      <trkpt lat="49.18692" lon="6.96749">
        <ele>337</ele>
        <time>2011-05-08T08:01:06Z</time>
      </trkpt>
      <trkpt lat="49.18693" lon="6.96746">
        <ele>337</ele>
        <time>2011-05-08T08:01:08Z</time>
      </trkpt>
      <trkpt lat="49.18694" lon="6.96743">
        <ele>337</ele>
        <time>2011-05-08T08:01:10Z</time>
      </trkpt>
      <trkpt lat="49.18695" lon="6.96741">
        <ele>337</ele>
        <time>2011-05-08T08:01:11Z</time>
      </trkpt>
      <trkpt lat="49.18697" lon="6.96738">
        <ele>337</ele>
        <time>2011-05-08T08:01:13Z</time>
      </trkpt>
      <trkpt lat="49.18697" lon="6.96735">
        <ele>337</ele>
        <time>2011-05-08T08:01:15Z</time>
      </trkpt>
      <trkpt lat="49.18698" lon="6.96732">
        <ele>337</ele>
        <time>2011-05-08T08:01:17Z</time>
      </trkpt>
      <trkpt lat="49.18699" lon="6.96729">
        <ele>337</ele>
        <time>2011-05-08T08:01:19Z</time>
      </trkpt>
      <trkpt lat="49.187" lon="6.96728">
        <ele>337</ele>
        <time>2011-05-08T08:01:20Z</time>
      </trkpt>
      <trkpt lat="49.18702" lon="6.96725">
        <ele>337</ele>
        <time>2011-05-08T08:01:22Z</time>
      </trkpt>
      <trkpt lat="49.18703" lon="6.96722">
        <ele>337</ele>
        <time>2011-05-08T08:01:24Z</time>
      </trkpt>
      <trkpt lat="49.18705" lon="6.96721">
        <ele>337</ele>
        <time>2011-05-08T08:01:25Z</time>
      </trkpt>
      <trkpt lat="49.18705" lon="6.96719">
        <ele>337</ele>
        <time>2011-05-08T08:01:26Z</time>
      </trkpt>
      <trkpt lat="49.18705" lon="6.96717">
        <ele>337</ele>
        <time>2011-05-08T08:01:27Z</time>
      </trkpt>
      <trkpt lat="49.18706" lon="6.96715">
        <ele>337</ele>
        <time>2011-05-08T08:01:28Z</time>
      </trkpt>
      <trkpt lat="49.18707" lon="6.96713">
        <ele>337</ele>
        <time>2011-05-08T08:01:29Z</time>
      </trkpt>
      <trkpt lat="49.18708" lon="6.96712">
        <ele>337</ele>
        <time>2011-05-08T08:01:30Z</time>
      </trkpt>
      <trkpt lat="49.18708" lon="6.9671">
        <ele>337</ele>
        <time>2011-05-08T08:01:31Z</time>
      </trkpt>
      <trkpt lat="49.18709" lon="6.96708">
        <ele>337</ele>
        <time>2011-05-08T08:01:32Z</time>
      </trkpt>
      <trkpt lat="49.1871" lon="6.96707">
        <ele>337</ele>
        <time>2011-05-08T08:01:33Z</time>
      </trkpt>
      <trkpt lat="49.1871" lon="6.96705">
        <ele>337</ele>
        <time>2011-05-08T08:01:34Z</time>
      </trkpt>
      <trkpt lat="49.18712" lon="6.96702">
        <ele>337</ele>
        <time>2011-05-08T08:01:36Z</time>
      </trkpt>
      <trkpt lat="49.18712" lon="6.96701">
        <ele>337</ele>
        <time>2011-05-08T08:01:37Z</time>
      </trkpt>
      <trkpt lat="49.18713" lon="6.96699">
        <ele>337</ele>
        <time>2011-05-08T08:01:38Z</time>
      </trkpt>
      <trkpt lat="49.18713" lon="6.96697">
        <ele>337</ele>
        <time>2011-05-08T08:01:39Z</time>
      </trkpt>
      <trkpt lat="49.18714" lon="6.96695">
        <ele>337</ele>
        <time>2011-05-08T08:01:40Z</time>
      </trkpt>
      <trkpt lat="49.18715" lon="6.96693">
        <ele>337</ele>
        <time>2011-05-08T08:01:41Z</time>
      </trkpt>
      <trkpt lat="49.18715" lon="6.96691">
        <ele>337</ele>
        <time>2011-05-08T08:01:42Z</time>
      </trkpt>
      <trkpt lat="49.18716" lon="6.9669">
        <ele>337</ele>
        <time>2011-05-08T08:01:43Z</time>
      </trkpt>
      <trkpt lat="49.18716" lon="6.96688">
        <ele>337</ele>
        <time>2011-05-08T08:01:44Z</time>
      </trkpt>
      <trkpt lat="49.18717" lon="6.96686">
        <ele>337</ele>
        <time>2011-05-08T08:01:45Z</time>
      </trkpt>
      <trkpt lat="49.18717" lon="6.96684">
        <ele>337</ele>
        <time>2011-05-08T08:01:46Z</time>
      </trkpt>
      <trkpt lat="49.18718" lon="6.96683">
        <ele>337</ele>
        <time>2011-05-08T08:01:47Z</time>
      </trkpt>
      <trkpt lat="49.18718" lon="6.96681">
        <ele>337</ele>
        <time>2011-05-08T08:01:48Z</time>
      </trkpt>
      <trkpt lat="49.18718" lon="6.96679">
        <ele>337</ele>
        <time>2011-05-08T08:01:49Z</time>
      </trkpt>
      <trkpt lat="49.18719" lon="6.96677">
        <ele>337</ele>
        <time>2011-05-08T08:01:50Z</time>
      </trkpt>
      <trkpt lat="49.18719" lon="6.96675">
        <ele>337</ele>
        <time>2011-05-08T08:01:52Z</time>
      </trkpt>
      <trkpt lat="49.18718" lon="6.96673">
        <ele>337</ele>
        <time>2011-05-08T08:01:55Z</time>
      </trkpt>
      <trkpt lat="49.18718" lon="6.96671">
        <ele>337</ele>
        <time>2011-05-08T08:01:58Z</time>
      </trkpt>
      <trkpt lat="49.18717" lon="6.96669">
        <ele>337</ele>
        <time>2011-05-08T08:02:02Z</time>
      </trkpt>
      <trkpt lat="49.18716" lon="6.96668">
        <ele>337</ele>
        <time>2011-05-08T08:02:07Z</time>
      </trkpt>
      <trkpt lat="49.18715" lon="6.96666">
        <ele>337</ele>
        <time>2011-05-08T08:02:09Z</time>
      </trkpt>
      <trkpt lat="49.18713" lon="6.96664">
        <ele>338</ele>
        <time>2011-05-08T08:02:11Z</time>
      </trkpt>
      <trkpt lat="49.18711" lon="6.96663">
        <ele>338</ele>
        <time>2011-05-08T08:02:13Z</time>
      </trkpt>
      <trkpt lat="49.1871" lon="6.96662">
        <ele>338</ele>
        <time>2011-05-08T08:02:15Z</time>
      </trkpt>
      <trkpt lat="49.18708" lon="6.9666">
        <ele>338</ele>
        <time>2011-05-08T08:02:17Z</time>
      </trkpt>
      <trkpt lat="49.18706" lon="6.96659">
        <ele>338</ele>
        <time>2011-05-08T08:02:19Z</time>
      </trkpt>
      <trkpt lat="49.18705" lon="6.96658">
        <ele>338</ele>
        <time>2011-05-08T08:02:21Z</time>
      </trkpt>
      <trkpt lat="49.18703" lon="6.96657">
        <ele>338</ele>
        <time>2011-05-08T08:02:22Z</time>
      </trkpt>
      <trkpt lat="49.18701" lon="6.96657">
        <ele>338</ele>
        <time>2011-05-08T08:02:24Z</time>
      </trkpt>
      <trkpt lat="49.187" lon="6.96658">
        <ele>338</ele>
        <time>2011-05-08T08:02:25Z</time>
      </trkpt>
      <trkpt lat="49.18699" lon="6.96659">
        <ele>338</ele>
        <time>2011-05-08T08:02:26Z</time>
      </trkpt>
      <trkpt lat="49.18697" lon="6.96659">
        <ele>338</ele>
        <time>2011-05-08T08:02:27Z</time>
      </trkpt>
      <trkpt lat="49.18695" lon="6.96658">
        <ele>338</ele>
        <time>2011-05-08T08:02:29Z</time>
      </trkpt>
      <trkpt lat="49.18694" lon="6.96658">
        <ele>338</ele>
        <time>2011-05-08T08:02:31Z</time>
      </trkpt>
      <trkpt lat="49.18692" lon="6.96659">
        <ele>338</ele>
        <time>2011-05-08T08:02:33Z</time>
      </trkpt>
      <trkpt lat="49.18689" lon="6.96659">
        <ele>338</ele>
        <time>2011-05-08T08:02:35Z</time>
      </trkpt>
      <trkpt lat="49.18688" lon="6.96659">
        <ele>338</ele>
        <time>2011-05-08T08:02:37Z</time>
      </trkpt>
      <trkpt lat="49.18686" lon="6.9666">
        <ele>338</ele>
        <time>2011-05-08T08:02:38Z</time>
      </trkpt>
      <trkpt lat="49.18685" lon="6.96661">
        <ele>338</ele>
        <time>2011-05-08T08:02:39Z</time>
      </trkpt>
      <trkpt lat="49.18684" lon="6.96662">
        <ele>338</ele>
        <time>2011-05-08T08:02:40Z</time>
      </trkpt>
      <trkpt lat="49.18682" lon="6.96663">
        <ele>338</ele>
        <time>2011-05-08T08:02:42Z</time>
      </trkpt>
      <trkpt lat="49.18679" lon="6.96664">
        <ele>338</ele>
        <time>2011-05-08T08:02:44Z</time>
      </trkpt>
      <trkpt lat="49.18678" lon="6.96665">
        <ele>338</ele>
        <time>2011-05-08T08:02:45Z</time>
      </trkpt>
      <trkpt lat="49.18677" lon="6.96667">
        <ele>338</ele>
        <time>2011-05-08T08:02:46Z</time>
      </trkpt>
      <trkpt lat="49.18676" lon="6.96668">
        <ele>339</ele>
        <time>2011-05-08T08:02:47Z</time>
      </trkpt>
      <trkpt lat="49.18673" lon="6.96668">
        <ele>340</ele>
        <time>2011-05-08T08:02:49Z</time>
      </trkpt>
      <trkpt lat="49.18672" lon="6.96667">
        <ele>340</ele>
        <time>2011-05-08T08:02:50Z</time>
      </trkpt>
      <trkpt lat="49.18671" lon="6.96664">
        <ele>340</ele>
        <time>2011-05-08T08:02:52Z</time>
      </trkpt>
      <trkpt lat="49.1867" lon="6.96661">
        <ele>340</ele>
        <time>2011-05-08T08:02:54Z</time>
      </trkpt>
      <trkpt lat="49.1867" lon="6.96659">
        <ele>340</ele>
        <time>2011-05-08T08:02:55Z</time>
      </trkpt>
      <trkpt lat="49.18671" lon="6.96657">
        <ele>340</ele>
        <time>2011-05-08T08:02:56Z</time>
      </trkpt>
      <trkpt lat="49.18671" lon="6.96655">
        <ele>340</ele>
        <time>2011-05-08T08:02:57Z</time>
      </trkpt>
      <trkpt lat="49.18672" lon="6.96652">
        <ele>340</ele>
        <time>2011-05-08T08:02:59Z</time>
      </trkpt>
      <trkpt lat="49.18673" lon="6.96649">
        <ele>340</ele>
        <time>2011-05-08T08:03:01Z</time>
      </trkpt>
      <trkpt lat="49.18674" lon="6.96648">
        <ele>340</ele>
        <time>2011-05-08T08:03:02Z</time>
      </trkpt>
      <trkpt lat="49.18674" lon="6.96645">
        <ele>340</ele>
        <time>2011-05-08T08:03:03Z</time>
      </trkpt>
      <trkpt lat="49.18675" lon="6.96644">
        <ele>341</ele>
        <time>2011-05-08T08:03:04Z</time>
      </trkpt>
      <trkpt lat="49.18675" lon="6.96642">
        <ele>341</ele>
        <time>2011-05-08T08:03:05Z</time>
      </trkpt>
      <trkpt lat="49.18676" lon="6.96639">
        <ele>341</ele>
        <time>2011-05-08T08:03:07Z</time>
      </trkpt>
      <trkpt lat="49.18677" lon="6.96637">
        <ele>341</ele>
        <time>2011-05-08T08:03:08Z</time>
      </trkpt>
      <trkpt lat="49.18678" lon="6.96635">
        <ele>341</ele>
        <time>2011-05-08T08:03:09Z</time>
      </trkpt>
      <trkpt lat="49.18678" lon="6.96633">
        <ele>341</ele>
        <time>2011-05-08T08:03:10Z</time>
      </trkpt>
      <trkpt lat="49.18679" lon="6.96631">
        <ele>341</ele>
        <time>2011-05-08T08:03:11Z</time>
      </trkpt>
      <trkpt lat="49.18679" lon="6.96628">
        <ele>341</ele>
        <time>2011-05-08T08:03:13Z</time>
      </trkpt>
      <trkpt lat="49.18681" lon="6.96625">
        <ele>342</ele>
        <time>2011-05-08T08:03:15Z</time>
      </trkpt>
      <trkpt lat="49.18681" lon="6.96623">
        <ele>342</ele>
        <time>2011-05-08T08:03:16Z</time>
      </trkpt>
      <trkpt lat="49.18682" lon="6.96622">
        <ele>342</ele>
        <time>2011-05-08T08:03:17Z</time>
      </trkpt>
      <trkpt lat="49.18682" lon="6.9662">
        <ele>342</ele>
        <time>2011-05-08T08:03:18Z</time>
      </trkpt>
      <trkpt lat="49.18683" lon="6.96617">
        <ele>342</ele>
        <time>2011-05-08T08:03:20Z</time>
      </trkpt>
      <trkpt lat="49.18684" lon="6.96615">
        <ele>342</ele>
        <time>2011-05-08T08:03:21Z</time>
      </trkpt>
      <trkpt lat="49.18684" lon="6.96614">
        <ele>342</ele>
        <time>2011-05-08T08:03:22Z</time>
      </trkpt>
      <trkpt lat="49.18686" lon="6.9661">
        <ele>342</ele>
        <time>2011-05-08T08:03:24Z</time>
      </trkpt>
      <trkpt lat="49.18686" lon="6.96609">
        <ele>342</ele>
        <time>2011-05-08T08:03:25Z</time>
      </trkpt>
      <trkpt lat="49.18687" lon="6.96607">
        <ele>342</ele>
        <time>2011-05-08T08:03:26Z</time>
      </trkpt>
      <trkpt lat="49.18687" lon="6.96605">
        <ele>342</ele>
        <time>2011-05-08T08:03:27Z</time>
      </trkpt>
      <trkpt lat="49.18687" lon="6.96603">
        <ele>342</ele>
        <time>2011-05-08T08:03:28Z</time>
      </trkpt>
      <trkpt lat="49.18687" lon="6.96601">
        <ele>342</ele>
        <time>2011-05-08T08:03:29Z</time>
      </trkpt>
      <trkpt lat="49.18688" lon="6.96598">
        <ele>342</ele>
        <time>2011-05-08T08:03:31Z</time>
      </trkpt>
      <trkpt lat="49.18689" lon="6.96595">
        <ele>342</ele>
        <time>2011-05-08T08:03:33Z</time>
      </trkpt>
      <trkpt lat="49.1869" lon="6.96594">
        <ele>342</ele>
        <time>2011-05-08T08:03:34Z</time>
      </trkpt>
      <trkpt lat="49.1869" lon="6.96592">
        <ele>342</ele>
        <time>2011-05-08T08:03:35Z</time>
      </trkpt>
      <trkpt lat="49.18691" lon="6.96589">
        <ele>342</ele>
        <time>2011-05-08T08:03:37Z</time>
      </trkpt>
      <trkpt lat="49.18691" lon="6.96588">
        <ele>342</ele>
        <time>2011-05-08T08:03:38Z</time>
      </trkpt>
      <trkpt lat="49.18692" lon="6.96586">
        <ele>342</ele>
        <time>2011-05-08T08:03:39Z</time>
      </trkpt>
      <trkpt lat="49.18693" lon="6.96584">
        <ele>342</ele>
        <time>2011-05-08T08:03:40Z</time>
      </trkpt>
      <trkpt lat="49.18693" lon="6.96582">
        <ele>342</ele>
        <time>2011-05-08T08:03:41Z</time>
      </trkpt>
      <trkpt lat="49.18694" lon="6.9658">
        <ele>342</ele>
        <time>2011-05-08T08:03:42Z</time>
      </trkpt>
      <trkpt lat="49.18694" lon="6.96578">
        <ele>342</ele>
        <time>2011-05-08T08:03:43Z</time>
      </trkpt>
      <trkpt lat="49.18694" lon="6.96575">
        <ele>342</ele>
        <time>2011-05-08T08:03:45Z</time>
      </trkpt>
      <trkpt lat="49.18695" lon="6.96572">
        <ele>342</ele>
        <time>2011-05-08T08:03:47Z</time>
      </trkpt>
      <trkpt lat="49.18695" lon="6.9657">
        <ele>342</ele>
        <time>2011-05-08T08:03:48Z</time>
      </trkpt>
      <trkpt lat="49.18696" lon="6.96567">
        <ele>342</ele>
        <time>2011-05-08T08:03:50Z</time>
      </trkpt>
      <trkpt lat="49.18697" lon="6.96565">
        <ele>342</ele>
        <time>2011-05-08T08:03:51Z</time>
      </trkpt>
      <trkpt lat="49.18697" lon="6.96564">
        <ele>342</ele>
        <time>2011-05-08T08:03:52Z</time>
      </trkpt>
      <trkpt lat="49.18698" lon="6.96562">
        <ele>342</ele>
        <time>2011-05-08T08:03:53Z</time>
      </trkpt>
      <trkpt lat="49.18698" lon="6.9656">
        <ele>342</ele>
        <time>2011-05-08T08:03:54Z</time>
      </trkpt>
      <trkpt lat="49.18699" lon="6.96559">
        <ele>342</ele>
        <time>2011-05-08T08:03:55Z</time>
      </trkpt>
      <trkpt lat="49.187" lon="6.96555">
        <ele>342</ele>
        <time>2011-05-08T08:03:57Z</time>
      </trkpt>
      <trkpt lat="49.187" lon="6.96554">
        <ele>342</ele>
        <time>2011-05-08T08:03:58Z</time>
      </trkpt>
      <trkpt lat="49.18701" lon="6.96552">
        <ele>342</ele>
        <time>2011-05-08T08:03:59Z</time>
      </trkpt>
      <trkpt lat="49.18702" lon="6.9655">
        <ele>342</ele>
        <time>2011-05-08T08:04:00Z</time>
      </trkpt>
      <trkpt lat="49.18702" lon="6.96547">
        <ele>342</ele>
        <time>2011-05-08T08:04:02Z</time>
      </trkpt>
      <trkpt lat="49.18703" lon="6.96544">
        <ele>342</ele>
        <time>2011-05-08T08:04:04Z</time>
      </trkpt>
      <trkpt lat="49.18705" lon="6.96541">
        <ele>342</ele>
        <time>2011-05-08T08:04:06Z</time>
      </trkpt>
      <trkpt lat="49.18705" lon="6.9654">
        <ele>342</ele>
        <time>2011-05-08T08:04:07Z</time>
      </trkpt>
      <trkpt lat="49.18705" lon="6.96538">
        <ele>342</ele>
        <time>2011-05-08T08:04:08Z</time>
      </trkpt>
      <trkpt lat="49.18706" lon="6.96535">
        <ele>342</ele>
        <time>2011-05-08T08:04:10Z</time>
      </trkpt>
      <trkpt lat="49.18708" lon="6.96532">
        <ele>342</ele>
        <time>2011-05-08T08:04:12Z</time>
      </trkpt>
      <trkpt lat="49.18709" lon="6.96529">
        <ele>342</ele>
        <time>2011-05-08T08:04:14Z</time>
      </trkpt>
      <trkpt lat="49.1871" lon="6.96527">
        <ele>342</ele>
        <time>2011-05-08T08:04:16Z</time>
      </trkpt>
      <trkpt lat="49.18711" lon="6.96525">
        <ele>342</ele>
        <time>2011-05-08T08:04:17Z</time>
      </trkpt>
      <trkpt lat="49.18713" lon="6.96522">
        <ele>342</ele>
        <time>2011-05-08T08:04:19Z</time>
      </trkpt>
      <trkpt lat="49.18713" lon="6.9652">
        <ele>342</ele>
        <time>2011-05-08T08:04:20Z</time>
      </trkpt>
      <trkpt lat="49.18714" lon="6.96519">
        <ele>342</ele>
        <time>2011-05-08T08:04:21Z</time>
      </trkpt>
      <trkpt lat="49.18715" lon="6.96516">
        <ele>342</ele>
        <time>2011-05-08T08:04:23Z</time>
      </trkpt>
      <trkpt lat="49.18716" lon="6.96514">
        <ele>342</ele>
        <time>2011-05-08T08:04:24Z</time>
      </trkpt>
      <trkpt lat="49.18716" lon="6.96512">
        <ele>342</ele>
        <time>2011-05-08T08:04:25Z</time>
      </trkpt>
      <trkpt lat="49.18718" lon="6.96509">
        <ele>342</ele>
        <time>2011-05-08T08:04:27Z</time>
      </trkpt>
      <trkpt lat="49.18718" lon="6.96506">
        <ele>342</ele>
        <time>2011-05-08T08:04:29Z</time>
      </trkpt>
      <trkpt lat="49.18719" lon="6.96502">
        <ele>342</ele>
        <time>2011-05-08T08:04:31Z</time>
      </trkpt>
      <trkpt lat="49.18719" lon="6.96501">
        <ele>342</ele>
        <time>2011-05-08T08:04:32Z</time>
      </trkpt>
      <trkpt lat="49.1872" lon="6.96499">
        <ele>342</ele>
        <time>2011-05-08T08:04:33Z</time>
      </trkpt>
      <trkpt lat="49.1872" lon="6.96497">
        <ele>342</ele>
        <time>2011-05-08T08:04:34Z</time>
      </trkpt>
      <trkpt lat="49.1872" lon="6.96495">
        <ele>342</ele>
        <time>2011-05-08T08:04:36Z</time>
      </trkpt>
      <trkpt lat="49.18722" lon="6.96493">
        <ele>342</ele>
        <time>2011-05-08T08:04:38Z</time>
      </trkpt>
      <trkpt lat="49.18723" lon="6.96491">
        <ele>342</ele>
        <time>2011-05-08T08:04:39Z</time>
      </trkpt>
      <trkpt lat="49.18723" lon="6.96489">
        <ele>342</ele>
        <time>2011-05-08T08:04:40Z</time>
      </trkpt>
      <trkpt lat="49.18724" lon="6.96487">
        <ele>342</ele>
        <time>2011-05-08T08:04:41Z</time>
      </trkpt>
      <trkpt lat="49.18725" lon="6.96484">
        <ele>342</ele>
        <time>2011-05-08T08:04:43Z</time>
      </trkpt>
      <trkpt lat="49.18727" lon="6.96481">
        <ele>342</ele>
        <time>2011-05-08T08:04:45Z</time>
      </trkpt>
      <trkpt lat="49.18727" lon="6.96478">
        <ele>342</ele>
        <time>2011-05-08T08:04:47Z</time>
      </trkpt>
      <trkpt lat="49.18728" lon="6.96475">
        <ele>342</ele>
        <time>2011-05-08T08:04:49Z</time>
      </trkpt>
      <trkpt lat="49.18728" lon="6.96473">
        <ele>342</ele>
        <time>2011-05-08T08:04:50Z</time>
      </trkpt>
      <trkpt lat="49.18728" lon="6.96471">
        <ele>342</ele>
        <time>2011-05-08T08:04:51Z</time>
      </trkpt>
      <trkpt lat="49.18729" lon="6.96469">
        <ele>342</ele>
        <time>2011-05-08T08:04:52Z</time>
      </trkpt>
      <trkpt lat="49.18729" lon="6.96467">
        <ele>342</ele>
        <time>2011-05-08T08:04:53Z</time>
      </trkpt>
      <trkpt lat="49.18731" lon="6.96464">
        <ele>342</ele>
        <time>2011-05-08T08:04:55Z</time>
      </trkpt>
      <trkpt lat="49.18731" lon="6.96462">
        <ele>342</ele>
        <time>2011-05-08T08:04:56Z</time>
      </trkpt>
      <trkpt lat="49.18731" lon="6.96459">
        <ele>342</ele>
        <time>2011-05-08T08:04:57Z</time>
      </trkpt>
      <trkpt lat="49.18732" lon="6.96458">
        <ele>342</ele>
        <time>2011-05-08T08:04:58Z</time>
      </trkpt>
      <trkpt lat="49.18733" lon="6.96456">
        <ele>342</ele>
        <time>2011-05-08T08:04:59Z</time>
      </trkpt>
      <trkpt lat="49.18733" lon="6.96454">
        <ele>342</ele>
        <time>2011-05-08T08:05:00Z</time>
      </trkpt>
      <trkpt lat="49.18734" lon="6.96452">
        <ele>342</ele>
        <time>2011-05-08T08:05:01Z</time>
      </trkpt>
      <trkpt lat="49.18734" lon="6.9645">
        <ele>342</ele>
        <time>2011-05-08T08:05:02Z</time>
      </trkpt>
      <trkpt lat="49.18734" lon="6.96448">
        <ele>342</ele>
        <time>2011-05-08T08:05:03Z</time>
      </trkpt>
      <trkpt lat="49.18734" lon="6.96447">
        <ele>342</ele>
        <time>2011-05-08T08:05:04Z</time>
      </trkpt>
      <trkpt lat="49.18734" lon="6.96445">
        <ele>342</ele>
        <time>2011-05-08T08:05:05Z</time>
      </trkpt>
      <trkpt lat="49.18735" lon="6.96443">
        <ele>342</ele>
        <time>2011-05-08T08:05:06Z</time>
      </trkpt>
      <trkpt lat="49.18736" lon="6.96441">
        <ele>342</ele>
        <time>2011-05-08T08:05:07Z</time>
      </trkpt>
      <trkpt lat="49.18736" lon="6.96439">
        <ele>342</ele>
        <time>2011-05-08T08:05:08Z</time>
      </trkpt>
      <trkpt lat="49.18737" lon="6.96436">
        <ele>342</ele>
        <time>2011-05-08T08:05:10Z</time>
      </trkpt>
      <trkpt lat="49.18739" lon="6.96433">
        <ele>342</ele>
        <time>2011-05-08T08:05:12Z</time>
      </trkpt>
      <trkpt lat="49.1874" lon="6.9643">
        <ele>343</ele>
        <time>2011-05-08T08:05:14Z</time>
      </trkpt>
      <trkpt lat="49.18741" lon="6.96428">
        <ele>343</ele>
        <time>2011-05-08T08:05:16Z</time>
      </trkpt>
      <trkpt lat="49.18742" lon="6.96427">
        <ele>344</ele>
        <time>2011-05-08T08:05:19Z</time>
      </trkpt>
      <trkpt lat="49.18743" lon="6.96425">
        <ele>344</ele>
        <time>2011-05-08T08:05:21Z</time>
      </trkpt>
      <trkpt lat="49.18743" lon="6.96423">
        <ele>344</ele>
        <time>2011-05-08T08:05:22Z</time>
      </trkpt>
      <trkpt lat="49.18743" lon="6.96421">
        <ele>344</ele>
        <time>2011-05-08T08:05:23Z</time>
      </trkpt>
      <trkpt lat="49.18744" lon="6.96418">
        <ele>344</ele>
        <time>2011-05-08T08:05:25Z</time>
      </trkpt>
      <trkpt lat="49.18745" lon="6.96417">
        <ele>344</ele>
        <time>2011-05-08T08:05:26Z</time>
      </trkpt>
      <trkpt lat="49.18745" lon="6.96415">
        <ele>344</ele>
        <time>2011-05-08T08:05:27Z</time>
      </trkpt>
      <trkpt lat="49.18746" lon="6.96412">
        <ele>344</ele>
        <time>2011-05-08T08:05:29Z</time>
      </trkpt>
      <trkpt lat="49.18747" lon="6.96409">
        <ele>344</ele>
        <time>2011-05-08T08:05:31Z</time>
      </trkpt>
      <trkpt lat="49.18747" lon="6.96408">
        <ele>344</ele>
        <time>2011-05-08T08:05:32Z</time>
      </trkpt>
      <trkpt lat="49.18749" lon="6.96405">
        <ele>344</ele>
        <time>2011-05-08T08:05:34Z</time>
      </trkpt>
      <trkpt lat="49.1875" lon="6.96402">
        <ele>344</ele>
        <time>2011-05-08T08:05:36Z</time>
      </trkpt>
      <trkpt lat="49.18751" lon="6.964">
        <ele>344</ele>
        <time>2011-05-08T08:05:37Z</time>
      </trkpt>
      <trkpt lat="49.18753" lon="6.96397">
        <ele>345</ele>
        <time>2011-05-08T08:05:39Z</time>
      </trkpt>
      <trkpt lat="49.18754" lon="6.96394">
        <ele>345</ele>
        <time>2011-05-08T08:05:41Z</time>
      </trkpt>
      <trkpt lat="49.18756" lon="6.96392">
        <ele>345</ele>
        <time>2011-05-08T08:05:43Z</time>
      </trkpt>
      <trkpt lat="49.18757" lon="6.9639">
        <ele>345</ele>
        <time>2011-05-08T08:05:44Z</time>
      </trkpt>
      <trkpt lat="49.18758" lon="6.96388">
        <ele>346</ele>
        <time>2011-05-08T08:05:46Z</time>
      </trkpt>
      <trkpt lat="49.18759" lon="6.96385">
        <ele>346</ele>
        <time>2011-05-08T08:05:48Z</time>
      </trkpt>
      <trkpt lat="49.18761" lon="6.96383">
        <ele>346</ele>
        <time>2011-05-08T08:05:50Z</time>
      </trkpt>
      <trkpt lat="49.18762" lon="6.96379">
        <ele>346</ele>
        <time>2011-05-08T08:05:52Z</time>
      </trkpt>
      <trkpt lat="49.18763" lon="6.96377">
        <ele>346</ele>
        <time>2011-05-08T08:05:54Z</time>
      </trkpt>
      <trkpt lat="49.18764" lon="6.96374">
        <ele>347</ele>
        <time>2011-05-08T08:05:56Z</time>
      </trkpt>
      <trkpt lat="49.18766" lon="6.96372">
        <ele>347</ele>
        <time>2011-05-08T08:05:58Z</time>
      </trkpt>
      <trkpt lat="49.18767" lon="6.96369">
        <ele>347</ele>
        <time>2011-05-08T08:06:00Z</time>
      </trkpt>
      <trkpt lat="49.18768" lon="6.96366">
        <ele>347</ele>
        <time>2011-05-08T08:06:02Z</time>
      </trkpt>
      <trkpt lat="49.1877" lon="6.96364">
        <ele>347</ele>
        <time>2011-05-08T08:06:04Z</time>
      </trkpt>
      <trkpt lat="49.18771" lon="6.96362">
        <ele>347</ele>
        <time>2011-05-08T08:06:05Z</time>
      </trkpt>
      <trkpt lat="49.18771" lon="6.9636">
        <ele>347</ele>
        <time>2011-05-08T08:06:06Z</time>
      </trkpt>
      <trkpt lat="49.18771" lon="6.96359">
        <ele>347</ele>
        <time>2011-05-08T08:06:07Z</time>
      </trkpt>
      <trkpt lat="49.18773" lon="6.96356">
        <ele>347</ele>
        <time>2011-05-08T08:06:09Z</time>
      </trkpt>
      <trkpt lat="49.18773" lon="6.96354">
        <ele>347</ele>
        <time>2011-05-08T08:06:10Z</time>
      </trkpt>
      <trkpt lat="49.18774" lon="6.96352">
        <ele>347</ele>
        <time>2011-05-08T08:06:11Z</time>
      </trkpt>
      <trkpt lat="49.18775" lon="6.96349">
        <ele>347</ele>
        <time>2011-05-08T08:06:13Z</time>
      </trkpt>
      <trkpt lat="49.18776" lon="6.96347">
        <ele>347</ele>
        <time>2011-05-08T08:06:15Z</time>
      </trkpt>
      <trkpt lat="49.18778" lon="6.96344">
        <ele>348</ele>
        <time>2011-05-08T08:06:17Z</time>
      </trkpt>
      <trkpt lat="49.18778" lon="6.96342">
        <ele>348</ele>
        <time>2011-05-08T08:06:18Z</time>
      </trkpt>
      <trkpt lat="49.18779" lon="6.96339">
        <ele>348</ele>
        <time>2011-05-08T08:06:20Z</time>
      </trkpt>
      <trkpt lat="49.1878" lon="6.96338">
        <ele>348</ele>
        <time>2011-05-08T08:06:22Z</time>
      </trkpt>
      <trkpt lat="49.18781" lon="6.96336">
        <ele>348</ele>
        <time>2011-05-08T08:06:23Z</time>
      </trkpt>
      <trkpt lat="49.18782" lon="6.96334">
        <ele>348</ele>
        <time>2011-05-08T08:06:24Z</time>
      </trkpt>
      <trkpt lat="49.18782" lon="6.96333">
        <ele>348</ele>
        <time>2011-05-08T08:06:25Z</time>
      </trkpt>
      <trkpt lat="49.18783" lon="6.96331">
        <ele>348</ele>
        <time>2011-05-08T08:06:26Z</time>
      </trkpt>
      <trkpt lat="49.18784" lon="6.96329">
        <ele>348</ele>
        <time>2011-05-08T08:06:27Z</time>
      </trkpt>
      <trkpt lat="49.18785" lon="6.96326">
        <ele>348</ele>
        <time>2011-05-08T08:06:29Z</time>
      </trkpt>
      <trkpt lat="49.18785" lon="6.96324">
        <ele>348</ele>
        <time>2011-05-08T08:06:30Z</time>
      </trkpt>
      <trkpt lat="49.18786" lon="6.96322">
        <ele>348</ele>
        <time>2011-05-08T08:06:31Z</time>
      </trkpt>
      <trkpt lat="49.18787" lon="6.9632">
        <ele>349</ele>
        <time>2011-05-08T08:06:32Z</time>
      </trkpt>
      <trkpt lat="49.18787" lon="6.96319">
        <ele>349</ele>
        <time>2011-05-08T08:06:33Z</time>
      </trkpt>
      <trkpt lat="49.18788" lon="6.96315">
        <ele>349</ele>
        <time>2011-05-08T08:06:35Z</time>
      </trkpt>
      <trkpt lat="49.18789" lon="6.96313">
        <ele>349</ele>
        <time>2011-05-08T08:06:36Z</time>
      </trkpt>
      <trkpt lat="49.18789" lon="6.96312">
        <ele>349</ele>
        <time>2011-05-08T08:06:37Z</time>
      </trkpt>
      <trkpt lat="49.1879" lon="6.96309">
        <ele>349</ele>
        <time>2011-05-08T08:06:39Z</time>
      </trkpt>
      <trkpt lat="49.18791" lon="6.96307">
        <ele>349</ele>
        <time>2011-05-08T08:06:40Z</time>
      </trkpt>
      <trkpt lat="49.18792" lon="6.96304">
        <ele>349</ele>
        <time>2011-05-08T08:06:42Z</time>
      </trkpt>
      <trkpt lat="49.18793" lon="6.96303">
        <ele>349</ele>
        <time>2011-05-08T08:06:43Z</time>
      </trkpt>
      <trkpt lat="49.18793" lon="6.96301">
        <ele>349</ele>
        <time>2011-05-08T08:06:44Z</time>
      </trkpt>
      <trkpt lat="49.18794" lon="6.96299">
        <ele>349</ele>
        <time>2011-05-08T08:06:45Z</time>
      </trkpt>
      <trkpt lat="49.18795" lon="6.96298">
        <ele>349</ele>
        <time>2011-05-08T08:06:46Z</time>
      </trkpt>
      <trkpt lat="49.18796" lon="6.96294">
        <ele>349</ele>
        <time>2011-05-08T08:06:48Z</time>
      </trkpt>
      <trkpt lat="49.18797" lon="6.96291">
        <ele>349</ele>
        <time>2011-05-08T08:06:50Z</time>
      </trkpt>
      <trkpt lat="49.18798" lon="6.96288">
        <ele>349</ele>
        <time>2011-05-08T08:06:52Z</time>
      </trkpt>
      <trkpt lat="49.188" lon="6.96285">
        <ele>349</ele>
        <time>2011-05-08T08:06:54Z</time>
      </trkpt>
      <trkpt lat="49.18801" lon="6.96282">
        <ele>349</ele>
        <time>2011-05-08T08:06:56Z</time>
      </trkpt>
      <trkpt lat="49.18802" lon="6.96279">
        <ele>349</ele>
        <time>2011-05-08T08:06:58Z</time>
      </trkpt>
      <trkpt lat="49.18804" lon="6.96276">
        <ele>349</ele>
        <time>2011-05-08T08:07:00Z</time>
      </trkpt>
      <trkpt lat="49.18805" lon="6.96274">
        <ele>349</ele>
        <time>2011-05-08T08:07:01Z</time>
      </trkpt>
      <trkpt lat="49.18805" lon="6.96273">
        <ele>349</ele>
        <time>2011-05-08T08:07:02Z</time>
      </trkpt>
      <trkpt lat="49.18806" lon="6.96271">
        <ele>349</ele>
        <time>2011-05-08T08:07:03Z</time>
      </trkpt>
      <trkpt lat="49.18806" lon="6.96269">
        <ele>349</ele>
        <time>2011-05-08T08:07:04Z</time>
      </trkpt>
      <trkpt lat="49.18807" lon="6.96267">
        <ele>349</ele>
        <time>2011-05-08T08:07:05Z</time>
      </trkpt>
      <trkpt lat="49.18807" lon="6.96265">
        <ele>349</ele>
        <time>2011-05-08T08:07:06Z</time>
      </trkpt>
      <trkpt lat="49.18808" lon="6.96264">
        <ele>349</ele>
        <time>2011-05-08T08:07:07Z</time>
      </trkpt>
      <trkpt lat="49.18808" lon="6.96262">
        <ele>349</ele>
        <time>2011-05-08T08:07:08Z</time>
      </trkpt>
      <trkpt lat="49.18809" lon="6.9626">
        <ele>349</ele>
        <time>2011-05-08T08:07:09Z</time>
      </trkpt>
      <trkpt lat="49.1881" lon="6.96258">
        <ele>349</ele>
        <time>2011-05-08T08:07:10Z</time>
      </trkpt>
      <trkpt lat="49.1881" lon="6.96256">
        <ele>349</ele>
        <time>2011-05-08T08:07:11Z</time>
      </trkpt>
      <trkpt lat="49.18811" lon="6.96254">
        <ele>349</ele>
        <time>2011-05-08T08:07:12Z</time>
      </trkpt>
      <trkpt lat="49.18812" lon="6.96252">
        <ele>349</ele>
        <time>2011-05-08T08:07:13Z</time>
      </trkpt>
      <trkpt lat="49.18812" lon="6.96251">
        <ele>349</ele>
        <time>2011-05-08T08:07:14Z</time>
      </trkpt>
      <trkpt lat="49.18813" lon="6.96248">
        <ele>349</ele>
        <time>2011-05-08T08:07:16Z</time>
      </trkpt>
      <trkpt lat="49.18814" lon="6.96245">
        <ele>349</ele>
        <time>2011-05-08T08:07:18Z</time>
      </trkpt>
      <trkpt lat="49.18815" lon="6.96243">
        <ele>349</ele>
        <time>2011-05-08T08:07:19Z</time>
      </trkpt>
      <trkpt lat="49.18816" lon="6.96241">
        <ele>349</ele>
        <time>2011-05-08T08:07:20Z</time>
      </trkpt>
      <trkpt lat="49.18816" lon="6.96239">
        <ele>349</ele>
        <time>2011-05-08T08:07:21Z</time>
      </trkpt>
      <trkpt lat="49.18817" lon="6.96237">
        <ele>349</ele>
        <time>2011-05-08T08:07:22Z</time>
      </trkpt>
      <trkpt lat="49.18818" lon="6.96234">
        <ele>349</ele>
        <time>2011-05-08T08:07:24Z</time>
      </trkpt>
      <trkpt lat="49.18819" lon="6.96233">
        <ele>349</ele>
        <time>2011-05-08T08:07:25Z</time>
      </trkpt>
      <trkpt lat="49.18819" lon="6.96231">
        <ele>349</ele>
        <time>2011-05-08T08:07:26Z</time>
      </trkpt>
      <trkpt lat="49.1882" lon="6.96229">
        <ele>349</ele>
        <time>2011-05-08T08:07:27Z</time>
      </trkpt>
      <trkpt lat="49.1882" lon="6.96227">
        <ele>349</ele>
        <time>2011-05-08T08:07:28Z</time>
      </trkpt>
      <trkpt lat="49.18821" lon="6.96224">
        <ele>349</ele>
        <time>2011-05-08T08:07:30Z</time>
      </trkpt>
      <trkpt lat="49.18822" lon="6.96221">
        <ele>349</ele>
        <time>2011-05-08T08:07:32Z</time>
      </trkpt>
      <trkpt lat="49.18824" lon="6.96218">
        <ele>349</ele>
        <time>2011-05-08T08:07:34Z</time>
      </trkpt>
      <trkpt lat="49.18825" lon="6.96216">
        <ele>349</ele>
        <time>2011-05-08T08:07:35Z</time>
      </trkpt>
      <trkpt lat="49.18826" lon="6.96213">
        <ele>349</ele>
        <time>2011-05-08T08:07:37Z</time>
      </trkpt>
      <trkpt lat="49.18827" lon="6.9621">
        <ele>349</ele>
        <time>2011-05-08T08:07:39Z</time>
      </trkpt>
      <trkpt lat="49.18827" lon="6.96208">
        <ele>349</ele>
        <time>2011-05-08T08:07:40Z</time>
      </trkpt>
      <trkpt lat="49.18828" lon="6.96207">
        <ele>349</ele>
        <time>2011-05-08T08:07:41Z</time>
      </trkpt>
      <trkpt lat="49.18829" lon="6.96205">
        <ele>349</ele>
        <time>2011-05-08T08:07:42Z</time>
      </trkpt>
      <trkpt lat="49.18829" lon="6.96204">
        <ele>349</ele>
        <time>2011-05-08T08:07:43Z</time>
      </trkpt>
      <trkpt lat="49.1883" lon="6.96201">
        <ele>349</ele>
        <time>2011-05-08T08:07:45Z</time>
      </trkpt>
      <trkpt lat="49.18832" lon="6.96198">
        <ele>349</ele>
        <time>2011-05-08T08:07:47Z</time>
      </trkpt>
      <trkpt lat="49.18832" lon="6.96196">
        <ele>349</ele>
        <time>2011-05-08T08:07:48Z</time>
      </trkpt>
      <trkpt lat="49.18833" lon="6.96194">
        <ele>349</ele>
        <time>2011-05-08T08:07:49Z</time>
      </trkpt>
      <trkpt lat="49.18834" lon="6.96193">
        <ele>349</ele>
        <time>2011-05-08T08:07:50Z</time>
      </trkpt>
      <trkpt lat="49.18834" lon="6.96191">
        <ele>349</ele>
        <time>2011-05-08T08:07:51Z</time>
      </trkpt>
      <trkpt lat="49.18835" lon="6.96189">
        <ele>349</ele>
        <time>2011-05-08T08:07:52Z</time>
      </trkpt>
      <trkpt lat="49.18836" lon="6.96186">
        <ele>349</ele>
        <time>2011-05-08T08:07:54Z</time>
      </trkpt>
      <trkpt lat="49.18836" lon="6.96184">
        <ele>349</ele>
        <time>2011-05-08T08:07:55Z</time>
      </trkpt>
      <trkpt lat="49.18837" lon="6.96183">
        <ele>349</ele>
        <time>2011-05-08T08:07:56Z</time>
      </trkpt>
      <trkpt lat="49.18838" lon="6.96181">
        <ele>349</ele>
        <time>2011-05-08T08:07:57Z</time>
      </trkpt>
      <trkpt lat="49.18839" lon="6.96178">
        <ele>349</ele>
        <time>2011-05-08T08:07:59Z</time>
      </trkpt>
      <trkpt lat="49.1884" lon="6.96176">
        <ele>349</ele>
        <time>2011-05-08T08:08:00Z</time>
      </trkpt>
      <trkpt lat="49.1884" lon="6.96175">
        <ele>349</ele>
        <time>2011-05-08T08:08:01Z</time>
      </trkpt>
      <trkpt lat="49.18842" lon="6.96172">
        <ele>349</ele>
        <time>2011-05-08T08:08:03Z</time>
      </trkpt>
      <trkpt lat="49.18842" lon="6.9617">
        <ele>349</ele>
        <time>2011-05-08T08:08:04Z</time>
      </trkpt>
      <trkpt lat="49.18843" lon="6.96168">
        <ele>349</ele>
        <time>2011-05-08T08:08:05Z</time>
      </trkpt>
      <trkpt lat="49.18843" lon="6.96166">
        <ele>349</ele>
        <time>2011-05-08T08:08:06Z</time>
      </trkpt>
      <trkpt lat="49.18844" lon="6.96163">
        <ele>349</ele>
        <time>2011-05-08T08:08:08Z</time>
      </trkpt>
      <trkpt lat="49.18845" lon="6.96162">
        <ele>349</ele>
        <time>2011-05-08T08:08:09Z</time>
      </trkpt>
      <trkpt lat="49.18845" lon="6.9616">
        <ele>349</ele>
        <time>2011-05-08T08:08:10Z</time>
      </trkpt>
      <trkpt lat="49.18845" lon="6.96158">
        <ele>349</ele>
        <time>2011-05-08T08:08:11Z</time>
      </trkpt>
      <trkpt lat="49.18846" lon="6.96157">
        <ele>349</ele>
        <time>2011-05-08T08:08:12Z</time>
      </trkpt>
      <trkpt lat="49.18847" lon="6.96155">
        <ele>349</ele>
        <time>2011-05-08T08:08:13Z</time>
      </trkpt>
      <trkpt lat="49.18848" lon="6.96153">
        <ele>349</ele>
        <time>2011-05-08T08:08:14Z</time>
      </trkpt>
      <trkpt lat="49.18849" lon="6.9615">
        <ele>349</ele>
        <time>2011-05-08T08:08:16Z</time>
      </trkpt>
      <trkpt lat="49.1885" lon="6.96148">
        <ele>349</ele>
        <time>2011-05-08T08:08:18Z</time>
      </trkpt>
      <trkpt lat="49.18851" lon="6.96146">
        <ele>349</ele>
        <time>2011-05-08T08:08:19Z</time>
      </trkpt>
      <trkpt lat="49.18852" lon="6.96144">
        <ele>349</ele>
        <time>2011-05-08T08:08:20Z</time>
      </trkpt>
      <trkpt lat="49.18853" lon="6.96142">
        <ele>349</ele>
        <time>2011-05-08T08:08:21Z</time>
      </trkpt>
      <trkpt lat="49.18853" lon="6.9614">
        <ele>349</ele>
        <time>2011-05-08T08:08:22Z</time>
      </trkpt>
      <trkpt lat="49.18854" lon="6.96138">
        <ele>349</ele>
        <time>2011-05-08T08:08:23Z</time>
      </trkpt>
      <trkpt lat="49.18854" lon="6.96137">
        <ele>349</ele>
        <time>2011-05-08T08:08:24Z</time>
      </trkpt>
      <trkpt lat="49.18855" lon="6.96135">
        <ele>349</ele>
        <time>2011-05-08T08:08:25Z</time>
      </trkpt>
      <trkpt lat="49.18856" lon="6.96134">
        <ele>349</ele>
        <time>2011-05-08T08:08:26Z</time>
      </trkpt>
      <trkpt lat="49.18856" lon="6.96132">
        <ele>349</ele>
        <time>2011-05-08T08:08:27Z</time>
      </trkpt>
      <trkpt lat="49.18856" lon="6.9613">
        <ele>349</ele>
        <time>2011-05-08T08:08:28Z</time>
      </trkpt>
      <trkpt lat="49.18857" lon="6.96128">
        <ele>349</ele>
        <time>2011-05-08T08:08:29Z</time>
      </trkpt>
      <trkpt lat="49.18859" lon="6.96126">
        <ele>349</ele>
        <time>2011-05-08T08:08:31Z</time>
      </trkpt>
      <trkpt lat="49.1886" lon="6.96123">
        <ele>349</ele>
        <time>2011-05-08T08:08:33Z</time>
      </trkpt>
      <trkpt lat="49.18861" lon="6.9612">
        <ele>349</ele>
        <time>2011-05-08T08:08:35Z</time>
      </trkpt>
      <trkpt lat="49.18862" lon="6.96118">
        <ele>349</ele>
        <time>2011-05-08T08:08:36Z</time>
      </trkpt>
      <trkpt lat="49.18862" lon="6.96117">
        <ele>349</ele>
        <time>2011-05-08T08:08:37Z</time>
      </trkpt>
      <trkpt lat="49.18863" lon="6.96114">
        <ele>349</ele>
        <time>2011-05-08T08:08:39Z</time>
      </trkpt>
      <trkpt lat="49.18864" lon="6.96112">
        <ele>349</ele>
        <time>2011-05-08T08:08:40Z</time>
      </trkpt>
      <trkpt lat="49.18864" lon="6.9611">
        <ele>349</ele>
        <time>2011-05-08T08:08:41Z</time>
      </trkpt>
      <trkpt lat="49.18865" lon="6.96108">
        <ele>349</ele>
        <time>2011-05-08T08:08:42Z</time>
      </trkpt>
      <trkpt lat="49.18866" lon="6.96105">
        <ele>349</ele>
        <time>2011-05-08T08:08:44Z</time>
      </trkpt>
      <trkpt lat="49.18867" lon="6.96103">
        <ele>349</ele>
        <time>2011-05-08T08:08:46Z</time>
      </trkpt>
      <trkpt lat="49.18868" lon="6.961">
        <ele>349</ele>
        <time>2011-05-08T08:08:48Z</time>
      </trkpt>
      <trkpt lat="49.18869" lon="6.96097">
        <ele>349</ele>
        <time>2011-05-08T08:08:50Z</time>
      </trkpt>
      <trkpt lat="49.18869" lon="6.96094">
        <ele>349</ele>
        <time>2011-05-08T08:08:52Z</time>
      </trkpt>
      <trkpt lat="49.18871" lon="6.96091">
        <ele>349</ele>
        <time>2011-05-08T08:08:54Z</time>
      </trkpt>
      <trkpt lat="49.18871" lon="6.96089">
        <ele>349</ele>
        <time>2011-05-08T08:08:56Z</time>
      </trkpt>
      <trkpt lat="49.18872" lon="6.96086">
        <ele>349</ele>
        <time>2011-05-08T08:08:58Z</time>
      </trkpt>
      <trkpt lat="49.18873" lon="6.96083">
        <ele>349</ele>
        <time>2011-05-08T08:09:00Z</time>
      </trkpt>
      <trkpt lat="49.18874" lon="6.96081">
        <ele>349</ele>
        <time>2011-05-08T08:09:01Z</time>
      </trkpt>
      <trkpt lat="49.18875" lon="6.96078">
        <ele>349</ele>
        <time>2011-05-08T08:09:03Z</time>
      </trkpt>
      <trkpt lat="49.18876" lon="6.96075">
        <ele>349</ele>
        <time>2011-05-08T08:09:05Z</time>
      </trkpt>
      <trkpt lat="49.18876" lon="6.96073">
        <ele>349</ele>
        <time>2011-05-08T08:09:07Z</time>
      </trkpt>
      <trkpt lat="49.18877" lon="6.96071">
        <ele>349</ele>
        <time>2011-05-08T08:09:08Z</time>
      </trkpt>
      <trkpt lat="49.18877" lon="6.96069">
        <ele>349</ele>
        <time>2011-05-08T08:09:09Z</time>
      </trkpt>
      <trkpt lat="49.18878" lon="6.96067">
        <ele>349</ele>
        <time>2011-05-08T08:09:10Z</time>
      </trkpt>
      <trkpt lat="49.18878" lon="6.96066">
        <ele>349</ele>
        <time>2011-05-08T08:09:11Z</time>
      </trkpt>
      <trkpt lat="49.18878" lon="6.96063">
        <ele>349</ele>
        <time>2011-05-08T08:09:13Z</time>
      </trkpt>
      <trkpt lat="49.18879" lon="6.96061">
        <ele>349</ele>
        <time>2011-05-08T08:09:14Z</time>
      </trkpt>
      <trkpt lat="49.18879" lon="6.96059">
        <ele>349</ele>
        <time>2011-05-08T08:09:15Z</time>
      </trkpt>
      <trkpt lat="49.1888" lon="6.96056">
        <ele>349</ele>
        <time>2011-05-08T08:09:17Z</time>
      </trkpt>
      <trkpt lat="49.18882" lon="6.96053">
        <ele>349</ele>
        <time>2011-05-08T08:09:19Z</time>
      </trkpt>
      <trkpt lat="49.18882" lon="6.96051">
        <ele>349</ele>
        <time>2011-05-08T08:09:20Z</time>
      </trkpt>
      <trkpt lat="49.18882" lon="6.96049">
        <ele>349</ele>
        <time>2011-05-08T08:09:21Z</time>
      </trkpt>
      <trkpt lat="49.18883" lon="6.96047">
        <ele>349</ele>
        <time>2011-05-08T08:09:22Z</time>
      </trkpt>
      <trkpt lat="49.18884" lon="6.96046">
        <ele>349</ele>
        <time>2011-05-08T08:09:23Z</time>
      </trkpt>
      <trkpt lat="49.18885" lon="6.96043">
        <ele>349</ele>
        <time>2011-05-08T08:09:25Z</time>
      </trkpt>
      <trkpt lat="49.18885" lon="6.9604">
        <ele>349</ele>
        <time>2011-05-08T08:09:27Z</time>
      </trkpt>
      <trkpt lat="49.18887" lon="6.96037">
        <ele>349</ele>
        <time>2011-05-08T08:09:29Z</time>
      </trkpt>
      <trkpt lat="49.18888" lon="6.96034">
        <ele>349</ele>
        <time>2011-05-08T08:09:31Z</time>
      </trkpt>
      <trkpt lat="49.18888" lon="6.96032">
        <ele>349</ele>
        <time>2011-05-08T08:09:32Z</time>
      </trkpt>
      <trkpt lat="49.18889" lon="6.96031">
        <ele>349</ele>
        <time>2011-05-08T08:09:33Z</time>
      </trkpt>
      <trkpt lat="49.1889" lon="6.96029">
        <ele>349</ele>
        <time>2011-05-08T08:09:34Z</time>
      </trkpt>
      <trkpt lat="49.1889" lon="6.96027">
        <ele>349</ele>
        <time>2011-05-08T08:09:35Z</time>
      </trkpt>
      <trkpt lat="49.18891" lon="6.96025">
        <ele>349</ele>
        <time>2011-05-08T08:09:36Z</time>
      </trkpt>
      <trkpt lat="49.18892" lon="6.96024">
        <ele>349</ele>
        <time>2011-05-08T08:09:37Z</time>
      </trkpt>
      <trkpt lat="49.18893" lon="6.96021">
        <ele>349</ele>
        <time>2011-05-08T08:09:39Z</time>
      </trkpt>
      <trkpt lat="49.18894" lon="6.96018">
        <ele>349</ele>
        <time>2011-05-08T08:09:41Z</time>
      </trkpt>
      <trkpt lat="49.18895" lon="6.96015">
        <ele>349</ele>
        <time>2011-05-08T08:09:43Z</time>
      </trkpt>
      <trkpt lat="49.18896" lon="6.96012">
        <ele>349</ele>
        <time>2011-05-08T08:09:45Z</time>
      </trkpt>
      <trkpt lat="49.18897" lon="6.9601">
        <ele>349</ele>
        <time>2011-05-08T08:09:47Z</time>
      </trkpt>
      <trkpt lat="49.18898" lon="6.96008">
        <ele>349</ele>
        <time>2011-05-08T08:09:48Z</time>
      </trkpt>
      <trkpt lat="49.18898" lon="6.96006">
        <ele>349</ele>
        <time>2011-05-08T08:09:49Z</time>
      </trkpt>
      <trkpt lat="49.18898" lon="6.96004">
        <ele>349</ele>
        <time>2011-05-08T08:09:50Z</time>
      </trkpt>
      <trkpt lat="49.189" lon="6.96001">
        <ele>349</ele>
        <time>2011-05-08T08:09:52Z</time>
      </trkpt>
      <trkpt lat="49.189" lon="6.95999">
        <ele>349</ele>
        <time>2011-05-08T08:09:53Z</time>
      </trkpt>
      <trkpt lat="49.18901" lon="6.95997">
        <ele>349</ele>
        <time>2011-05-08T08:09:54Z</time>
      </trkpt>
      <trkpt lat="49.18901" lon="6.95996">
        <ele>349</ele>
        <time>2011-05-08T08:09:55Z</time>
      </trkpt>
      <trkpt lat="49.18903" lon="6.95993">
        <ele>349</ele>
        <time>2011-05-08T08:09:57Z</time>
      </trkpt>
      <trkpt lat="49.18903" lon="6.95991">
        <ele>349</ele>
        <time>2011-05-08T08:09:58Z</time>
      </trkpt>
      <trkpt lat="49.18904" lon="6.95989">
        <ele>349</ele>
        <time>2011-05-08T08:09:59Z</time>
      </trkpt>
      <trkpt lat="49.18904" lon="6.95987">
        <ele>349</ele>
        <time>2011-05-08T08:10:00Z</time>
      </trkpt>
      <trkpt lat="49.18905" lon="6.95985">
        <ele>349</ele>
        <time>2011-05-08T08:10:01Z</time>
      </trkpt>
      <trkpt lat="49.18906" lon="6.95982">
        <ele>349</ele>
        <time>2011-05-08T08:10:03Z</time>
      </trkpt>
      <trkpt lat="49.18906" lon="6.9598">
        <ele>349</ele>
        <time>2011-05-08T08:10:04Z</time>
      </trkpt>
      <trkpt lat="49.18907" lon="6.95979">
        <ele>349</ele>
        <time>2011-05-08T08:10:05Z</time>
      </trkpt>
      <trkpt lat="49.18908" lon="6.95977">
        <ele>349</ele>
        <time>2011-05-08T08:10:06Z</time>
      </trkpt>
      <trkpt lat="49.18909" lon="6.95975">
        <ele>349</ele>
        <time>2011-05-08T08:10:07Z</time>
      </trkpt>
      <trkpt lat="49.18909" lon="6.95973">
        <ele>349</ele>
        <time>2011-05-08T08:10:08Z</time>
      </trkpt>
      <trkpt lat="49.1891" lon="6.95971">
        <ele>349</ele>
        <time>2011-05-08T08:10:09Z</time>
      </trkpt>
      <trkpt lat="49.18911" lon="6.95968">
        <ele>349</ele>
        <time>2011-05-08T08:10:11Z</time>
      </trkpt>
      <trkpt lat="49.18913" lon="6.95966">
        <ele>349</ele>
        <time>2011-05-08T08:10:13Z</time>
      </trkpt>
      <trkpt lat="49.18914" lon="6.95962">
        <ele>349</ele>
        <time>2011-05-08T08:10:15Z</time>
      </trkpt>
      <trkpt lat="49.18915" lon="6.95961">
        <ele>349</ele>
        <time>2011-05-08T08:10:16Z</time>
      </trkpt>
      <trkpt lat="49.18916" lon="6.95959">
        <ele>349</ele>
        <time>2011-05-08T08:10:17Z</time>
      </trkpt>
      <trkpt lat="49.18916" lon="6.95957">
        <ele>349</ele>
        <time>2011-05-08T08:10:18Z</time>
      </trkpt>
      <trkpt lat="49.18917" lon="6.95956">
        <ele>349</ele>
        <time>2011-05-08T08:10:19Z</time>
      </trkpt>
      <trkpt lat="49.18919" lon="6.95953">
        <ele>349</ele>
        <time>2011-05-08T08:10:21Z</time>
      </trkpt>
      <trkpt lat="49.18921" lon="6.9595">
        <ele>349</ele>
        <time>2011-05-08T08:10:23Z</time>
      </trkpt>
      <trkpt lat="49.18923" lon="6.95948">
        <ele>349</ele>
        <time>2011-05-08T08:10:25Z</time>
      </trkpt>
      <trkpt lat="49.18924" lon="6.95947">
        <ele>349</ele>
        <time>2011-05-08T08:10:26Z</time>
      </trkpt>
      <trkpt lat="49.18925" lon="6.95946">
        <ele>349</ele>
        <time>2011-05-08T08:10:27Z</time>
      </trkpt>
      <trkpt lat="49.18927" lon="6.95945">
        <ele>349</ele>
        <time>2011-05-08T08:10:29Z</time>
      </trkpt>
      <trkpt lat="49.18929" lon="6.95945">
        <ele>349</ele>
        <time>2011-05-08T08:10:30Z</time>
      </trkpt>
      <trkpt lat="49.1893" lon="6.95945">
        <ele>349</ele>
        <time>2011-05-08T08:10:31Z</time>
      </trkpt>
      <trkpt lat="49.18932" lon="6.95946">
        <ele>349</ele>
        <time>2011-05-08T08:10:32Z</time>
      </trkpt>
      <trkpt lat="49.18933" lon="6.95946">
        <ele>349</ele>
        <time>2011-05-08T08:10:33Z</time>
      </trkpt>
      <trkpt lat="49.18934" lon="6.95946">
        <ele>349</ele>
        <time>2011-05-08T08:10:34Z</time>
      </trkpt>
      <trkpt lat="49.18935" lon="6.95947">
        <ele>349</ele>
        <time>2011-05-08T08:10:35Z</time>
      </trkpt>
      <trkpt lat="49.18937" lon="6.95948">
        <ele>349</ele>
        <time>2011-05-08T08:10:36Z</time>
      </trkpt>
      <trkpt lat="49.18938" lon="6.9595">
        <ele>349</ele>
        <time>2011-05-08T08:10:37Z</time>
      </trkpt>
      <trkpt lat="49.18939" lon="6.95951">
        <ele>349</ele>
        <time>2011-05-08T08:10:38Z</time>
      </trkpt>
      <trkpt lat="49.1894" lon="6.95952">
        <ele>349</ele>
        <time>2011-05-08T08:10:39Z</time>
      </trkpt>
      <trkpt lat="49.18942" lon="6.95953">
        <ele>349</ele>
        <time>2011-05-08T08:10:40Z</time>
      </trkpt>
      <trkpt lat="49.18943" lon="6.95956">
        <ele>349</ele>
        <time>2011-05-08T08:10:42Z</time>
      </trkpt>
      <trkpt lat="49.18945" lon="6.95958">
        <ele>349</ele>
        <time>2011-05-08T08:10:44Z</time>
      </trkpt>
      <trkpt lat="49.18947" lon="6.9596">
        <ele>348</ele>
        <time>2011-05-08T08:10:45Z</time>
      </trkpt>
      <trkpt lat="49.18948" lon="6.95961">
        <ele>348</ele>
        <time>2011-05-08T08:10:46Z</time>
      </trkpt>
      <trkpt lat="49.1895" lon="6.95963">
        <ele>348</ele>
        <time>2011-05-08T08:10:48Z</time>
      </trkpt>
      <trkpt lat="49.18951" lon="6.95964">
        <ele>348</ele>
        <time>2011-05-08T08:10:49Z</time>
      </trkpt>
      <trkpt lat="49.18953" lon="6.95966">
        <ele>348</ele>
        <time>2011-05-08T08:10:51Z</time>
      </trkpt>
      <trkpt lat="49.18956" lon="6.95968">
        <ele>348</ele>
        <time>2011-05-08T08:10:53Z</time>
      </trkpt>
      <trkpt lat="49.18958" lon="6.95971">
        <ele>348</ele>
        <time>2011-05-08T08:10:55Z</time>
      </trkpt>
      <trkpt lat="49.1896" lon="6.95972">
        <ele>347</ele>
        <time>2011-05-08T08:10:57Z</time>
      </trkpt>
      <trkpt lat="49.18962" lon="6.95975">
        <ele>347</ele>
        <time>2011-05-08T08:10:59Z</time>
      </trkpt>
      <trkpt lat="49.18963" lon="6.95976">
        <ele>347</ele>
        <time>2011-05-08T08:11:00Z</time>
      </trkpt>
      <trkpt lat="49.18965" lon="6.95978">
        <ele>347</ele>
        <time>2011-05-08T08:11:02Z</time>
      </trkpt>
      <trkpt lat="49.18967" lon="6.9598">
        <ele>347</ele>
        <time>2011-05-08T08:11:04Z</time>
      </trkpt>
      <trkpt lat="49.18969" lon="6.95982">
        <ele>346</ele>
        <time>2011-05-08T08:11:06Z</time>
      </trkpt>
      <trkpt lat="49.1897" lon="6.95983">
        <ele>346</ele>
        <time>2011-05-08T08:11:07Z</time>
      </trkpt>
      <trkpt lat="49.18972" lon="6.95986">
        <ele>346</ele>
        <time>2011-05-08T08:11:09Z</time>
      </trkpt>
      <trkpt lat="49.18974" lon="6.95988">
        <ele>346</ele>
        <time>2011-05-08T08:11:11Z</time>
      </trkpt>
      <trkpt lat="49.18976" lon="6.9599">
        <ele>345</ele>
        <time>2011-05-08T08:11:13Z</time>
      </trkpt>
      <trkpt lat="49.18977" lon="6.95991">
        <ele>345</ele>
        <time>2011-05-08T08:11:14Z</time>
      </trkpt>
      <trkpt lat="49.18979" lon="6.95992">
        <ele>345</ele>
        <time>2011-05-08T08:11:15Z</time>
      </trkpt>
      <trkpt lat="49.1898" lon="6.95993">
        <ele>345</ele>
        <time>2011-05-08T08:11:16Z</time>
      </trkpt>
      <trkpt lat="49.18981" lon="6.95995">
        <ele>345</ele>
        <time>2011-05-08T08:11:18Z</time>
      </trkpt>
      <trkpt lat="49.18983" lon="6.95997">
        <ele>345</ele>
        <time>2011-05-08T08:11:20Z</time>
      </trkpt>
      <trkpt lat="49.18986" lon="6.96">
        <ele>345</ele>
        <time>2011-05-08T08:11:22Z</time>
      </trkpt>
      <trkpt lat="49.18987" lon="6.96001">
        <ele>345</ele>
        <time>2011-05-08T08:11:23Z</time>
      </trkpt>
      <trkpt lat="49.18988" lon="6.96002">
        <ele>345</ele>
        <time>2011-05-08T08:11:24Z</time>
      </trkpt>
      <trkpt lat="49.18989" lon="6.96003">
        <ele>344</ele>
        <time>2011-05-08T08:11:25Z</time>
      </trkpt>
      <trkpt lat="49.1899" lon="6.96004">
        <ele>344</ele>
        <time>2011-05-08T08:11:26Z</time>
      </trkpt>
      <trkpt lat="49.18992" lon="6.96005">
        <ele>344</ele>
        <time>2011-05-08T08:11:28Z</time>
      </trkpt>
      <trkpt lat="49.18994" lon="6.96007">
        <ele>344</ele>
        <time>2011-05-08T08:11:30Z</time>
      </trkpt>
      <trkpt lat="49.18996" lon="6.96009">
        <ele>344</ele>
        <time>2011-05-08T08:11:32Z</time>
      </trkpt>
      <trkpt lat="49.18998" lon="6.96011">
        <ele>343</ele>
        <time>2011-05-08T08:11:34Z</time>
      </trkpt>
      <trkpt lat="49.18999" lon="6.96013">
        <ele>343</ele>
        <time>2011-05-08T08:11:36Z</time>
      </trkpt>
      <trkpt lat="49.19001" lon="6.96015">
        <ele>343</ele>
        <time>2011-05-08T08:11:38Z</time>
      </trkpt>
      <trkpt lat="49.19003" lon="6.96017">
        <ele>343</ele>
        <time>2011-05-08T08:11:40Z</time>
      </trkpt>
      <trkpt lat="49.19005" lon="6.96019">
        <ele>343</ele>
        <time>2011-05-08T08:11:42Z</time>
      </trkpt>
      <trkpt lat="49.19007" lon="6.96021">
        <ele>342</ele>
        <time>2011-05-08T08:11:44Z</time>
      </trkpt>
      <trkpt lat="49.19009" lon="6.96022">
        <ele>342</ele>
        <time>2011-05-08T08:11:46Z</time>
      </trkpt>
      <trkpt lat="49.19011" lon="6.96025">
        <ele>342</ele>
        <time>2011-05-08T08:11:48Z</time>
      </trkpt>
      <trkpt lat="49.19013" lon="6.96026">
        <ele>342</ele>
        <time>2011-05-08T08:11:50Z</time>
      </trkpt>
      <trkpt lat="49.19015" lon="6.96027">
        <ele>342</ele>
        <time>2011-05-08T08:11:52Z</time>
      </trkpt>
      <trkpt lat="49.19017" lon="6.96029">
        <ele>342</ele>
        <time>2011-05-08T08:11:54Z</time>
      </trkpt>
      <trkpt lat="49.19019" lon="6.96031">
        <ele>342</ele>
        <time>2011-05-08T08:11:56Z</time>
      </trkpt>
      <trkpt lat="49.1902" lon="6.96032">
        <ele>342</ele>
        <time>2011-05-08T08:11:57Z</time>
      </trkpt>
      <trkpt lat="49.19022" lon="6.96034">
        <ele>342</ele>
        <time>2011-05-08T08:11:59Z</time>
      </trkpt>
      <trkpt lat="49.19024" lon="6.96036">
        <ele>342</ele>
        <time>2011-05-08T08:12:01Z</time>
      </trkpt>
      <trkpt lat="49.19025" lon="6.96038">
        <ele>342</ele>
        <time>2011-05-08T08:12:03Z</time>
      </trkpt>
      <trkpt lat="49.19028" lon="6.9604">
        <ele>342</ele>
        <time>2011-05-08T08:12:05Z</time>
      </trkpt>
      <trkpt lat="49.19029" lon="6.96041">
        <ele>342</ele>
        <time>2011-05-08T08:12:06Z</time>
      </trkpt>
      <trkpt lat="49.19031" lon="6.96044">
        <ele>342</ele>
        <time>2011-05-08T08:12:08Z</time>
      </trkpt>
      <trkpt lat="49.19033" lon="6.96046">
        <ele>342</ele>
        <time>2011-05-08T08:12:10Z</time>
      </trkpt>
      <trkpt lat="49.19035" lon="6.96048">
        <ele>342</ele>
        <time>2011-05-08T08:12:12Z</time>
      </trkpt>
      <trkpt lat="49.19036" lon="6.96049">
        <ele>342</ele>
        <time>2011-05-08T08:12:13Z</time>
      </trkpt>
      <trkpt lat="49.19037" lon="6.96051">
        <ele>342</ele>
        <time>2011-05-08T08:12:14Z</time>
      </trkpt>
      <trkpt lat="49.19038" lon="6.96052">
        <ele>342</ele>
        <time>2011-05-08T08:12:15Z</time>
      </trkpt>
      <trkpt lat="49.1904" lon="6.96052">
        <ele>342</ele>
        <time>2011-05-08T08:12:16Z</time>
      </trkpt>
      <trkpt lat="49.19041" lon="6.96053">
        <ele>342</ele>
        <time>2011-05-08T08:12:17Z</time>
      </trkpt>
      <trkpt lat="49.19043" lon="6.96055">
        <ele>342</ele>
        <time>2011-05-08T08:12:19Z</time>
      </trkpt>
      <trkpt lat="49.19044" lon="6.96052">
        <ele>342</ele>
        <time>2011-05-08T08:12:24Z</time>
      </trkpt>
      <trkpt lat="49.19046" lon="6.9605">
        <ele>342</ele>
        <time>2011-05-08T08:12:26Z</time>
      </trkpt>
      <trkpt lat="49.19046" lon="6.96053">
        <ele>342</ele>
        <time>2011-05-08T08:12:29Z</time>
      </trkpt>
      <trkpt lat="49.19046" lon="6.96055">
        <ele>342</ele>
        <time>2011-05-08T08:12:30Z</time>
      </trkpt>
      <trkpt lat="49.19046" lon="6.96058">
        <ele>342</ele>
        <time>2011-05-08T08:12:32Z</time>
      </trkpt>
      <trkpt lat="49.19047" lon="6.96059">
        <ele>342</ele>
        <time>2011-05-08T08:12:34Z</time>
      </trkpt>
      <trkpt lat="49.19048" lon="6.96062">
        <ele>341</ele>
        <time>2011-05-08T08:12:36Z</time>
      </trkpt>
      <trkpt lat="49.19049" lon="6.96065">
        <ele>341</ele>
        <time>2011-05-08T08:12:38Z</time>
      </trkpt>
      <trkpt lat="49.19051" lon="6.96067">
        <ele>341</ele>
        <time>2011-05-08T08:12:40Z</time>
      </trkpt>
      <trkpt lat="49.19053" lon="6.96068">
        <ele>340</ele>
        <time>2011-05-08T08:12:42Z</time>
      </trkpt>
      <trkpt lat="49.19054" lon="6.96071">
        <ele>340</ele>
        <time>2011-05-08T08:12:44Z</time>
      </trkpt>
      <trkpt lat="49.19056" lon="6.96073">
        <ele>339</ele>
        <time>2011-05-08T08:12:46Z</time>
      </trkpt>
      <trkpt lat="49.19057" lon="6.96075">
        <ele>339</ele>
        <time>2011-05-08T08:12:48Z</time>
      </trkpt>
      <trkpt lat="49.19059" lon="6.96077">
        <ele>339</ele>
        <time>2011-05-08T08:12:50Z</time>
      </trkpt>
      <trkpt lat="49.1906" lon="6.96079">
        <ele>339</ele>
        <time>2011-05-08T08:12:52Z</time>
      </trkpt>
      <trkpt lat="49.19062" lon="6.96081">
        <ele>339</ele>
        <time>2011-05-08T08:12:54Z</time>
      </trkpt>
      <trkpt lat="49.19063" lon="6.96082">
        <ele>339</ele>
        <time>2011-05-08T08:12:55Z</time>
      </trkpt>
      <trkpt lat="49.19065" lon="6.96085">
        <ele>338</ele>
        <time>2011-05-08T08:12:57Z</time>
      </trkpt>
      <trkpt lat="49.19066" lon="6.96088">
        <ele>338</ele>
        <time>2011-05-08T08:12:59Z</time>
      </trkpt>
      <trkpt lat="49.19068" lon="6.9609">
        <ele>338</ele>
        <time>2011-05-08T08:13:01Z</time>
      </trkpt>
      <trkpt lat="49.1907" lon="6.96093">
        <ele>337</ele>
        <time>2011-05-08T08:13:03Z</time>
      </trkpt>
      <trkpt lat="49.1907" lon="6.96095">
        <ele>337</ele>
        <time>2011-05-08T08:13:04Z</time>
      </trkpt>
      <trkpt lat="49.19071" lon="6.96096">
        <ele>337</ele>
        <time>2011-05-08T08:13:05Z</time>
      </trkpt>
      <trkpt lat="49.19072" lon="6.96098">
        <ele>337</ele>
        <time>2011-05-08T08:13:06Z</time>
      </trkpt>
      <trkpt lat="49.19073" lon="6.961">
        <ele>337</ele>
        <time>2011-05-08T08:13:07Z</time>
      </trkpt>
      <trkpt lat="49.19075" lon="6.96103">
        <ele>337</ele>
        <time>2011-05-08T08:13:09Z</time>
      </trkpt>
      <trkpt lat="49.19075" lon="6.96105">
        <ele>336</ele>
        <time>2011-05-08T08:13:11Z</time>
      </trkpt>
      <trkpt lat="49.19076" lon="6.96107">
        <ele>336</ele>
        <time>2011-05-08T08:13:12Z</time>
      </trkpt>
      <trkpt lat="49.19077" lon="6.96109">
        <ele>336</ele>
        <time>2011-05-08T08:13:13Z</time>
      </trkpt>
      <trkpt lat="49.19078" lon="6.96112">
        <ele>335</ele>
        <time>2011-05-08T08:13:15Z</time>
      </trkpt>
      <trkpt lat="49.19079" lon="6.96114">
        <ele>335</ele>
        <time>2011-05-08T08:13:16Z</time>
      </trkpt>
      <trkpt lat="49.1908" lon="6.96116">
        <ele>335</ele>
        <time>2011-05-08T08:13:17Z</time>
      </trkpt>
      <trkpt lat="49.1908" lon="6.96118">
        <ele>334</ele>
        <time>2011-05-08T08:13:18Z</time>
      </trkpt>
      <trkpt lat="49.19081" lon="6.9612">
        <ele>334</ele>
        <time>2011-05-08T08:13:19Z</time>
      </trkpt>
      <trkpt lat="49.19082" lon="6.96123">
        <ele>333</ele>
        <time>2011-05-08T08:13:21Z</time>
      </trkpt>
      <trkpt lat="49.19082" lon="6.96125">
        <ele>333</ele>
        <time>2011-05-08T08:13:23Z</time>
      </trkpt>
      <trkpt lat="49.19083" lon="6.96127">
        <ele>333</ele>
        <time>2011-05-08T08:13:24Z</time>
      </trkpt>
      <trkpt lat="49.19085" lon="6.9613">
        <ele>333</ele>
        <time>2011-05-08T08:13:26Z</time>
      </trkpt>
      <trkpt lat="49.19086" lon="6.96131">
        <ele>333</ele>
        <time>2011-05-08T08:13:27Z</time>
      </trkpt>
      <trkpt lat="49.19087" lon="6.96133">
        <ele>332</ele>
        <time>2011-05-08T08:13:28Z</time>
      </trkpt>
      <trkpt lat="49.19088" lon="6.96136">
        <ele>332</ele>
        <time>2011-05-08T08:13:30Z</time>
      </trkpt>
      <trkpt lat="49.19089" lon="6.96138">
        <ele>332</ele>
        <time>2011-05-08T08:13:31Z</time>
      </trkpt>
      <trkpt lat="49.19091" lon="6.96139">
        <ele>332</ele>
        <time>2011-05-08T08:13:32Z</time>
      </trkpt>
      <trkpt lat="49.19092" lon="6.96141">
        <ele>332</ele>
        <time>2011-05-08T08:13:33Z</time>
      </trkpt>
      <trkpt lat="49.19094" lon="6.96143">
        <ele>332</ele>
        <time>2011-05-08T08:13:35Z</time>
      </trkpt>
      <trkpt lat="49.19095" lon="6.96146">
        <ele>331</ele>
        <time>2011-05-08T08:13:37Z</time>
      </trkpt>
      <trkpt lat="49.19097" lon="6.96148">
        <ele>331</ele>
        <time>2011-05-08T08:13:39Z</time>
      </trkpt>
      <trkpt lat="49.19098" lon="6.96151">
        <ele>330</ele>
        <time>2011-05-08T08:13:41Z</time>
      </trkpt>
      <trkpt lat="49.19099" lon="6.96153">
        <ele>330</ele>
        <time>2011-05-08T08:13:43Z</time>
      </trkpt>
      <trkpt lat="49.19101" lon="6.96155">
        <ele>329</ele>
        <time>2011-05-08T08:13:45Z</time>
      </trkpt>
      <trkpt lat="49.19103" lon="6.96156">
        <ele>329</ele>
        <time>2011-05-08T08:13:46Z</time>
      </trkpt>
      <trkpt lat="49.19104" lon="6.96157">
        <ele>329</ele>
        <time>2011-05-08T08:13:47Z</time>
      </trkpt>
      <trkpt lat="49.19106" lon="6.96159">
        <ele>329</ele>
        <time>2011-05-08T08:13:49Z</time>
      </trkpt>
      <trkpt lat="49.19107" lon="6.9616">
        <ele>329</ele>
        <time>2011-05-08T08:13:50Z</time>
      </trkpt>
      <trkpt lat="49.19109" lon="6.96162">
        <ele>328</ele>
        <time>2011-05-08T08:13:52Z</time>
      </trkpt>
      <trkpt lat="49.19111" lon="6.96164">
        <ele>327</ele>
        <time>2011-05-08T08:13:54Z</time>
      </trkpt>
      <trkpt lat="49.19113" lon="6.96166">
        <ele>327</ele>
        <time>2011-05-08T08:13:56Z</time>
      </trkpt>
      <trkpt lat="49.19115" lon="6.96169">
        <ele>326</ele>
        <time>2011-05-08T08:13:58Z</time>
      </trkpt>
      <trkpt lat="49.19116" lon="6.9617">
        <ele>326</ele>
        <time>2011-05-08T08:14:00Z</time>
      </trkpt>
      <trkpt lat="49.19118" lon="6.96172">
        <ele>326</ele>
        <time>2011-05-08T08:14:02Z</time>
      </trkpt>
      <trkpt lat="49.1912" lon="6.96174">
        <ele>325</ele>
        <time>2011-05-08T08:14:04Z</time>
      </trkpt>
      <trkpt lat="49.19121" lon="6.96176">
        <ele>325</ele>
        <time>2011-05-08T08:14:06Z</time>
      </trkpt>
      <trkpt lat="49.19122" lon="6.96178">
        <ele>324</ele>
        <time>2011-05-08T08:14:08Z</time>
      </trkpt>
      <trkpt lat="49.19124" lon="6.96179">
        <ele>324</ele>
        <time>2011-05-08T08:14:09Z</time>
      </trkpt>
      <trkpt lat="49.19125" lon="6.96182">
        <ele>324</ele>
        <time>2011-05-08T08:14:11Z</time>
      </trkpt>
      <trkpt lat="49.19127" lon="6.96182">
        <ele>323</ele>
        <time>2011-05-08T08:14:12Z</time>
      </trkpt>
      <trkpt lat="49.19128" lon="6.96183">
        <ele>323</ele>
        <time>2011-05-08T08:14:14Z</time>
      </trkpt>
      <trkpt lat="49.19129" lon="6.96184">
        <ele>323</ele>
        <time>2011-05-08T08:14:16Z</time>
      </trkpt>
      <trkpt lat="49.19131" lon="6.96184">
        <ele>323</ele>
        <time>2011-05-08T08:14:18Z</time>
      </trkpt>
      <trkpt lat="49.19133" lon="6.96184">
        <ele>323</ele>
        <time>2011-05-08T08:14:20Z</time>
      </trkpt>
      <trkpt lat="49.19135" lon="6.96184">
        <ele>323</ele>
        <time>2011-05-08T08:14:21Z</time>
      </trkpt>
      <trkpt lat="49.19136" lon="6.96184">
        <ele>322</ele>
        <time>2011-05-08T08:14:22Z</time>
      </trkpt>
      <trkpt lat="49.19137" lon="6.96184">
        <ele>322</ele>
        <time>2011-05-08T08:14:23Z</time>
      </trkpt>
      <trkpt lat="49.19138" lon="6.96185">
        <ele>322</ele>
        <time>2011-05-08T08:14:24Z</time>
      </trkpt>
      <trkpt lat="49.1914" lon="6.96185">
        <ele>322</ele>
        <time>2011-05-08T08:14:25Z</time>
      </trkpt>
      <trkpt lat="49.19143" lon="6.96186">
        <ele>322</ele>
        <time>2011-05-08T08:14:26Z</time>
      </trkpt>
      <trkpt lat="49.19144" lon="6.96186">
        <ele>322</ele>
        <time>2011-05-08T08:14:27Z</time>
      </trkpt>
      <trkpt lat="49.19146" lon="6.96187">
        <ele>322</ele>
        <time>2011-05-08T08:14:28Z</time>
      </trkpt>
      <trkpt lat="49.19147" lon="6.96188">
        <ele>322</ele>
        <time>2011-05-08T08:14:29Z</time>
      </trkpt>
      <trkpt lat="49.19148" lon="6.96189">
        <ele>322</ele>
        <time>2011-05-08T08:14:30Z</time>
      </trkpt>
      <trkpt lat="49.1915" lon="6.96189">
        <ele>321</ele>
        <time>2011-05-08T08:14:31Z</time>
      </trkpt>
      <trkpt lat="49.19151" lon="6.9619">
        <ele>321</ele>
        <time>2011-05-08T08:14:32Z</time>
      </trkpt>
      <trkpt lat="49.19153" lon="6.96191">
        <ele>321</ele>
        <time>2011-05-08T08:14:33Z</time>
      </trkpt>
      <trkpt lat="49.19154" lon="6.96192">
        <ele>321</ele>
        <time>2011-05-08T08:14:34Z</time>
      </trkpt>
      <trkpt lat="49.19156" lon="6.96192">
        <ele>320</ele>
        <time>2011-05-08T08:14:35Z</time>
      </trkpt>
      <trkpt lat="49.19157" lon="6.96193">
        <ele>320</ele>
        <time>2011-05-08T08:14:36Z</time>
      </trkpt>
      <trkpt lat="49.19158" lon="6.96193">
        <ele>320</ele>
        <time>2011-05-08T08:14:37Z</time>
      </trkpt>
      <trkpt lat="49.1916" lon="6.96194">
        <ele>319</ele>
        <time>2011-05-08T08:14:38Z</time>
      </trkpt>
      <trkpt lat="49.19162" lon="6.96195">
        <ele>319</ele>
        <time>2011-05-08T08:14:39Z</time>
      </trkpt>
      <trkpt lat="49.19163" lon="6.96195">
        <ele>319</ele>
        <time>2011-05-08T08:14:40Z</time>
      </trkpt>
      <trkpt lat="49.19165" lon="6.96196">
        <ele>319</ele>
        <time>2011-05-08T08:14:42Z</time>
      </trkpt>
      <trkpt lat="49.19166" lon="6.96195">
        <ele>318</ele>
        <time>2011-05-08T08:14:44Z</time>
      </trkpt>
      <trkpt lat="49.19167" lon="6.96194">
        <ele>318</ele>
        <time>2011-05-08T08:14:45Z</time>
      </trkpt>
      <trkpt lat="49.19167" lon="6.96191">
        <ele>318</ele>
        <time>2011-05-08T08:14:46Z</time>
      </trkpt>
      <trkpt lat="49.19168" lon="6.96188">
        <ele>318</ele>
        <time>2011-05-08T08:14:48Z</time>
      </trkpt>
      <trkpt lat="49.19169" lon="6.96186">
        <ele>318</ele>
        <time>2011-05-08T08:14:50Z</time>
      </trkpt>
      <trkpt lat="49.19169" lon="6.96183">
        <ele>318</ele>
        <time>2011-05-08T08:14:51Z</time>
      </trkpt>
      <trkpt lat="49.19169" lon="6.96181">
        <ele>318</ele>
        <time>2011-05-08T08:14:52Z</time>
      </trkpt>
      <trkpt lat="49.1917" lon="6.96179">
        <ele>318</ele>
        <time>2011-05-08T08:14:53Z</time>
      </trkpt>
      <trkpt lat="49.1917" lon="6.96177">
        <ele>318</ele>
        <time>2011-05-08T08:14:54Z</time>
      </trkpt>
      <trkpt lat="49.1917" lon="6.96175">
        <ele>318</ele>
        <time>2011-05-08T08:14:55Z</time>
      </trkpt>
      <trkpt lat="49.1917" lon="6.96173">
        <ele>318</ele>
        <time>2011-05-08T08:14:56Z</time>
      </trkpt>
      <trkpt lat="49.1917" lon="6.9617">
        <ele>318</ele>
        <time>2011-05-08T08:14:58Z</time>
      </trkpt>
      <trkpt lat="49.1917" lon="6.96168">
        <ele>318</ele>
        <time>2011-05-08T08:14:59Z</time>
      </trkpt>
      <trkpt lat="49.19171" lon="6.96166">
        <ele>318</ele>
        <time>2011-05-08T08:15:00Z</time>
      </trkpt>
      <trkpt lat="49.19171" lon="6.96165">
        <ele>318</ele>
        <time>2011-05-08T08:15:01Z</time>
      </trkpt>
      <trkpt lat="49.19171" lon="6.96163">
        <ele>318</ele>
        <time>2011-05-08T08:15:02Z</time>
      </trkpt>
      <trkpt lat="49.19171" lon="6.9616">
        <ele>318</ele>
        <time>2011-05-08T08:15:03Z</time>
      </trkpt>
      <trkpt lat="49.19172" lon="6.96158">
        <ele>318</ele>
        <time>2011-05-08T08:15:04Z</time>
      </trkpt>
      <trkpt lat="49.19172" lon="6.96154">
        <ele>318</ele>
        <time>2011-05-08T08:15:06Z</time>
      </trkpt>
      <trkpt lat="49.19172" lon="6.96153">
        <ele>318</ele>
        <time>2011-05-08T08:15:07Z</time>
      </trkpt>
      <trkpt lat="49.19171" lon="6.96151">
        <ele>318</ele>
        <time>2011-05-08T08:15:08Z</time>
      </trkpt>
      <trkpt lat="49.19169" lon="6.96148">
        <ele>318</ele>
        <time>2011-05-08T08:15:10Z</time>
      </trkpt>
      <trkpt lat="49.19167" lon="6.96145">
        <ele>318</ele>
        <time>2011-05-08T08:15:12Z</time>
      </trkpt>
      <trkpt lat="49.19165" lon="6.96143">
        <ele>318</ele>
        <time>2011-05-08T08:15:14Z</time>
      </trkpt>
      <trkpt lat="49.19164" lon="6.96141">
        <ele>318</ele>
        <time>2011-05-08T08:15:15Z</time>
      </trkpt>
      <trkpt lat="49.19162" lon="6.96141">
        <ele>318</ele>
        <time>2011-05-08T08:15:16Z</time>
      </trkpt>
      <trkpt lat="49.19161" lon="6.9614">
        <ele>318</ele>
        <time>2011-05-08T08:15:17Z</time>
      </trkpt>
      <trkpt lat="49.1916" lon="6.96138">
        <ele>318</ele>
        <time>2011-05-08T08:15:18Z</time>
      </trkpt>
      <trkpt lat="49.1916" lon="6.96138">
        <ele>318</ele>
        <time>2011-05-08T08:15:19Z</time>
      </trkpt>
    </trkseg>
  </trk>
</gpx>